<?xml version="1.0" encoding="UTF-8" standalone="no" ?>
<gpx xmlns="http://www.topografix.com/GPX/1/1" xmlns:xsi="http://www.w3.org/2001/XMLSchema-instance" xsi:schemaLocation="http://www.topografix.com/GPX/1/1 http://www.topografix.com/GPX/1/1/gpx.xsd" version="1.1" creator="VisuGPX - https://www.visugpx.com">
  <metadata>
    <name>Rando au départ de Courmes</name>
    <desc><![CDATA[Belle rando VTT au départ de Courmes.
La remontée de Tourette vers le col est un portage]]></desc>
  </metadata>
  <wpt lat="43.74359" lon="7.00851">
    <ele>624</ele>
    <name><![CDATA[Start]]></name>
    <desc><![CDATA[2011-07-24 06:57:09]]></desc>
  </wpt>
  <wpt lat="43.71641" lon="7.04563">
    <ele>667.1</ele>
    <name><![CDATA[Lap 1]]></name>
    <desc><![CDATA[10.68km, 132:07, 4.8kph]]></desc>
  </wpt>
  <wpt lat="43.74355" lon="7.00895">
    <ele>628.5</ele>
    <name><![CDATA[Lap 2]]></name>
    <desc><![CDATA[17.32km, 187:02, 5.6kph]]></desc>
  </wpt>
  <trk>
    <name><![CDATA[VTT Courmes]]></name>
    <desc><![CDATA[319:09 - 28.0km]]></desc>
    <trkseg>
      <trkpt lat="43.74361" lon="7.00856">
        <ele>548.0888672</ele>
        <time>2011-07-24T06:57:09Z</time>
      </trkpt>
      <trkpt lat="43.74363" lon="7.00857">
        <ele>561.0666504</ele>
        <time>2011-07-24T06:57:11Z</time>
      </trkpt>
      <trkpt lat="43.74364" lon="7.0087">
        <ele>573.5639648</ele>
        <time>2011-07-24T06:57:17Z</time>
      </trkpt>
      <trkpt lat="43.74369" lon="7.00877">
        <ele>570.1989746</ele>
        <time>2011-07-24T06:57:21Z</time>
      </trkpt>
      <trkpt lat="43.74371" lon="7.00877">
        <ele>569.7185059</ele>
        <time>2011-07-24T06:57:22Z</time>
      </trkpt>
      <trkpt lat="43.74388" lon="7.00881">
        <ele>570.6796875</ele>
        <time>2011-07-24T06:57:28Z</time>
      </trkpt>
      <trkpt lat="43.74389" lon="7.00882">
        <ele>571.6408691</ele>
        <time>2011-07-24T06:57:33Z</time>
      </trkpt>
      <trkpt lat="43.74393" lon="7.00888">
        <ele>574.5251465</ele>
        <time>2011-07-24T06:57:37Z</time>
      </trkpt>
      <trkpt lat="43.74394" lon="7.00906">
        <ele>578.3703613</ele>
        <time>2011-07-24T06:57:43Z</time>
      </trkpt>
      <trkpt lat="43.74393" lon="7.00908">
        <ele>581.7348633</ele>
        <time>2011-07-24T06:57:48Z</time>
      </trkpt>
      <trkpt lat="43.74394" lon="7.00912">
        <ele>583.6574707</ele>
        <time>2011-07-24T06:58:00Z</time>
      </trkpt>
      <trkpt lat="43.74391" lon="7.00932">
        <ele>614.9003906</ele>
        <time>2011-07-24T06:58:05Z</time>
      </trkpt>
      <trkpt lat="43.7439" lon="7.00938">
        <ele>627.3977051</ele>
        <time>2011-07-24T06:58:09Z</time>
      </trkpt>
      <trkpt lat="43.7439" lon="7.0094">
        <ele>631.2429199</ele>
        <time>2011-07-24T06:58:12Z</time>
      </trkpt>
      <trkpt lat="43.7439" lon="7.00941">
        <ele>631.7233887</ele>
        <time>2011-07-24T06:58:13Z</time>
      </trkpt>
      <trkpt lat="43.74389" lon="7.00941">
        <ele>632.2041016</ele>
        <time>2011-07-24T06:58:14Z</time>
      </trkpt>
      <trkpt lat="43.74388" lon="7.00942">
        <ele>633.1652832</ele>
        <time>2011-07-24T06:58:21Z</time>
      </trkpt>
      <trkpt lat="43.74388" lon="7.00944">
        <ele>633.1652832</ele>
        <time>2011-07-24T06:58:23Z</time>
      </trkpt>
      <trkpt lat="43.74383" lon="7.00951">
        <ele>634.6074219</ele>
        <time>2011-07-24T06:58:27Z</time>
      </trkpt>
      <trkpt lat="43.74377" lon="7.00956">
        <ele>637.4914551</ele>
        <time>2011-07-24T06:58:31Z</time>
      </trkpt>
      <trkpt lat="43.74365" lon="7.00971">
        <ele>635.5686035</ele>
        <time>2011-07-24T06:58:40Z</time>
      </trkpt>
      <trkpt lat="43.7436" lon="7.00983">
        <ele>638.9335938</ele>
        <time>2011-07-24T06:58:47Z</time>
      </trkpt>
      <trkpt lat="43.74353" lon="7.00991">
        <ele>641.3366699</ele>
        <time>2011-07-24T06:58:53Z</time>
      </trkpt>
      <trkpt lat="43.74346" lon="7.01">
        <ele>640.855957</ele>
        <time>2011-07-24T06:59:01Z</time>
      </trkpt>
      <trkpt lat="43.7434" lon="7.01005">
        <ele>642.7788086</ele>
        <time>2011-07-24T06:59:07Z</time>
      </trkpt>
      <trkpt lat="43.74337" lon="7.01009">
        <ele>645.6625977</ele>
        <time>2011-07-24T06:59:11Z</time>
      </trkpt>
      <trkpt lat="43.74334" lon="7.01012">
        <ele>648.065918</ele>
        <time>2011-07-24T06:59:14Z</time>
      </trkpt>
      <trkpt lat="43.74331" lon="7.01018">
        <ele>658.1599121</ele>
        <time>2011-07-24T06:59:23Z</time>
      </trkpt>
      <trkpt lat="43.74328" lon="7.01021">
        <ele>660.5629883</ele>
        <time>2011-07-24T06:59:29Z</time>
      </trkpt>
      <trkpt lat="43.74323" lon="7.01026">
        <ele>656.7177734</ele>
        <time>2011-07-24T06:59:36Z</time>
      </trkpt>
      <trkpt lat="43.7432" lon="7.01032">
        <ele>656.2370605</ele>
        <time>2011-07-24T06:59:40Z</time>
      </trkpt>
      <trkpt lat="43.74312" lon="7.01042">
        <ele>655.2758789</ele>
        <time>2011-07-24T06:59:49Z</time>
      </trkpt>
      <trkpt lat="43.74307" lon="7.0105">
        <ele>655.7565918</ele>
        <time>2011-07-24T06:59:56Z</time>
      </trkpt>
      <trkpt lat="43.743" lon="7.01057">
        <ele>657.1984863</ele>
        <time>2011-07-24T07:00:04Z</time>
      </trkpt>
      <trkpt lat="43.74299" lon="7.01058">
        <ele>657.6791992</ele>
        <time>2011-07-24T07:00:05Z</time>
      </trkpt>
      <trkpt lat="43.74294" lon="7.01063">
        <ele>659.1210938</ele>
        <time>2011-07-24T07:00:10Z</time>
      </trkpt>
      <trkpt lat="43.74288" lon="7.01071">
        <ele>663.9274902</ele>
        <time>2011-07-24T07:00:19Z</time>
      </trkpt>
      <trkpt lat="43.74287" lon="7.01074">
        <ele>663.4470215</ele>
        <time>2011-07-24T07:00:26Z</time>
      </trkpt>
      <trkpt lat="43.74284" lon="7.01081">
        <ele>663.4470215</ele>
        <time>2011-07-24T07:00:31Z</time>
      </trkpt>
      <trkpt lat="43.74281" lon="7.01085">
        <ele>663.4470215</ele>
        <time>2011-07-24T07:00:35Z</time>
      </trkpt>
      <trkpt lat="43.74277" lon="7.01092">
        <ele>664.888916</ele>
        <time>2011-07-24T07:00:41Z</time>
      </trkpt>
      <trkpt lat="43.74276" lon="7.01094">
        <ele>665.3696289</ele>
        <time>2011-07-24T07:00:43Z</time>
      </trkpt>
      <trkpt lat="43.74272" lon="7.01105">
        <ele>664.4082031</ele>
        <time>2011-07-24T07:00:52Z</time>
      </trkpt>
      <trkpt lat="43.7427" lon="7.01107">
        <ele>665.8503418</ele>
        <time>2011-07-24T07:00:54Z</time>
      </trkpt>
      <trkpt lat="43.74262" lon="7.01113">
        <ele>667.7727051</ele>
        <time>2011-07-24T07:01:02Z</time>
      </trkpt>
      <trkpt lat="43.74255" lon="7.01118">
        <ele>668.734375</ele>
        <time>2011-07-24T07:01:10Z</time>
      </trkpt>
      <trkpt lat="43.74248" lon="7.01121">
        <ele>668.2536621</ele>
        <time>2011-07-24T07:01:17Z</time>
      </trkpt>
      <trkpt lat="43.74243" lon="7.01127">
        <ele>669.2150879</ele>
        <time>2011-07-24T07:01:22Z</time>
      </trkpt>
      <trkpt lat="43.74232" lon="7.01134">
        <ele>672.098877</ele>
        <time>2011-07-24T07:01:32Z</time>
      </trkpt>
      <trkpt lat="43.74223" lon="7.01139">
        <ele>673.5410156</ele>
        <time>2011-07-24T07:01:41Z</time>
      </trkpt>
      <trkpt lat="43.74213" lon="7.01144">
        <ele>675.9440918</ele>
        <time>2011-07-24T07:01:50Z</time>
      </trkpt>
      <trkpt lat="43.74204" lon="7.01148">
        <ele>678.828125</ele>
        <time>2011-07-24T07:01:59Z</time>
      </trkpt>
      <trkpt lat="43.74196" lon="7.01153">
        <ele>680.7507324</ele>
        <time>2011-07-24T07:02:07Z</time>
      </trkpt>
      <trkpt lat="43.74189" lon="7.01158">
        <ele>681.2314453</ele>
        <time>2011-07-24T07:02:15Z</time>
      </trkpt>
      <trkpt lat="43.74184" lon="7.01162">
        <ele>681.7119141</ele>
        <time>2011-07-24T07:02:21Z</time>
      </trkpt>
      <trkpt lat="43.74176" lon="7.01168">
        <ele>682.6733398</ele>
        <time>2011-07-24T07:02:31Z</time>
      </trkpt>
      <trkpt lat="43.7417" lon="7.01173">
        <ele>683.1538086</ele>
        <time>2011-07-24T07:02:38Z</time>
      </trkpt>
      <trkpt lat="43.74163" lon="7.0118">
        <ele>685.0769043</ele>
        <time>2011-07-24T07:02:46Z</time>
      </trkpt>
      <trkpt lat="43.74157" lon="7.01187">
        <ele>687.4799805</ele>
        <time>2011-07-24T07:02:53Z</time>
      </trkpt>
      <trkpt lat="43.7415" lon="7.01193">
        <ele>689.8833008</ele>
        <time>2011-07-24T07:03:00Z</time>
      </trkpt>
      <trkpt lat="43.74146" lon="7.01197">
        <ele>691.3251953</ele>
        <time>2011-07-24T07:03:05Z</time>
      </trkpt>
      <trkpt lat="43.74144" lon="7.01197">
        <ele>691.8059082</ele>
        <time>2011-07-24T07:03:07Z</time>
      </trkpt>
      <trkpt lat="43.74138" lon="7.01202">
        <ele>694.6896973</ele>
        <time>2011-07-24T07:03:15Z</time>
      </trkpt>
      <trkpt lat="43.74134" lon="7.01202">
        <ele>696.1318359</ele>
        <time>2011-07-24T07:03:20Z</time>
      </trkpt>
      <trkpt lat="43.74134" lon="7.01202">
        <ele>697.0930176</ele>
        <time>2011-07-24T07:03:26Z</time>
      </trkpt>
      <trkpt lat="43.74134" lon="7.01202">
        <ele>699.9770508</ele>
        <time>2011-07-24T07:03:40Z</time>
      </trkpt>
      <trkpt lat="43.74134" lon="7.01201">
        <ele>699.9770508</ele>
        <time>2011-07-24T07:03:47Z</time>
      </trkpt>
      <trkpt lat="43.74134" lon="7.01202">
        <ele>701.8999023</ele>
        <time>2011-07-24T07:03:56Z</time>
      </trkpt>
      <trkpt lat="43.74133" lon="7.01203">
        <ele>705.7451172</ele>
        <time>2011-07-24T07:04:09Z</time>
      </trkpt>
      <trkpt lat="43.74131" lon="7.01205">
        <ele>704.7836914</ele>
        <time>2011-07-24T07:04:16Z</time>
      </trkpt>
      <trkpt lat="43.7413" lon="7.01207">
        <ele>700.9384766</ele>
        <time>2011-07-24T07:04:29Z</time>
      </trkpt>
      <trkpt lat="43.7413" lon="7.01206">
        <ele>698.5349121</ele>
        <time>2011-07-24T07:04:37Z</time>
      </trkpt>
      <trkpt lat="43.74131" lon="7.01209">
        <ele>703.3417969</ele>
        <time>2011-07-24T07:04:55Z</time>
      </trkpt>
      <trkpt lat="43.74132" lon="7.01209">
        <ele>708.1484375</ele>
        <time>2011-07-24T07:05:02Z</time>
      </trkpt>
      <trkpt lat="43.74133" lon="7.01208">
        <ele>709.1096191</ele>
        <time>2011-07-24T07:05:15Z</time>
      </trkpt>
      <trkpt lat="43.7413" lon="7.01203">
        <ele>711.5129395</ele>
        <time>2011-07-24T07:05:20Z</time>
      </trkpt>
      <trkpt lat="43.74128" lon="7.01199">
        <ele>710.5515137</ele>
        <time>2011-07-24T07:05:23Z</time>
      </trkpt>
      <trkpt lat="43.74124" lon="7.01185">
        <ele>708.6289063</ele>
        <time>2011-07-24T07:05:31Z</time>
      </trkpt>
      <trkpt lat="43.74123" lon="7.01173">
        <ele>707.1870117</ele>
        <time>2011-07-24T07:05:38Z</time>
      </trkpt>
      <trkpt lat="43.74119" lon="7.0117">
        <ele>706.2255859</ele>
        <time>2011-07-24T07:05:42Z</time>
      </trkpt>
      <trkpt lat="43.74114" lon="7.01177">
        <ele>705.2644043</ele>
        <time>2011-07-24T07:05:50Z</time>
      </trkpt>
      <trkpt lat="43.74114" lon="7.01179">
        <ele>704.7836914</ele>
        <time>2011-07-24T07:05:51Z</time>
      </trkpt>
      <trkpt lat="43.74113" lon="7.01195">
        <ele>705.2644043</ele>
        <time>2011-07-24T07:05:59Z</time>
      </trkpt>
      <trkpt lat="43.74114" lon="7.01209">
        <ele>704.7836914</ele>
        <time>2011-07-24T07:06:06Z</time>
      </trkpt>
      <trkpt lat="43.74118" lon="7.01224">
        <ele>705.7451172</ele>
        <time>2011-07-24T07:06:15Z</time>
      </trkpt>
      <trkpt lat="43.74123" lon="7.01232">
        <ele>706.2255859</ele>
        <time>2011-07-24T07:06:22Z</time>
      </trkpt>
      <trkpt lat="43.7413" lon="7.0124">
        <ele>705.2644043</ele>
        <time>2011-07-24T07:06:30Z</time>
      </trkpt>
      <trkpt lat="43.74136" lon="7.01244">
        <ele>704.7836914</ele>
        <time>2011-07-24T07:06:36Z</time>
      </trkpt>
      <trkpt lat="43.74149" lon="7.01254">
        <ele>704.3032227</ele>
        <time>2011-07-24T07:06:46Z</time>
      </trkpt>
      <trkpt lat="43.74158" lon="7.01265">
        <ele>704.3032227</ele>
        <time>2011-07-24T07:06:54Z</time>
      </trkpt>
      <trkpt lat="43.74167" lon="7.01274">
        <ele>706.2255859</ele>
        <time>2011-07-24T07:07:02Z</time>
      </trkpt>
      <trkpt lat="43.74175" lon="7.01281">
        <ele>709.1096191</ele>
        <time>2011-07-24T07:07:09Z</time>
      </trkpt>
      <trkpt lat="43.74177" lon="7.01289">
        <ele>711.0322266</ele>
        <time>2011-07-24T07:07:14Z</time>
      </trkpt>
      <trkpt lat="43.74173" lon="7.01294">
        <ele>712.4741211</ele>
        <time>2011-07-24T07:07:19Z</time>
      </trkpt>
      <trkpt lat="43.74163" lon="7.01297">
        <ele>713.4355469</ele>
        <time>2011-07-24T07:07:28Z</time>
      </trkpt>
      <trkpt lat="43.74151" lon="7.01299">
        <ele>714.3967285</ele>
        <time>2011-07-24T07:07:37Z</time>
      </trkpt>
      <trkpt lat="43.74143" lon="7.01302">
        <ele>714.8774414</ele>
        <time>2011-07-24T07:07:43Z</time>
      </trkpt>
      <trkpt lat="43.74135" lon="7.01304">
        <ele>716.800293</ele>
        <time>2011-07-24T07:07:50Z</time>
      </trkpt>
      <trkpt lat="43.74128" lon="7.01308">
        <ele>719.2036133</ele>
        <time>2011-07-24T07:07:57Z</time>
      </trkpt>
      <trkpt lat="43.74122" lon="7.01308">
        <ele>722.0874023</ele>
        <time>2011-07-24T07:08:05Z</time>
      </trkpt>
      <trkpt lat="43.74116" lon="7.01303">
        <ele>724.0100098</ele>
        <time>2011-07-24T07:08:10Z</time>
      </trkpt>
      <trkpt lat="43.74105" lon="7.01292">
        <ele>724.4907227</ele>
        <time>2011-07-24T07:08:18Z</time>
      </trkpt>
      <trkpt lat="43.74086" lon="7.01279">
        <ele>723.0488281</ele>
        <time>2011-07-24T07:08:25Z</time>
      </trkpt>
      <trkpt lat="43.74068" lon="7.01268">
        <ele>722.0874023</ele>
        <time>2011-07-24T07:08:31Z</time>
      </trkpt>
      <trkpt lat="43.7405" lon="7.01256">
        <ele>724.9714355</ele>
        <time>2011-07-24T07:08:39Z</time>
      </trkpt>
      <trkpt lat="43.74038" lon="7.01252">
        <ele>725.9326172</ele>
        <time>2011-07-24T07:08:46Z</time>
      </trkpt>
      <trkpt lat="43.74027" lon="7.01257">
        <ele>725.9326172</ele>
        <time>2011-07-24T07:08:52Z</time>
      </trkpt>
      <trkpt lat="43.74016" lon="7.01263">
        <ele>727.3747559</ele>
        <time>2011-07-24T07:08:59Z</time>
      </trkpt>
      <trkpt lat="43.73998" lon="7.01277">
        <ele>726.894043</ele>
        <time>2011-07-24T07:09:11Z</time>
      </trkpt>
      <trkpt lat="43.73987" lon="7.01284">
        <ele>725.9326172</ele>
        <time>2011-07-24T07:09:18Z</time>
      </trkpt>
      <trkpt lat="43.73978" lon="7.01287">
        <ele>724.9714355</ele>
        <time>2011-07-24T07:09:24Z</time>
      </trkpt>
      <trkpt lat="43.73969" lon="7.01284">
        <ele>726.894043</ele>
        <time>2011-07-24T07:09:30Z</time>
      </trkpt>
      <trkpt lat="43.73962" lon="7.01283">
        <ele>728.3359375</ele>
        <time>2011-07-24T07:09:36Z</time>
      </trkpt>
      <trkpt lat="43.73957" lon="7.01284">
        <ele>728.8166504</ele>
        <time>2011-07-24T07:09:41Z</time>
      </trkpt>
      <trkpt lat="43.7395" lon="7.0129">
        <ele>729.2971191</ele>
        <time>2011-07-24T07:09:48Z</time>
      </trkpt>
      <trkpt lat="43.73947" lon="7.01297">
        <ele>729.777832</ele>
        <time>2011-07-24T07:09:53Z</time>
      </trkpt>
      <trkpt lat="43.73941" lon="7.01299">
        <ele>729.2971191</ele>
        <time>2011-07-24T07:09:58Z</time>
      </trkpt>
      <trkpt lat="43.73932" lon="7.01303">
        <ele>731.7004395</ele>
        <time>2011-07-24T07:10:07Z</time>
      </trkpt>
      <trkpt lat="43.73923" lon="7.01303">
        <ele>733.1425781</ele>
        <time>2011-07-24T07:10:15Z</time>
      </trkpt>
      <trkpt lat="43.73914" lon="7.01305">
        <ele>735.5458984</ele>
        <time>2011-07-24T07:10:23Z</time>
      </trkpt>
      <trkpt lat="43.73905" lon="7.01306">
        <ele>736.5073242</ele>
        <time>2011-07-24T07:10:31Z</time>
      </trkpt>
      <trkpt lat="43.73897" lon="7.01308">
        <ele>737.4685059</ele>
        <time>2011-07-24T07:10:39Z</time>
      </trkpt>
      <trkpt lat="43.73888" lon="7.01309">
        <ele>738.4299316</ele>
        <time>2011-07-24T07:10:47Z</time>
      </trkpt>
      <trkpt lat="43.73883" lon="7.0131">
        <ele>738.9106445</ele>
        <time>2011-07-24T07:10:51Z</time>
      </trkpt>
      <trkpt lat="43.73878" lon="7.01307">
        <ele>740.3525391</ele>
        <time>2011-07-24T07:10:57Z</time>
      </trkpt>
      <trkpt lat="43.73875" lon="7.01307">
        <ele>741.3137207</ele>
        <time>2011-07-24T07:11:02Z</time>
      </trkpt>
      <trkpt lat="43.73871" lon="7.01306">
        <ele>741.3137207</ele>
        <time>2011-07-24T07:11:07Z</time>
      </trkpt>
      <trkpt lat="43.73864" lon="7.01306">
        <ele>741.3137207</ele>
        <time>2011-07-24T07:11:14Z</time>
      </trkpt>
      <trkpt lat="43.73862" lon="7.01305">
        <ele>741.7944336</ele>
        <time>2011-07-24T07:11:19Z</time>
      </trkpt>
      <trkpt lat="43.73861" lon="7.01305">
        <ele>743.2363281</ele>
        <time>2011-07-24T07:11:28Z</time>
      </trkpt>
      <trkpt lat="43.7386" lon="7.01305">
        <ele>743.717041</ele>
        <time>2011-07-24T07:11:39Z</time>
      </trkpt>
      <trkpt lat="43.73859" lon="7.01303">
        <ele>744.6782227</ele>
        <time>2011-07-24T07:11:51Z</time>
      </trkpt>
      <trkpt lat="43.73858" lon="7.01303">
        <ele>745.1589355</ele>
        <time>2011-07-24T07:11:57Z</time>
      </trkpt>
      <trkpt lat="43.73857" lon="7.01302">
        <ele>744.6782227</ele>
        <time>2011-07-24T07:12:07Z</time>
      </trkpt>
      <trkpt lat="43.73857" lon="7.01303">
        <ele>743.717041</ele>
        <time>2011-07-24T07:12:16Z</time>
      </trkpt>
      <trkpt lat="43.73857" lon="7.01302">
        <ele>743.2363281</ele>
        <time>2011-07-24T07:12:24Z</time>
      </trkpt>
      <trkpt lat="43.73853" lon="7.01301">
        <ele>744.1977539</ele>
        <time>2011-07-24T07:12:35Z</time>
      </trkpt>
      <trkpt lat="43.73851" lon="7.013">
        <ele>744.1977539</ele>
        <time>2011-07-24T07:12:37Z</time>
      </trkpt>
      <trkpt lat="43.73841" lon="7.01303">
        <ele>743.2363281</ele>
        <time>2011-07-24T07:12:42Z</time>
      </trkpt>
      <trkpt lat="43.73829" lon="7.01311">
        <ele>741.7944336</ele>
        <time>2011-07-24T07:12:46Z</time>
      </trkpt>
      <trkpt lat="43.73815" lon="7.01335">
        <ele>740.8330078</ele>
        <time>2011-07-24T07:12:52Z</time>
      </trkpt>
      <trkpt lat="43.73809" lon="7.01356">
        <ele>740.8330078</ele>
        <time>2011-07-24T07:12:57Z</time>
      </trkpt>
      <trkpt lat="43.73807" lon="7.0136">
        <ele>741.3137207</ele>
        <time>2011-07-24T07:13:01Z</time>
      </trkpt>
      <trkpt lat="43.73804" lon="7.01365">
        <ele>741.3137207</ele>
        <time>2011-07-24T07:13:06Z</time>
      </trkpt>
      <trkpt lat="43.73801" lon="7.01371">
        <ele>740.8330078</ele>
        <time>2011-07-24T07:13:12Z</time>
      </trkpt>
      <trkpt lat="43.73796" lon="7.01374">
        <ele>744.1977539</ele>
        <time>2011-07-24T07:13:20Z</time>
      </trkpt>
      <trkpt lat="43.73793" lon="7.01377">
        <ele>746.6010742</ele>
        <time>2011-07-24T07:13:27Z</time>
      </trkpt>
      <trkpt lat="43.73789" lon="7.0138">
        <ele>751.8884277</ele>
        <time>2011-07-24T07:13:36Z</time>
      </trkpt>
      <trkpt lat="43.73787" lon="7.0138">
        <ele>753.3303223</ele>
        <time>2011-07-24T07:13:42Z</time>
      </trkpt>
      <trkpt lat="43.73781" lon="7.01378">
        <ele>754.291748</ele>
        <time>2011-07-24T07:13:51Z</time>
      </trkpt>
      <trkpt lat="43.73778" lon="7.01378">
        <ele>754.291748</ele>
        <time>2011-07-24T07:13:56Z</time>
      </trkpt>
      <trkpt lat="43.73775" lon="7.01378">
        <ele>755.7336426</ele>
        <time>2011-07-24T07:14:03Z</time>
      </trkpt>
      <trkpt lat="43.73772" lon="7.01377">
        <ele>758.1369629</ele>
        <time>2011-07-24T07:14:10Z</time>
      </trkpt>
      <trkpt lat="43.73769" lon="7.01377">
        <ele>761.020752</ele>
        <time>2011-07-24T07:14:18Z</time>
      </trkpt>
      <trkpt lat="43.73765" lon="7.01377">
        <ele>762.4626465</ele>
        <time>2011-07-24T07:14:24Z</time>
      </trkpt>
      <trkpt lat="43.73759" lon="7.01378">
        <ele>761.9821777</ele>
        <time>2011-07-24T07:14:31Z</time>
      </trkpt>
      <trkpt lat="43.73755" lon="7.01379">
        <ele>760.0593262</ele>
        <time>2011-07-24T07:14:37Z</time>
      </trkpt>
      <trkpt lat="43.73752" lon="7.01381">
        <ele>759.0981445</ele>
        <time>2011-07-24T07:14:43Z</time>
      </trkpt>
      <trkpt lat="43.73749" lon="7.01382">
        <ele>759.0981445</ele>
        <time>2011-07-24T07:14:50Z</time>
      </trkpt>
      <trkpt lat="43.73747" lon="7.01385">
        <ele>760.0593262</ele>
        <time>2011-07-24T07:14:55Z</time>
      </trkpt>
      <trkpt lat="43.73742" lon="7.01386">
        <ele>761.020752</ele>
        <time>2011-07-24T07:15:02Z</time>
      </trkpt>
      <trkpt lat="43.73738" lon="7.01389">
        <ele>762.9433594</ele>
        <time>2011-07-24T07:15:08Z</time>
      </trkpt>
      <trkpt lat="43.73734" lon="7.0139">
        <ele>762.9433594</ele>
        <time>2011-07-24T07:15:15Z</time>
      </trkpt>
      <trkpt lat="43.73731" lon="7.01387">
        <ele>764.8662109</ele>
        <time>2011-07-24T07:15:20Z</time>
      </trkpt>
      <trkpt lat="43.73729" lon="7.01388">
        <ele>763.904541</ele>
        <time>2011-07-24T07:15:25Z</time>
      </trkpt>
      <trkpt lat="43.73724" lon="7.01387">
        <ele>761.020752</ele>
        <time>2011-07-24T07:15:33Z</time>
      </trkpt>
      <trkpt lat="43.73721" lon="7.01388">
        <ele>760.5400391</ele>
        <time>2011-07-24T07:15:39Z</time>
      </trkpt>
      <trkpt lat="43.73716" lon="7.01389">
        <ele>761.5014648</ele>
        <time>2011-07-24T07:15:46Z</time>
      </trkpt>
      <trkpt lat="43.73711" lon="7.01392">
        <ele>763.4240723</ele>
        <time>2011-07-24T07:15:54Z</time>
      </trkpt>
      <trkpt lat="43.73706" lon="7.01397">
        <ele>763.4240723</ele>
        <time>2011-07-24T07:16:01Z</time>
      </trkpt>
      <trkpt lat="43.73702" lon="7.014">
        <ele>762.9433594</ele>
        <time>2011-07-24T07:16:08Z</time>
      </trkpt>
      <trkpt lat="43.73699" lon="7.014">
        <ele>764.385498</ele>
        <time>2011-07-24T07:16:14Z</time>
      </trkpt>
      <trkpt lat="43.73695" lon="7.014">
        <ele>767.2695313</ele>
        <time>2011-07-24T07:16:20Z</time>
      </trkpt>
      <trkpt lat="43.73692" lon="7.01405">
        <ele>767.2695313</ele>
        <time>2011-07-24T07:16:27Z</time>
      </trkpt>
      <trkpt lat="43.73689" lon="7.01409">
        <ele>766.3081055</ele>
        <time>2011-07-24T07:16:33Z</time>
      </trkpt>
      <trkpt lat="43.73686" lon="7.01413">
        <ele>766.3081055</ele>
        <time>2011-07-24T07:16:40Z</time>
      </trkpt>
      <trkpt lat="43.73682" lon="7.01417">
        <ele>769.1921387</ele>
        <time>2011-07-24T07:16:47Z</time>
      </trkpt>
      <trkpt lat="43.73678" lon="7.01415">
        <ele>771.5952148</ele>
        <time>2011-07-24T07:16:54Z</time>
      </trkpt>
      <trkpt lat="43.73677" lon="7.01411">
        <ele>772.5566406</ele>
        <time>2011-07-24T07:17:01Z</time>
      </trkpt>
      <trkpt lat="43.73674" lon="7.01409">
        <ele>773.5180664</ele>
        <time>2011-07-24T07:17:06Z</time>
      </trkpt>
      <trkpt lat="43.73672" lon="7.01405">
        <ele>775.9211426</ele>
        <time>2011-07-24T07:17:12Z</time>
      </trkpt>
      <trkpt lat="43.73668" lon="7.01398">
        <ele>778.3244629</ele>
        <time>2011-07-24T07:17:21Z</time>
      </trkpt>
      <trkpt lat="43.73666" lon="7.01392">
        <ele>778.8051758</ele>
        <time>2011-07-24T07:17:28Z</time>
      </trkpt>
      <trkpt lat="43.73664" lon="7.01387">
        <ele>778.8051758</ele>
        <time>2011-07-24T07:17:36Z</time>
      </trkpt>
      <trkpt lat="43.7366" lon="7.01382">
        <ele>780.2473145</ele>
        <time>2011-07-24T07:17:43Z</time>
      </trkpt>
      <trkpt lat="43.73658" lon="7.01379">
        <ele>779.2856445</ele>
        <time>2011-07-24T07:17:49Z</time>
      </trkpt>
      <trkpt lat="43.73652" lon="7.01375">
        <ele>780.7280273</ele>
        <time>2011-07-24T07:17:56Z</time>
      </trkpt>
      <trkpt lat="43.73647" lon="7.0137">
        <ele>783.1311035</ele>
        <time>2011-07-24T07:18:04Z</time>
      </trkpt>
      <trkpt lat="43.73648" lon="7.01369">
        <ele>784.5732422</ele>
        <time>2011-07-24T07:18:12Z</time>
      </trkpt>
      <trkpt lat="43.73646" lon="7.01371">
        <ele>786.4958496</ele>
        <time>2011-07-24T07:18:27Z</time>
      </trkpt>
      <trkpt lat="43.73647" lon="7.0137">
        <ele>788.8991699</ele>
        <time>2011-07-24T07:18:31Z</time>
      </trkpt>
      <trkpt lat="43.73649" lon="7.01368">
        <ele>792.2636719</ele>
        <time>2011-07-24T07:18:38Z</time>
      </trkpt>
      <trkpt lat="43.7365" lon="7.01366">
        <ele>794.1862793</ele>
        <time>2011-07-24T07:18:42Z</time>
      </trkpt>
      <trkpt lat="43.73649" lon="7.01366">
        <ele>793.2248535</ele>
        <time>2011-07-24T07:18:47Z</time>
      </trkpt>
      <trkpt lat="43.73646" lon="7.01367">
        <ele>790.3410645</ele>
        <time>2011-07-24T07:18:55Z</time>
      </trkpt>
      <trkpt lat="43.73645" lon="7.01368">
        <ele>788.418457</ele>
        <time>2011-07-24T07:19:03Z</time>
      </trkpt>
      <trkpt lat="43.73645" lon="7.01369">
        <ele>786.4958496</ele>
        <time>2011-07-24T07:19:09Z</time>
      </trkpt>
      <trkpt lat="43.73644" lon="7.0137">
        <ele>785.0539551</ele>
        <time>2011-07-24T07:19:18Z</time>
      </trkpt>
      <trkpt lat="43.73642" lon="7.01369">
        <ele>785.0539551</ele>
        <time>2011-07-24T07:19:31Z</time>
      </trkpt>
      <trkpt lat="43.73641" lon="7.0137">
        <ele>785.0539551</ele>
        <time>2011-07-24T07:19:37Z</time>
      </trkpt>
      <trkpt lat="43.73641" lon="7.01374">
        <ele>784.5732422</ele>
        <time>2011-07-24T07:19:42Z</time>
      </trkpt>
      <trkpt lat="43.73642" lon="7.0138">
        <ele>783.1311035</ele>
        <time>2011-07-24T07:19:46Z</time>
      </trkpt>
      <trkpt lat="43.73645" lon="7.01395">
        <ele>783.1311035</ele>
        <time>2011-07-24T07:19:53Z</time>
      </trkpt>
      <trkpt lat="43.73643" lon="7.01399">
        <ele>783.6118164</ele>
        <time>2011-07-24T07:19:55Z</time>
      </trkpt>
      <trkpt lat="43.73637" lon="7.0141">
        <ele>785.5344238</ele>
        <time>2011-07-24T07:20:02Z</time>
      </trkpt>
      <trkpt lat="43.73635" lon="7.01417">
        <ele>785.5344238</ele>
        <time>2011-07-24T07:20:06Z</time>
      </trkpt>
      <trkpt lat="43.73635" lon="7.01435">
        <ele>784.0925293</ele>
        <time>2011-07-24T07:20:13Z</time>
      </trkpt>
      <trkpt lat="43.73633" lon="7.01455">
        <ele>785.5344238</ele>
        <time>2011-07-24T07:20:20Z</time>
      </trkpt>
      <trkpt lat="43.73632" lon="7.01456">
        <ele>785.5344238</ele>
        <time>2011-07-24T07:20:21Z</time>
      </trkpt>
      <trkpt lat="43.73624" lon="7.01455">
        <ele>786.0151367</ele>
        <time>2011-07-24T07:20:27Z</time>
      </trkpt>
      <trkpt lat="43.73612" lon="7.01454">
        <ele>786.0151367</ele>
        <time>2011-07-24T07:20:35Z</time>
      </trkpt>
      <trkpt lat="43.736" lon="7.01456">
        <ele>786.0151367</ele>
        <time>2011-07-24T07:20:42Z</time>
      </trkpt>
      <trkpt lat="43.73591" lon="7.01464">
        <ele>785.5344238</ele>
        <time>2011-07-24T07:20:49Z</time>
      </trkpt>
      <trkpt lat="43.73587" lon="7.01467">
        <ele>784.5732422</ele>
        <time>2011-07-24T07:20:52Z</time>
      </trkpt>
      <trkpt lat="43.7358" lon="7.01469">
        <ele>784.0925293</ele>
        <time>2011-07-24T07:20:58Z</time>
      </trkpt>
      <trkpt lat="43.73569" lon="7.01463">
        <ele>787.9377441</ele>
        <time>2011-07-24T07:21:05Z</time>
      </trkpt>
      <trkpt lat="43.73558" lon="7.01457">
        <ele>791.782959</ele>
        <time>2011-07-24T07:21:11Z</time>
      </trkpt>
      <trkpt lat="43.73547" lon="7.01458">
        <ele>793.7055664</ele>
        <time>2011-07-24T07:21:17Z</time>
      </trkpt>
      <trkpt lat="43.73536" lon="7.01464">
        <ele>792.7443848</ele>
        <time>2011-07-24T07:21:24Z</time>
      </trkpt>
      <trkpt lat="43.73529" lon="7.01469">
        <ele>790.3410645</ele>
        <time>2011-07-24T07:21:29Z</time>
      </trkpt>
      <trkpt lat="43.73527" lon="7.0147">
        <ele>790.3410645</ele>
        <time>2011-07-24T07:21:31Z</time>
      </trkpt>
      <trkpt lat="43.73517" lon="7.01474">
        <ele>787.4570313</ele>
        <time>2011-07-24T07:21:38Z</time>
      </trkpt>
      <trkpt lat="43.73506" lon="7.01478">
        <ele>786.4958496</ele>
        <time>2011-07-24T07:21:45Z</time>
      </trkpt>
      <trkpt lat="43.73496" lon="7.01482">
        <ele>785.5344238</ele>
        <time>2011-07-24T07:21:52Z</time>
      </trkpt>
      <trkpt lat="43.73487" lon="7.0148">
        <ele>799.9543457</ele>
        <time>2011-07-24T07:21:59Z</time>
      </trkpt>
      <trkpt lat="43.73484" lon="7.01479">
        <ele>799.9543457</ele>
        <time>2011-07-24T07:22:01Z</time>
      </trkpt>
      <trkpt lat="43.73475" lon="7.01468">
        <ele>803.7995605</ele>
        <time>2011-07-24T07:22:09Z</time>
      </trkpt>
      <trkpt lat="43.73464" lon="7.01462">
        <ele>808.605957</ele>
        <time>2011-07-24T07:22:16Z</time>
      </trkpt>
      <trkpt lat="43.73456" lon="7.01458">
        <ele>808.605957</ele>
        <time>2011-07-24T07:22:22Z</time>
      </trkpt>
      <trkpt lat="43.73453" lon="7.01454">
        <ele>810.0478516</ele>
        <time>2011-07-24T07:22:26Z</time>
      </trkpt>
      <trkpt lat="43.73452" lon="7.01443">
        <ele>810.0478516</ele>
        <time>2011-07-24T07:22:32Z</time>
      </trkpt>
      <trkpt lat="43.73453" lon="7.01432">
        <ele>809.5673828</ele>
        <time>2011-07-24T07:22:38Z</time>
      </trkpt>
      <trkpt lat="43.73453" lon="7.01426">
        <ele>809.5673828</ele>
        <time>2011-07-24T07:22:41Z</time>
      </trkpt>
      <trkpt lat="43.73454" lon="7.01418">
        <ele>805.2414551</ele>
        <time>2011-07-24T07:22:46Z</time>
      </trkpt>
      <trkpt lat="43.73458" lon="7.01396">
        <ele>801.3962402</ele>
        <time>2011-07-24T07:22:52Z</time>
      </trkpt>
      <trkpt lat="43.73464" lon="7.01378">
        <ele>800.9155273</ele>
        <time>2011-07-24T07:22:58Z</time>
      </trkpt>
      <trkpt lat="43.73469" lon="7.01367">
        <ele>798.9929199</ele>
        <time>2011-07-24T07:23:03Z</time>
      </trkpt>
      <trkpt lat="43.7348" lon="7.01358">
        <ele>799.9543457</ele>
        <time>2011-07-24T07:23:09Z</time>
      </trkpt>
      <trkpt lat="43.7349" lon="7.01347">
        <ele>802.3574219</ele>
        <time>2011-07-24T07:23:14Z</time>
      </trkpt>
      <trkpt lat="43.73491" lon="7.01346">
        <ele>802.3574219</ele>
        <time>2011-07-24T07:23:15Z</time>
      </trkpt>
      <trkpt lat="43.73503" lon="7.01338">
        <ele>803.3188477</ele>
        <time>2011-07-24T07:23:22Z</time>
      </trkpt>
      <trkpt lat="43.73516" lon="7.01326">
        <ele>802.3574219</ele>
        <time>2011-07-24T07:23:26Z</time>
      </trkpt>
      <trkpt lat="43.73523" lon="7.01316">
        <ele>802.3574219</ele>
        <time>2011-07-24T07:23:28Z</time>
      </trkpt>
      <trkpt lat="43.73522" lon="7.013">
        <ele>801.3962402</ele>
        <time>2011-07-24T07:23:32Z</time>
      </trkpt>
      <trkpt lat="43.73521" lon="7.01298">
        <ele>801.3962402</ele>
        <time>2011-07-24T07:23:33Z</time>
      </trkpt>
      <trkpt lat="43.73511" lon="7.01287">
        <ele>804.7607422</ele>
        <time>2011-07-24T07:23:41Z</time>
      </trkpt>
      <trkpt lat="43.735" lon="7.01279">
        <ele>807.1640625</ele>
        <time>2011-07-24T07:23:49Z</time>
      </trkpt>
      <trkpt lat="43.73492" lon="7.01271">
        <ele>811.4899902</ele>
        <time>2011-07-24T07:23:55Z</time>
      </trkpt>
      <trkpt lat="43.73485" lon="7.01261">
        <ele>816.2966309</ele>
        <time>2011-07-24T07:24:02Z</time>
      </trkpt>
      <trkpt lat="43.73481" lon="7.01255">
        <ele>816.7773438</ele>
        <time>2011-07-24T07:24:06Z</time>
      </trkpt>
      <trkpt lat="43.73473" lon="7.01241">
        <ele>816.2966309</ele>
        <time>2011-07-24T07:24:11Z</time>
      </trkpt>
      <trkpt lat="43.73464" lon="7.01225">
        <ele>818.6999512</ele>
        <time>2011-07-24T07:24:17Z</time>
      </trkpt>
      <trkpt lat="43.73454" lon="7.01208">
        <ele>820.1418457</ele>
        <time>2011-07-24T07:24:24Z</time>
      </trkpt>
      <trkpt lat="43.73446" lon="7.01196">
        <ele>820.1418457</ele>
        <time>2011-07-24T07:24:30Z</time>
      </trkpt>
      <trkpt lat="43.73443" lon="7.01183">
        <ele>820.6225586</ele>
        <time>2011-07-24T07:24:36Z</time>
      </trkpt>
      <trkpt lat="43.73442" lon="7.01181">
        <ele>820.6225586</ele>
        <time>2011-07-24T07:24:37Z</time>
      </trkpt>
      <trkpt lat="43.73433" lon="7.01167">
        <ele>821.1032715</ele>
        <time>2011-07-24T07:24:45Z</time>
      </trkpt>
      <trkpt lat="43.73429" lon="7.0115">
        <ele>820.6225586</ele>
        <time>2011-07-24T07:24:50Z</time>
      </trkpt>
      <trkpt lat="43.73424" lon="7.01142">
        <ele>821.5837402</ele>
        <time>2011-07-24T07:24:55Z</time>
      </trkpt>
      <trkpt lat="43.7341" lon="7.01137">
        <ele>823.0258789</ele>
        <time>2011-07-24T07:25:03Z</time>
      </trkpt>
      <trkpt lat="43.73399" lon="7.01141">
        <ele>823.5065918</ele>
        <time>2011-07-24T07:25:10Z</time>
      </trkpt>
      <trkpt lat="43.73393" lon="7.01152">
        <ele>824.9484863</ele>
        <time>2011-07-24T07:25:17Z</time>
      </trkpt>
      <trkpt lat="43.73386" lon="7.01165">
        <ele>826.3903809</ele>
        <time>2011-07-24T07:25:25Z</time>
      </trkpt>
      <trkpt lat="43.73374" lon="7.01175">
        <ele>823.9870605</ele>
        <time>2011-07-24T07:25:31Z</time>
      </trkpt>
      <trkpt lat="43.73361" lon="7.0118">
        <ele>823.0258789</ele>
        <time>2011-07-24T07:25:39Z</time>
      </trkpt>
      <trkpt lat="43.73349" lon="7.01187">
        <ele>824.9484863</ele>
        <time>2011-07-24T07:25:47Z</time>
      </trkpt>
      <trkpt lat="43.73348" lon="7.01199">
        <ele>825.909668</ele>
        <time>2011-07-24T07:25:52Z</time>
      </trkpt>
      <trkpt lat="43.7335" lon="7.01211">
        <ele>825.909668</ele>
        <time>2011-07-24T07:25:58Z</time>
      </trkpt>
      <trkpt lat="43.73353" lon="7.0122">
        <ele>825.909668</ele>
        <time>2011-07-24T07:26:04Z</time>
      </trkpt>
      <trkpt lat="43.73357" lon="7.01235">
        <ele>824.9484863</ele>
        <time>2011-07-24T07:26:11Z</time>
      </trkpt>
      <trkpt lat="43.73352" lon="7.01252">
        <ele>824.9484863</ele>
        <time>2011-07-24T07:26:18Z</time>
      </trkpt>
      <trkpt lat="43.73343" lon="7.01261">
        <ele>825.909668</ele>
        <time>2011-07-24T07:26:23Z</time>
      </trkpt>
      <trkpt lat="43.7333" lon="7.01269">
        <ele>827.8322754</ele>
        <time>2011-07-24T07:26:32Z</time>
      </trkpt>
      <trkpt lat="43.73323" lon="7.01275">
        <ele>827.3518066</ele>
        <time>2011-07-24T07:26:39Z</time>
      </trkpt>
      <trkpt lat="43.73315" lon="7.01283">
        <ele>829.755127</ele>
        <time>2011-07-24T07:26:45Z</time>
      </trkpt>
      <trkpt lat="43.73306" lon="7.01291">
        <ele>832.1584473</ele>
        <time>2011-07-24T07:26:51Z</time>
      </trkpt>
      <trkpt lat="43.73298" lon="7.01298">
        <ele>831.1972656</ele>
        <time>2011-07-24T07:26:57Z</time>
      </trkpt>
      <trkpt lat="43.73292" lon="7.01304">
        <ele>827.8322754</ele>
        <time>2011-07-24T07:27:01Z</time>
      </trkpt>
      <trkpt lat="43.7329" lon="7.01315">
        <ele>826.3903809</ele>
        <time>2011-07-24T07:27:05Z</time>
      </trkpt>
      <trkpt lat="43.73283" lon="7.0132">
        <ele>828.3132324</ele>
        <time>2011-07-24T07:27:10Z</time>
      </trkpt>
      <trkpt lat="43.73277" lon="7.01319">
        <ele>827.8322754</ele>
        <time>2011-07-24T07:27:15Z</time>
      </trkpt>
      <trkpt lat="43.73268" lon="7.01323">
        <ele>829.2744141</ele>
        <time>2011-07-24T07:27:22Z</time>
      </trkpt>
      <trkpt lat="43.73259" lon="7.01326">
        <ele>830.2358398</ele>
        <time>2011-07-24T07:27:29Z</time>
      </trkpt>
      <trkpt lat="43.73257" lon="7.01329">
        <ele>833.6003418</ele>
        <time>2011-07-24T07:27:32Z</time>
      </trkpt>
      <trkpt lat="43.73254" lon="7.01338">
        <ele>837.9262695</ele>
        <time>2011-07-24T07:27:38Z</time>
      </trkpt>
      <trkpt lat="43.73251" lon="7.01347">
        <ele>844.6555176</ele>
        <time>2011-07-24T07:27:43Z</time>
      </trkpt>
      <trkpt lat="43.73249" lon="7.01352">
        <ele>847.5395508</ele>
        <time>2011-07-24T07:27:46Z</time>
      </trkpt>
      <trkpt lat="43.73246" lon="7.01366">
        <ele>850.423584</ele>
        <time>2011-07-24T07:27:54Z</time>
      </trkpt>
      <trkpt lat="43.73244" lon="7.01377">
        <ele>846.0976563</ele>
        <time>2011-07-24T07:28:01Z</time>
      </trkpt>
      <trkpt lat="43.73245" lon="7.01388">
        <ele>845.6169434</ele>
        <time>2011-07-24T07:28:08Z</time>
      </trkpt>
      <trkpt lat="43.73247" lon="7.01401">
        <ele>854.2687988</ele>
        <time>2011-07-24T07:28:15Z</time>
      </trkpt>
      <trkpt lat="43.73247" lon="7.01405">
        <ele>857.1525879</ele>
        <time>2011-07-24T07:28:17Z</time>
      </trkpt>
      <trkpt lat="43.73252" lon="7.01418">
        <ele>849.4621582</ele>
        <time>2011-07-24T07:28:25Z</time>
      </trkpt>
      <trkpt lat="43.73258" lon="7.01428">
        <ele>844.1750488</ele>
        <time>2011-07-24T07:28:32Z</time>
      </trkpt>
      <trkpt lat="43.73259" lon="7.0143">
        <ele>843.6940918</ele>
        <time>2011-07-24T07:28:33Z</time>
      </trkpt>
      <trkpt lat="43.73258" lon="7.01434">
        <ele>842.2521973</ele>
        <time>2011-07-24T07:28:36Z</time>
      </trkpt>
      <trkpt lat="43.73257" lon="7.01432">
        <ele>843.2133789</ele>
        <time>2011-07-24T07:28:41Z</time>
      </trkpt>
      <trkpt lat="43.73258" lon="7.01429">
        <ele>846.5783691</ele>
        <time>2011-07-24T07:28:49Z</time>
      </trkpt>
      <trkpt lat="43.73259" lon="7.01429">
        <ele>848.9814453</ele>
        <time>2011-07-24T07:29:02Z</time>
      </trkpt>
      <trkpt lat="43.73261" lon="7.01428">
        <ele>853.7880859</ele>
        <time>2011-07-24T07:29:17Z</time>
      </trkpt>
      <trkpt lat="43.73262" lon="7.01427">
        <ele>857.1525879</ele>
        <time>2011-07-24T07:29:31Z</time>
      </trkpt>
      <trkpt lat="43.73262" lon="7.01427">
        <ele>857.6333008</ele>
        <time>2011-07-24T07:29:35Z</time>
      </trkpt>
      <trkpt lat="43.73262" lon="7.01428">
        <ele>857.1525879</ele>
        <time>2011-07-24T07:29:40Z</time>
      </trkpt>
      <trkpt lat="43.73262" lon="7.01428">
        <ele>856.1911621</ele>
        <time>2011-07-24T07:29:47Z</time>
      </trkpt>
      <trkpt lat="43.73262" lon="7.01428">
        <ele>855.7106934</ele>
        <time>2011-07-24T07:29:54Z</time>
      </trkpt>
      <trkpt lat="43.73258" lon="7.01429">
        <ele>852.3459473</ele>
        <time>2011-07-24T07:30:20Z</time>
      </trkpt>
      <trkpt lat="43.73253" lon="7.01426">
        <ele>849.9428711</ele>
        <time>2011-07-24T07:30:24Z</time>
      </trkpt>
      <trkpt lat="43.73243" lon="7.01421">
        <ele>847.5395508</ele>
        <time>2011-07-24T07:30:31Z</time>
      </trkpt>
      <trkpt lat="43.73242" lon="7.0142">
        <ele>847.5395508</ele>
        <time>2011-07-24T07:30:32Z</time>
      </trkpt>
      <trkpt lat="43.73232" lon="7.01414">
        <ele>846.0976563</ele>
        <time>2011-07-24T07:30:39Z</time>
      </trkpt>
      <trkpt lat="43.73224" lon="7.01404">
        <ele>845.6169434</ele>
        <time>2011-07-24T07:30:47Z</time>
      </trkpt>
      <trkpt lat="43.7322" lon="7.01397">
        <ele>847.0588379</ele>
        <time>2011-07-24T07:30:52Z</time>
      </trkpt>
      <trkpt lat="43.73217" lon="7.01392">
        <ele>848.5007324</ele>
        <time>2011-07-24T07:30:56Z</time>
      </trkpt>
      <trkpt lat="43.73216" lon="7.01389">
        <ele>848.9814453</ele>
        <time>2011-07-24T07:30:58Z</time>
      </trkpt>
      <trkpt lat="43.73212" lon="7.01381">
        <ele>849.9428711</ele>
        <time>2011-07-24T07:31:03Z</time>
      </trkpt>
      <trkpt lat="43.73208" lon="7.01374">
        <ele>851.8654785</ele>
        <time>2011-07-24T07:31:08Z</time>
      </trkpt>
      <trkpt lat="43.73207" lon="7.0137">
        <ele>852.8266602</ele>
        <time>2011-07-24T07:31:14Z</time>
      </trkpt>
      <trkpt lat="43.73203" lon="7.01365">
        <ele>853.307373</ele>
        <time>2011-07-24T07:31:20Z</time>
      </trkpt>
      <trkpt lat="43.73199" lon="7.01358">
        <ele>854.2687988</ele>
        <time>2011-07-24T07:31:26Z</time>
      </trkpt>
      <trkpt lat="43.73193" lon="7.0135">
        <ele>856.1911621</ele>
        <time>2011-07-24T07:31:36Z</time>
      </trkpt>
      <trkpt lat="43.73186" lon="7.01343">
        <ele>855.7106934</ele>
        <time>2011-07-24T07:31:47Z</time>
      </trkpt>
      <trkpt lat="43.73182" lon="7.01337">
        <ele>855.7106934</ele>
        <time>2011-07-24T07:31:54Z</time>
      </trkpt>
      <trkpt lat="43.73179" lon="7.01332">
        <ele>857.1525879</ele>
        <time>2011-07-24T07:32:02Z</time>
      </trkpt>
      <trkpt lat="43.73173" lon="7.01327">
        <ele>857.6333008</ele>
        <time>2011-07-24T07:32:10Z</time>
      </trkpt>
      <trkpt lat="43.73168" lon="7.01322">
        <ele>859.0751953</ele>
        <time>2011-07-24T07:32:18Z</time>
      </trkpt>
      <trkpt lat="43.73163" lon="7.01315">
        <ele>860.517334</ele>
        <time>2011-07-24T07:32:27Z</time>
      </trkpt>
      <trkpt lat="43.73162" lon="7.01313">
        <ele>861.9594727</ele>
        <time>2011-07-24T07:32:34Z</time>
      </trkpt>
      <trkpt lat="43.73162" lon="7.01312">
        <ele>865.8046875</ele>
        <time>2011-07-24T07:32:45Z</time>
      </trkpt>
      <trkpt lat="43.73158" lon="7.01309">
        <ele>865.3239746</ele>
        <time>2011-07-24T07:32:51Z</time>
      </trkpt>
      <trkpt lat="43.73146" lon="7.01304">
        <ele>863.8818359</ele>
        <time>2011-07-24T07:33:01Z</time>
      </trkpt>
      <trkpt lat="43.73145" lon="7.01303">
        <ele>863.8818359</ele>
        <time>2011-07-24T07:33:02Z</time>
      </trkpt>
      <trkpt lat="43.73139" lon="7.01303">
        <ele>864.3625488</ele>
        <time>2011-07-24T07:33:06Z</time>
      </trkpt>
      <trkpt lat="43.73127" lon="7.01303">
        <ele>865.8046875</ele>
        <time>2011-07-24T07:33:14Z</time>
      </trkpt>
      <trkpt lat="43.73118" lon="7.01304">
        <ele>866.7658691</ele>
        <time>2011-07-24T07:33:20Z</time>
      </trkpt>
      <trkpt lat="43.73107" lon="7.01304">
        <ele>866.7658691</ele>
        <time>2011-07-24T07:33:26Z</time>
      </trkpt>
      <trkpt lat="43.731" lon="7.01303">
        <ele>866.7658691</ele>
        <time>2011-07-24T07:33:29Z</time>
      </trkpt>
      <trkpt lat="43.73092" lon="7.01293">
        <ele>864.8432617</ele>
        <time>2011-07-24T07:33:35Z</time>
      </trkpt>
      <trkpt lat="43.73085" lon="7.01276">
        <ele>864.3625488</ele>
        <time>2011-07-24T07:33:42Z</time>
      </trkpt>
      <trkpt lat="43.73084" lon="7.01274">
        <ele>864.3625488</ele>
        <time>2011-07-24T07:33:43Z</time>
      </trkpt>
      <trkpt lat="43.7308" lon="7.01263">
        <ele>862.9206543</ele>
        <time>2011-07-24T07:33:48Z</time>
      </trkpt>
      <trkpt lat="43.73075" lon="7.01247">
        <ele>863.4013672</ele>
        <time>2011-07-24T07:33:54Z</time>
      </trkpt>
      <trkpt lat="43.73071" lon="7.01233">
        <ele>861.9594727</ele>
        <time>2011-07-24T07:34:00Z</time>
      </trkpt>
      <trkpt lat="43.73065" lon="7.01224">
        <ele>860.9980469</ele>
        <time>2011-07-24T07:34:04Z</time>
      </trkpt>
      <trkpt lat="43.73057" lon="7.01213">
        <ele>860.9980469</ele>
        <time>2011-07-24T07:34:09Z</time>
      </trkpt>
      <trkpt lat="43.7304" lon="7.01199">
        <ele>862.4399414</ele>
        <time>2011-07-24T07:34:16Z</time>
      </trkpt>
      <trkpt lat="43.73028" lon="7.01192">
        <ele>863.8818359</ele>
        <time>2011-07-24T07:34:20Z</time>
      </trkpt>
      <trkpt lat="43.73012" lon="7.01182">
        <ele>863.8818359</ele>
        <time>2011-07-24T07:34:24Z</time>
      </trkpt>
      <trkpt lat="43.73" lon="7.01166">
        <ele>862.9206543</ele>
        <time>2011-07-24T07:34:28Z</time>
      </trkpt>
      <trkpt lat="43.72998" lon="7.01154">
        <ele>863.8818359</ele>
        <time>2011-07-24T07:34:31Z</time>
      </trkpt>
      <trkpt lat="43.73007" lon="7.01144">
        <ele>865.8046875</ele>
        <time>2011-07-24T07:34:37Z</time>
      </trkpt>
      <trkpt lat="43.73012" lon="7.01139">
        <ele>866.7658691</ele>
        <time>2011-07-24T07:34:40Z</time>
      </trkpt>
      <trkpt lat="43.73015" lon="7.01135">
        <ele>867.246582</ele>
        <time>2011-07-24T07:34:42Z</time>
      </trkpt>
      <trkpt lat="43.73023" lon="7.01125">
        <ele>868.6884766</ele>
        <time>2011-07-24T07:34:48Z</time>
      </trkpt>
      <trkpt lat="43.73026" lon="7.0112">
        <ele>866.7658691</ele>
        <time>2011-07-24T07:34:51Z</time>
      </trkpt>
      <trkpt lat="43.7303" lon="7.01109">
        <ele>863.4013672</ele>
        <time>2011-07-24T07:34:56Z</time>
      </trkpt>
      <trkpt lat="43.73029" lon="7.01105">
        <ele>863.4013672</ele>
        <time>2011-07-24T07:34:58Z</time>
      </trkpt>
      <trkpt lat="43.73028" lon="7.01097">
        <ele>864.3625488</ele>
        <time>2011-07-24T07:35:03Z</time>
      </trkpt>
      <trkpt lat="43.73024" lon="7.01083">
        <ele>867.246582</ele>
        <time>2011-07-24T07:35:11Z</time>
      </trkpt>
      <trkpt lat="43.73021" lon="7.01074">
        <ele>867.246582</ele>
        <time>2011-07-24T07:35:17Z</time>
      </trkpt>
      <trkpt lat="43.73016" lon="7.01063">
        <ele>867.7270508</ele>
        <time>2011-07-24T07:35:24Z</time>
      </trkpt>
      <trkpt lat="43.73012" lon="7.01045">
        <ele>868.2077637</ele>
        <time>2011-07-24T07:35:33Z</time>
      </trkpt>
      <trkpt lat="43.73009" lon="7.01033">
        <ele>869.1691895</ele>
        <time>2011-07-24T07:35:40Z</time>
      </trkpt>
      <trkpt lat="43.73008" lon="7.01025">
        <ele>870.1303711</ele>
        <time>2011-07-24T07:35:46Z</time>
      </trkpt>
      <trkpt lat="43.73003" lon="7.01014">
        <ele>871.0917969</ele>
        <time>2011-07-24T07:35:54Z</time>
      </trkpt>
      <trkpt lat="43.73" lon="7.01002">
        <ele>873.0144043</ele>
        <time>2011-07-24T07:36:01Z</time>
      </trkpt>
      <trkpt lat="43.72997" lon="7.00993">
        <ele>874.4562988</ele>
        <time>2011-07-24T07:36:07Z</time>
      </trkpt>
      <trkpt lat="43.72992" lon="7.00979">
        <ele>876.8598633</ele>
        <time>2011-07-24T07:36:15Z</time>
      </trkpt>
      <trkpt lat="43.72992" lon="7.00975">
        <ele>877.8210449</ele>
        <time>2011-07-24T07:36:18Z</time>
      </trkpt>
      <trkpt lat="43.72991" lon="7.00967">
        <ele>877.8210449</ele>
        <time>2011-07-24T07:36:23Z</time>
      </trkpt>
      <trkpt lat="43.72991" lon="7.00963">
        <ele>877.3405762</ele>
        <time>2011-07-24T07:36:31Z</time>
      </trkpt>
      <trkpt lat="43.72991" lon="7.00962">
        <ele>878.7824707</ele>
        <time>2011-07-24T07:36:42Z</time>
      </trkpt>
      <trkpt lat="43.72991" lon="7.00961">
        <ele>879.7436523</ele>
        <time>2011-07-24T07:36:53Z</time>
      </trkpt>
      <trkpt lat="43.7299" lon="7.0096">
        <ele>880.2243652</ele>
        <time>2011-07-24T07:36:59Z</time>
      </trkpt>
      <trkpt lat="43.72989" lon="7.00958">
        <ele>880.7050781</ele>
        <time>2011-07-24T07:37:05Z</time>
      </trkpt>
      <trkpt lat="43.72989" lon="7.00958">
        <ele>881.185791</ele>
        <time>2011-07-24T07:37:08Z</time>
      </trkpt>
      <trkpt lat="43.72989" lon="7.00957">
        <ele>881.185791</ele>
        <time>2011-07-24T07:37:12Z</time>
      </trkpt>
      <trkpt lat="43.72988" lon="7.00956">
        <ele>881.6662598</ele>
        <time>2011-07-24T07:37:21Z</time>
      </trkpt>
      <trkpt lat="43.72988" lon="7.00956">
        <ele>881.6662598</ele>
        <time>2011-07-24T07:37:24Z</time>
      </trkpt>
      <trkpt lat="43.72988" lon="7.00956">
        <ele>881.6662598</ele>
        <time>2011-07-24T07:37:38Z</time>
      </trkpt>
      <trkpt lat="43.72988" lon="7.00956">
        <ele>881.6662598</ele>
        <time>2011-07-24T07:37:40Z</time>
      </trkpt>
      <trkpt lat="43.72989" lon="7.00957">
        <ele>882.1469727</ele>
        <time>2011-07-24T07:37:48Z</time>
      </trkpt>
      <trkpt lat="43.72989" lon="7.00958">
        <ele>882.1469727</ele>
        <time>2011-07-24T07:37:55Z</time>
      </trkpt>
      <trkpt lat="43.72989" lon="7.00958">
        <ele>883.1081543</ele>
        <time>2011-07-24T07:38:01Z</time>
      </trkpt>
      <trkpt lat="43.72988" lon="7.00959">
        <ele>883.1081543</ele>
        <time>2011-07-24T07:38:13Z</time>
      </trkpt>
      <trkpt lat="43.72989" lon="7.00957">
        <ele>875.4174805</ele>
        <time>2011-07-24T07:38:29Z</time>
      </trkpt>
      <trkpt lat="43.72988" lon="7.00956">
        <ele>874.4562988</ele>
        <time>2011-07-24T07:38:39Z</time>
      </trkpt>
      <trkpt lat="43.72988" lon="7.00956">
        <ele>873.9755859</ele>
        <time>2011-07-24T07:38:45Z</time>
      </trkpt>
      <trkpt lat="43.72987" lon="7.00956">
        <ele>873.0144043</ele>
        <time>2011-07-24T07:38:48Z</time>
      </trkpt>
      <trkpt lat="43.72989" lon="7.00957">
        <ele>871.0917969</ele>
        <time>2011-07-24T07:38:54Z</time>
      </trkpt>
      <trkpt lat="43.72989" lon="7.00957">
        <ele>869.6499023</ele>
        <time>2011-07-24T07:38:59Z</time>
      </trkpt>
      <trkpt lat="43.72991" lon="7.0096">
        <ele>868.2077637</ele>
        <time>2011-07-24T07:39:12Z</time>
      </trkpt>
      <trkpt lat="43.72986" lon="7.00958">
        <ele>865.3239746</ele>
        <time>2011-07-24T07:39:40Z</time>
      </trkpt>
      <trkpt lat="43.72986" lon="7.00957">
        <ele>866.7658691</ele>
        <time>2011-07-24T07:39:52Z</time>
      </trkpt>
      <trkpt lat="43.72985" lon="7.00958">
        <ele>866.2851563</ele>
        <time>2011-07-24T07:40:12Z</time>
      </trkpt>
      <trkpt lat="43.72985" lon="7.00958">
        <ele>866.2851563</ele>
        <time>2011-07-24T07:40:18Z</time>
      </trkpt>
      <trkpt lat="43.72985" lon="7.0096">
        <ele>867.7270508</ele>
        <time>2011-07-24T07:40:40Z</time>
      </trkpt>
      <trkpt lat="43.72985" lon="7.00958">
        <ele>866.2851563</ele>
        <time>2011-07-24T07:40:44Z</time>
      </trkpt>
      <trkpt lat="43.72985" lon="7.00958">
        <ele>865.8046875</ele>
        <time>2011-07-24T07:40:47Z</time>
      </trkpt>
      <trkpt lat="43.72986" lon="7.00957">
        <ele>865.8046875</ele>
        <time>2011-07-24T07:41:04Z</time>
      </trkpt>
      <trkpt lat="43.72987" lon="7.00956">
        <ele>871.0917969</ele>
        <time>2011-07-24T07:41:29Z</time>
      </trkpt>
      <trkpt lat="43.72987" lon="7.00956">
        <ele>871.0917969</ele>
        <time>2011-07-24T07:41:33Z</time>
      </trkpt>
      <trkpt lat="43.72987" lon="7.00955">
        <ele>870.1303711</ele>
        <time>2011-07-24T07:41:42Z</time>
      </trkpt>
      <trkpt lat="43.72984" lon="7.00952">
        <ele>873.9755859</ele>
        <time>2011-07-24T07:42:13Z</time>
      </trkpt>
      <trkpt lat="43.72981" lon="7.00946">
        <ele>874.4562988</ele>
        <time>2011-07-24T07:42:19Z</time>
      </trkpt>
      <trkpt lat="43.72976" lon="7.00945">
        <ele>876.8598633</ele>
        <time>2011-07-24T07:42:25Z</time>
      </trkpt>
      <trkpt lat="43.72973" lon="7.00945">
        <ele>877.3405762</ele>
        <time>2011-07-24T07:42:27Z</time>
      </trkpt>
      <trkpt lat="43.72968" lon="7.00943">
        <ele>878.7824707</ele>
        <time>2011-07-24T07:42:30Z</time>
      </trkpt>
      <trkpt lat="43.72967" lon="7.00944">
        <ele>879.2629395</ele>
        <time>2011-07-24T07:42:31Z</time>
      </trkpt>
      <trkpt lat="43.72959" lon="7.00952">
        <ele>881.6662598</ele>
        <time>2011-07-24T07:42:38Z</time>
      </trkpt>
      <trkpt lat="43.72955" lon="7.00963">
        <ele>883.5888672</ele>
        <time>2011-07-24T07:42:44Z</time>
      </trkpt>
      <trkpt lat="43.72947" lon="7.00977">
        <ele>885.9921875</ele>
        <time>2011-07-24T07:42:52Z</time>
      </trkpt>
      <trkpt lat="43.72938" lon="7.00991">
        <ele>887.9147949</ele>
        <time>2011-07-24T07:43:00Z</time>
      </trkpt>
      <trkpt lat="43.72927" lon="7.01007">
        <ele>889.3566895</ele>
        <time>2011-07-24T07:43:09Z</time>
      </trkpt>
      <trkpt lat="43.72917" lon="7.01025">
        <ele>890.798584</ele>
        <time>2011-07-24T07:43:19Z</time>
      </trkpt>
      <trkpt lat="43.7291" lon="7.01044">
        <ele>893.2021484</ele>
        <time>2011-07-24T07:43:27Z</time>
      </trkpt>
      <trkpt lat="43.72904" lon="7.01062">
        <ele>895.1247559</ele>
        <time>2011-07-24T07:43:35Z</time>
      </trkpt>
      <trkpt lat="43.72898" lon="7.0108">
        <ele>897.5280762</ele>
        <time>2011-07-24T07:43:42Z</time>
      </trkpt>
      <trkpt lat="43.72893" lon="7.011">
        <ele>898.9699707</ele>
        <time>2011-07-24T07:43:50Z</time>
      </trkpt>
      <trkpt lat="43.72887" lon="7.01116">
        <ele>899.4506836</ele>
        <time>2011-07-24T07:43:57Z</time>
      </trkpt>
      <trkpt lat="43.72879" lon="7.01129">
        <ele>898.4892578</ele>
        <time>2011-07-24T07:44:04Z</time>
      </trkpt>
      <trkpt lat="43.72867" lon="7.01145">
        <ele>899.4506836</ele>
        <time>2011-07-24T07:44:13Z</time>
      </trkpt>
      <trkpt lat="43.72855" lon="7.01158">
        <ele>899.9313965</ele>
        <time>2011-07-24T07:44:21Z</time>
      </trkpt>
      <trkpt lat="43.72845" lon="7.0117">
        <ele>899.9313965</ele>
        <time>2011-07-24T07:44:29Z</time>
      </trkpt>
      <trkpt lat="43.72838" lon="7.01182">
        <ele>901.8540039</ele>
        <time>2011-07-24T07:44:36Z</time>
      </trkpt>
      <trkpt lat="43.72833" lon="7.012">
        <ele>902.8151855</ele>
        <time>2011-07-24T07:44:45Z</time>
      </trkpt>
      <trkpt lat="43.72832" lon="7.01214">
        <ele>903.7766113</ele>
        <time>2011-07-24T07:44:51Z</time>
      </trkpt>
      <trkpt lat="43.72832" lon="7.01228">
        <ele>903.7766113</ele>
        <time>2011-07-24T07:44:58Z</time>
      </trkpt>
      <trkpt lat="43.72837" lon="7.01242">
        <ele>904.2573242</ele>
        <time>2011-07-24T07:45:05Z</time>
      </trkpt>
      <trkpt lat="43.72844" lon="7.01257">
        <ele>902.8151855</ele>
        <time>2011-07-24T07:45:14Z</time>
      </trkpt>
      <trkpt lat="43.72848" lon="7.01274">
        <ele>903.7766113</ele>
        <time>2011-07-24T07:45:23Z</time>
      </trkpt>
      <trkpt lat="43.72849" lon="7.01293">
        <ele>906.1796875</ele>
        <time>2011-07-24T07:45:32Z</time>
      </trkpt>
      <trkpt lat="43.72849" lon="7.01309">
        <ele>909.5446777</ele>
        <time>2011-07-24T07:45:39Z</time>
      </trkpt>
      <trkpt lat="43.72848" lon="7.01316">
        <ele>910.9865723</ele>
        <time>2011-07-24T07:45:43Z</time>
      </trkpt>
      <trkpt lat="43.72844" lon="7.0133">
        <ele>912.9091797</ele>
        <time>2011-07-24T07:45:52Z</time>
      </trkpt>
      <trkpt lat="43.72842" lon="7.0134">
        <ele>914.8317871</ele>
        <time>2011-07-24T07:45:58Z</time>
      </trkpt>
      <trkpt lat="43.72841" lon="7.01351">
        <ele>918.677002</ele>
        <time>2011-07-24T07:46:04Z</time>
      </trkpt>
      <trkpt lat="43.72841" lon="7.01362">
        <ele>924.4450684</ele>
        <time>2011-07-24T07:46:11Z</time>
      </trkpt>
      <trkpt lat="43.72842" lon="7.01371">
        <ele>926.8483887</ele>
        <time>2011-07-24T07:46:16Z</time>
      </trkpt>
      <trkpt lat="43.72838" lon="7.01383">
        <ele>928.2902832</ele>
        <time>2011-07-24T07:46:24Z</time>
      </trkpt>
      <trkpt lat="43.72834" lon="7.01384">
        <ele>923.9641113</ele>
        <time>2011-07-24T07:46:28Z</time>
      </trkpt>
      <trkpt lat="43.7283" lon="7.01379">
        <ele>920.5996094</ele>
        <time>2011-07-24T07:46:33Z</time>
      </trkpt>
      <trkpt lat="43.72826" lon="7.01373">
        <ele>917.7155762</ele>
        <time>2011-07-24T07:46:40Z</time>
      </trkpt>
      <trkpt lat="43.72822" lon="7.01367">
        <ele>917.2351074</ele>
        <time>2011-07-24T07:46:47Z</time>
      </trkpt>
      <trkpt lat="43.72815" lon="7.0136">
        <ele>916.7543945</ele>
        <time>2011-07-24T07:46:55Z</time>
      </trkpt>
      <trkpt lat="43.72812" lon="7.01359">
        <ele>917.2351074</ele>
        <time>2011-07-24T07:46:58Z</time>
      </trkpt>
      <trkpt lat="43.72804" lon="7.01356">
        <ele>917.7155762</ele>
        <time>2011-07-24T07:47:06Z</time>
      </trkpt>
      <trkpt lat="43.72799" lon="7.01352">
        <ele>918.1962891</ele>
        <time>2011-07-24T07:47:11Z</time>
      </trkpt>
      <trkpt lat="43.72794" lon="7.01349">
        <ele>918.677002</ele>
        <time>2011-07-24T07:47:16Z</time>
      </trkpt>
      <trkpt lat="43.72785" lon="7.01341">
        <ele>920.5996094</ele>
        <time>2011-07-24T07:47:26Z</time>
      </trkpt>
      <trkpt lat="43.72781" lon="7.01337">
        <ele>921.0803223</ele>
        <time>2011-07-24T07:47:31Z</time>
      </trkpt>
      <trkpt lat="43.72774" lon="7.01331">
        <ele>921.560791</ele>
        <time>2011-07-24T07:47:39Z</time>
      </trkpt>
      <trkpt lat="43.72769" lon="7.01324">
        <ele>923.0029297</ele>
        <time>2011-07-24T07:47:46Z</time>
      </trkpt>
      <trkpt lat="43.72765" lon="7.01317">
        <ele>924.9257813</ele>
        <time>2011-07-24T07:47:52Z</time>
      </trkpt>
      <trkpt lat="43.72762" lon="7.01309">
        <ele>924.9257813</ele>
        <time>2011-07-24T07:48:00Z</time>
      </trkpt>
      <trkpt lat="43.72759" lon="7.01302">
        <ele>925.8869629</ele>
        <time>2011-07-24T07:48:07Z</time>
      </trkpt>
      <trkpt lat="43.72755" lon="7.01295">
        <ele>927.3291016</ele>
        <time>2011-07-24T07:48:13Z</time>
      </trkpt>
      <trkpt lat="43.72752" lon="7.01287">
        <ele>928.2902832</ele>
        <time>2011-07-24T07:48:19Z</time>
      </trkpt>
      <trkpt lat="43.72748" lon="7.01275">
        <ele>930.6936035</ele>
        <time>2011-07-24T07:48:28Z</time>
      </trkpt>
      <trkpt lat="43.72743" lon="7.01267">
        <ele>932.6162109</ele>
        <time>2011-07-24T07:48:35Z</time>
      </trkpt>
      <trkpt lat="43.72736" lon="7.01258">
        <ele>934.0581055</ele>
        <time>2011-07-24T07:48:44Z</time>
      </trkpt>
      <trkpt lat="43.7273" lon="7.01251">
        <ele>935.9807129</ele>
        <time>2011-07-24T07:48:51Z</time>
      </trkpt>
      <trkpt lat="43.72723" lon="7.01247">
        <ele>937.4226074</ele>
        <time>2011-07-24T07:48:58Z</time>
      </trkpt>
      <trkpt lat="43.72717" lon="7.01238">
        <ele>938.3840332</ele>
        <time>2011-07-24T07:49:07Z</time>
      </trkpt>
      <trkpt lat="43.72712" lon="7.01231">
        <ele>938.8647461</ele>
        <time>2011-07-24T07:49:14Z</time>
      </trkpt>
      <trkpt lat="43.72707" lon="7.01223">
        <ele>939.8259277</ele>
        <time>2011-07-24T07:49:21Z</time>
      </trkpt>
      <trkpt lat="43.72702" lon="7.01217">
        <ele>940.7873535</ele>
        <time>2011-07-24T07:49:28Z</time>
      </trkpt>
      <trkpt lat="43.72699" lon="7.01213">
        <ele>941.2680664</ele>
        <time>2011-07-24T07:49:32Z</time>
      </trkpt>
      <trkpt lat="43.72693" lon="7.01208">
        <ele>941.7487793</ele>
        <time>2011-07-24T07:49:38Z</time>
      </trkpt>
      <trkpt lat="43.72686" lon="7.01203">
        <ele>942.2294922</ele>
        <time>2011-07-24T07:49:45Z</time>
      </trkpt>
      <trkpt lat="43.72676" lon="7.01201">
        <ele>943.6713867</ele>
        <time>2011-07-24T07:49:52Z</time>
      </trkpt>
      <trkpt lat="43.72667" lon="7.01199">
        <ele>944.1520996</ele>
        <time>2011-07-24T07:49:58Z</time>
      </trkpt>
      <trkpt lat="43.72664" lon="7.01197">
        <ele>944.1520996</ele>
        <time>2011-07-24T07:50:00Z</time>
      </trkpt>
      <trkpt lat="43.72662" lon="7.01193">
        <ele>944.1520996</ele>
        <time>2011-07-24T07:50:05Z</time>
      </trkpt>
      <trkpt lat="43.72661" lon="7.01192">
        <ele>944.6325684</ele>
        <time>2011-07-24T07:50:09Z</time>
      </trkpt>
      <trkpt lat="43.72657" lon="7.01192">
        <ele>945.1132813</ele>
        <time>2011-07-24T07:50:14Z</time>
      </trkpt>
      <trkpt lat="43.7265" lon="7.01193">
        <ele>944.6325684</ele>
        <time>2011-07-24T07:50:21Z</time>
      </trkpt>
      <trkpt lat="43.72648" lon="7.01193">
        <ele>945.1132813</ele>
        <time>2011-07-24T07:50:27Z</time>
      </trkpt>
      <trkpt lat="43.72648" lon="7.01193">
        <ele>945.1132813</ele>
        <time>2011-07-24T07:50:41Z</time>
      </trkpt>
      <trkpt lat="43.72648" lon="7.01193">
        <ele>945.1132813</ele>
        <time>2011-07-24T07:50:45Z</time>
      </trkpt>
      <trkpt lat="43.72648" lon="7.01193">
        <ele>945.5939941</ele>
        <time>2011-07-24T07:50:55Z</time>
      </trkpt>
      <trkpt lat="43.72648" lon="7.01193">
        <ele>945.5939941</ele>
        <time>2011-07-24T07:51:03Z</time>
      </trkpt>
      <trkpt lat="43.72648" lon="7.01193">
        <ele>946.074707</ele>
        <time>2011-07-24T07:51:08Z</time>
      </trkpt>
      <trkpt lat="43.72648" lon="7.01193">
        <ele>946.074707</ele>
        <time>2011-07-24T07:51:17Z</time>
      </trkpt>
      <trkpt lat="43.72647" lon="7.01193">
        <ele>945.5939941</ele>
        <time>2011-07-24T07:51:30Z</time>
      </trkpt>
      <trkpt lat="43.72647" lon="7.01194">
        <ele>945.5939941</ele>
        <time>2011-07-24T07:51:45Z</time>
      </trkpt>
      <trkpt lat="43.72647" lon="7.01194">
        <ele>946.074707</ele>
        <time>2011-07-24T07:51:51Z</time>
      </trkpt>
      <trkpt lat="43.72648" lon="7.01193">
        <ele>946.5554199</ele>
        <time>2011-07-24T07:52:12Z</time>
      </trkpt>
      <trkpt lat="43.72648" lon="7.01193">
        <ele>945.5939941</ele>
        <time>2011-07-24T07:52:24Z</time>
      </trkpt>
      <trkpt lat="43.72647" lon="7.01193">
        <ele>945.1132813</ele>
        <time>2011-07-24T07:52:31Z</time>
      </trkpt>
      <trkpt lat="43.72648" lon="7.01193">
        <ele>944.6325684</ele>
        <time>2011-07-24T07:52:49Z</time>
      </trkpt>
      <trkpt lat="43.72648" lon="7.01194">
        <ele>944.6325684</ele>
        <time>2011-07-24T07:52:57Z</time>
      </trkpt>
      <trkpt lat="43.72648" lon="7.01193">
        <ele>945.1132813</ele>
        <time>2011-07-24T07:53:36Z</time>
      </trkpt>
      <trkpt lat="43.72649" lon="7.01194">
        <ele>943.6713867</ele>
        <time>2011-07-24T07:53:49Z</time>
      </trkpt>
      <trkpt lat="43.7265" lon="7.01195">
        <ele>944.6325684</ele>
        <time>2011-07-24T07:53:57Z</time>
      </trkpt>
      <trkpt lat="43.7265" lon="7.01196">
        <ele>945.5939941</ele>
        <time>2011-07-24T07:54:14Z</time>
      </trkpt>
      <trkpt lat="43.7265" lon="7.01196">
        <ele>945.5939941</ele>
        <time>2011-07-24T07:54:31Z</time>
      </trkpt>
      <trkpt lat="43.72649" lon="7.01196">
        <ele>946.074707</ele>
        <time>2011-07-24T07:54:46Z</time>
      </trkpt>
      <trkpt lat="43.7265" lon="7.01196">
        <ele>946.074707</ele>
        <time>2011-07-24T07:54:51Z</time>
      </trkpt>
      <trkpt lat="43.7265" lon="7.01195">
        <ele>943.6713867</ele>
        <time>2011-07-24T07:55:46Z</time>
      </trkpt>
      <trkpt lat="43.7265" lon="7.01194">
        <ele>942.2294922</ele>
        <time>2011-07-24T07:56:10Z</time>
      </trkpt>
      <trkpt lat="43.72648" lon="7.01194">
        <ele>942.2294922</ele>
        <time>2011-07-24T07:56:24Z</time>
      </trkpt>
      <trkpt lat="43.72648" lon="7.01194">
        <ele>941.7487793</ele>
        <time>2011-07-24T07:56:34Z</time>
      </trkpt>
      <trkpt lat="43.72651" lon="7.01194">
        <ele>942.2294922</ele>
        <time>2011-07-24T07:56:44Z</time>
      </trkpt>
      <trkpt lat="43.72651" lon="7.01195">
        <ele>946.074707</ele>
        <time>2011-07-24T07:57:12Z</time>
      </trkpt>
      <trkpt lat="43.72648" lon="7.01195">
        <ele>947.5166016</ele>
        <time>2011-07-24T07:57:48Z</time>
      </trkpt>
      <trkpt lat="43.72648" lon="7.01195">
        <ele>947.9973145</ele>
        <time>2011-07-24T07:57:52Z</time>
      </trkpt>
      <trkpt lat="43.72649" lon="7.01195">
        <ele>949.439209</ele>
        <time>2011-07-24T07:58:03Z</time>
      </trkpt>
      <trkpt lat="43.72654" lon="7.01197">
        <ele>951.8425293</ele>
        <time>2011-07-24T07:58:21Z</time>
      </trkpt>
      <trkpt lat="43.72657" lon="7.01197">
        <ele>951.8425293</ele>
        <time>2011-07-24T07:58:26Z</time>
      </trkpt>
      <trkpt lat="43.72662" lon="7.01197">
        <ele>951.3618164</ele>
        <time>2011-07-24T07:58:33Z</time>
      </trkpt>
      <trkpt lat="43.72663" lon="7.01195">
        <ele>949.439209</ele>
        <time>2011-07-24T07:58:39Z</time>
      </trkpt>
      <trkpt lat="43.72662" lon="7.01195">
        <ele>949.439209</ele>
        <time>2011-07-24T07:58:46Z</time>
      </trkpt>
      <trkpt lat="43.72661" lon="7.01195">
        <ele>948.4777832</ele>
        <time>2011-07-24T07:58:57Z</time>
      </trkpt>
      <trkpt lat="43.72657" lon="7.01196">
        <ele>947.9973145</ele>
        <time>2011-07-24T07:59:02Z</time>
      </trkpt>
      <trkpt lat="43.72656" lon="7.01196">
        <ele>947.9973145</ele>
        <time>2011-07-24T07:59:03Z</time>
      </trkpt>
      <trkpt lat="43.7265" lon="7.01198">
        <ele>947.5166016</ele>
        <time>2011-07-24T07:59:07Z</time>
      </trkpt>
      <trkpt lat="43.72635" lon="7.01207">
        <ele>946.5554199</ele>
        <time>2011-07-24T07:59:14Z</time>
      </trkpt>
      <trkpt lat="43.72624" lon="7.01217">
        <ele>945.1132813</ele>
        <time>2011-07-24T07:59:18Z</time>
      </trkpt>
      <trkpt lat="43.72602" lon="7.0123">
        <ele>942.7102051</ele>
        <time>2011-07-24T07:59:23Z</time>
      </trkpt>
      <trkpt lat="43.72568" lon="7.01246">
        <ele>940.7873535</ele>
        <time>2011-07-24T07:59:29Z</time>
      </trkpt>
      <trkpt lat="43.72557" lon="7.01255">
        <ele>939.8259277</ele>
        <time>2011-07-24T07:59:31Z</time>
      </trkpt>
      <trkpt lat="43.72522" lon="7.01293">
        <ele>935.9807129</ele>
        <time>2011-07-24T07:59:37Z</time>
      </trkpt>
      <trkpt lat="43.72492" lon="7.01315">
        <ele>934.0581055</ele>
        <time>2011-07-24T07:59:41Z</time>
      </trkpt>
      <trkpt lat="43.72461" lon="7.01335">
        <ele>932.6162109</ele>
        <time>2011-07-24T07:59:45Z</time>
      </trkpt>
      <trkpt lat="43.72424" lon="7.01358">
        <ele>930.6936035</ele>
        <time>2011-07-24T07:59:51Z</time>
      </trkpt>
      <trkpt lat="43.72419" lon="7.01363">
        <ele>930.6936035</ele>
        <time>2011-07-24T07:59:52Z</time>
      </trkpt>
      <trkpt lat="43.72388" lon="7.01381">
        <ele>928.7709961</ele>
        <time>2011-07-24T07:59:57Z</time>
      </trkpt>
      <trkpt lat="43.72356" lon="7.01395">
        <ele>925.8869629</ele>
        <time>2011-07-24T08:00:02Z</time>
      </trkpt>
      <trkpt lat="43.72315" lon="7.014">
        <ele>922.5222168</ele>
        <time>2011-07-24T08:00:07Z</time>
      </trkpt>
      <trkpt lat="43.72291" lon="7.01403">
        <ele>920.5996094</ele>
        <time>2011-07-24T08:00:10Z</time>
      </trkpt>
      <trkpt lat="43.72276" lon="7.01409">
        <ele>920.1188965</ele>
        <time>2011-07-24T08:00:12Z</time>
      </trkpt>
      <trkpt lat="43.7225" lon="7.01424">
        <ele>918.1962891</ele>
        <time>2011-07-24T08:00:16Z</time>
      </trkpt>
      <trkpt lat="43.72233" lon="7.01451">
        <ele>914.8317871</ele>
        <time>2011-07-24T08:00:21Z</time>
      </trkpt>
      <trkpt lat="43.72223" lon="7.01464">
        <ele>912.4284668</ele>
        <time>2011-07-24T08:00:25Z</time>
      </trkpt>
      <trkpt lat="43.72216" lon="7.01455">
        <ele>910.0251465</ele>
        <time>2011-07-24T08:00:28Z</time>
      </trkpt>
      <trkpt lat="43.72212" lon="7.01422">
        <ele>906.6604004</ele>
        <time>2011-07-24T08:00:32Z</time>
      </trkpt>
      <trkpt lat="43.72211" lon="7.01412">
        <ele>905.2185059</ele>
        <time>2011-07-24T08:00:33Z</time>
      </trkpt>
      <trkpt lat="43.72213" lon="7.01344">
        <ele>898.9699707</ele>
        <time>2011-07-24T08:00:39Z</time>
      </trkpt>
      <trkpt lat="43.72221" lon="7.01271">
        <ele>891.2792969</ele>
        <time>2011-07-24T08:00:45Z</time>
      </trkpt>
      <trkpt lat="43.72225" lon="7.01238">
        <ele>888.3955078</ele>
        <time>2011-07-24T08:00:48Z</time>
      </trkpt>
      <trkpt lat="43.7222" lon="7.01215">
        <ele>887.9147949</ele>
        <time>2011-07-24T08:00:51Z</time>
      </trkpt>
      <trkpt lat="43.72197" lon="7.01204">
        <ele>886.9533691</ele>
        <time>2011-07-24T08:00:55Z</time>
      </trkpt>
      <trkpt lat="43.72177" lon="7.01208">
        <ele>886.4729004</ele>
        <time>2011-07-24T08:00:58Z</time>
      </trkpt>
      <trkpt lat="43.72151" lon="7.01216">
        <ele>886.4729004</ele>
        <time>2011-07-24T08:01:02Z</time>
      </trkpt>
      <trkpt lat="43.72124" lon="7.01212">
        <ele>886.4729004</ele>
        <time>2011-07-24T08:01:06Z</time>
      </trkpt>
      <trkpt lat="43.72106" lon="7.01197">
        <ele>884.550293</ele>
        <time>2011-07-24T08:01:09Z</time>
      </trkpt>
      <trkpt lat="43.7207" lon="7.01152">
        <ele>880.2243652</ele>
        <time>2011-07-24T08:01:15Z</time>
      </trkpt>
      <trkpt lat="43.72055" lon="7.01112">
        <ele>876.3791504</ele>
        <time>2011-07-24T08:01:19Z</time>
      </trkpt>
      <trkpt lat="43.72051" lon="7.01091">
        <ele>874.9370117</ele>
        <time>2011-07-24T08:01:21Z</time>
      </trkpt>
      <trkpt lat="43.7204" lon="7.01071">
        <ele>874.4562988</ele>
        <time>2011-07-24T08:01:24Z</time>
      </trkpt>
      <trkpt lat="43.72029" lon="7.01072">
        <ele>874.4562988</ele>
        <time>2011-07-24T08:01:26Z</time>
      </trkpt>
      <trkpt lat="43.7202" lon="7.01092">
        <ele>873.4951172</ele>
        <time>2011-07-24T08:01:29Z</time>
      </trkpt>
      <trkpt lat="43.72016" lon="7.01109">
        <ele>873.0144043</ele>
        <time>2011-07-24T08:01:31Z</time>
      </trkpt>
      <trkpt lat="43.72008" lon="7.01133">
        <ele>872.5336914</ele>
        <time>2011-07-24T08:01:34Z</time>
      </trkpt>
      <trkpt lat="43.72002" lon="7.01162">
        <ele>872.0529785</ele>
        <time>2011-07-24T08:01:38Z</time>
      </trkpt>
      <trkpt lat="43.71996" lon="7.01188">
        <ele>872.0529785</ele>
        <time>2011-07-24T08:01:42Z</time>
      </trkpt>
      <trkpt lat="43.71982" lon="7.01228">
        <ele>871.0917969</ele>
        <time>2011-07-24T08:01:49Z</time>
      </trkpt>
      <trkpt lat="43.7197" lon="7.01257">
        <ele>870.611084</ele>
        <time>2011-07-24T08:01:54Z</time>
      </trkpt>
      <trkpt lat="43.71968" lon="7.01291">
        <ele>869.1691895</ele>
        <time>2011-07-24T08:01:59Z</time>
      </trkpt>
      <trkpt lat="43.71979" lon="7.01325">
        <ele>868.2077637</ele>
        <time>2011-07-24T08:02:04Z</time>
      </trkpt>
      <trkpt lat="43.71986" lon="7.01369">
        <ele>867.7270508</ele>
        <time>2011-07-24T08:02:10Z</time>
      </trkpt>
      <trkpt lat="43.71989" lon="7.014">
        <ele>867.246582</ele>
        <time>2011-07-24T08:02:14Z</time>
      </trkpt>
      <trkpt lat="43.71986" lon="7.01429">
        <ele>866.7658691</ele>
        <time>2011-07-24T08:02:18Z</time>
      </trkpt>
      <trkpt lat="43.71976" lon="7.01464">
        <ele>867.246582</ele>
        <time>2011-07-24T08:02:23Z</time>
      </trkpt>
      <trkpt lat="43.71963" lon="7.01502">
        <ele>867.7270508</ele>
        <time>2011-07-24T08:02:29Z</time>
      </trkpt>
      <trkpt lat="43.71953" lon="7.01513">
        <ele>867.246582</ele>
        <time>2011-07-24T08:02:32Z</time>
      </trkpt>
      <trkpt lat="43.71945" lon="7.01514">
        <ele>867.246582</ele>
        <time>2011-07-24T08:02:34Z</time>
      </trkpt>
      <trkpt lat="43.71937" lon="7.01513">
        <ele>866.7658691</ele>
        <time>2011-07-24T08:02:36Z</time>
      </trkpt>
      <trkpt lat="43.71921" lon="7.01521">
        <ele>865.8046875</ele>
        <time>2011-07-24T08:02:40Z</time>
      </trkpt>
      <trkpt lat="43.71919" lon="7.01538">
        <ele>864.8432617</ele>
        <time>2011-07-24T08:02:43Z</time>
      </trkpt>
      <trkpt lat="43.7192" lon="7.01542">
        <ele>864.3625488</ele>
        <time>2011-07-24T08:02:44Z</time>
      </trkpt>
      <trkpt lat="43.71923" lon="7.01568">
        <ele>861.9594727</ele>
        <time>2011-07-24T08:02:48Z</time>
      </trkpt>
      <trkpt lat="43.71927" lon="7.01583">
        <ele>860.9980469</ele>
        <time>2011-07-24T08:02:50Z</time>
      </trkpt>
      <trkpt lat="43.7193" lon="7.01607">
        <ele>859.0751953</ele>
        <time>2011-07-24T08:02:53Z</time>
      </trkpt>
      <trkpt lat="43.7193" lon="7.0164">
        <ele>856.671875</ele>
        <time>2011-07-24T08:02:57Z</time>
      </trkpt>
      <trkpt lat="43.71931" lon="7.0166">
        <ele>854.2687988</ele>
        <time>2011-07-24T08:03:00Z</time>
      </trkpt>
      <trkpt lat="43.71921" lon="7.01672">
        <ele>851.8654785</ele>
        <time>2011-07-24T08:03:04Z</time>
      </trkpt>
      <trkpt lat="43.71916" lon="7.01672">
        <ele>850.9040527</ele>
        <time>2011-07-24T08:03:06Z</time>
      </trkpt>
      <trkpt lat="43.71912" lon="7.01673">
        <ele>850.9040527</ele>
        <time>2011-07-24T08:03:11Z</time>
      </trkpt>
      <trkpt lat="43.71912" lon="7.01674">
        <ele>850.423584</ele>
        <time>2011-07-24T08:03:22Z</time>
      </trkpt>
      <trkpt lat="43.71912" lon="7.01673">
        <ele>851.3847656</ele>
        <time>2011-07-24T08:03:36Z</time>
      </trkpt>
      <trkpt lat="43.71912" lon="7.01671">
        <ele>853.307373</ele>
        <time>2011-07-24T08:03:45Z</time>
      </trkpt>
      <trkpt lat="43.71912" lon="7.01672">
        <ele>851.3847656</ele>
        <time>2011-07-24T08:03:53Z</time>
      </trkpt>
      <trkpt lat="43.71912" lon="7.01673">
        <ele>850.9040527</ele>
        <time>2011-07-24T08:03:56Z</time>
      </trkpt>
      <trkpt lat="43.71912" lon="7.01672">
        <ele>850.423584</ele>
        <time>2011-07-24T08:04:03Z</time>
      </trkpt>
      <trkpt lat="43.71912" lon="7.01673">
        <ele>850.423584</ele>
        <time>2011-07-24T08:04:13Z</time>
      </trkpt>
      <trkpt lat="43.71912" lon="7.01673">
        <ele>850.9040527</ele>
        <time>2011-07-24T08:04:19Z</time>
      </trkpt>
      <trkpt lat="43.71912" lon="7.01673">
        <ele>852.3459473</ele>
        <time>2011-07-24T08:04:29Z</time>
      </trkpt>
      <trkpt lat="43.71913" lon="7.01673">
        <ele>852.3459473</ele>
        <time>2011-07-24T08:04:48Z</time>
      </trkpt>
      <trkpt lat="43.71913" lon="7.01674">
        <ele>852.3459473</ele>
        <time>2011-07-24T08:05:07Z</time>
      </trkpt>
      <trkpt lat="43.71912" lon="7.01674">
        <ele>852.3459473</ele>
        <time>2011-07-24T08:05:20Z</time>
      </trkpt>
      <trkpt lat="43.71907" lon="7.01682">
        <ele>851.3847656</ele>
        <time>2011-07-24T08:05:24Z</time>
      </trkpt>
      <trkpt lat="43.71911" lon="7.01698">
        <ele>850.423584</ele>
        <time>2011-07-24T08:05:28Z</time>
      </trkpt>
      <trkpt lat="43.71912" lon="7.01703">
        <ele>849.9428711</ele>
        <time>2011-07-24T08:05:29Z</time>
      </trkpt>
      <trkpt lat="43.71919" lon="7.0173">
        <ele>846.5783691</ele>
        <time>2011-07-24T08:05:34Z</time>
      </trkpt>
      <trkpt lat="43.71921" lon="7.01738">
        <ele>845.6169434</ele>
        <time>2011-07-24T08:05:35Z</time>
      </trkpt>
      <trkpt lat="43.71925" lon="7.01761">
        <ele>842.7329102</ele>
        <time>2011-07-24T08:05:38Z</time>
      </trkpt>
      <trkpt lat="43.71917" lon="7.01787">
        <ele>842.2521973</ele>
        <time>2011-07-24T08:05:42Z</time>
      </trkpt>
      <trkpt lat="43.71907" lon="7.01808">
        <ele>842.7329102</ele>
        <time>2011-07-24T08:05:46Z</time>
      </trkpt>
      <trkpt lat="43.71895" lon="7.01818">
        <ele>843.2133789</ele>
        <time>2011-07-24T08:05:50Z</time>
      </trkpt>
      <trkpt lat="43.71867" lon="7.01834">
        <ele>844.6555176</ele>
        <time>2011-07-24T08:05:58Z</time>
      </trkpt>
      <trkpt lat="43.71863" lon="7.01839">
        <ele>844.1750488</ele>
        <time>2011-07-24T08:05:59Z</time>
      </trkpt>
      <trkpt lat="43.71846" lon="7.01876">
        <ele>840.3295898</ele>
        <time>2011-07-24T08:06:04Z</time>
      </trkpt>
      <trkpt lat="43.71838" lon="7.01904">
        <ele>837.9262695</ele>
        <time>2011-07-24T08:06:08Z</time>
      </trkpt>
      <trkpt lat="43.7183" lon="7.01944">
        <ele>837.9262695</ele>
        <time>2011-07-24T08:06:15Z</time>
      </trkpt>
      <trkpt lat="43.71825" lon="7.01965">
        <ele>838.8876953</ele>
        <time>2011-07-24T08:06:20Z</time>
      </trkpt>
      <trkpt lat="43.71817" lon="7.01992">
        <ele>839.848877</ele>
        <time>2011-07-24T08:06:26Z</time>
      </trkpt>
      <trkpt lat="43.71812" lon="7.02014">
        <ele>841.2907715</ele>
        <time>2011-07-24T08:06:32Z</time>
      </trkpt>
      <trkpt lat="43.71809" lon="7.02031">
        <ele>843.6940918</ele>
        <time>2011-07-24T08:06:37Z</time>
      </trkpt>
      <trkpt lat="43.71806" lon="7.02045">
        <ele>844.1750488</ele>
        <time>2011-07-24T08:06:41Z</time>
      </trkpt>
      <trkpt lat="43.71804" lon="7.02059">
        <ele>845.1362305</ele>
        <time>2011-07-24T08:06:45Z</time>
      </trkpt>
      <trkpt lat="43.71802" lon="7.02076">
        <ele>846.0976563</ele>
        <time>2011-07-24T08:06:50Z</time>
      </trkpt>
      <trkpt lat="43.718" lon="7.02102">
        <ele>845.6169434</ele>
        <time>2011-07-24T08:06:57Z</time>
      </trkpt>
      <trkpt lat="43.71799" lon="7.02123">
        <ele>845.6169434</ele>
        <time>2011-07-24T08:07:02Z</time>
      </trkpt>
      <trkpt lat="43.718" lon="7.02153">
        <ele>845.6169434</ele>
        <time>2011-07-24T08:07:08Z</time>
      </trkpt>
      <trkpt lat="43.71802" lon="7.0218">
        <ele>845.6169434</ele>
        <time>2011-07-24T08:07:14Z</time>
      </trkpt>
      <trkpt lat="43.71802" lon="7.02218">
        <ele>845.6169434</ele>
        <time>2011-07-24T08:07:22Z</time>
      </trkpt>
      <trkpt lat="43.71804" lon="7.02243">
        <ele>844.6555176</ele>
        <time>2011-07-24T08:07:27Z</time>
      </trkpt>
      <trkpt lat="43.71805" lon="7.02275">
        <ele>844.6555176</ele>
        <time>2011-07-24T08:07:33Z</time>
      </trkpt>
      <trkpt lat="43.71805" lon="7.02309">
        <ele>845.1362305</ele>
        <time>2011-07-24T08:07:40Z</time>
      </trkpt>
      <trkpt lat="43.71806" lon="7.02345">
        <ele>845.1362305</ele>
        <time>2011-07-24T08:07:48Z</time>
      </trkpt>
      <trkpt lat="43.7181" lon="7.02389">
        <ele>844.1750488</ele>
        <time>2011-07-24T08:07:57Z</time>
      </trkpt>
      <trkpt lat="43.71811" lon="7.02423">
        <ele>843.6940918</ele>
        <time>2011-07-24T08:08:04Z</time>
      </trkpt>
      <trkpt lat="43.71812" lon="7.0245">
        <ele>843.6940918</ele>
        <time>2011-07-24T08:08:10Z</time>
      </trkpt>
      <trkpt lat="43.71806" lon="7.02491">
        <ele>843.2133789</ele>
        <time>2011-07-24T08:08:18Z</time>
      </trkpt>
      <trkpt lat="43.71798" lon="7.02526">
        <ele>844.1750488</ele>
        <time>2011-07-24T08:08:24Z</time>
      </trkpt>
      <trkpt lat="43.71791" lon="7.02558">
        <ele>845.1362305</ele>
        <time>2011-07-24T08:08:31Z</time>
      </trkpt>
      <trkpt lat="43.71782" lon="7.02584">
        <ele>845.1362305</ele>
        <time>2011-07-24T08:08:37Z</time>
      </trkpt>
      <trkpt lat="43.71766" lon="7.02604">
        <ele>846.0976563</ele>
        <time>2011-07-24T08:08:43Z</time>
      </trkpt>
      <trkpt lat="43.71738" lon="7.02622">
        <ele>847.0588379</ele>
        <time>2011-07-24T08:08:52Z</time>
      </trkpt>
      <trkpt lat="43.71711" lon="7.02628">
        <ele>847.5395508</ele>
        <time>2011-07-24T08:08:59Z</time>
      </trkpt>
      <trkpt lat="43.71689" lon="7.02641">
        <ele>847.0588379</ele>
        <time>2011-07-24T08:09:06Z</time>
      </trkpt>
      <trkpt lat="43.71675" lon="7.02655">
        <ele>849.4621582</ele>
        <time>2011-07-24T08:09:12Z</time>
      </trkpt>
      <trkpt lat="43.71667" lon="7.02675">
        <ele>850.9040527</ele>
        <time>2011-07-24T08:09:18Z</time>
      </trkpt>
      <trkpt lat="43.71667" lon="7.02702">
        <ele>849.9428711</ele>
        <time>2011-07-24T08:09:24Z</time>
      </trkpt>
      <trkpt lat="43.71675" lon="7.02733">
        <ele>849.9428711</ele>
        <time>2011-07-24T08:09:31Z</time>
      </trkpt>
      <trkpt lat="43.71691" lon="7.02756">
        <ele>849.9428711</ele>
        <time>2011-07-24T08:09:38Z</time>
      </trkpt>
      <trkpt lat="43.7171" lon="7.0278">
        <ele>850.423584</ele>
        <time>2011-07-24T08:09:46Z</time>
      </trkpt>
      <trkpt lat="43.71729" lon="7.02806">
        <ele>850.9040527</ele>
        <time>2011-07-24T08:09:54Z</time>
      </trkpt>
      <trkpt lat="43.71754" lon="7.02841">
        <ele>850.9040527</ele>
        <time>2011-07-24T08:10:04Z</time>
      </trkpt>
      <trkpt lat="43.71776" lon="7.02874">
        <ele>850.9040527</ele>
        <time>2011-07-24T08:10:12Z</time>
      </trkpt>
      <trkpt lat="43.71795" lon="7.02902">
        <ele>849.9428711</ele>
        <time>2011-07-24T08:10:19Z</time>
      </trkpt>
      <trkpt lat="43.71815" lon="7.02931">
        <ele>848.5007324</ele>
        <time>2011-07-24T08:10:26Z</time>
      </trkpt>
      <trkpt lat="43.71828" lon="7.02949">
        <ele>846.5783691</ele>
        <time>2011-07-24T08:10:30Z</time>
      </trkpt>
      <trkpt lat="43.71854" lon="7.0298">
        <ele>843.6940918</ele>
        <time>2011-07-24T08:10:35Z</time>
      </trkpt>
      <trkpt lat="43.7187" lon="7.03005">
        <ele>841.2907715</ele>
        <time>2011-07-24T08:10:38Z</time>
      </trkpt>
      <trkpt lat="43.71898" lon="7.03061">
        <ele>836.9648438</ele>
        <time>2011-07-24T08:10:44Z</time>
      </trkpt>
      <trkpt lat="43.71902" lon="7.0307">
        <ele>836.0036621</ele>
        <time>2011-07-24T08:10:45Z</time>
      </trkpt>
      <trkpt lat="43.71916" lon="7.03118">
        <ele>834.0810547</ele>
        <time>2011-07-24T08:10:50Z</time>
      </trkpt>
      <trkpt lat="43.71917" lon="7.03145">
        <ele>832.6391602</ele>
        <time>2011-07-24T08:10:53Z</time>
      </trkpt>
      <trkpt lat="43.71916" lon="7.03183">
        <ele>833.1196289</ele>
        <time>2011-07-24T08:10:58Z</time>
      </trkpt>
      <trkpt lat="43.71916" lon="7.03196">
        <ele>833.1196289</ele>
        <time>2011-07-24T08:11:00Z</time>
      </trkpt>
      <trkpt lat="43.71922" lon="7.03226">
        <ele>833.1196289</ele>
        <time>2011-07-24T08:11:05Z</time>
      </trkpt>
      <trkpt lat="43.71934" lon="7.03245">
        <ele>833.6003418</ele>
        <time>2011-07-24T08:11:10Z</time>
      </trkpt>
      <trkpt lat="43.71959" lon="7.03276">
        <ele>833.6003418</ele>
        <time>2011-07-24T08:11:19Z</time>
      </trkpt>
      <trkpt lat="43.7197" lon="7.03293">
        <ele>832.6391602</ele>
        <time>2011-07-24T08:11:23Z</time>
      </trkpt>
      <trkpt lat="43.71984" lon="7.03321">
        <ele>830.2358398</ele>
        <time>2011-07-24T08:11:27Z</time>
      </trkpt>
      <trkpt lat="43.72001" lon="7.03361">
        <ele>826.8710938</ele>
        <time>2011-07-24T08:11:32Z</time>
      </trkpt>
      <trkpt lat="43.72014" lon="7.03384">
        <ele>824.9484863</ele>
        <time>2011-07-24T08:11:35Z</time>
      </trkpt>
      <trkpt lat="43.7203" lon="7.03423">
        <ele>821.5837402</ele>
        <time>2011-07-24T08:11:40Z</time>
      </trkpt>
      <trkpt lat="43.72035" lon="7.03451">
        <ele>820.1418457</ele>
        <time>2011-07-24T08:11:44Z</time>
      </trkpt>
      <trkpt lat="43.72036" lon="7.03475">
        <ele>819.661377</ele>
        <time>2011-07-24T08:11:47Z</time>
      </trkpt>
      <trkpt lat="43.72047" lon="7.03508">
        <ele>818.6999512</ele>
        <time>2011-07-24T08:11:52Z</time>
      </trkpt>
      <trkpt lat="43.72056" lon="7.03521">
        <ele>818.6999512</ele>
        <time>2011-07-24T08:11:55Z</time>
      </trkpt>
      <trkpt lat="43.7206" lon="7.03527">
        <ele>818.6999512</ele>
        <time>2011-07-24T08:12:00Z</time>
      </trkpt>
      <trkpt lat="43.72059" lon="7.03528">
        <ele>820.1418457</ele>
        <time>2011-07-24T08:12:09Z</time>
      </trkpt>
      <trkpt lat="43.72061" lon="7.03529">
        <ele>822.545166</ele>
        <time>2011-07-24T08:12:17Z</time>
      </trkpt>
      <trkpt lat="43.72062" lon="7.03528">
        <ele>822.545166</ele>
        <time>2011-07-24T08:12:23Z</time>
      </trkpt>
      <trkpt lat="43.72063" lon="7.03528">
        <ele>822.545166</ele>
        <time>2011-07-24T08:12:27Z</time>
      </trkpt>
      <trkpt lat="43.72064" lon="7.03529">
        <ele>823.5065918</ele>
        <time>2011-07-24T08:12:33Z</time>
      </trkpt>
      <trkpt lat="43.72066" lon="7.03528">
        <ele>823.0258789</ele>
        <time>2011-07-24T08:12:36Z</time>
      </trkpt>
      <trkpt lat="43.72067" lon="7.03526">
        <ele>822.0644531</ele>
        <time>2011-07-24T08:12:45Z</time>
      </trkpt>
      <trkpt lat="43.72066" lon="7.03524">
        <ele>819.661377</ele>
        <time>2011-07-24T08:13:11Z</time>
      </trkpt>
      <trkpt lat="43.72066" lon="7.03522">
        <ele>815.8161621</ele>
        <time>2011-07-24T08:13:25Z</time>
      </trkpt>
      <trkpt lat="43.72067" lon="7.03521">
        <ele>812.9321289</ele>
        <time>2011-07-24T08:14:03Z</time>
      </trkpt>
      <trkpt lat="43.72065" lon="7.03524">
        <ele>813.4128418</ele>
        <time>2011-07-24T08:14:17Z</time>
      </trkpt>
      <trkpt lat="43.72064" lon="7.03524">
        <ele>815.3354492</ele>
        <time>2011-07-24T08:14:29Z</time>
      </trkpt>
      <trkpt lat="43.72064" lon="7.03527">
        <ele>820.1418457</ele>
        <time>2011-07-24T08:14:44Z</time>
      </trkpt>
      <trkpt lat="43.72063" lon="7.03528">
        <ele>821.5837402</ele>
        <time>2011-07-24T08:14:57Z</time>
      </trkpt>
      <trkpt lat="43.72063" lon="7.03528">
        <ele>821.5837402</ele>
        <time>2011-07-24T08:15:02Z</time>
      </trkpt>
      <trkpt lat="43.72064" lon="7.03526">
        <ele>820.1418457</ele>
        <time>2011-07-24T08:15:16Z</time>
      </trkpt>
      <trkpt lat="43.72064" lon="7.03526">
        <ele>819.661377</ele>
        <time>2011-07-24T08:15:19Z</time>
      </trkpt>
      <trkpt lat="43.72064" lon="7.03523">
        <ele>816.7773438</ele>
        <time>2011-07-24T08:16:06Z</time>
      </trkpt>
      <trkpt lat="43.72064" lon="7.03524">
        <ele>817.2580566</ele>
        <time>2011-07-24T08:16:09Z</time>
      </trkpt>
      <trkpt lat="43.72064" lon="7.03524">
        <ele>817.2580566</ele>
        <time>2011-07-24T08:16:10Z</time>
      </trkpt>
      <trkpt lat="43.72064" lon="7.03524">
        <ele>817.2580566</ele>
        <time>2011-07-24T08:16:40Z</time>
      </trkpt>
      <trkpt lat="43.72063" lon="7.03526">
        <ele>818.6999512</ele>
        <time>2011-07-24T08:16:49Z</time>
      </trkpt>
      <trkpt lat="43.72062" lon="7.03529">
        <ele>821.1032715</ele>
        <time>2011-07-24T08:17:11Z</time>
      </trkpt>
      <trkpt lat="43.7206" lon="7.03528">
        <ele>819.661377</ele>
        <time>2011-07-24T08:17:32Z</time>
      </trkpt>
      <trkpt lat="43.72062" lon="7.03528">
        <ele>822.545166</ele>
        <time>2011-07-24T08:17:45Z</time>
      </trkpt>
      <trkpt lat="43.72063" lon="7.03527">
        <ele>821.1032715</ele>
        <time>2011-07-24T08:17:53Z</time>
      </trkpt>
      <trkpt lat="43.72061" lon="7.03528">
        <ele>820.1418457</ele>
        <time>2011-07-24T08:17:58Z</time>
      </trkpt>
      <trkpt lat="43.72059" lon="7.03529">
        <ele>819.661377</ele>
        <time>2011-07-24T08:18:09Z</time>
      </trkpt>
      <trkpt lat="43.72045" lon="7.03519">
        <ele>818.6999512</ele>
        <time>2011-07-24T08:18:15Z</time>
      </trkpt>
      <trkpt lat="43.72022" lon="7.03505">
        <ele>816.7773438</ele>
        <time>2011-07-24T08:18:21Z</time>
      </trkpt>
      <trkpt lat="43.72014" lon="7.03491">
        <ele>815.3354492</ele>
        <time>2011-07-24T08:18:24Z</time>
      </trkpt>
      <trkpt lat="43.72014" lon="7.03474">
        <ele>814.3740234</ele>
        <time>2011-07-24T08:18:28Z</time>
      </trkpt>
      <trkpt lat="43.7202" lon="7.0346">
        <ele>813.4128418</ele>
        <time>2011-07-24T08:18:32Z</time>
      </trkpt>
      <trkpt lat="43.72015" lon="7.03441">
        <ele>809.5673828</ele>
        <time>2011-07-24T08:18:36Z</time>
      </trkpt>
      <trkpt lat="43.72002" lon="7.03424">
        <ele>805.2414551</ele>
        <time>2011-07-24T08:18:40Z</time>
      </trkpt>
      <trkpt lat="43.71985" lon="7.03403">
        <ele>806.2026367</ele>
        <time>2011-07-24T08:18:44Z</time>
      </trkpt>
      <trkpt lat="43.7198" lon="7.034">
        <ele>808.605957</ele>
        <time>2011-07-24T08:18:45Z</time>
      </trkpt>
      <trkpt lat="43.71968" lon="7.03389">
        <ele>809.0866699</ele>
        <time>2011-07-24T08:18:48Z</time>
      </trkpt>
      <trkpt lat="43.71947" lon="7.0337">
        <ele>808.605957</ele>
        <time>2011-07-24T08:18:54Z</time>
      </trkpt>
      <trkpt lat="43.71938" lon="7.03363">
        <ele>805.722168</ele>
        <time>2011-07-24T08:18:57Z</time>
      </trkpt>
      <trkpt lat="43.71916" lon="7.03367">
        <ele>802.3574219</ele>
        <time>2011-07-24T08:19:02Z</time>
      </trkpt>
      <trkpt lat="43.71892" lon="7.0338">
        <ele>799.4736328</ele>
        <time>2011-07-24T08:19:07Z</time>
      </trkpt>
      <trkpt lat="43.71883" lon="7.03385">
        <ele>797.0703125</ele>
        <time>2011-07-24T08:19:09Z</time>
      </trkpt>
      <trkpt lat="43.71866" lon="7.03383">
        <ele>791.3022461</ele>
        <time>2011-07-24T08:19:14Z</time>
      </trkpt>
      <trkpt lat="43.71854" lon="7.03362">
        <ele>785.5344238</ele>
        <time>2011-07-24T08:19:19Z</time>
      </trkpt>
      <trkpt lat="43.71849" lon="7.03352">
        <ele>783.1311035</ele>
        <time>2011-07-24T08:19:21Z</time>
      </trkpt>
      <trkpt lat="43.71835" lon="7.03326">
        <ele>780.2473145</ele>
        <time>2011-07-24T08:19:27Z</time>
      </trkpt>
      <trkpt lat="43.7183" lon="7.03317">
        <ele>778.8051758</ele>
        <time>2011-07-24T08:19:31Z</time>
      </trkpt>
      <trkpt lat="43.71829" lon="7.03318">
        <ele>778.8051758</ele>
        <time>2011-07-24T08:19:36Z</time>
      </trkpt>
      <trkpt lat="43.71828" lon="7.03318">
        <ele>779.2856445</ele>
        <time>2011-07-24T08:19:37Z</time>
      </trkpt>
      <trkpt lat="43.71819" lon="7.03303">
        <ele>776.8825684</ele>
        <time>2011-07-24T08:19:43Z</time>
      </trkpt>
      <trkpt lat="43.71819" lon="7.03292">
        <ele>775.4404297</ele>
        <time>2011-07-24T08:19:45Z</time>
      </trkpt>
      <trkpt lat="43.71816" lon="7.03261">
        <ele>771.5952148</ele>
        <time>2011-07-24T08:19:51Z</time>
      </trkpt>
      <trkpt lat="43.71809" lon="7.03239">
        <ele>769.1921387</ele>
        <time>2011-07-24T08:19:55Z</time>
      </trkpt>
      <trkpt lat="43.71798" lon="7.03206">
        <ele>766.3081055</ele>
        <time>2011-07-24T08:20:00Z</time>
      </trkpt>
      <trkpt lat="43.71795" lon="7.03195">
        <ele>765.3469238</ele>
        <time>2011-07-24T08:20:02Z</time>
      </trkpt>
      <trkpt lat="43.71785" lon="7.03182">
        <ele>772.5566406</ele>
        <time>2011-07-24T08:20:09Z</time>
      </trkpt>
      <trkpt lat="43.71781" lon="7.03182">
        <ele>774.479248</ele>
        <time>2011-07-24T08:20:13Z</time>
      </trkpt>
      <trkpt lat="43.71779" lon="7.03181">
        <ele>771.5952148</ele>
        <time>2011-07-24T08:20:20Z</time>
      </trkpt>
      <trkpt lat="43.71774" lon="7.03186">
        <ele>769.6728516</ele>
        <time>2011-07-24T08:20:29Z</time>
      </trkpt>
      <trkpt lat="43.7177" lon="7.03188">
        <ele>769.1921387</ele>
        <time>2011-07-24T08:20:35Z</time>
      </trkpt>
      <trkpt lat="43.71766" lon="7.03189">
        <ele>768.7114258</ele>
        <time>2011-07-24T08:20:42Z</time>
      </trkpt>
      <trkpt lat="43.71765" lon="7.03186">
        <ele>766.7888184</ele>
        <time>2011-07-24T08:20:47Z</time>
      </trkpt>
      <trkpt lat="43.71762" lon="7.03186">
        <ele>766.3081055</ele>
        <time>2011-07-24T08:20:54Z</time>
      </trkpt>
      <trkpt lat="43.71757" lon="7.03184">
        <ele>764.385498</ele>
        <time>2011-07-24T08:20:58Z</time>
      </trkpt>
      <trkpt lat="43.71747" lon="7.03177">
        <ele>762.4626465</ele>
        <time>2011-07-24T08:21:03Z</time>
      </trkpt>
      <trkpt lat="43.71745" lon="7.03174">
        <ele>761.5014648</ele>
        <time>2011-07-24T08:21:04Z</time>
      </trkpt>
      <trkpt lat="43.71731" lon="7.03161">
        <ele>760.0593262</ele>
        <time>2011-07-24T08:21:10Z</time>
      </trkpt>
      <trkpt lat="43.71718" lon="7.03154">
        <ele>757.65625</ele>
        <time>2011-07-24T08:21:16Z</time>
      </trkpt>
      <trkpt lat="43.71707" lon="7.03148">
        <ele>756.6948242</ele>
        <time>2011-07-24T08:21:21Z</time>
      </trkpt>
      <trkpt lat="43.7169" lon="7.03137">
        <ele>754.291748</ele>
        <time>2011-07-24T08:21:28Z</time>
      </trkpt>
      <trkpt lat="43.7168" lon="7.03124">
        <ele>751.8884277</ele>
        <time>2011-07-24T08:21:33Z</time>
      </trkpt>
      <trkpt lat="43.71668" lon="7.03101">
        <ele>751.8884277</ele>
        <time>2011-07-24T08:21:38Z</time>
      </trkpt>
      <trkpt lat="43.71662" lon="7.0309">
        <ele>749.9658203</ele>
        <time>2011-07-24T08:21:42Z</time>
      </trkpt>
      <trkpt lat="43.7165" lon="7.03071">
        <ele>748.0432129</ele>
        <time>2011-07-24T08:21:48Z</time>
      </trkpt>
      <trkpt lat="43.7164" lon="7.03058">
        <ele>749.0043945</ele>
        <time>2011-07-24T08:21:52Z</time>
      </trkpt>
      <trkpt lat="43.71625" lon="7.03046">
        <ele>749.9658203</ele>
        <time>2011-07-24T08:21:57Z</time>
      </trkpt>
      <trkpt lat="43.71618" lon="7.03044">
        <ele>749.9658203</ele>
        <time>2011-07-24T08:22:00Z</time>
      </trkpt>
      <trkpt lat="43.71603" lon="7.03048">
        <ele>750.4465332</ele>
        <time>2011-07-24T08:22:05Z</time>
      </trkpt>
      <trkpt lat="43.7159" lon="7.03047">
        <ele>749.4851074</ele>
        <time>2011-07-24T08:22:09Z</time>
      </trkpt>
      <trkpt lat="43.71563" lon="7.03041">
        <ele>748.5236816</ele>
        <time>2011-07-24T08:22:15Z</time>
      </trkpt>
      <trkpt lat="43.71545" lon="7.03031">
        <ele>747.081543</ele>
        <time>2011-07-24T08:22:20Z</time>
      </trkpt>
      <trkpt lat="43.71541" lon="7.03029">
        <ele>747.081543</ele>
        <time>2011-07-24T08:22:21Z</time>
      </trkpt>
      <trkpt lat="43.71534" lon="7.03023">
        <ele>746.6010742</ele>
        <time>2011-07-24T08:22:24Z</time>
      </trkpt>
      <trkpt lat="43.71521" lon="7.03026">
        <ele>743.717041</ele>
        <time>2011-07-24T08:22:29Z</time>
      </trkpt>
      <trkpt lat="43.71498" lon="7.03032">
        <ele>742.7558594</ele>
        <time>2011-07-24T08:22:35Z</time>
      </trkpt>
      <trkpt lat="43.71477" lon="7.03034">
        <ele>743.717041</ele>
        <time>2011-07-24T08:22:40Z</time>
      </trkpt>
      <trkpt lat="43.71465" lon="7.03035">
        <ele>742.2751465</ele>
        <time>2011-07-24T08:22:44Z</time>
      </trkpt>
      <trkpt lat="43.71452" lon="7.0304">
        <ele>741.7944336</ele>
        <time>2011-07-24T08:22:48Z</time>
      </trkpt>
      <trkpt lat="43.71435" lon="7.03051">
        <ele>740.3525391</ele>
        <time>2011-07-24T08:22:53Z</time>
      </trkpt>
      <trkpt lat="43.71436" lon="7.03061">
        <ele>738.4299316</ele>
        <time>2011-07-24T08:22:58Z</time>
      </trkpt>
      <trkpt lat="43.7144" lon="7.03063">
        <ele>737.9492188</ele>
        <time>2011-07-24T08:23:02Z</time>
      </trkpt>
      <trkpt lat="43.71438" lon="7.03066">
        <ele>736.987793</ele>
        <time>2011-07-24T08:23:17Z</time>
      </trkpt>
      <trkpt lat="43.71438" lon="7.03064">
        <ele>732.1813965</ele>
        <time>2011-07-24T08:23:30Z</time>
      </trkpt>
      <trkpt lat="43.71439" lon="7.03062">
        <ele>731.2199707</ele>
        <time>2011-07-24T08:23:39Z</time>
      </trkpt>
      <trkpt lat="43.71439" lon="7.03062">
        <ele>731.7004395</ele>
        <time>2011-07-24T08:23:42Z</time>
      </trkpt>
      <trkpt lat="43.71441" lon="7.03063">
        <ele>735.0654297</ele>
        <time>2011-07-24T08:23:58Z</time>
      </trkpt>
      <trkpt lat="43.71448" lon="7.03063">
        <ele>735.0654297</ele>
        <time>2011-07-24T08:24:02Z</time>
      </trkpt>
      <trkpt lat="43.71453" lon="7.03062">
        <ele>735.0654297</ele>
        <time>2011-07-24T08:24:04Z</time>
      </trkpt>
      <trkpt lat="43.71468" lon="7.03068">
        <ele>732.6621094</ele>
        <time>2011-07-24T08:24:09Z</time>
      </trkpt>
      <trkpt lat="43.71485" lon="7.03077">
        <ele>730.7392578</ele>
        <time>2011-07-24T08:24:14Z</time>
      </trkpt>
      <trkpt lat="43.71504" lon="7.03084">
        <ele>727.8552246</ele>
        <time>2011-07-24T08:24:20Z</time>
      </trkpt>
      <trkpt lat="43.71518" lon="7.0309">
        <ele>726.4133301</ele>
        <time>2011-07-24T08:24:24Z</time>
      </trkpt>
      <trkpt lat="43.7153" lon="7.03099">
        <ele>724.9714355</ele>
        <time>2011-07-24T08:24:27Z</time>
      </trkpt>
      <trkpt lat="43.71541" lon="7.03108">
        <ele>722.0874023</ele>
        <time>2011-07-24T08:24:30Z</time>
      </trkpt>
      <trkpt lat="43.71553" lon="7.0312">
        <ele>719.6843262</ele>
        <time>2011-07-24T08:24:33Z</time>
      </trkpt>
      <trkpt lat="43.71574" lon="7.0313">
        <ele>718.2421875</ele>
        <time>2011-07-24T08:24:37Z</time>
      </trkpt>
      <trkpt lat="43.71594" lon="7.03135">
        <ele>716.3195801</ele>
        <time>2011-07-24T08:24:41Z</time>
      </trkpt>
      <trkpt lat="43.716" lon="7.03147">
        <ele>713.9160156</ele>
        <time>2011-07-24T08:24:45Z</time>
      </trkpt>
      <trkpt lat="43.71596" lon="7.0318">
        <ele>709.590332</ele>
        <time>2011-07-24T08:24:51Z</time>
      </trkpt>
      <trkpt lat="43.71593" lon="7.03208">
        <ele>703.8225098</ele>
        <time>2011-07-24T08:24:56Z</time>
      </trkpt>
      <trkpt lat="43.71594" lon="7.03239">
        <ele>699.9770508</ele>
        <time>2011-07-24T08:25:01Z</time>
      </trkpt>
      <trkpt lat="43.71594" lon="7.03258">
        <ele>698.0544434</ele>
        <time>2011-07-24T08:25:04Z</time>
      </trkpt>
      <trkpt lat="43.71595" lon="7.03285">
        <ele>694.6896973</ele>
        <time>2011-07-24T08:25:07Z</time>
      </trkpt>
      <trkpt lat="43.71596" lon="7.03299">
        <ele>692.767334</ele>
        <time>2011-07-24T08:25:09Z</time>
      </trkpt>
      <trkpt lat="43.71597" lon="7.03312">
        <ele>690.3640137</ele>
        <time>2011-07-24T08:25:11Z</time>
      </trkpt>
      <trkpt lat="43.71598" lon="7.03322">
        <ele>688.4414063</ele>
        <time>2011-07-24T08:25:14Z</time>
      </trkpt>
      <trkpt lat="43.71597" lon="7.03329">
        <ele>686.5187988</ele>
        <time>2011-07-24T08:25:18Z</time>
      </trkpt>
      <trkpt lat="43.71589" lon="7.03323">
        <ele>683.6345215</ele>
        <time>2011-07-24T08:25:22Z</time>
      </trkpt>
      <trkpt lat="43.71586" lon="7.03319">
        <ele>683.1538086</ele>
        <time>2011-07-24T08:25:23Z</time>
      </trkpt>
      <trkpt lat="43.71571" lon="7.03291">
        <ele>678.3474121</ele>
        <time>2011-07-24T08:25:28Z</time>
      </trkpt>
      <trkpt lat="43.71565" lon="7.03279">
        <ele>676.9055176</ele>
        <time>2011-07-24T08:25:30Z</time>
      </trkpt>
      <trkpt lat="43.71558" lon="7.03268">
        <ele>674.5021973</ele>
        <time>2011-07-24T08:25:32Z</time>
      </trkpt>
      <trkpt lat="43.71543" lon="7.03249">
        <ele>670.1762695</ele>
        <time>2011-07-24T08:25:37Z</time>
      </trkpt>
      <trkpt lat="43.71541" lon="7.03244">
        <ele>669.2150879</ele>
        <time>2011-07-24T08:25:40Z</time>
      </trkpt>
      <trkpt lat="43.7154" lon="7.03249">
        <ele>669.2150879</ele>
        <time>2011-07-24T08:25:43Z</time>
      </trkpt>
      <trkpt lat="43.71537" lon="7.03278">
        <ele>667.2922363</ele>
        <time>2011-07-24T08:25:48Z</time>
      </trkpt>
      <trkpt lat="43.71537" lon="7.03293">
        <ele>666.8115234</ele>
        <time>2011-07-24T08:25:51Z</time>
      </trkpt>
      <trkpt lat="43.71534" lon="7.03296">
        <ele>665.3696289</ele>
        <time>2011-07-24T08:25:55Z</time>
      </trkpt>
      <trkpt lat="43.71525" lon="7.03282">
        <ele>662.9663086</ele>
        <time>2011-07-24T08:26:00Z</time>
      </trkpt>
      <trkpt lat="43.71514" lon="7.03266">
        <ele>659.6018066</ele>
        <time>2011-07-24T08:26:04Z</time>
      </trkpt>
      <trkpt lat="43.71512" lon="7.03263">
        <ele>658.6403809</ele>
        <time>2011-07-24T08:26:06Z</time>
      </trkpt>
      <trkpt lat="43.71507" lon="7.03263">
        <ele>656.7177734</ele>
        <time>2011-07-24T08:26:11Z</time>
      </trkpt>
      <trkpt lat="43.71506" lon="7.03265">
        <ele>656.2370605</ele>
        <time>2011-07-24T08:26:20Z</time>
      </trkpt>
      <trkpt lat="43.71507" lon="7.03282">
        <ele>655.7565918</ele>
        <time>2011-07-24T08:26:25Z</time>
      </trkpt>
      <trkpt lat="43.71503" lon="7.033">
        <ele>655.2758789</ele>
        <time>2011-07-24T08:26:31Z</time>
      </trkpt>
      <trkpt lat="43.71502" lon="7.03301">
        <ele>655.7565918</ele>
        <time>2011-07-24T08:26:32Z</time>
      </trkpt>
      <trkpt lat="43.71501" lon="7.03304">
        <ele>657.1984863</ele>
        <time>2011-07-24T08:26:35Z</time>
      </trkpt>
      <trkpt lat="43.71499" lon="7.03297">
        <ele>652.8725586</ele>
        <time>2011-07-24T08:26:41Z</time>
      </trkpt>
      <trkpt lat="43.71496" lon="7.03294">
        <ele>649.9885254</ele>
        <time>2011-07-24T08:26:45Z</time>
      </trkpt>
      <trkpt lat="43.71496" lon="7.03296">
        <ele>649.5078125</ele>
        <time>2011-07-24T08:26:46Z</time>
      </trkpt>
      <trkpt lat="43.71496" lon="7.03307">
        <ele>648.065918</ele>
        <time>2011-07-24T08:26:49Z</time>
      </trkpt>
      <trkpt lat="43.715" lon="7.0332">
        <ele>644.2207031</ele>
        <time>2011-07-24T08:26:54Z</time>
      </trkpt>
      <trkpt lat="43.715" lon="7.03329">
        <ele>643.7399902</ele>
        <time>2011-07-24T08:26:56Z</time>
      </trkpt>
      <trkpt lat="43.71502" lon="7.03353">
        <ele>641.3366699</ele>
        <time>2011-07-24T08:27:01Z</time>
      </trkpt>
      <trkpt lat="43.71502" lon="7.0337">
        <ele>638.4528809</ele>
        <time>2011-07-24T08:27:06Z</time>
      </trkpt>
      <trkpt lat="43.71501" lon="7.03388">
        <ele>634.6074219</ele>
        <time>2011-07-24T08:27:11Z</time>
      </trkpt>
      <trkpt lat="43.71499" lon="7.034">
        <ele>633.1652832</ele>
        <time>2011-07-24T08:27:15Z</time>
      </trkpt>
      <trkpt lat="43.71494" lon="7.03414">
        <ele>629.3200684</ele>
        <time>2011-07-24T08:27:22Z</time>
      </trkpt>
      <trkpt lat="43.71492" lon="7.0342">
        <ele>629.3200684</ele>
        <time>2011-07-24T08:27:24Z</time>
      </trkpt>
      <trkpt lat="43.71489" lon="7.0343">
        <ele>628.3588867</ele>
        <time>2011-07-24T08:27:29Z</time>
      </trkpt>
      <trkpt lat="43.71483" lon="7.03444">
        <ele>626.9169922</ele>
        <time>2011-07-24T08:27:35Z</time>
      </trkpt>
      <trkpt lat="43.71481" lon="7.03447">
        <ele>626.4362793</ele>
        <time>2011-07-24T08:27:37Z</time>
      </trkpt>
      <trkpt lat="43.7148" lon="7.03461">
        <ele>622.1103516</ele>
        <time>2011-07-24T08:27:42Z</time>
      </trkpt>
      <trkpt lat="43.71472" lon="7.03476">
        <ele>618.7456055</ele>
        <time>2011-07-24T08:27:47Z</time>
      </trkpt>
      <trkpt lat="43.71469" lon="7.03489">
        <ele>617.7841797</ele>
        <time>2011-07-24T08:27:51Z</time>
      </trkpt>
      <trkpt lat="43.71465" lon="7.03509">
        <ele>617.7841797</ele>
        <time>2011-07-24T08:27:55Z</time>
      </trkpt>
      <trkpt lat="43.71463" lon="7.03535">
        <ele>612.4970703</ele>
        <time>2011-07-24T08:27:59Z</time>
      </trkpt>
      <trkpt lat="43.7146" lon="7.03554">
        <ele>610.5744629</ele>
        <time>2011-07-24T08:28:02Z</time>
      </trkpt>
      <trkpt lat="43.7145" lon="7.03578">
        <ele>607.6906738</ele>
        <time>2011-07-24T08:28:06Z</time>
      </trkpt>
      <trkpt lat="43.71444" lon="7.03591">
        <ele>606.2485352</ele>
        <time>2011-07-24T08:28:09Z</time>
      </trkpt>
      <trkpt lat="43.71436" lon="7.03601">
        <ele>604.8066406</ele>
        <time>2011-07-24T08:28:12Z</time>
      </trkpt>
      <trkpt lat="43.71434" lon="7.03602">
        <ele>605.2873535</ele>
        <time>2011-07-24T08:28:18Z</time>
      </trkpt>
      <trkpt lat="43.71435" lon="7.03602">
        <ele>605.2873535</ele>
        <time>2011-07-24T08:28:19Z</time>
      </trkpt>
      <trkpt lat="43.71438" lon="7.03599">
        <ele>606.2485352</ele>
        <time>2011-07-24T08:28:27Z</time>
      </trkpt>
      <trkpt lat="43.71438" lon="7.036">
        <ele>607.6906738</ele>
        <time>2011-07-24T08:28:34Z</time>
      </trkpt>
      <trkpt lat="43.71437" lon="7.03602">
        <ele>607.6906738</ele>
        <time>2011-07-24T08:28:40Z</time>
      </trkpt>
      <trkpt lat="43.71437" lon="7.03606">
        <ele>608.1713867</ele>
        <time>2011-07-24T08:28:44Z</time>
      </trkpt>
      <trkpt lat="43.71437" lon="7.03606">
        <ele>608.1713867</ele>
        <time>2011-07-24T08:28:48Z</time>
      </trkpt>
      <trkpt lat="43.71439" lon="7.03603">
        <ele>607.6906738</ele>
        <time>2011-07-24T08:28:58Z</time>
      </trkpt>
      <trkpt lat="43.71438" lon="7.03602">
        <ele>608.1713867</ele>
        <time>2011-07-24T08:29:04Z</time>
      </trkpt>
      <trkpt lat="43.71439" lon="7.03607">
        <ele>608.6518555</ele>
        <time>2011-07-24T08:29:09Z</time>
      </trkpt>
      <trkpt lat="43.71438" lon="7.03608">
        <ele>609.1325684</ele>
        <time>2011-07-24T08:29:12Z</time>
      </trkpt>
      <trkpt lat="43.71437" lon="7.03608">
        <ele>610.09375</ele>
        <time>2011-07-24T08:29:20Z</time>
      </trkpt>
      <trkpt lat="43.71437" lon="7.03607">
        <ele>610.09375</ele>
        <time>2011-07-24T08:29:23Z</time>
      </trkpt>
      <trkpt lat="43.71437" lon="7.03604">
        <ele>610.09375</ele>
        <time>2011-07-24T08:29:29Z</time>
      </trkpt>
      <trkpt lat="43.71437" lon="7.03604">
        <ele>609.6132813</ele>
        <time>2011-07-24T08:29:33Z</time>
      </trkpt>
      <trkpt lat="43.71438" lon="7.03602">
        <ele>609.1325684</ele>
        <time>2011-07-24T08:29:39Z</time>
      </trkpt>
      <trkpt lat="43.71436" lon="7.03603">
        <ele>611.0551758</ele>
        <time>2011-07-24T08:29:52Z</time>
      </trkpt>
      <trkpt lat="43.71434" lon="7.03606">
        <ele>612.0166016</ele>
        <time>2011-07-24T08:29:57Z</time>
      </trkpt>
      <trkpt lat="43.71435" lon="7.03607">
        <ele>611.0551758</ele>
        <time>2011-07-24T08:30:04Z</time>
      </trkpt>
      <trkpt lat="43.71434" lon="7.03606">
        <ele>610.5744629</ele>
        <time>2011-07-24T08:30:21Z</time>
      </trkpt>
      <trkpt lat="43.71434" lon="7.03606">
        <ele>609.1325684</ele>
        <time>2011-07-24T08:30:35Z</time>
      </trkpt>
      <trkpt lat="43.71434" lon="7.03606">
        <ele>608.1713867</ele>
        <time>2011-07-24T08:30:44Z</time>
      </trkpt>
      <trkpt lat="43.71432" lon="7.03606">
        <ele>608.1713867</ele>
        <time>2011-07-24T08:30:50Z</time>
      </trkpt>
      <trkpt lat="43.71434" lon="7.03606">
        <ele>608.1713867</ele>
        <time>2011-07-24T08:30:55Z</time>
      </trkpt>
      <trkpt lat="43.71435" lon="7.03607">
        <ele>608.6518555</ele>
        <time>2011-07-24T08:31:03Z</time>
      </trkpt>
      <trkpt lat="43.71436" lon="7.03606">
        <ele>609.1325684</ele>
        <time>2011-07-24T08:31:34Z</time>
      </trkpt>
      <trkpt lat="43.71436" lon="7.03607">
        <ele>609.6132813</ele>
        <time>2011-07-24T08:31:42Z</time>
      </trkpt>
      <trkpt lat="43.71434" lon="7.03608">
        <ele>610.5744629</ele>
        <time>2011-07-24T08:31:57Z</time>
      </trkpt>
      <trkpt lat="43.71433" lon="7.03609">
        <ele>611.0551758</ele>
        <time>2011-07-24T08:32:06Z</time>
      </trkpt>
      <trkpt lat="43.71433" lon="7.03607">
        <ele>613.9389648</ele>
        <time>2011-07-24T08:32:21Z</time>
      </trkpt>
      <trkpt lat="43.71433" lon="7.03607">
        <ele>613.4584961</ele>
        <time>2011-07-24T08:32:29Z</time>
      </trkpt>
      <trkpt lat="43.71434" lon="7.03607">
        <ele>612.0166016</ele>
        <time>2011-07-24T08:32:38Z</time>
      </trkpt>
      <trkpt lat="43.71434" lon="7.03607">
        <ele>610.09375</ele>
        <time>2011-07-24T08:32:50Z</time>
      </trkpt>
      <trkpt lat="43.71435" lon="7.03607">
        <ele>610.09375</ele>
        <time>2011-07-24T08:32:58Z</time>
      </trkpt>
      <trkpt lat="43.71435" lon="7.03607">
        <ele>610.09375</ele>
        <time>2011-07-24T08:33:16Z</time>
      </trkpt>
      <trkpt lat="43.71435" lon="7.03605">
        <ele>611.0551758</ele>
        <time>2011-07-24T08:33:26Z</time>
      </trkpt>
      <trkpt lat="43.71435" lon="7.03605">
        <ele>611.5358887</ele>
        <time>2011-07-24T08:33:34Z</time>
      </trkpt>
      <trkpt lat="43.71436" lon="7.03606">
        <ele>611.0551758</ele>
        <time>2011-07-24T08:33:41Z</time>
      </trkpt>
      <trkpt lat="43.71433" lon="7.03606">
        <ele>611.0551758</ele>
        <time>2011-07-24T08:33:47Z</time>
      </trkpt>
      <trkpt lat="43.71433" lon="7.03607">
        <ele>612.0166016</ele>
        <time>2011-07-24T08:33:55Z</time>
      </trkpt>
      <trkpt lat="43.71434" lon="7.03608">
        <ele>612.4970703</ele>
        <time>2011-07-24T08:34:03Z</time>
      </trkpt>
      <trkpt lat="43.71433" lon="7.03609">
        <ele>612.0166016</ele>
        <time>2011-07-24T08:34:07Z</time>
      </trkpt>
      <trkpt lat="43.71433" lon="7.03609">
        <ele>612.4970703</ele>
        <time>2011-07-24T08:34:18Z</time>
      </trkpt>
      <trkpt lat="43.71433" lon="7.03609">
        <ele>611.5358887</ele>
        <time>2011-07-24T08:34:25Z</time>
      </trkpt>
      <trkpt lat="43.71433" lon="7.03609">
        <ele>611.5358887</ele>
        <time>2011-07-24T08:34:29Z</time>
      </trkpt>
      <trkpt lat="43.71433" lon="7.03609">
        <ele>611.5358887</ele>
        <time>2011-07-24T08:34:32Z</time>
      </trkpt>
      <trkpt lat="43.71433" lon="7.03609">
        <ele>611.5358887</ele>
        <time>2011-07-24T08:34:33Z</time>
      </trkpt>
      <trkpt lat="43.71433" lon="7.03611">
        <ele>611.0551758</ele>
        <time>2011-07-24T08:34:38Z</time>
      </trkpt>
      <trkpt lat="43.71432" lon="7.03615">
        <ele>610.5744629</ele>
        <time>2011-07-24T08:34:43Z</time>
      </trkpt>
      <trkpt lat="43.71425" lon="7.0363">
        <ele>608.1713867</ele>
        <time>2011-07-24T08:34:50Z</time>
      </trkpt>
      <trkpt lat="43.71419" lon="7.03645">
        <ele>605.7680664</ele>
        <time>2011-07-24T08:34:54Z</time>
      </trkpt>
      <trkpt lat="43.71407" lon="7.03665">
        <ele>599.0385742</ele>
        <time>2011-07-24T08:34:59Z</time>
      </trkpt>
      <trkpt lat="43.71396" lon="7.03681">
        <ele>595.1933594</ele>
        <time>2011-07-24T08:35:03Z</time>
      </trkpt>
      <trkpt lat="43.71386" lon="7.03693">
        <ele>591.3481445</ele>
        <time>2011-07-24T08:35:07Z</time>
      </trkpt>
      <trkpt lat="43.71377" lon="7.03704">
        <ele>588.4643555</ele>
        <time>2011-07-24T08:35:11Z</time>
      </trkpt>
      <trkpt lat="43.71366" lon="7.03716">
        <ele>585.0996094</ele>
        <time>2011-07-24T08:35:16Z</time>
      </trkpt>
      <trkpt lat="43.71349" lon="7.03735">
        <ele>580.7736816</ele>
        <time>2011-07-24T08:35:22Z</time>
      </trkpt>
      <trkpt lat="43.71338" lon="7.03748">
        <ele>578.8510742</ele>
        <time>2011-07-24T08:35:26Z</time>
      </trkpt>
      <trkpt lat="43.71332" lon="7.03756">
        <ele>576.4477539</ele>
        <time>2011-07-24T08:35:30Z</time>
      </trkpt>
      <trkpt lat="43.7133" lon="7.03759">
        <ele>575.0058594</ele>
        <time>2011-07-24T08:35:32Z</time>
      </trkpt>
      <trkpt lat="43.71335" lon="7.03761">
        <ele>574.0444336</ele>
        <time>2011-07-24T08:35:38Z</time>
      </trkpt>
      <trkpt lat="43.71345" lon="7.0376">
        <ele>573.083252</ele>
        <time>2011-07-24T08:35:42Z</time>
      </trkpt>
      <trkpt lat="43.71355" lon="7.03761">
        <ele>570.6796875</ele>
        <time>2011-07-24T08:35:46Z</time>
      </trkpt>
      <trkpt lat="43.71369" lon="7.03759">
        <ele>568.7570801</ele>
        <time>2011-07-24T08:35:51Z</time>
      </trkpt>
      <trkpt lat="43.71373" lon="7.0376">
        <ele>567.7956543</ele>
        <time>2011-07-24T08:35:53Z</time>
      </trkpt>
      <trkpt lat="43.71372" lon="7.03766">
        <ele>565.3925781</ele>
        <time>2011-07-24T08:35:57Z</time>
      </trkpt>
      <trkpt lat="43.71365" lon="7.03775">
        <ele>561.0666504</ele>
        <time>2011-07-24T08:36:02Z</time>
      </trkpt>
      <trkpt lat="43.71363" lon="7.03778">
        <ele>560.5859375</ele>
        <time>2011-07-24T08:36:03Z</time>
      </trkpt>
      <trkpt lat="43.71359" lon="7.03783">
        <ele>560.1052246</ele>
        <time>2011-07-24T08:36:05Z</time>
      </trkpt>
      <trkpt lat="43.71367" lon="7.03784">
        <ele>558.1828613</ele>
        <time>2011-07-24T08:36:10Z</time>
      </trkpt>
      <trkpt lat="43.71379" lon="7.03783">
        <ele>557.2214355</ele>
        <time>2011-07-24T08:36:14Z</time>
      </trkpt>
      <trkpt lat="43.71395" lon="7.0378">
        <ele>555.7792969</ele>
        <time>2011-07-24T08:36:18Z</time>
      </trkpt>
      <trkpt lat="43.71411" lon="7.0378">
        <ele>552.4145508</ele>
        <time>2011-07-24T08:36:23Z</time>
      </trkpt>
      <trkpt lat="43.71417" lon="7.03784">
        <ele>552.4145508</ele>
        <time>2011-07-24T08:36:25Z</time>
      </trkpt>
      <trkpt lat="43.71418" lon="7.03792">
        <ele>551.934082</ele>
        <time>2011-07-24T08:36:29Z</time>
      </trkpt>
      <trkpt lat="43.71419" lon="7.03795">
        <ele>554.8178711</ele>
        <time>2011-07-24T08:36:39Z</time>
      </trkpt>
      <trkpt lat="43.71419" lon="7.03797">
        <ele>558.6633301</ele>
        <time>2011-07-24T08:36:53Z</time>
      </trkpt>
      <trkpt lat="43.71419" lon="7.03794">
        <ele>562.0280762</ele>
        <time>2011-07-24T08:37:01Z</time>
      </trkpt>
      <trkpt lat="43.71418" lon="7.03791">
        <ele>563.4699707</ele>
        <time>2011-07-24T08:37:05Z</time>
      </trkpt>
      <trkpt lat="43.71413" lon="7.03792">
        <ele>565.873291</ele>
        <time>2011-07-24T08:37:13Z</time>
      </trkpt>
      <trkpt lat="43.71412" lon="7.03793">
        <ele>565.3925781</ele>
        <time>2011-07-24T08:37:14Z</time>
      </trkpt>
      <trkpt lat="43.71398" lon="7.03807">
        <ele>567.3151855</ele>
        <time>2011-07-24T08:37:19Z</time>
      </trkpt>
      <trkpt lat="43.71387" lon="7.03833">
        <ele>568.7570801</ele>
        <time>2011-07-24T08:37:23Z</time>
      </trkpt>
      <trkpt lat="43.7138" lon="7.03849">
        <ele>569.7185059</ele>
        <time>2011-07-24T08:37:27Z</time>
      </trkpt>
      <trkpt lat="43.71375" lon="7.03862">
        <ele>566.8344727</ele>
        <time>2011-07-24T08:37:31Z</time>
      </trkpt>
      <trkpt lat="43.7137" lon="7.0388">
        <ele>566.3537598</ele>
        <time>2011-07-24T08:37:35Z</time>
      </trkpt>
      <trkpt lat="43.71366" lon="7.03894">
        <ele>562.0280762</ele>
        <time>2011-07-24T08:37:38Z</time>
      </trkpt>
      <trkpt lat="43.71353" lon="7.03913">
        <ele>552.8952637</ele>
        <time>2011-07-24T08:37:43Z</time>
      </trkpt>
      <trkpt lat="43.7135" lon="7.0393">
        <ele>546.1662598</ele>
        <time>2011-07-24T08:37:46Z</time>
      </trkpt>
      <trkpt lat="43.71343" lon="7.0396">
        <ele>542.8015137</ele>
        <time>2011-07-24T08:37:50Z</time>
      </trkpt>
      <trkpt lat="43.71341" lon="7.03974">
        <ele>542.8015137</ele>
        <time>2011-07-24T08:37:52Z</time>
      </trkpt>
      <trkpt lat="43.7134" lon="7.03988">
        <ele>541.84021</ele>
        <time>2011-07-24T08:37:54Z</time>
      </trkpt>
      <trkpt lat="43.71327" lon="7.04015">
        <ele>541.3594971</ele>
        <time>2011-07-24T08:37:59Z</time>
      </trkpt>
      <trkpt lat="43.71317" lon="7.04038">
        <ele>540.8789063</ele>
        <time>2011-07-24T08:38:03Z</time>
      </trkpt>
      <trkpt lat="43.71311" lon="7.04058">
        <ele>541.3594971</ele>
        <time>2011-07-24T08:38:06Z</time>
      </trkpt>
      <trkpt lat="43.71309" lon="7.04087">
        <ele>540.3983154</ele>
        <time>2011-07-24T08:38:11Z</time>
      </trkpt>
      <trkpt lat="43.71307" lon="7.04094">
        <ele>539.4368896</ele>
        <time>2011-07-24T08:38:13Z</time>
      </trkpt>
      <trkpt lat="43.71303" lon="7.04102">
        <ele>538.9562988</ele>
        <time>2011-07-24T08:38:15Z</time>
      </trkpt>
      <trkpt lat="43.71297" lon="7.0413">
        <ele>536.0723877</ele>
        <time>2011-07-24T08:38:21Z</time>
      </trkpt>
      <trkpt lat="43.71294" lon="7.04151">
        <ele>533.6689453</ele>
        <time>2011-07-24T08:38:26Z</time>
      </trkpt>
      <trkpt lat="43.71291" lon="7.04169">
        <ele>532.7077637</ele>
        <time>2011-07-24T08:38:30Z</time>
      </trkpt>
      <trkpt lat="43.71288" lon="7.04177">
        <ele>532.2270508</ele>
        <time>2011-07-24T08:38:32Z</time>
      </trkpt>
      <trkpt lat="43.71285" lon="7.0419">
        <ele>531.7463379</ele>
        <time>2011-07-24T08:38:36Z</time>
      </trkpt>
      <trkpt lat="43.71276" lon="7.04206">
        <ele>531.2657471</ele>
        <time>2011-07-24T08:38:41Z</time>
      </trkpt>
      <trkpt lat="43.7127" lon="7.04229">
        <ele>529.3431396</ele>
        <time>2011-07-24T08:38:46Z</time>
      </trkpt>
      <trkpt lat="43.71264" lon="7.04256">
        <ele>527.901001</ele>
        <time>2011-07-24T08:38:51Z</time>
      </trkpt>
      <trkpt lat="43.71263" lon="7.04274">
        <ele>527.901001</ele>
        <time>2011-07-24T08:38:54Z</time>
      </trkpt>
      <trkpt lat="43.71261" lon="7.0429">
        <ele>528.8625488</ele>
        <time>2011-07-24T08:38:57Z</time>
      </trkpt>
      <trkpt lat="43.71263" lon="7.04311">
        <ele>530.3044434</ele>
        <time>2011-07-24T08:39:02Z</time>
      </trkpt>
      <trkpt lat="43.7126" lon="7.04331">
        <ele>531.7463379</ele>
        <time>2011-07-24T08:39:08Z</time>
      </trkpt>
      <trkpt lat="43.71259" lon="7.04348">
        <ele>532.2270508</ele>
        <time>2011-07-24T08:39:13Z</time>
      </trkpt>
      <trkpt lat="43.71261" lon="7.04361">
        <ele>529.3431396</ele>
        <time>2011-07-24T08:39:17Z</time>
      </trkpt>
      <trkpt lat="43.71261" lon="7.04363">
        <ele>530.3044434</ele>
        <time>2011-07-24T08:39:26Z</time>
      </trkpt>
      <trkpt lat="43.7126" lon="7.04366">
        <ele>533.1883545</ele>
        <time>2011-07-24T08:39:40Z</time>
      </trkpt>
      <trkpt lat="43.7126" lon="7.04367">
        <ele>534.6303711</ele>
        <time>2011-07-24T08:39:45Z</time>
      </trkpt>
      <trkpt lat="43.7126" lon="7.04368">
        <ele>535.1109619</ele>
        <time>2011-07-24T08:39:50Z</time>
      </trkpt>
      <trkpt lat="43.7126" lon="7.04368">
        <ele>534.6303711</ele>
        <time>2011-07-24T08:39:54Z</time>
      </trkpt>
      <trkpt lat="43.71262" lon="7.04372">
        <ele>533.6689453</ele>
        <time>2011-07-24T08:40:07Z</time>
      </trkpt>
      <trkpt lat="43.71262" lon="7.04379">
        <ele>532.7077637</ele>
        <time>2011-07-24T08:40:10Z</time>
      </trkpt>
      <trkpt lat="43.71262" lon="7.04382">
        <ele>532.2270508</ele>
        <time>2011-07-24T08:40:11Z</time>
      </trkpt>
      <trkpt lat="43.71262" lon="7.04387">
        <ele>532.2270508</ele>
        <time>2011-07-24T08:40:13Z</time>
      </trkpt>
      <trkpt lat="43.71262" lon="7.04405">
        <ele>532.2270508</ele>
        <time>2011-07-24T08:40:19Z</time>
      </trkpt>
      <trkpt lat="43.71265" lon="7.04425">
        <ele>530.3044434</ele>
        <time>2011-07-24T08:40:24Z</time>
      </trkpt>
      <trkpt lat="43.7127" lon="7.04443">
        <ele>527.4204102</ele>
        <time>2011-07-24T08:40:28Z</time>
      </trkpt>
      <trkpt lat="43.71285" lon="7.04459">
        <ele>527.4204102</ele>
        <time>2011-07-24T08:40:33Z</time>
      </trkpt>
      <trkpt lat="43.71293" lon="7.04474">
        <ele>525.9783936</ele>
        <time>2011-07-24T08:40:37Z</time>
      </trkpt>
      <trkpt lat="43.713" lon="7.04504">
        <ele>522.6138916</ele>
        <time>2011-07-24T08:40:41Z</time>
      </trkpt>
      <trkpt lat="43.71311" lon="7.04551">
        <ele>520.2105713</ele>
        <time>2011-07-24T08:40:45Z</time>
      </trkpt>
      <trkpt lat="43.71318" lon="7.04571">
        <ele>519.7298584</ele>
        <time>2011-07-24T08:40:47Z</time>
      </trkpt>
      <trkpt lat="43.71331" lon="7.04603">
        <ele>519.7298584</ele>
        <time>2011-07-24T08:40:51Z</time>
      </trkpt>
      <trkpt lat="43.71335" lon="7.04632">
        <ele>519.2492676</ele>
        <time>2011-07-24T08:40:55Z</time>
      </trkpt>
      <trkpt lat="43.71336" lon="7.04649">
        <ele>517.807251</ele>
        <time>2011-07-24T08:40:57Z</time>
      </trkpt>
      <trkpt lat="43.7133" lon="7.04681">
        <ele>516.8459473</ele>
        <time>2011-07-24T08:41:01Z</time>
      </trkpt>
      <trkpt lat="43.71335" lon="7.04698">
        <ele>514.9233398</ele>
        <time>2011-07-24T08:41:04Z</time>
      </trkpt>
      <trkpt lat="43.71344" lon="7.04719">
        <ele>512.5200195</ele>
        <time>2011-07-24T08:41:09Z</time>
      </trkpt>
      <trkpt lat="43.71352" lon="7.04721">
        <ele>511.0780029</ele>
        <time>2011-07-24T08:41:13Z</time>
      </trkpt>
      <trkpt lat="43.71352" lon="7.04721">
        <ele>511.0780029</ele>
        <time>2011-07-24T08:41:17Z</time>
      </trkpt>
      <trkpt lat="43.71353" lon="7.04721">
        <ele>511.0780029</ele>
        <time>2011-07-24T08:41:23Z</time>
      </trkpt>
      <trkpt lat="43.71354" lon="7.04721">
        <ele>511.5587158</ele>
        <time>2011-07-24T08:41:27Z</time>
      </trkpt>
      <trkpt lat="43.71356" lon="7.0472">
        <ele>512.5200195</ele>
        <time>2011-07-24T08:41:30Z</time>
      </trkpt>
      <trkpt lat="43.71359" lon="7.04715">
        <ele>515.8846436</ele>
        <time>2011-07-24T08:41:37Z</time>
      </trkpt>
      <trkpt lat="43.71358" lon="7.04713">
        <ele>516.8459473</ele>
        <time>2011-07-24T08:41:43Z</time>
      </trkpt>
      <trkpt lat="43.7135" lon="7.04703">
        <ele>519.2492676</ele>
        <time>2011-07-24T08:41:51Z</time>
      </trkpt>
      <trkpt lat="43.71344" lon="7.04691">
        <ele>521.6525879</ele>
        <time>2011-07-24T08:41:58Z</time>
      </trkpt>
      <trkpt lat="43.71342" lon="7.04682">
        <ele>522.1331787</ele>
        <time>2011-07-24T08:42:03Z</time>
      </trkpt>
      <trkpt lat="43.71344" lon="7.04668">
        <ele>524.0557861</ele>
        <time>2011-07-24T08:42:11Z</time>
      </trkpt>
      <trkpt lat="43.71348" lon="7.04659">
        <ele>525.4978027</ele>
        <time>2011-07-24T08:42:17Z</time>
      </trkpt>
      <trkpt lat="43.71361" lon="7.04648">
        <ele>528.8625488</ele>
        <time>2011-07-24T08:42:29Z</time>
      </trkpt>
      <trkpt lat="43.71367" lon="7.04643">
        <ele>530.3044434</ele>
        <time>2011-07-24T08:42:35Z</time>
      </trkpt>
      <trkpt lat="43.71373" lon="7.04638">
        <ele>531.7463379</ele>
        <time>2011-07-24T08:42:41Z</time>
      </trkpt>
      <trkpt lat="43.71382" lon="7.0463">
        <ele>532.7077637</ele>
        <time>2011-07-24T08:42:49Z</time>
      </trkpt>
      <trkpt lat="43.7139" lon="7.04623">
        <ele>534.1496582</ele>
        <time>2011-07-24T08:42:57Z</time>
      </trkpt>
      <trkpt lat="43.71398" lon="7.04615">
        <ele>537.9949951</ele>
        <time>2011-07-24T08:43:05Z</time>
      </trkpt>
      <trkpt lat="43.71399" lon="7.04613">
        <ele>539.4368896</ele>
        <time>2011-07-24T08:43:10Z</time>
      </trkpt>
      <trkpt lat="43.71401" lon="7.04612">
        <ele>539.9176025</ele>
        <time>2011-07-24T08:43:14Z</time>
      </trkpt>
      <trkpt lat="43.71407" lon="7.04607">
        <ele>542.8015137</ele>
        <time>2011-07-24T08:43:24Z</time>
      </trkpt>
      <trkpt lat="43.71409" lon="7.04604">
        <ele>542.8015137</ele>
        <time>2011-07-24T08:43:32Z</time>
      </trkpt>
      <trkpt lat="43.71409" lon="7.04602">
        <ele>542.3209229</ele>
        <time>2011-07-24T08:43:52Z</time>
      </trkpt>
      <trkpt lat="43.71409" lon="7.04602">
        <ele>543.2821045</ele>
        <time>2011-07-24T08:44:03Z</time>
      </trkpt>
      <trkpt lat="43.71409" lon="7.04601">
        <ele>543.7628174</ele>
        <time>2011-07-24T08:44:09Z</time>
      </trkpt>
      <trkpt lat="43.71415" lon="7.04595">
        <ele>545.6855469</ele>
        <time>2011-07-24T08:44:18Z</time>
      </trkpt>
      <trkpt lat="43.71417" lon="7.04587">
        <ele>549.0500488</ele>
        <time>2011-07-24T08:44:26Z</time>
      </trkpt>
      <trkpt lat="43.71418" lon="7.04584">
        <ele>551.4533691</ele>
        <time>2011-07-24T08:44:34Z</time>
      </trkpt>
      <trkpt lat="43.71419" lon="7.04583">
        <ele>555.298584</ele>
        <time>2011-07-24T08:44:40Z</time>
      </trkpt>
      <trkpt lat="43.71421" lon="7.04576">
        <ele>554.3374023</ele>
        <time>2011-07-24T08:44:50Z</time>
      </trkpt>
      <trkpt lat="43.71423" lon="7.0457">
        <ele>552.8952637</ele>
        <time>2011-07-24T08:44:57Z</time>
      </trkpt>
      <trkpt lat="43.71426" lon="7.04564">
        <ele>555.7792969</ele>
        <time>2011-07-24T08:45:06Z</time>
      </trkpt>
      <trkpt lat="43.71428" lon="7.04561">
        <ele>557.7021484</ele>
        <time>2011-07-24T08:45:12Z</time>
      </trkpt>
      <trkpt lat="43.71429" lon="7.04559">
        <ele>559.6247559</ele>
        <time>2011-07-24T08:45:20Z</time>
      </trkpt>
      <trkpt lat="43.71431" lon="7.04554">
        <ele>561.5473633</ele>
        <time>2011-07-24T08:45:27Z</time>
      </trkpt>
      <trkpt lat="43.71431" lon="7.04551">
        <ele>559.6247559</ele>
        <time>2011-07-24T08:45:39Z</time>
      </trkpt>
      <trkpt lat="43.71432" lon="7.04548">
        <ele>559.6247559</ele>
        <time>2011-07-24T08:45:45Z</time>
      </trkpt>
      <trkpt lat="43.71433" lon="7.04546">
        <ele>561.5473633</ele>
        <time>2011-07-24T08:45:52Z</time>
      </trkpt>
      <trkpt lat="43.71435" lon="7.04538">
        <ele>561.0666504</ele>
        <time>2011-07-24T08:46:01Z</time>
      </trkpt>
      <trkpt lat="43.71437" lon="7.04533">
        <ele>562.0280762</ele>
        <time>2011-07-24T08:46:08Z</time>
      </trkpt>
      <trkpt lat="43.71437" lon="7.04529">
        <ele>563.9504395</ele>
        <time>2011-07-24T08:46:14Z</time>
      </trkpt>
      <trkpt lat="43.71438" lon="7.04522">
        <ele>563.9504395</ele>
        <time>2011-07-24T08:46:21Z</time>
      </trkpt>
      <trkpt lat="43.71438" lon="7.0452">
        <ele>566.8344727</ele>
        <time>2011-07-24T08:46:27Z</time>
      </trkpt>
      <trkpt lat="43.7144" lon="7.04515">
        <ele>570.1989746</ele>
        <time>2011-07-24T08:46:34Z</time>
      </trkpt>
      <trkpt lat="43.71442" lon="7.04509">
        <ele>572.1218262</ele>
        <time>2011-07-24T08:46:41Z</time>
      </trkpt>
      <trkpt lat="43.71443" lon="7.04505">
        <ele>573.083252</ele>
        <time>2011-07-24T08:46:48Z</time>
      </trkpt>
      <trkpt lat="43.71442" lon="7.04503">
        <ele>574.0444336</ele>
        <time>2011-07-24T08:46:57Z</time>
      </trkpt>
      <trkpt lat="43.71443" lon="7.04499">
        <ele>574.5251465</ele>
        <time>2011-07-24T08:47:04Z</time>
      </trkpt>
      <trkpt lat="43.71444" lon="7.04495">
        <ele>576.4477539</ele>
        <time>2011-07-24T08:47:12Z</time>
      </trkpt>
      <trkpt lat="43.71445" lon="7.0449">
        <ele>576.9284668</ele>
        <time>2011-07-24T08:47:20Z</time>
      </trkpt>
      <trkpt lat="43.71447" lon="7.04483">
        <ele>575.4863281</ele>
        <time>2011-07-24T08:47:26Z</time>
      </trkpt>
      <trkpt lat="43.71448" lon="7.04479">
        <ele>572.1218262</ele>
        <time>2011-07-24T08:47:32Z</time>
      </trkpt>
      <trkpt lat="43.71449" lon="7.04474">
        <ele>575.0058594</ele>
        <time>2011-07-24T08:47:39Z</time>
      </trkpt>
      <trkpt lat="43.7145" lon="7.0447">
        <ele>575.967041</ele>
        <time>2011-07-24T08:47:44Z</time>
      </trkpt>
      <trkpt lat="43.71452" lon="7.04465">
        <ele>577.4091797</ele>
        <time>2011-07-24T08:47:50Z</time>
      </trkpt>
      <trkpt lat="43.71453" lon="7.04462">
        <ele>579.331543</ele>
        <time>2011-07-24T08:47:59Z</time>
      </trkpt>
      <trkpt lat="43.71456" lon="7.04463">
        <ele>579.331543</ele>
        <time>2011-07-24T08:48:06Z</time>
      </trkpt>
      <trkpt lat="43.71459" lon="7.04463">
        <ele>580.7736816</ele>
        <time>2011-07-24T08:48:11Z</time>
      </trkpt>
      <trkpt lat="43.7146" lon="7.04466">
        <ele>582.6962891</ele>
        <time>2011-07-24T08:48:17Z</time>
      </trkpt>
      <trkpt lat="43.71459" lon="7.04466">
        <ele>586.5415039</ele>
        <time>2011-07-24T08:48:24Z</time>
      </trkpt>
      <trkpt lat="43.71462" lon="7.04471">
        <ele>590.8674316</ele>
        <time>2011-07-24T08:48:34Z</time>
      </trkpt>
      <trkpt lat="43.71464" lon="7.04473">
        <ele>587.0219727</ele>
        <time>2011-07-24T08:48:40Z</time>
      </trkpt>
      <trkpt lat="43.71467" lon="7.04478">
        <ele>585.5800781</ele>
        <time>2011-07-24T08:48:47Z</time>
      </trkpt>
      <trkpt lat="43.71468" lon="7.04481">
        <ele>584.6188965</ele>
        <time>2011-07-24T08:48:52Z</time>
      </trkpt>
      <trkpt lat="43.71471" lon="7.04479">
        <ele>585.5800781</ele>
        <time>2011-07-24T08:49:00Z</time>
      </trkpt>
      <trkpt lat="43.71473" lon="7.04478">
        <ele>589.4255371</ele>
        <time>2011-07-24T08:49:07Z</time>
      </trkpt>
      <trkpt lat="43.71476" lon="7.0448">
        <ele>589.4255371</ele>
        <time>2011-07-24T08:49:13Z</time>
      </trkpt>
      <trkpt lat="43.71477" lon="7.04483">
        <ele>590.3869629</ele>
        <time>2011-07-24T08:49:18Z</time>
      </trkpt>
      <trkpt lat="43.71479" lon="7.04485">
        <ele>590.8674316</ele>
        <time>2011-07-24T08:49:23Z</time>
      </trkpt>
      <trkpt lat="43.71483" lon="7.04489">
        <ele>592.7902832</ele>
        <time>2011-07-24T08:49:31Z</time>
      </trkpt>
      <trkpt lat="43.71486" lon="7.04494">
        <ele>594.2321777</ele>
        <time>2011-07-24T08:49:39Z</time>
      </trkpt>
      <trkpt lat="43.71488" lon="7.04497">
        <ele>598.5578613</ele>
        <time>2011-07-24T08:49:46Z</time>
      </trkpt>
      <trkpt lat="43.7149" lon="7.04499">
        <ele>598.5578613</ele>
        <time>2011-07-24T08:49:53Z</time>
      </trkpt>
      <trkpt lat="43.71495" lon="7.04504">
        <ele>595.6740723</ele>
        <time>2011-07-24T08:50:01Z</time>
      </trkpt>
      <trkpt lat="43.715" lon="7.0451">
        <ele>597.5966797</ele>
        <time>2011-07-24T08:50:09Z</time>
      </trkpt>
      <trkpt lat="43.71504" lon="7.04517">
        <ele>595.6740723</ele>
        <time>2011-07-24T08:50:19Z</time>
      </trkpt>
      <trkpt lat="43.71506" lon="7.04524">
        <ele>594.7126465</ele>
        <time>2011-07-24T08:50:27Z</time>
      </trkpt>
      <trkpt lat="43.71509" lon="7.04531">
        <ele>597.5966797</ele>
        <time>2011-07-24T08:50:35Z</time>
      </trkpt>
      <trkpt lat="43.71512" lon="7.04535">
        <ele>599.0385742</ele>
        <time>2011-07-24T08:50:42Z</time>
      </trkpt>
      <trkpt lat="43.71513" lon="7.04539">
        <ele>602.4030762</ele>
        <time>2011-07-24T08:50:48Z</time>
      </trkpt>
      <trkpt lat="43.71517" lon="7.04543">
        <ele>604.8066406</ele>
        <time>2011-07-24T08:50:56Z</time>
      </trkpt>
      <trkpt lat="43.71522" lon="7.0455">
        <ele>608.6518555</ele>
        <time>2011-07-24T08:51:06Z</time>
      </trkpt>
      <trkpt lat="43.71522" lon="7.04554">
        <ele>609.1325684</ele>
        <time>2011-07-24T08:51:12Z</time>
      </trkpt>
      <trkpt lat="43.71526" lon="7.04557">
        <ele>607.6906738</ele>
        <time>2011-07-24T08:51:20Z</time>
      </trkpt>
      <trkpt lat="43.71531" lon="7.04561">
        <ele>607.6906738</ele>
        <time>2011-07-24T08:51:28Z</time>
      </trkpt>
      <trkpt lat="43.71534" lon="7.04564">
        <ele>609.6132813</ele>
        <time>2011-07-24T08:51:34Z</time>
      </trkpt>
      <trkpt lat="43.71536" lon="7.04566">
        <ele>611.0551758</ele>
        <time>2011-07-24T08:51:40Z</time>
      </trkpt>
      <trkpt lat="43.71539" lon="7.0457">
        <ele>610.5744629</ele>
        <time>2011-07-24T08:51:47Z</time>
      </trkpt>
      <trkpt lat="43.71543" lon="7.04574">
        <ele>612.4970703</ele>
        <time>2011-07-24T08:51:54Z</time>
      </trkpt>
      <trkpt lat="43.71547" lon="7.04576">
        <ele>612.9777832</ele>
        <time>2011-07-24T08:52:01Z</time>
      </trkpt>
      <trkpt lat="43.7155" lon="7.04575">
        <ele>613.4584961</ele>
        <time>2011-07-24T08:52:08Z</time>
      </trkpt>
      <trkpt lat="43.7155" lon="7.0457">
        <ele>612.9777832</ele>
        <time>2011-07-24T08:52:21Z</time>
      </trkpt>
      <trkpt lat="43.71548" lon="7.04566">
        <ele>615.3811035</ele>
        <time>2011-07-24T08:52:30Z</time>
      </trkpt>
      <trkpt lat="43.71545" lon="7.04565">
        <ele>616.3422852</ele>
        <time>2011-07-24T08:52:37Z</time>
      </trkpt>
      <trkpt lat="43.71541" lon="7.04559">
        <ele>617.7841797</ele>
        <time>2011-07-24T08:52:45Z</time>
      </trkpt>
      <trkpt lat="43.71541" lon="7.04551">
        <ele>620.1877441</ele>
        <time>2011-07-24T08:52:55Z</time>
      </trkpt>
      <trkpt lat="43.7154" lon="7.04548">
        <ele>621.6296387</ele>
        <time>2011-07-24T08:53:00Z</time>
      </trkpt>
      <trkpt lat="43.71538" lon="7.04543">
        <ele>621.1491699</ele>
        <time>2011-07-24T08:53:06Z</time>
      </trkpt>
      <trkpt lat="43.71538" lon="7.04536">
        <ele>620.1877441</ele>
        <time>2011-07-24T08:53:14Z</time>
      </trkpt>
      <trkpt lat="43.7154" lon="7.04531">
        <ele>622.1103516</ele>
        <time>2011-07-24T08:53:21Z</time>
      </trkpt>
      <trkpt lat="43.71543" lon="7.04528">
        <ele>624.032959</ele>
        <time>2011-07-24T08:53:27Z</time>
      </trkpt>
      <trkpt lat="43.71544" lon="7.04527">
        <ele>624.5136719</ele>
        <time>2011-07-24T08:53:33Z</time>
      </trkpt>
      <trkpt lat="43.71546" lon="7.04527">
        <ele>624.032959</ele>
        <time>2011-07-24T08:53:40Z</time>
      </trkpt>
      <trkpt lat="43.71546" lon="7.04527">
        <ele>623.0717773</ele>
        <time>2011-07-24T08:54:05Z</time>
      </trkpt>
      <trkpt lat="43.71544" lon="7.04529">
        <ele>622.5910645</ele>
        <time>2011-07-24T08:54:15Z</time>
      </trkpt>
      <trkpt lat="43.71544" lon="7.04528">
        <ele>622.5910645</ele>
        <time>2011-07-24T08:54:17Z</time>
      </trkpt>
      <trkpt lat="43.71544" lon="7.04527">
        <ele>623.5524902</ele>
        <time>2011-07-24T08:54:44Z</time>
      </trkpt>
      <trkpt lat="43.71543" lon="7.04527">
        <ele>625.4748535</ele>
        <time>2011-07-24T08:54:52Z</time>
      </trkpt>
      <trkpt lat="43.71543" lon="7.04529">
        <ele>626.4362793</ele>
        <time>2011-07-24T08:55:03Z</time>
      </trkpt>
      <trkpt lat="43.71545" lon="7.04531">
        <ele>626.4362793</ele>
        <time>2011-07-24T08:55:08Z</time>
      </trkpt>
      <trkpt lat="43.71547" lon="7.04534">
        <ele>625.9555664</ele>
        <time>2011-07-24T08:55:13Z</time>
      </trkpt>
      <trkpt lat="43.71552" lon="7.04537">
        <ele>625.9555664</ele>
        <time>2011-07-24T08:55:21Z</time>
      </trkpt>
      <trkpt lat="43.71554" lon="7.04542">
        <ele>626.4362793</ele>
        <time>2011-07-24T08:55:27Z</time>
      </trkpt>
      <trkpt lat="43.71558" lon="7.04543">
        <ele>624.5136719</ele>
        <time>2011-07-24T08:55:35Z</time>
      </trkpt>
      <trkpt lat="43.71559" lon="7.04542">
        <ele>626.4362793</ele>
        <time>2011-07-24T08:55:42Z</time>
      </trkpt>
      <trkpt lat="43.71558" lon="7.04543">
        <ele>627.8781738</ele>
        <time>2011-07-24T08:55:43Z</time>
      </trkpt>
      <trkpt lat="43.71558" lon="7.04544">
        <ele>628.8395996</ele>
        <time>2011-07-24T08:55:44Z</time>
      </trkpt>
      <trkpt lat="43.7156" lon="7.04548">
        <ele>629.8007813</ele>
        <time>2011-07-24T08:55:51Z</time>
      </trkpt>
      <trkpt lat="43.71561" lon="7.0455">
        <ele>630.2814941</ele>
        <time>2011-07-24T08:55:56Z</time>
      </trkpt>
      <trkpt lat="43.71563" lon="7.04555">
        <ele>629.8007813</ele>
        <time>2011-07-24T08:56:03Z</time>
      </trkpt>
      <trkpt lat="43.71563" lon="7.04558">
        <ele>630.2814941</ele>
        <time>2011-07-24T08:56:09Z</time>
      </trkpt>
      <trkpt lat="43.71564" lon="7.04556">
        <ele>630.762207</ele>
        <time>2011-07-24T08:56:15Z</time>
      </trkpt>
      <trkpt lat="43.71565" lon="7.04551">
        <ele>632.6848145</ele>
        <time>2011-07-24T08:56:24Z</time>
      </trkpt>
      <trkpt lat="43.71565" lon="7.04547">
        <ele>634.126709</ele>
        <time>2011-07-24T08:56:31Z</time>
      </trkpt>
      <trkpt lat="43.71568" lon="7.04545">
        <ele>632.6848145</ele>
        <time>2011-07-24T08:56:37Z</time>
      </trkpt>
      <trkpt lat="43.7157" lon="7.04547">
        <ele>631.7233887</ele>
        <time>2011-07-24T08:56:44Z</time>
      </trkpt>
      <trkpt lat="43.71571" lon="7.04551">
        <ele>633.1652832</ele>
        <time>2011-07-24T08:56:53Z</time>
      </trkpt>
      <trkpt lat="43.7157" lon="7.04556">
        <ele>636.5302734</ele>
        <time>2011-07-24T08:57:01Z</time>
      </trkpt>
      <trkpt lat="43.71569" lon="7.04563">
        <ele>639.8947754</ele>
        <time>2011-07-24T08:57:10Z</time>
      </trkpt>
      <trkpt lat="43.71571" lon="7.04569">
        <ele>642.7788086</ele>
        <time>2011-07-24T08:57:20Z</time>
      </trkpt>
      <trkpt lat="43.71574" lon="7.04573">
        <ele>644.7011719</ele>
        <time>2011-07-24T08:57:29Z</time>
      </trkpt>
      <trkpt lat="43.71578" lon="7.04577">
        <ele>643.7399902</ele>
        <time>2011-07-24T08:57:37Z</time>
      </trkpt>
      <trkpt lat="43.71581" lon="7.04578">
        <ele>644.7011719</ele>
        <time>2011-07-24T08:57:44Z</time>
      </trkpt>
      <trkpt lat="43.71584" lon="7.0458">
        <ele>645.6625977</ele>
        <time>2011-07-24T08:57:50Z</time>
      </trkpt>
      <trkpt lat="43.71586" lon="7.04583">
        <ele>646.6240234</ele>
        <time>2011-07-24T08:57:55Z</time>
      </trkpt>
      <trkpt lat="43.71588" lon="7.04589">
        <ele>646.6240234</ele>
        <time>2011-07-24T08:58:03Z</time>
      </trkpt>
      <trkpt lat="43.71591" lon="7.04593">
        <ele>648.5463867</ele>
        <time>2011-07-24T08:58:10Z</time>
      </trkpt>
      <trkpt lat="43.71595" lon="7.04595">
        <ele>646.6240234</ele>
        <time>2011-07-24T08:58:17Z</time>
      </trkpt>
      <trkpt lat="43.71596" lon="7.04595">
        <ele>645.6625977</ele>
        <time>2011-07-24T08:58:23Z</time>
      </trkpt>
      <trkpt lat="43.71596" lon="7.04595">
        <ele>645.1818848</ele>
        <time>2011-07-24T08:58:30Z</time>
      </trkpt>
      <trkpt lat="43.71597" lon="7.04596">
        <ele>645.6625977</ele>
        <time>2011-07-24T08:58:39Z</time>
      </trkpt>
      <trkpt lat="43.71597" lon="7.04596">
        <ele>646.1433105</ele>
        <time>2011-07-24T08:58:58Z</time>
      </trkpt>
      <trkpt lat="43.71597" lon="7.04596">
        <ele>646.1433105</ele>
        <time>2011-07-24T08:59:02Z</time>
      </trkpt>
      <trkpt lat="43.71597" lon="7.04596">
        <ele>647.1044922</ele>
        <time>2011-07-24T08:59:07Z</time>
      </trkpt>
      <trkpt lat="43.71597" lon="7.04596">
        <ele>648.065918</ele>
        <time>2011-07-24T08:59:18Z</time>
      </trkpt>
      <trkpt lat="43.71598" lon="7.04596">
        <ele>648.5463867</ele>
        <time>2011-07-24T08:59:23Z</time>
      </trkpt>
      <trkpt lat="43.71598" lon="7.04596">
        <ele>648.5463867</ele>
        <time>2011-07-24T08:59:37Z</time>
      </trkpt>
      <trkpt lat="43.71598" lon="7.04596">
        <ele>648.065918</ele>
        <time>2011-07-24T08:59:45Z</time>
      </trkpt>
      <trkpt lat="43.71598" lon="7.04595">
        <ele>647.5852051</ele>
        <time>2011-07-24T09:00:01Z</time>
      </trkpt>
      <trkpt lat="43.71598" lon="7.04596">
        <ele>647.1044922</ele>
        <time>2011-07-24T09:00:08Z</time>
      </trkpt>
      <trkpt lat="43.71598" lon="7.04595">
        <ele>647.1044922</ele>
        <time>2011-07-24T09:00:22Z</time>
      </trkpt>
      <trkpt lat="43.71598" lon="7.04596">
        <ele>647.5852051</ele>
        <time>2011-07-24T09:00:54Z</time>
      </trkpt>
      <trkpt lat="43.71598" lon="7.04597">
        <ele>648.065918</ele>
        <time>2011-07-24T09:00:58Z</time>
      </trkpt>
      <trkpt lat="43.71598" lon="7.04597">
        <ele>648.5463867</ele>
        <time>2011-07-24T09:01:09Z</time>
      </trkpt>
      <trkpt lat="43.71599" lon="7.04596">
        <ele>648.065918</ele>
        <time>2011-07-24T09:01:50Z</time>
      </trkpt>
      <trkpt lat="43.71599" lon="7.04596">
        <ele>648.065918</ele>
        <time>2011-07-24T09:02:12Z</time>
      </trkpt>
      <trkpt lat="43.71599" lon="7.04595">
        <ele>648.065918</ele>
        <time>2011-07-24T09:02:22Z</time>
      </trkpt>
      <trkpt lat="43.716" lon="7.04595">
        <ele>648.5463867</ele>
        <time>2011-07-24T09:02:38Z</time>
      </trkpt>
      <trkpt lat="43.716" lon="7.04596">
        <ele>649.0270996</ele>
        <time>2011-07-24T09:03:03Z</time>
      </trkpt>
      <trkpt lat="43.71599" lon="7.04596">
        <ele>648.5463867</ele>
        <time>2011-07-24T09:04:22Z</time>
      </trkpt>
      <trkpt lat="43.71599" lon="7.04597">
        <ele>649.0270996</ele>
        <time>2011-07-24T09:04:28Z</time>
      </trkpt>
      <trkpt lat="43.71599" lon="7.04597">
        <ele>648.5463867</ele>
        <time>2011-07-24T09:04:48Z</time>
      </trkpt>
      <trkpt lat="43.71598" lon="7.04596">
        <ele>648.5463867</ele>
        <time>2011-07-24T09:05:12Z</time>
      </trkpt>
      <trkpt lat="43.71598" lon="7.04596">
        <ele>648.065918</ele>
        <time>2011-07-24T09:05:34Z</time>
      </trkpt>
      <trkpt lat="43.71598" lon="7.04595">
        <ele>647.5852051</ele>
        <time>2011-07-24T09:06:23Z</time>
      </trkpt>
      <trkpt lat="43.71599" lon="7.04595">
        <ele>647.5852051</ele>
        <time>2011-07-24T09:06:24Z</time>
      </trkpt>
      <trkpt lat="43.71601" lon="7.04595">
        <ele>647.5852051</ele>
        <time>2011-07-24T09:06:31Z</time>
      </trkpt>
      <trkpt lat="43.71606" lon="7.04597">
        <ele>647.1044922</ele>
        <time>2011-07-24T09:06:36Z</time>
      </trkpt>
      <trkpt lat="43.71607" lon="7.04598">
        <ele>647.1044922</ele>
        <time>2011-07-24T09:06:37Z</time>
      </trkpt>
      <trkpt lat="43.71614" lon="7.04602">
        <ele>647.5852051</ele>
        <time>2011-07-24T09:06:42Z</time>
      </trkpt>
      <trkpt lat="43.71627" lon="7.04606">
        <ele>649.0270996</ele>
        <time>2011-07-24T09:06:49Z</time>
      </trkpt>
      <trkpt lat="43.71629" lon="7.04607">
        <ele>649.5078125</ele>
        <time>2011-07-24T09:06:52Z</time>
      </trkpt>
      <trkpt lat="43.71631" lon="7.04609">
        <ele>649.5078125</ele>
        <time>2011-07-24T09:06:57Z</time>
      </trkpt>
      <trkpt lat="43.71635" lon="7.04611">
        <ele>649.9885254</ele>
        <time>2011-07-24T09:07:02Z</time>
      </trkpt>
      <trkpt lat="43.71638" lon="7.04612">
        <ele>651.4304199</ele>
        <time>2011-07-24T09:07:07Z</time>
      </trkpt>
      <trkpt lat="43.71643" lon="7.04612">
        <ele>652.3918457</ele>
        <time>2011-07-24T09:07:14Z</time>
      </trkpt>
      <trkpt lat="43.71646" lon="7.04614">
        <ele>652.3918457</ele>
        <time>2011-07-24T09:07:21Z</time>
      </trkpt>
      <trkpt lat="43.71649" lon="7.04614">
        <ele>652.3918457</ele>
        <time>2011-07-24T09:07:27Z</time>
      </trkpt>
      <trkpt lat="43.71646" lon="7.0461">
        <ele>653.3532715</ele>
        <time>2011-07-24T09:07:34Z</time>
      </trkpt>
      <trkpt lat="43.71643" lon="7.04605">
        <ele>653.8339844</ele>
        <time>2011-07-24T09:07:43Z</time>
      </trkpt>
      <trkpt lat="43.71642" lon="7.04601">
        <ele>654.3146973</ele>
        <time>2011-07-24T09:07:51Z</time>
      </trkpt>
      <trkpt lat="43.71641" lon="7.04595">
        <ele>654.3146973</ele>
        <time>2011-07-24T09:07:57Z</time>
      </trkpt>
      <trkpt lat="43.71645" lon="7.04595">
        <ele>655.2758789</ele>
        <time>2011-07-24T09:08:03Z</time>
      </trkpt>
      <trkpt lat="43.71649" lon="7.04595">
        <ele>656.7177734</ele>
        <time>2011-07-24T09:08:11Z</time>
      </trkpt>
      <trkpt lat="43.71653" lon="7.04597">
        <ele>657.6791992</ele>
        <time>2011-07-24T09:08:19Z</time>
      </trkpt>
      <trkpt lat="43.71654" lon="7.04595">
        <ele>658.6403809</ele>
        <time>2011-07-24T09:08:25Z</time>
      </trkpt>
      <trkpt lat="43.7165" lon="7.0459">
        <ele>660.5629883</ele>
        <time>2011-07-24T09:08:34Z</time>
      </trkpt>
      <trkpt lat="43.71646" lon="7.04585">
        <ele>662.4855957</ele>
        <time>2011-07-24T09:08:42Z</time>
      </trkpt>
      <trkpt lat="43.71642" lon="7.0458">
        <ele>662.9663086</ele>
        <time>2011-07-24T09:08:49Z</time>
      </trkpt>
      <trkpt lat="43.71644" lon="7.04575">
        <ele>663.4470215</ele>
        <time>2011-07-24T09:08:56Z</time>
      </trkpt>
      <trkpt lat="43.71643" lon="7.04571">
        <ele>664.4082031</ele>
        <time>2011-07-24T09:09:04Z</time>
      </trkpt>
      <trkpt lat="43.7164" lon="7.04565">
        <ele>665.8503418</ele>
        <time>2011-07-24T09:09:12Z</time>
      </trkpt>
      <trkpt lat="43.7164" lon="7.04565">
        <ele>665.3696289</ele>
        <time>2011-07-24T09:09:15Z</time>
      </trkpt>
      <trkpt lat="43.71638" lon="7.04562">
        <ele>666.3308105</ele>
        <time>2011-07-24T09:09:24Z</time>
      </trkpt>
      <trkpt lat="43.71638" lon="7.04562">
        <ele>665.8503418</ele>
        <time>2011-07-24T09:09:25Z</time>
      </trkpt>
      <trkpt lat="43.71635" lon="7.04559">
        <ele>668.2536621</ele>
        <time>2011-07-24T09:09:31Z</time>
      </trkpt>
      <trkpt lat="43.71632" lon="7.0455">
        <ele>672.098877</ele>
        <time>2011-07-24T09:09:41Z</time>
      </trkpt>
      <trkpt lat="43.71629" lon="7.04543">
        <ele>673.0603027</ele>
        <time>2011-07-24T09:09:51Z</time>
      </trkpt>
      <trkpt lat="43.7163" lon="7.04539">
        <ele>674.5021973</ele>
        <time>2011-07-24T09:09:58Z</time>
      </trkpt>
      <trkpt lat="43.71632" lon="7.04541">
        <ele>674.9829102</ele>
        <time>2011-07-24T09:10:05Z</time>
      </trkpt>
      <trkpt lat="43.71635" lon="7.04542">
        <ele>674.9829102</ele>
        <time>2011-07-24T09:10:12Z</time>
      </trkpt>
      <trkpt lat="43.7164" lon="7.04545">
        <ele>674.9829102</ele>
        <time>2011-07-24T09:10:18Z</time>
      </trkpt>
      <trkpt lat="43.71649" lon="7.04552">
        <ele>675.9440918</ele>
        <time>2011-07-24T09:10:26Z</time>
      </trkpt>
      <trkpt lat="43.71658" lon="7.04556">
        <ele>676.4248047</ele>
        <time>2011-07-24T09:10:33Z</time>
      </trkpt>
      <trkpt lat="43.71666" lon="7.04557">
        <ele>677.3862305</ele>
        <time>2011-07-24T09:10:39Z</time>
      </trkpt>
      <trkpt lat="43.71668" lon="7.04558">
        <ele>677.8666992</ele>
        <time>2011-07-24T09:10:44Z</time>
      </trkpt>
      <trkpt lat="43.71672" lon="7.0456">
        <ele>678.3474121</ele>
        <time>2011-07-24T09:10:50Z</time>
      </trkpt>
      <trkpt lat="43.71677" lon="7.04565">
        <ele>677.8666992</ele>
        <time>2011-07-24T09:10:56Z</time>
      </trkpt>
      <trkpt lat="43.71683" lon="7.04571">
        <ele>677.8666992</ele>
        <time>2011-07-24T09:11:01Z</time>
      </trkpt>
      <trkpt lat="43.71686" lon="7.04576">
        <ele>677.8666992</ele>
        <time>2011-07-24T09:11:06Z</time>
      </trkpt>
      <trkpt lat="43.71688" lon="7.04577">
        <ele>677.3862305</ele>
        <time>2011-07-24T09:11:08Z</time>
      </trkpt>
      <trkpt lat="43.71689" lon="7.04577">
        <ele>677.8666992</ele>
        <time>2011-07-24T09:11:15Z</time>
      </trkpt>
      <trkpt lat="43.7169" lon="7.04578">
        <ele>678.3474121</ele>
        <time>2011-07-24T09:11:21Z</time>
      </trkpt>
      <trkpt lat="43.71695" lon="7.04578">
        <ele>679.3085938</ele>
        <time>2011-07-24T09:11:28Z</time>
      </trkpt>
      <trkpt lat="43.717" lon="7.0458">
        <ele>680.2700195</ele>
        <time>2011-07-24T09:11:35Z</time>
      </trkpt>
      <trkpt lat="43.717" lon="7.0458">
        <ele>680.7507324</ele>
        <time>2011-07-24T09:11:42Z</time>
      </trkpt>
      <trkpt lat="43.71703" lon="7.0458">
        <ele>682.192627</ele>
        <time>2011-07-24T09:11:50Z</time>
      </trkpt>
      <trkpt lat="43.71709" lon="7.0458">
        <ele>682.6733398</ele>
        <time>2011-07-24T09:11:57Z</time>
      </trkpt>
      <trkpt lat="43.71717" lon="7.0458">
        <ele>682.6733398</ele>
        <time>2011-07-24T09:12:06Z</time>
      </trkpt>
      <trkpt lat="43.71727" lon="7.0458">
        <ele>682.6733398</ele>
        <time>2011-07-24T09:12:17Z</time>
      </trkpt>
      <trkpt lat="43.71733" lon="7.04581">
        <ele>682.192627</ele>
        <time>2011-07-24T09:12:24Z</time>
      </trkpt>
      <trkpt lat="43.71739" lon="7.04581">
        <ele>684.1154785</ele>
        <time>2011-07-24T09:12:32Z</time>
      </trkpt>
      <trkpt lat="43.71742" lon="7.04578">
        <ele>686.5187988</ele>
        <time>2011-07-24T09:12:40Z</time>
      </trkpt>
      <trkpt lat="43.71747" lon="7.04576">
        <ele>687.9606934</ele>
        <time>2011-07-24T09:12:47Z</time>
      </trkpt>
      <trkpt lat="43.71749" lon="7.04577">
        <ele>688.4414063</ele>
        <time>2011-07-24T09:12:54Z</time>
      </trkpt>
      <trkpt lat="43.71753" lon="7.04577">
        <ele>688.9221191</ele>
        <time>2011-07-24T09:13:00Z</time>
      </trkpt>
      <trkpt lat="43.71758" lon="7.04575">
        <ele>689.4025879</ele>
        <time>2011-07-24T09:13:04Z</time>
      </trkpt>
      <trkpt lat="43.71764" lon="7.04566">
        <ele>689.8833008</ele>
        <time>2011-07-24T09:13:11Z</time>
      </trkpt>
      <trkpt lat="43.71773" lon="7.04562">
        <ele>691.3251953</ele>
        <time>2011-07-24T09:13:18Z</time>
      </trkpt>
      <trkpt lat="43.71778" lon="7.04559">
        <ele>691.8059082</ele>
        <time>2011-07-24T09:13:23Z</time>
      </trkpt>
      <trkpt lat="43.71784" lon="7.04558">
        <ele>693.7285156</ele>
        <time>2011-07-24T09:13:30Z</time>
      </trkpt>
      <trkpt lat="43.71791" lon="7.04558">
        <ele>694.6896973</ele>
        <time>2011-07-24T09:13:36Z</time>
      </trkpt>
      <trkpt lat="43.71793" lon="7.04558">
        <ele>694.6896973</ele>
        <time>2011-07-24T09:13:40Z</time>
      </trkpt>
      <trkpt lat="43.71795" lon="7.04556">
        <ele>694.6896973</ele>
        <time>2011-07-24T09:13:45Z</time>
      </trkpt>
      <trkpt lat="43.71796" lon="7.04556">
        <ele>694.6896973</ele>
        <time>2011-07-24T09:13:53Z</time>
      </trkpt>
      <trkpt lat="43.718" lon="7.04552">
        <ele>695.1704102</ele>
        <time>2011-07-24T09:13:59Z</time>
      </trkpt>
      <trkpt lat="43.71803" lon="7.04546">
        <ele>694.2092285</ele>
        <time>2011-07-24T09:14:03Z</time>
      </trkpt>
      <trkpt lat="43.71806" lon="7.04544">
        <ele>694.6896973</ele>
        <time>2011-07-24T09:14:09Z</time>
      </trkpt>
      <trkpt lat="43.71808" lon="7.04542">
        <ele>695.1704102</ele>
        <time>2011-07-24T09:14:15Z</time>
      </trkpt>
      <trkpt lat="43.71811" lon="7.04535">
        <ele>696.1318359</ele>
        <time>2011-07-24T09:14:22Z</time>
      </trkpt>
      <trkpt lat="43.71814" lon="7.04526">
        <ele>697.0930176</ele>
        <time>2011-07-24T09:14:29Z</time>
      </trkpt>
      <trkpt lat="43.71817" lon="7.04522">
        <ele>698.0544434</ele>
        <time>2011-07-24T09:14:35Z</time>
      </trkpt>
      <trkpt lat="43.71818" lon="7.04518">
        <ele>700.4580078</ele>
        <time>2011-07-24T09:14:41Z</time>
      </trkpt>
      <trkpt lat="43.71824" lon="7.04511">
        <ele>701.8999023</ele>
        <time>2011-07-24T09:14:47Z</time>
      </trkpt>
      <trkpt lat="43.71831" lon="7.04506">
        <ele>703.3417969</ele>
        <time>2011-07-24T09:14:54Z</time>
      </trkpt>
      <trkpt lat="43.71837" lon="7.04502">
        <ele>703.8225098</ele>
        <time>2011-07-24T09:15:00Z</time>
      </trkpt>
      <trkpt lat="43.71838" lon="7.04498">
        <ele>703.3417969</ele>
        <time>2011-07-24T09:15:03Z</time>
      </trkpt>
      <trkpt lat="43.71841" lon="7.04491">
        <ele>703.8225098</ele>
        <time>2011-07-24T09:15:08Z</time>
      </trkpt>
      <trkpt lat="43.71844" lon="7.04488">
        <ele>703.8225098</ele>
        <time>2011-07-24T09:15:11Z</time>
      </trkpt>
      <trkpt lat="43.71846" lon="7.0448">
        <ele>704.7836914</ele>
        <time>2011-07-24T09:15:17Z</time>
      </trkpt>
      <trkpt lat="43.71849" lon="7.04477">
        <ele>705.7451172</ele>
        <time>2011-07-24T09:15:22Z</time>
      </trkpt>
      <trkpt lat="43.71852" lon="7.04479">
        <ele>705.7451172</ele>
        <time>2011-07-24T09:15:28Z</time>
      </trkpt>
      <trkpt lat="43.71858" lon="7.04479">
        <ele>706.2255859</ele>
        <time>2011-07-24T09:15:35Z</time>
      </trkpt>
      <trkpt lat="43.71864" lon="7.04476">
        <ele>707.1870117</ele>
        <time>2011-07-24T09:15:42Z</time>
      </trkpt>
      <trkpt lat="43.71863" lon="7.0447">
        <ele>706.7062988</ele>
        <time>2011-07-24T09:15:48Z</time>
      </trkpt>
      <trkpt lat="43.71863" lon="7.04469">
        <ele>707.1870117</ele>
        <time>2011-07-24T09:15:53Z</time>
      </trkpt>
      <trkpt lat="43.71863" lon="7.04469">
        <ele>707.1870117</ele>
        <time>2011-07-24T09:16:00Z</time>
      </trkpt>
      <trkpt lat="43.71863" lon="7.04468">
        <ele>707.6677246</ele>
        <time>2011-07-24T09:16:18Z</time>
      </trkpt>
      <trkpt lat="43.71863" lon="7.04468">
        <ele>707.6677246</ele>
        <time>2011-07-24T09:16:21Z</time>
      </trkpt>
      <trkpt lat="43.71865" lon="7.04467">
        <ele>706.7062988</ele>
        <time>2011-07-24T09:16:30Z</time>
      </trkpt>
      <trkpt lat="43.71869" lon="7.04465">
        <ele>702.861084</ele>
        <time>2011-07-24T09:16:41Z</time>
      </trkpt>
      <trkpt lat="43.7187" lon="7.04465">
        <ele>703.3417969</ele>
        <time>2011-07-24T09:16:49Z</time>
      </trkpt>
      <trkpt lat="43.71871" lon="7.04464">
        <ele>704.7836914</ele>
        <time>2011-07-24T09:16:56Z</time>
      </trkpt>
      <trkpt lat="43.71871" lon="7.04465">
        <ele>707.6677246</ele>
        <time>2011-07-24T09:17:01Z</time>
      </trkpt>
      <trkpt lat="43.71869" lon="7.04467">
        <ele>710.0708008</ele>
        <time>2011-07-24T09:17:12Z</time>
      </trkpt>
      <trkpt lat="43.71867" lon="7.04467">
        <ele>709.590332</ele>
        <time>2011-07-24T09:17:21Z</time>
      </trkpt>
      <trkpt lat="43.71868" lon="7.04465">
        <ele>703.3417969</ele>
        <time>2011-07-24T09:17:42Z</time>
      </trkpt>
      <trkpt lat="43.71865" lon="7.04465">
        <ele>698.0544434</ele>
        <time>2011-07-24T09:18:00Z</time>
      </trkpt>
      <trkpt lat="43.71865" lon="7.04465">
        <ele>697.5737305</ele>
        <time>2011-07-24T09:18:13Z</time>
      </trkpt>
      <trkpt lat="43.71865" lon="7.04466">
        <ele>697.5737305</ele>
        <time>2011-07-24T09:18:27Z</time>
      </trkpt>
      <trkpt lat="43.71866" lon="7.04466">
        <ele>698.5349121</ele>
        <time>2011-07-24T09:18:40Z</time>
      </trkpt>
      <trkpt lat="43.71866" lon="7.04466">
        <ele>702.3803711</ele>
        <time>2011-07-24T09:19:40Z</time>
      </trkpt>
      <trkpt lat="43.71865" lon="7.04466">
        <ele>703.8225098</ele>
        <time>2011-07-24T09:19:51Z</time>
      </trkpt>
      <trkpt lat="43.71866" lon="7.04466">
        <ele>707.6677246</ele>
        <time>2011-07-24T09:20:06Z</time>
      </trkpt>
      <trkpt lat="43.71862" lon="7.04468">
        <ele>710.5515137</ele>
        <time>2011-07-24T09:20:22Z</time>
      </trkpt>
      <trkpt lat="43.7186" lon="7.04468">
        <ele>710.5515137</ele>
        <time>2011-07-24T09:20:30Z</time>
      </trkpt>
      <trkpt lat="43.71859" lon="7.04468">
        <ele>709.1096191</ele>
        <time>2011-07-24T09:20:42Z</time>
      </trkpt>
      <trkpt lat="43.71859" lon="7.04468">
        <ele>709.1096191</ele>
        <time>2011-07-24T09:20:44Z</time>
      </trkpt>
      <trkpt lat="43.7186" lon="7.04468">
        <ele>708.6289063</ele>
        <time>2011-07-24T09:20:57Z</time>
      </trkpt>
      <trkpt lat="43.71863" lon="7.04468">
        <ele>709.590332</ele>
        <time>2011-07-24T09:21:26Z</time>
      </trkpt>
      <trkpt lat="43.71863" lon="7.04468">
        <ele>710.5515137</ele>
        <time>2011-07-24T09:21:29Z</time>
      </trkpt>
      <trkpt lat="43.71865" lon="7.04468">
        <ele>710.5515137</ele>
        <time>2011-07-24T09:21:43Z</time>
      </trkpt>
      <trkpt lat="43.71865" lon="7.04468">
        <ele>710.5515137</ele>
        <time>2011-07-24T09:21:45Z</time>
      </trkpt>
      <trkpt lat="43.71865" lon="7.04467">
        <ele>710.5515137</ele>
        <time>2011-07-24T09:21:46Z</time>
      </trkpt>
      <trkpt lat="43.71865" lon="7.04466">
        <ele>705.7451172</ele>
        <time>2011-07-24T09:23:09Z</time>
      </trkpt>
      <trkpt lat="43.71864" lon="7.04466">
        <ele>705.7451172</ele>
        <time>2011-07-24T09:23:19Z</time>
      </trkpt>
      <trkpt lat="43.71864" lon="7.04467">
        <ele>707.6677246</ele>
        <time>2011-07-24T09:23:48Z</time>
      </trkpt>
      <trkpt lat="43.71864" lon="7.04466">
        <ele>709.1096191</ele>
        <time>2011-07-24T09:24:23Z</time>
      </trkpt>
      <trkpt lat="43.71864" lon="7.04466">
        <ele>709.590332</ele>
        <time>2011-07-24T09:24:31Z</time>
      </trkpt>
      <trkpt lat="43.71864" lon="7.04464">
        <ele>709.590332</ele>
        <time>2011-07-24T09:24:59Z</time>
      </trkpt>
      <trkpt lat="43.71865" lon="7.04463">
        <ele>707.1870117</ele>
        <time>2011-07-24T09:25:07Z</time>
      </trkpt>
      <trkpt lat="43.71867" lon="7.04461">
        <ele>699.9770508</ele>
        <time>2011-07-24T09:25:38Z</time>
      </trkpt>
      <trkpt lat="43.71864" lon="7.04463">
        <ele>702.3803711</ele>
        <time>2011-07-24T09:25:49Z</time>
      </trkpt>
      <trkpt lat="43.7186" lon="7.04465">
        <ele>701.4191895</ele>
        <time>2011-07-24T09:26:25Z</time>
      </trkpt>
      <trkpt lat="43.71861" lon="7.04465">
        <ele>700.4580078</ele>
        <time>2011-07-24T09:26:30Z</time>
      </trkpt>
      <trkpt lat="43.71861" lon="7.04465">
        <ele>699.4963379</ele>
        <time>2011-07-24T09:26:36Z</time>
      </trkpt>
      <trkpt lat="43.7186" lon="7.04466">
        <ele>700.4580078</ele>
        <time>2011-07-24T09:26:47Z</time>
      </trkpt>
      <trkpt lat="43.71866" lon="7.04468">
        <ele>699.9770508</ele>
        <time>2011-07-24T09:27:32Z</time>
      </trkpt>
      <trkpt lat="43.71868" lon="7.04468">
        <ele>691.8059082</ele>
        <time>2011-07-24T09:27:40Z</time>
      </trkpt>
      <trkpt lat="43.71869" lon="7.04467">
        <ele>699.9770508</ele>
        <time>2011-07-24T09:28:01Z</time>
      </trkpt>
      <trkpt lat="43.71868" lon="7.04467">
        <ele>704.3032227</ele>
        <time>2011-07-24T09:28:06Z</time>
      </trkpt>
      <trkpt lat="43.71868" lon="7.04468">
        <ele>711.0322266</ele>
        <time>2011-07-24T09:28:25Z</time>
      </trkpt>
      <trkpt lat="43.71868" lon="7.04469">
        <ele>711.5129395</ele>
        <time>2011-07-24T09:28:32Z</time>
      </trkpt>
      <trkpt lat="43.71866" lon="7.0447">
        <ele>710.0708008</ele>
        <time>2011-07-24T09:28:51Z</time>
      </trkpt>
      <trkpt lat="43.71865" lon="7.04471">
        <ele>709.590332</ele>
        <time>2011-07-24T09:29:08Z</time>
      </trkpt>
      <trkpt lat="43.71865" lon="7.04471">
        <ele>709.1096191</ele>
        <time>2011-07-24T09:29:14Z</time>
      </trkpt>
      <trkpt lat="43.71866" lon="7.04471">
        <ele>709.1096191</ele>
        <time>2011-07-24T09:29:18Z</time>
      </trkpt>
      <trkpt lat="43.71867" lon="7.04471">
        <ele>708.6289063</ele>
        <time>2011-07-24T09:29:23Z</time>
      </trkpt>
      <trkpt lat="43.71878" lon="7.04479">
        <ele>708.6289063</ele>
        <time>2011-07-24T09:29:32Z</time>
      </trkpt>
      <trkpt lat="43.71887" lon="7.04486">
        <ele>709.590332</ele>
        <time>2011-07-24T09:29:39Z</time>
      </trkpt>
      <trkpt lat="43.7189" lon="7.04489">
        <ele>709.590332</ele>
        <time>2011-07-24T09:29:42Z</time>
      </trkpt>
      <trkpt lat="43.71894" lon="7.04492">
        <ele>710.5515137</ele>
        <time>2011-07-24T09:29:49Z</time>
      </trkpt>
      <trkpt lat="43.71903" lon="7.04491">
        <ele>713.4355469</ele>
        <time>2011-07-24T09:29:58Z</time>
      </trkpt>
      <trkpt lat="43.71907" lon="7.04489">
        <ele>715.3581543</ele>
        <time>2011-07-24T09:30:03Z</time>
      </trkpt>
      <trkpt lat="43.71911" lon="7.04488">
        <ele>716.3195801</ele>
        <time>2011-07-24T09:30:08Z</time>
      </trkpt>
      <trkpt lat="43.71918" lon="7.04486">
        <ele>717.7614746</ele>
        <time>2011-07-24T09:30:17Z</time>
      </trkpt>
      <trkpt lat="43.71923" lon="7.04487">
        <ele>719.6843262</ele>
        <time>2011-07-24T09:30:24Z</time>
      </trkpt>
      <trkpt lat="43.71929" lon="7.04487">
        <ele>723.529541</ele>
        <time>2011-07-24T09:30:33Z</time>
      </trkpt>
      <trkpt lat="43.71934" lon="7.04488">
        <ele>725.4519043</ele>
        <time>2011-07-24T09:30:40Z</time>
      </trkpt>
      <trkpt lat="43.71939" lon="7.04488">
        <ele>726.894043</ele>
        <time>2011-07-24T09:30:48Z</time>
      </trkpt>
      <trkpt lat="43.71945" lon="7.04489">
        <ele>726.894043</ele>
        <time>2011-07-24T09:30:58Z</time>
      </trkpt>
      <trkpt lat="43.71951" lon="7.04489">
        <ele>726.894043</ele>
        <time>2011-07-24T09:31:07Z</time>
      </trkpt>
      <trkpt lat="43.71958" lon="7.04489">
        <ele>727.8552246</ele>
        <time>2011-07-24T09:31:16Z</time>
      </trkpt>
      <trkpt lat="43.71962" lon="7.04487">
        <ele>727.8552246</ele>
        <time>2011-07-24T09:31:23Z</time>
      </trkpt>
      <trkpt lat="43.71965" lon="7.04484">
        <ele>727.8552246</ele>
        <time>2011-07-24T09:31:27Z</time>
      </trkpt>
      <trkpt lat="43.71972" lon="7.04481">
        <ele>728.8166504</ele>
        <time>2011-07-24T09:31:34Z</time>
      </trkpt>
      <trkpt lat="43.71981" lon="7.04475">
        <ele>729.777832</ele>
        <time>2011-07-24T09:31:42Z</time>
      </trkpt>
      <trkpt lat="43.7199" lon="7.0447">
        <ele>731.2199707</ele>
        <time>2011-07-24T09:31:49Z</time>
      </trkpt>
      <trkpt lat="43.71992" lon="7.0447">
        <ele>731.7004395</ele>
        <time>2011-07-24T09:31:55Z</time>
      </trkpt>
      <trkpt lat="43.71996" lon="7.04465">
        <ele>732.1813965</ele>
        <time>2011-07-24T09:32:04Z</time>
      </trkpt>
      <trkpt lat="43.71996" lon="7.04459">
        <ele>732.6621094</ele>
        <time>2011-07-24T09:32:11Z</time>
      </trkpt>
      <trkpt lat="43.71993" lon="7.04455">
        <ele>734.1040039</ele>
        <time>2011-07-24T09:32:17Z</time>
      </trkpt>
      <trkpt lat="43.71988" lon="7.04451">
        <ele>735.5458984</ele>
        <time>2011-07-24T09:32:26Z</time>
      </trkpt>
      <trkpt lat="43.71982" lon="7.04445">
        <ele>736.5073242</ele>
        <time>2011-07-24T09:32:36Z</time>
      </trkpt>
      <trkpt lat="43.7198" lon="7.0444">
        <ele>736.987793</ele>
        <time>2011-07-24T09:32:43Z</time>
      </trkpt>
      <trkpt lat="43.71976" lon="7.04434">
        <ele>737.9492188</ele>
        <time>2011-07-24T09:32:52Z</time>
      </trkpt>
      <trkpt lat="43.71975" lon="7.04427">
        <ele>738.9106445</ele>
        <time>2011-07-24T09:33:00Z</time>
      </trkpt>
      <trkpt lat="43.71975" lon="7.04419">
        <ele>739.8718262</ele>
        <time>2011-07-24T09:33:09Z</time>
      </trkpt>
      <trkpt lat="43.71975" lon="7.04415">
        <ele>740.3525391</ele>
        <time>2011-07-24T09:33:17Z</time>
      </trkpt>
      <trkpt lat="43.71975" lon="7.0441">
        <ele>740.8330078</ele>
        <time>2011-07-24T09:33:24Z</time>
      </trkpt>
      <trkpt lat="43.71975" lon="7.04403">
        <ele>741.7944336</ele>
        <time>2011-07-24T09:33:33Z</time>
      </trkpt>
      <trkpt lat="43.71975" lon="7.04401">
        <ele>742.2751465</ele>
        <time>2011-07-24T09:33:38Z</time>
      </trkpt>
      <trkpt lat="43.71975" lon="7.04397">
        <ele>742.7558594</ele>
        <time>2011-07-24T09:33:41Z</time>
      </trkpt>
      <trkpt lat="43.71975" lon="7.04385">
        <ele>743.717041</ele>
        <time>2011-07-24T09:33:48Z</time>
      </trkpt>
      <trkpt lat="43.71976" lon="7.04374">
        <ele>745.1589355</ele>
        <time>2011-07-24T09:33:56Z</time>
      </trkpt>
      <trkpt lat="43.71976" lon="7.04371">
        <ele>745.1589355</ele>
        <time>2011-07-24T09:34:01Z</time>
      </trkpt>
      <trkpt lat="43.71977" lon="7.04365">
        <ele>746.6010742</ele>
        <time>2011-07-24T09:34:08Z</time>
      </trkpt>
      <trkpt lat="43.71978" lon="7.0436">
        <ele>747.081543</ele>
        <time>2011-07-24T09:34:16Z</time>
      </trkpt>
      <trkpt lat="43.71979" lon="7.04355">
        <ele>748.0432129</ele>
        <time>2011-07-24T09:34:23Z</time>
      </trkpt>
      <trkpt lat="43.7198" lon="7.04347">
        <ele>749.4851074</ele>
        <time>2011-07-24T09:34:33Z</time>
      </trkpt>
      <trkpt lat="43.71983" lon="7.04338">
        <ele>749.9658203</ele>
        <time>2011-07-24T09:34:44Z</time>
      </trkpt>
      <trkpt lat="43.71985" lon="7.04329">
        <ele>751.4077148</ele>
        <time>2011-07-24T09:34:54Z</time>
      </trkpt>
      <trkpt lat="43.71987" lon="7.0432">
        <ele>752.8496094</ele>
        <time>2011-07-24T09:35:03Z</time>
      </trkpt>
      <trkpt lat="43.71989" lon="7.04311">
        <ele>753.8110352</ele>
        <time>2011-07-24T09:35:13Z</time>
      </trkpt>
      <trkpt lat="43.71991" lon="7.04302">
        <ele>755.2529297</ele>
        <time>2011-07-24T09:35:21Z</time>
      </trkpt>
      <trkpt lat="43.71993" lon="7.04295">
        <ele>756.2141113</ele>
        <time>2011-07-24T09:35:29Z</time>
      </trkpt>
      <trkpt lat="43.71996" lon="7.04286">
        <ele>756.6948242</ele>
        <time>2011-07-24T09:35:38Z</time>
      </trkpt>
      <trkpt lat="43.71998" lon="7.04278">
        <ele>757.65625</ele>
        <time>2011-07-24T09:35:46Z</time>
      </trkpt>
      <trkpt lat="43.72" lon="7.04269">
        <ele>758.6174316</ele>
        <time>2011-07-24T09:35:54Z</time>
      </trkpt>
      <trkpt lat="43.72005" lon="7.04261">
        <ele>759.0981445</ele>
        <time>2011-07-24T09:36:03Z</time>
      </trkpt>
      <trkpt lat="43.72011" lon="7.04257">
        <ele>760.5400391</ele>
        <time>2011-07-24T09:36:12Z</time>
      </trkpt>
      <trkpt lat="43.72016" lon="7.04253">
        <ele>761.9821777</ele>
        <time>2011-07-24T09:36:19Z</time>
      </trkpt>
      <trkpt lat="43.72021" lon="7.04245">
        <ele>761.9821777</ele>
        <time>2011-07-24T09:36:27Z</time>
      </trkpt>
      <trkpt lat="43.72024" lon="7.0424">
        <ele>762.9433594</ele>
        <time>2011-07-24T09:36:33Z</time>
      </trkpt>
      <trkpt lat="43.72029" lon="7.04232">
        <ele>764.8662109</ele>
        <time>2011-07-24T09:36:42Z</time>
      </trkpt>
      <trkpt lat="43.72034" lon="7.04227">
        <ele>766.3081055</ele>
        <time>2011-07-24T09:36:49Z</time>
      </trkpt>
      <trkpt lat="43.7204" lon="7.0422">
        <ele>767.75</ele>
        <time>2011-07-24T09:36:57Z</time>
      </trkpt>
      <trkpt lat="43.72044" lon="7.04215">
        <ele>768.7114258</ele>
        <time>2011-07-24T09:37:05Z</time>
      </trkpt>
      <trkpt lat="43.72048" lon="7.0421">
        <ele>769.1921387</ele>
        <time>2011-07-24T09:37:10Z</time>
      </trkpt>
      <trkpt lat="43.72055" lon="7.04196">
        <ele>769.1921387</ele>
        <time>2011-07-24T09:37:20Z</time>
      </trkpt>
      <trkpt lat="43.72058" lon="7.04188">
        <ele>770.1533203</ele>
        <time>2011-07-24T09:37:26Z</time>
      </trkpt>
      <trkpt lat="43.72062" lon="7.04183">
        <ele>770.6340332</ele>
        <time>2011-07-24T09:37:30Z</time>
      </trkpt>
      <trkpt lat="43.72069" lon="7.04171">
        <ele>771.5952148</ele>
        <time>2011-07-24T09:37:38Z</time>
      </trkpt>
      <trkpt lat="43.72074" lon="7.04162">
        <ele>771.5952148</ele>
        <time>2011-07-24T09:37:44Z</time>
      </trkpt>
      <trkpt lat="43.72083" lon="7.04146">
        <ele>771.1147461</ele>
        <time>2011-07-24T09:37:53Z</time>
      </trkpt>
      <trkpt lat="43.72088" lon="7.04128">
        <ele>772.0759277</ele>
        <time>2011-07-24T09:38:01Z</time>
      </trkpt>
      <trkpt lat="43.72089" lon="7.04105">
        <ele>773.9985352</ele>
        <time>2011-07-24T09:38:11Z</time>
      </trkpt>
      <trkpt lat="43.72088" lon="7.04089">
        <ele>776.4018555</ele>
        <time>2011-07-24T09:38:19Z</time>
      </trkpt>
      <trkpt lat="43.72088" lon="7.04077">
        <ele>777.84375</ele>
        <time>2011-07-24T09:38:25Z</time>
      </trkpt>
      <trkpt lat="43.72086" lon="7.04061">
        <ele>779.7663574</ele>
        <time>2011-07-24T09:38:34Z</time>
      </trkpt>
      <trkpt lat="43.72084" lon="7.04054">
        <ele>779.2856445</ele>
        <time>2011-07-24T09:38:38Z</time>
      </trkpt>
      <trkpt lat="43.72081" lon="7.04041">
        <ele>778.8051758</ele>
        <time>2011-07-24T09:38:44Z</time>
      </trkpt>
      <trkpt lat="43.72079" lon="7.04034">
        <ele>778.3244629</ele>
        <time>2011-07-24T09:38:47Z</time>
      </trkpt>
      <trkpt lat="43.7208" lon="7.04024">
        <ele>779.7663574</ele>
        <time>2011-07-24T09:38:52Z</time>
      </trkpt>
      <trkpt lat="43.72082" lon="7.04014">
        <ele>780.2473145</ele>
        <time>2011-07-24T09:38:58Z</time>
      </trkpt>
      <trkpt lat="43.7208" lon="7.04">
        <ele>781.689209</ele>
        <time>2011-07-24T09:39:04Z</time>
      </trkpt>
      <trkpt lat="43.72079" lon="7.03987">
        <ele>782.1699219</ele>
        <time>2011-07-24T09:39:10Z</time>
      </trkpt>
      <trkpt lat="43.72079" lon="7.03985">
        <ele>782.1699219</ele>
        <time>2011-07-24T09:39:11Z</time>
      </trkpt>
      <trkpt lat="43.72076" lon="7.0397">
        <ele>783.6118164</ele>
        <time>2011-07-24T09:39:18Z</time>
      </trkpt>
      <trkpt lat="43.72074" lon="7.03951">
        <ele>786.9763184</ele>
        <time>2011-07-24T09:39:25Z</time>
      </trkpt>
      <trkpt lat="43.72072" lon="7.03939">
        <ele>787.9377441</ele>
        <time>2011-07-24T09:39:31Z</time>
      </trkpt>
      <trkpt lat="43.72071" lon="7.03937">
        <ele>787.9377441</ele>
        <time>2011-07-24T09:39:33Z</time>
      </trkpt>
      <trkpt lat="43.72067" lon="7.03928">
        <ele>788.418457</ele>
        <time>2011-07-24T09:39:39Z</time>
      </trkpt>
      <trkpt lat="43.72062" lon="7.0392">
        <ele>788.418457</ele>
        <time>2011-07-24T09:39:45Z</time>
      </trkpt>
      <trkpt lat="43.72055" lon="7.03909">
        <ele>788.418457</ele>
        <time>2011-07-24T09:39:53Z</time>
      </trkpt>
      <trkpt lat="43.7205" lon="7.03898">
        <ele>788.8991699</ele>
        <time>2011-07-24T09:39:59Z</time>
      </trkpt>
      <trkpt lat="43.72044" lon="7.03885">
        <ele>790.3410645</ele>
        <time>2011-07-24T09:40:06Z</time>
      </trkpt>
      <trkpt lat="43.7204" lon="7.03873">
        <ele>789.8603516</ele>
        <time>2011-07-24T09:40:13Z</time>
      </trkpt>
      <trkpt lat="43.72036" lon="7.03862">
        <ele>790.3410645</ele>
        <time>2011-07-24T09:40:19Z</time>
      </trkpt>
      <trkpt lat="43.72034" lon="7.0385">
        <ele>790.3410645</ele>
        <time>2011-07-24T09:40:26Z</time>
      </trkpt>
      <trkpt lat="43.72033" lon="7.0384">
        <ele>789.8603516</ele>
        <time>2011-07-24T09:40:31Z</time>
      </trkpt>
      <trkpt lat="43.72033" lon="7.03824">
        <ele>789.8603516</ele>
        <time>2011-07-24T09:40:37Z</time>
      </trkpt>
      <trkpt lat="43.72033" lon="7.03821">
        <ele>789.8603516</ele>
        <time>2011-07-24T09:40:38Z</time>
      </trkpt>
      <trkpt lat="43.72039" lon="7.03804">
        <ele>788.418457</ele>
        <time>2011-07-24T09:40:44Z</time>
      </trkpt>
      <trkpt lat="43.72046" lon="7.03786">
        <ele>787.4570313</ele>
        <time>2011-07-24T09:40:49Z</time>
      </trkpt>
      <trkpt lat="43.72054" lon="7.0377">
        <ele>789.3796387</ele>
        <time>2011-07-24T09:40:56Z</time>
      </trkpt>
      <trkpt lat="43.72059" lon="7.03759">
        <ele>790.8215332</ele>
        <time>2011-07-24T09:41:01Z</time>
      </trkpt>
      <trkpt lat="43.72063" lon="7.03747">
        <ele>792.2636719</ele>
        <time>2011-07-24T09:41:08Z</time>
      </trkpt>
      <trkpt lat="43.72069" lon="7.03737">
        <ele>794.1862793</ele>
        <time>2011-07-24T09:41:15Z</time>
      </trkpt>
      <trkpt lat="43.72076" lon="7.03737">
        <ele>795.6281738</ele>
        <time>2011-07-24T09:41:22Z</time>
      </trkpt>
      <trkpt lat="43.72081" lon="7.0374">
        <ele>796.1091309</ele>
        <time>2011-07-24T09:41:26Z</time>
      </trkpt>
      <trkpt lat="43.72087" lon="7.03737">
        <ele>797.0703125</ele>
        <time>2011-07-24T09:41:32Z</time>
      </trkpt>
      <trkpt lat="43.72091" lon="7.03737">
        <ele>797.5510254</ele>
        <time>2011-07-24T09:41:35Z</time>
      </trkpt>
      <trkpt lat="43.72099" lon="7.03746">
        <ele>799.9543457</ele>
        <time>2011-07-24T09:41:44Z</time>
      </trkpt>
      <trkpt lat="43.721" lon="7.03756">
        <ele>800.9155273</ele>
        <time>2011-07-24T09:41:50Z</time>
      </trkpt>
      <trkpt lat="43.72097" lon="7.03765">
        <ele>802.3574219</ele>
        <time>2011-07-24T09:41:57Z</time>
      </trkpt>
      <trkpt lat="43.72096" lon="7.03768">
        <ele>803.3188477</ele>
        <time>2011-07-24T09:42:03Z</time>
      </trkpt>
      <trkpt lat="43.72094" lon="7.03773">
        <ele>804.7607422</ele>
        <time>2011-07-24T09:42:11Z</time>
      </trkpt>
      <trkpt lat="43.72091" lon="7.03779">
        <ele>806.6833496</ele>
        <time>2011-07-24T09:42:19Z</time>
      </trkpt>
      <trkpt lat="43.72089" lon="7.03782">
        <ele>807.1640625</ele>
        <time>2011-07-24T09:42:27Z</time>
      </trkpt>
      <trkpt lat="43.72087" lon="7.03791">
        <ele>807.6447754</ele>
        <time>2011-07-24T09:42:33Z</time>
      </trkpt>
      <trkpt lat="43.72085" lon="7.038">
        <ele>808.605957</ele>
        <time>2011-07-24T09:42:39Z</time>
      </trkpt>
      <trkpt lat="43.72086" lon="7.03805">
        <ele>808.605957</ele>
        <time>2011-07-24T09:42:43Z</time>
      </trkpt>
      <trkpt lat="43.72093" lon="7.03805">
        <ele>809.5673828</ele>
        <time>2011-07-24T09:42:49Z</time>
      </trkpt>
      <trkpt lat="43.72098" lon="7.03795">
        <ele>810.0478516</ele>
        <time>2011-07-24T09:42:57Z</time>
      </trkpt>
      <trkpt lat="43.72099" lon="7.03795">
        <ele>809.5673828</ele>
        <time>2011-07-24T09:42:58Z</time>
      </trkpt>
      <trkpt lat="43.72104" lon="7.03789">
        <ele>808.1254883</ele>
        <time>2011-07-24T09:43:05Z</time>
      </trkpt>
      <trkpt lat="43.72111" lon="7.03783">
        <ele>806.2026367</ele>
        <time>2011-07-24T09:43:13Z</time>
      </trkpt>
      <trkpt lat="43.72112" lon="7.03781">
        <ele>806.2026367</ele>
        <time>2011-07-24T09:43:14Z</time>
      </trkpt>
      <trkpt lat="43.7212" lon="7.03767">
        <ele>806.2026367</ele>
        <time>2011-07-24T09:43:24Z</time>
      </trkpt>
      <trkpt lat="43.72127" lon="7.0376">
        <ele>808.605957</ele>
        <time>2011-07-24T09:43:30Z</time>
      </trkpt>
      <trkpt lat="43.72128" lon="7.03764">
        <ele>809.0866699</ele>
        <time>2011-07-24T09:43:34Z</time>
      </trkpt>
      <trkpt lat="43.72127" lon="7.0378">
        <ele>811.4899902</ele>
        <time>2011-07-24T09:43:44Z</time>
      </trkpt>
      <trkpt lat="43.72124" lon="7.03794">
        <ele>812.9321289</ele>
        <time>2011-07-24T09:43:54Z</time>
      </trkpt>
      <trkpt lat="43.72122" lon="7.03807">
        <ele>814.3740234</ele>
        <time>2011-07-24T09:44:02Z</time>
      </trkpt>
      <trkpt lat="43.72122" lon="7.03819">
        <ele>814.3740234</ele>
        <time>2011-07-24T09:44:10Z</time>
      </trkpt>
      <trkpt lat="43.72124" lon="7.03835">
        <ele>813.4128418</ele>
        <time>2011-07-24T09:44:19Z</time>
      </trkpt>
      <trkpt lat="43.7213" lon="7.03855">
        <ele>811.9707031</ele>
        <time>2011-07-24T09:44:28Z</time>
      </trkpt>
      <trkpt lat="43.72138" lon="7.03874">
        <ele>811.9707031</ele>
        <time>2011-07-24T09:44:36Z</time>
      </trkpt>
      <trkpt lat="43.72148" lon="7.03894">
        <ele>811.0092773</ele>
        <time>2011-07-24T09:44:45Z</time>
      </trkpt>
      <trkpt lat="43.72156" lon="7.03913">
        <ele>810.0478516</ele>
        <time>2011-07-24T09:44:52Z</time>
      </trkpt>
      <trkpt lat="43.72158" lon="7.03917">
        <ele>810.0478516</ele>
        <time>2011-07-24T09:44:54Z</time>
      </trkpt>
      <trkpt lat="43.72159" lon="7.03919">
        <ele>814.3740234</ele>
        <time>2011-07-24T09:45:04Z</time>
      </trkpt>
      <trkpt lat="43.7216" lon="7.0392">
        <ele>816.7773438</ele>
        <time>2011-07-24T09:45:15Z</time>
      </trkpt>
      <trkpt lat="43.72161" lon="7.03921">
        <ele>818.2192383</ele>
        <time>2011-07-24T09:45:28Z</time>
      </trkpt>
      <trkpt lat="43.72161" lon="7.03921">
        <ele>818.2192383</ele>
        <time>2011-07-24T09:45:34Z</time>
      </trkpt>
      <trkpt lat="43.7216" lon="7.03921">
        <ele>819.661377</ele>
        <time>2011-07-24T09:45:48Z</time>
      </trkpt>
      <trkpt lat="43.72159" lon="7.03921">
        <ele>820.6225586</ele>
        <time>2011-07-24T09:45:59Z</time>
      </trkpt>
      <trkpt lat="43.72159" lon="7.03922">
        <ele>821.1032715</ele>
        <time>2011-07-24T09:46:12Z</time>
      </trkpt>
      <trkpt lat="43.7216" lon="7.03921">
        <ele>822.0644531</ele>
        <time>2011-07-24T09:46:21Z</time>
      </trkpt>
      <trkpt lat="43.7216" lon="7.03922">
        <ele>821.5837402</ele>
        <time>2011-07-24T09:46:31Z</time>
      </trkpt>
      <trkpt lat="43.7216" lon="7.03923">
        <ele>821.1032715</ele>
        <time>2011-07-24T09:46:43Z</time>
      </trkpt>
      <trkpt lat="43.72162" lon="7.03924">
        <ele>820.1418457</ele>
        <time>2011-07-24T09:47:08Z</time>
      </trkpt>
      <trkpt lat="43.72161" lon="7.03922">
        <ele>823.0258789</ele>
        <time>2011-07-24T09:47:18Z</time>
      </trkpt>
      <trkpt lat="43.7216" lon="7.03921">
        <ele>823.5065918</ele>
        <time>2011-07-24T09:47:23Z</time>
      </trkpt>
      <trkpt lat="43.7216" lon="7.03921">
        <ele>823.9870605</ele>
        <time>2011-07-24T09:47:32Z</time>
      </trkpt>
      <trkpt lat="43.7216" lon="7.0392">
        <ele>824.9484863</ele>
        <time>2011-07-24T09:47:38Z</time>
      </trkpt>
      <trkpt lat="43.72162" lon="7.0392">
        <ele>825.4289551</ele>
        <time>2011-07-24T09:47:46Z</time>
      </trkpt>
      <trkpt lat="43.72165" lon="7.03922">
        <ele>824.4677734</ele>
        <time>2011-07-24T09:47:49Z</time>
      </trkpt>
      <trkpt lat="43.7217" lon="7.03929">
        <ele>822.545166</ele>
        <time>2011-07-24T09:47:53Z</time>
      </trkpt>
      <trkpt lat="43.72172" lon="7.03931">
        <ele>822.0644531</ele>
        <time>2011-07-24T09:47:54Z</time>
      </trkpt>
      <trkpt lat="43.72186" lon="7.03943">
        <ele>823.0258789</ele>
        <time>2011-07-24T09:48:01Z</time>
      </trkpt>
      <trkpt lat="43.722" lon="7.03957">
        <ele>823.9870605</ele>
        <time>2011-07-24T09:48:08Z</time>
      </trkpt>
      <trkpt lat="43.72214" lon="7.03966">
        <ele>824.4677734</ele>
        <time>2011-07-24T09:48:14Z</time>
      </trkpt>
      <trkpt lat="43.72232" lon="7.03974">
        <ele>825.4289551</ele>
        <time>2011-07-24T09:48:22Z</time>
      </trkpt>
      <trkpt lat="43.72242" lon="7.03979">
        <ele>825.909668</ele>
        <time>2011-07-24T09:48:28Z</time>
      </trkpt>
      <trkpt lat="43.72243" lon="7.03978">
        <ele>824.4677734</ele>
        <time>2011-07-24T09:48:34Z</time>
      </trkpt>
      <trkpt lat="43.72243" lon="7.03978">
        <ele>823.5065918</ele>
        <time>2011-07-24T09:48:47Z</time>
      </trkpt>
      <trkpt lat="43.72242" lon="7.03977">
        <ele>823.9870605</ele>
        <time>2011-07-24T09:48:58Z</time>
      </trkpt>
      <trkpt lat="43.72242" lon="7.03976">
        <ele>824.4677734</ele>
        <time>2011-07-24T09:49:02Z</time>
      </trkpt>
      <trkpt lat="43.72242" lon="7.03975">
        <ele>824.4677734</ele>
        <time>2011-07-24T09:49:09Z</time>
      </trkpt>
      <trkpt lat="43.72242" lon="7.03975">
        <ele>824.4677734</ele>
        <time>2011-07-24T09:49:19Z</time>
      </trkpt>
      <trkpt lat="43.72242" lon="7.03975">
        <ele>824.4677734</ele>
        <time>2011-07-24T09:49:23Z</time>
      </trkpt>
      <trkpt lat="43.72242" lon="7.03975">
        <ele>823.0258789</ele>
        <time>2011-07-24T09:49:44Z</time>
      </trkpt>
      <trkpt lat="43.72242" lon="7.03975">
        <ele>822.545166</ele>
        <time>2011-07-24T09:49:49Z</time>
      </trkpt>
      <trkpt lat="43.72242" lon="7.03976">
        <ele>822.0644531</ele>
        <time>2011-07-24T09:49:53Z</time>
      </trkpt>
      <trkpt lat="43.72242" lon="7.03976">
        <ele>821.5837402</ele>
        <time>2011-07-24T09:50:07Z</time>
      </trkpt>
      <trkpt lat="43.72242" lon="7.03977">
        <ele>822.0644531</ele>
        <time>2011-07-24T09:50:21Z</time>
      </trkpt>
      <trkpt lat="43.72248" lon="7.03978">
        <ele>821.5837402</ele>
        <time>2011-07-24T09:50:28Z</time>
      </trkpt>
      <trkpt lat="43.72263" lon="7.03984">
        <ele>820.6225586</ele>
        <time>2011-07-24T09:50:34Z</time>
      </trkpt>
      <trkpt lat="43.72275" lon="7.03989">
        <ele>821.5837402</ele>
        <time>2011-07-24T09:50:39Z</time>
      </trkpt>
      <trkpt lat="43.72294" lon="7.03993">
        <ele>822.545166</ele>
        <time>2011-07-24T09:50:47Z</time>
      </trkpt>
      <trkpt lat="43.72307" lon="7.03995">
        <ele>823.0258789</ele>
        <time>2011-07-24T09:50:52Z</time>
      </trkpt>
      <trkpt lat="43.72323" lon="7.03996">
        <ele>822.545166</ele>
        <time>2011-07-24T09:50:57Z</time>
      </trkpt>
      <trkpt lat="43.72344" lon="7.03993">
        <ele>822.0644531</ele>
        <time>2011-07-24T09:51:02Z</time>
      </trkpt>
      <trkpt lat="43.72367" lon="7.03976">
        <ele>820.1418457</ele>
        <time>2011-07-24T09:51:08Z</time>
      </trkpt>
      <trkpt lat="43.72402" lon="7.03946">
        <ele>818.2192383</ele>
        <time>2011-07-24T09:51:16Z</time>
      </trkpt>
      <trkpt lat="43.72419" lon="7.03947">
        <ele>817.2580566</ele>
        <time>2011-07-24T09:51:20Z</time>
      </trkpt>
      <trkpt lat="43.72421" lon="7.03953">
        <ele>816.7773438</ele>
        <time>2011-07-24T09:51:21Z</time>
      </trkpt>
      <trkpt lat="43.72428" lon="7.03972">
        <ele>815.3354492</ele>
        <time>2011-07-24T09:51:24Z</time>
      </trkpt>
      <trkpt lat="43.72434" lon="7.03984">
        <ele>816.2966309</ele>
        <time>2011-07-24T09:51:26Z</time>
      </trkpt>
      <trkpt lat="43.72455" lon="7.04014">
        <ele>816.2966309</ele>
        <time>2011-07-24T09:51:34Z</time>
      </trkpt>
      <trkpt lat="43.7247" lon="7.04026">
        <ele>817.2580566</ele>
        <time>2011-07-24T09:51:41Z</time>
      </trkpt>
      <trkpt lat="43.72485" lon="7.04032">
        <ele>819.661377</ele>
        <time>2011-07-24T09:51:48Z</time>
      </trkpt>
      <trkpt lat="43.72493" lon="7.04034">
        <ele>820.1418457</ele>
        <time>2011-07-24T09:51:52Z</time>
      </trkpt>
      <trkpt lat="43.72509" lon="7.0404">
        <ele>820.6225586</ele>
        <time>2011-07-24T09:51:58Z</time>
      </trkpt>
      <trkpt lat="43.72525" lon="7.04051">
        <ele>821.1032715</ele>
        <time>2011-07-24T09:52:04Z</time>
      </trkpt>
      <trkpt lat="43.72543" lon="7.04062">
        <ele>820.6225586</ele>
        <time>2011-07-24T09:52:10Z</time>
      </trkpt>
      <trkpt lat="43.72567" lon="7.04072">
        <ele>819.1806641</ele>
        <time>2011-07-24T09:52:16Z</time>
      </trkpt>
      <trkpt lat="43.72578" lon="7.04073">
        <ele>818.2192383</ele>
        <time>2011-07-24T09:52:18Z</time>
      </trkpt>
      <trkpt lat="43.72599" lon="7.04086">
        <ele>817.2580566</ele>
        <time>2011-07-24T09:52:22Z</time>
      </trkpt>
      <trkpt lat="43.72603" lon="7.04091">
        <ele>817.2580566</ele>
        <time>2011-07-24T09:52:23Z</time>
      </trkpt>
      <trkpt lat="43.72623" lon="7.04098">
        <ele>818.2192383</ele>
        <time>2011-07-24T09:52:28Z</time>
      </trkpt>
      <trkpt lat="43.72627" lon="7.04098">
        <ele>818.6999512</ele>
        <time>2011-07-24T09:52:29Z</time>
      </trkpt>
      <trkpt lat="43.72646" lon="7.04103">
        <ele>819.661377</ele>
        <time>2011-07-24T09:52:36Z</time>
      </trkpt>
      <trkpt lat="43.72667" lon="7.04117">
        <ele>820.1418457</ele>
        <time>2011-07-24T09:52:43Z</time>
      </trkpt>
      <trkpt lat="43.72685" lon="7.04129">
        <ele>820.6225586</ele>
        <time>2011-07-24T09:52:50Z</time>
      </trkpt>
      <trkpt lat="43.72701" lon="7.04137">
        <ele>821.5837402</ele>
        <time>2011-07-24T09:52:57Z</time>
      </trkpt>
      <trkpt lat="43.72723" lon="7.04139">
        <ele>823.0258789</ele>
        <time>2011-07-24T09:53:06Z</time>
      </trkpt>
      <trkpt lat="43.72741" lon="7.04141">
        <ele>824.4677734</ele>
        <time>2011-07-24T09:53:13Z</time>
      </trkpt>
      <trkpt lat="43.72759" lon="7.04139">
        <ele>825.909668</ele>
        <time>2011-07-24T09:53:20Z</time>
      </trkpt>
      <trkpt lat="43.72775" lon="7.0413">
        <ele>826.3903809</ele>
        <time>2011-07-24T09:53:28Z</time>
      </trkpt>
      <trkpt lat="43.72795" lon="7.04119">
        <ele>826.8710938</ele>
        <time>2011-07-24T09:53:37Z</time>
      </trkpt>
      <trkpt lat="43.7281" lon="7.04117">
        <ele>827.3518066</ele>
        <time>2011-07-24T09:53:44Z</time>
      </trkpt>
      <trkpt lat="43.72826" lon="7.04123">
        <ele>829.2744141</ele>
        <time>2011-07-24T09:53:51Z</time>
      </trkpt>
      <trkpt lat="43.72834" lon="7.04126">
        <ele>830.7165527</ele>
        <time>2011-07-24T09:53:57Z</time>
      </trkpt>
      <trkpt lat="43.72844" lon="7.04129">
        <ele>831.6777344</ele>
        <time>2011-07-24T09:54:03Z</time>
      </trkpt>
      <trkpt lat="43.72855" lon="7.04132">
        <ele>833.6003418</ele>
        <time>2011-07-24T09:54:10Z</time>
      </trkpt>
      <trkpt lat="43.72867" lon="7.04134">
        <ele>834.5617676</ele>
        <time>2011-07-24T09:54:18Z</time>
      </trkpt>
      <trkpt lat="43.72881" lon="7.04135">
        <ele>835.5229492</ele>
        <time>2011-07-24T09:54:27Z</time>
      </trkpt>
      <trkpt lat="43.72895" lon="7.04135">
        <ele>835.5229492</ele>
        <time>2011-07-24T09:54:34Z</time>
      </trkpt>
      <trkpt lat="43.72912" lon="7.04137">
        <ele>836.9648438</ele>
        <time>2011-07-24T09:54:39Z</time>
      </trkpt>
      <trkpt lat="43.72937" lon="7.04142">
        <ele>838.8876953</ele>
        <time>2011-07-24T09:54:44Z</time>
      </trkpt>
      <trkpt lat="43.72942" lon="7.04143">
        <ele>838.8876953</ele>
        <time>2011-07-24T09:54:45Z</time>
      </trkpt>
      <trkpt lat="43.72954" lon="7.04151">
        <ele>838.8876953</ele>
        <time>2011-07-24T09:54:49Z</time>
      </trkpt>
      <trkpt lat="43.72956" lon="7.04156">
        <ele>836.484375</ele>
        <time>2011-07-24T09:54:52Z</time>
      </trkpt>
      <trkpt lat="43.72956" lon="7.0417">
        <ele>834.5617676</ele>
        <time>2011-07-24T09:55:00Z</time>
      </trkpt>
      <trkpt lat="43.72953" lon="7.04183">
        <ele>834.5617676</ele>
        <time>2011-07-24T09:55:08Z</time>
      </trkpt>
      <trkpt lat="43.72949" lon="7.04195">
        <ele>836.0036621</ele>
        <time>2011-07-24T09:55:16Z</time>
      </trkpt>
      <trkpt lat="43.72947" lon="7.04206">
        <ele>836.9648438</ele>
        <time>2011-07-24T09:55:23Z</time>
      </trkpt>
      <trkpt lat="43.72945" lon="7.04216">
        <ele>838.8876953</ele>
        <time>2011-07-24T09:55:30Z</time>
      </trkpt>
      <trkpt lat="43.72946" lon="7.04231">
        <ele>838.4069824</ele>
        <time>2011-07-24T09:55:37Z</time>
      </trkpt>
      <trkpt lat="43.72947" lon="7.04252">
        <ele>838.4069824</ele>
        <time>2011-07-24T09:55:44Z</time>
      </trkpt>
      <trkpt lat="43.72946" lon="7.04267">
        <ele>838.8876953</ele>
        <time>2011-07-24T09:55:50Z</time>
      </trkpt>
      <trkpt lat="43.72943" lon="7.04288">
        <ele>839.848877</ele>
        <time>2011-07-24T09:55:57Z</time>
      </trkpt>
      <trkpt lat="43.72942" lon="7.04313">
        <ele>841.7714844</ele>
        <time>2011-07-24T09:56:05Z</time>
      </trkpt>
      <trkpt lat="43.72942" lon="7.04333">
        <ele>842.7329102</ele>
        <time>2011-07-24T09:56:12Z</time>
      </trkpt>
      <trkpt lat="43.72942" lon="7.04348">
        <ele>843.6940918</ele>
        <time>2011-07-24T09:56:18Z</time>
      </trkpt>
      <trkpt lat="43.72943" lon="7.04367">
        <ele>844.1750488</ele>
        <time>2011-07-24T09:56:25Z</time>
      </trkpt>
      <trkpt lat="43.72943" lon="7.04381">
        <ele>845.1362305</ele>
        <time>2011-07-24T09:56:31Z</time>
      </trkpt>
      <trkpt lat="43.72942" lon="7.04398">
        <ele>846.0976563</ele>
        <time>2011-07-24T09:56:38Z</time>
      </trkpt>
      <trkpt lat="43.72942" lon="7.04412">
        <ele>847.0588379</ele>
        <time>2011-07-24T09:56:44Z</time>
      </trkpt>
      <trkpt lat="43.72943" lon="7.04427">
        <ele>848.0202637</ele>
        <time>2011-07-24T09:56:51Z</time>
      </trkpt>
      <trkpt lat="43.72941" lon="7.0445">
        <ele>847.5395508</ele>
        <time>2011-07-24T09:57:00Z</time>
      </trkpt>
      <trkpt lat="43.72935" lon="7.04481">
        <ele>848.5007324</ele>
        <time>2011-07-24T09:57:09Z</time>
      </trkpt>
      <trkpt lat="43.7293" lon="7.04501">
        <ele>849.9428711</ele>
        <time>2011-07-24T09:57:16Z</time>
      </trkpt>
      <trkpt lat="43.72932" lon="7.0452">
        <ele>850.9040527</ele>
        <time>2011-07-24T09:57:23Z</time>
      </trkpt>
      <trkpt lat="43.72942" lon="7.04532">
        <ele>850.9040527</ele>
        <time>2011-07-24T09:57:29Z</time>
      </trkpt>
      <trkpt lat="43.72958" lon="7.04546">
        <ele>850.9040527</ele>
        <time>2011-07-24T09:57:36Z</time>
      </trkpt>
      <trkpt lat="43.72971" lon="7.04561">
        <ele>848.9814453</ele>
        <time>2011-07-24T09:57:40Z</time>
      </trkpt>
      <trkpt lat="43.73004" lon="7.04589">
        <ele>846.5783691</ele>
        <time>2011-07-24T09:57:46Z</time>
      </trkpt>
      <trkpt lat="43.73037" lon="7.04623">
        <ele>844.1750488</ele>
        <time>2011-07-24T09:57:52Z</time>
      </trkpt>
      <trkpt lat="43.73065" lon="7.04661">
        <ele>843.2133789</ele>
        <time>2011-07-24T09:57:58Z</time>
      </trkpt>
      <trkpt lat="43.7309" lon="7.04697">
        <ele>841.2907715</ele>
        <time>2011-07-24T09:58:05Z</time>
      </trkpt>
      <trkpt lat="43.73107" lon="7.04718">
        <ele>839.848877</ele>
        <time>2011-07-24T09:58:09Z</time>
      </trkpt>
      <trkpt lat="43.73114" lon="7.04728">
        <ele>839.3681641</ele>
        <time>2011-07-24T09:58:11Z</time>
      </trkpt>
      <trkpt lat="43.73131" lon="7.0474">
        <ele>838.8876953</ele>
        <time>2011-07-24T09:58:16Z</time>
      </trkpt>
      <trkpt lat="43.73142" lon="7.04745">
        <ele>838.4069824</ele>
        <time>2011-07-24T09:58:19Z</time>
      </trkpt>
      <trkpt lat="43.73175" lon="7.04751">
        <ele>836.9648438</ele>
        <time>2011-07-24T09:58:26Z</time>
      </trkpt>
      <trkpt lat="43.73211" lon="7.04766">
        <ele>836.484375</ele>
        <time>2011-07-24T09:58:33Z</time>
      </trkpt>
      <trkpt lat="43.73235" lon="7.04778">
        <ele>836.0036621</ele>
        <time>2011-07-24T09:58:39Z</time>
      </trkpt>
      <trkpt lat="43.73242" lon="7.04783">
        <ele>836.0036621</ele>
        <time>2011-07-24T09:58:41Z</time>
      </trkpt>
      <trkpt lat="43.73249" lon="7.0479">
        <ele>836.9648438</ele>
        <time>2011-07-24T09:58:44Z</time>
      </trkpt>
      <trkpt lat="43.73257" lon="7.04816">
        <ele>836.9648438</ele>
        <time>2011-07-24T09:58:51Z</time>
      </trkpt>
      <trkpt lat="43.73266" lon="7.04846">
        <ele>836.484375</ele>
        <time>2011-07-24T09:58:58Z</time>
      </trkpt>
      <trkpt lat="43.73278" lon="7.04883">
        <ele>836.484375</ele>
        <time>2011-07-24T09:59:06Z</time>
      </trkpt>
      <trkpt lat="43.73291" lon="7.04916">
        <ele>835.0424805</ele>
        <time>2011-07-24T09:59:13Z</time>
      </trkpt>
      <trkpt lat="43.733" lon="7.04937">
        <ele>834.5617676</ele>
        <time>2011-07-24T09:59:17Z</time>
      </trkpt>
      <trkpt lat="43.73311" lon="7.04951">
        <ele>835.0424805</ele>
        <time>2011-07-24T09:59:21Z</time>
      </trkpt>
      <trkpt lat="43.73328" lon="7.04964">
        <ele>834.0810547</ele>
        <time>2011-07-24T09:59:26Z</time>
      </trkpt>
      <trkpt lat="43.73339" lon="7.04978">
        <ele>833.1196289</ele>
        <time>2011-07-24T09:59:29Z</time>
      </trkpt>
      <trkpt lat="43.73353" lon="7.04991">
        <ele>832.1584473</ele>
        <time>2011-07-24T09:59:33Z</time>
      </trkpt>
      <trkpt lat="43.73373" lon="7.05001">
        <ele>829.755127</ele>
        <time>2011-07-24T09:59:37Z</time>
      </trkpt>
      <trkpt lat="43.73391" lon="7.05018">
        <ele>827.3518066</ele>
        <time>2011-07-24T09:59:40Z</time>
      </trkpt>
      <trkpt lat="43.73416" lon="7.05047">
        <ele>823.5065918</ele>
        <time>2011-07-24T09:59:45Z</time>
      </trkpt>
      <trkpt lat="43.73416" lon="7.05068">
        <ele>819.661377</ele>
        <time>2011-07-24T09:59:49Z</time>
      </trkpt>
      <trkpt lat="43.73423" lon="7.05127">
        <ele>817.7385254</ele>
        <time>2011-07-24T09:59:58Z</time>
      </trkpt>
      <trkpt lat="43.73427" lon="7.05155">
        <ele>817.7385254</ele>
        <time>2011-07-24T10:00:03Z</time>
      </trkpt>
      <trkpt lat="43.73432" lon="7.05185">
        <ele>820.6225586</ele>
        <time>2011-07-24T10:00:11Z</time>
      </trkpt>
      <trkpt lat="43.73434" lon="7.05203">
        <ele>821.5837402</ele>
        <time>2011-07-24T10:00:16Z</time>
      </trkpt>
      <trkpt lat="43.73438" lon="7.05233">
        <ele>820.6225586</ele>
        <time>2011-07-24T10:00:22Z</time>
      </trkpt>
      <trkpt lat="43.73443" lon="7.05254">
        <ele>820.6225586</ele>
        <time>2011-07-24T10:00:27Z</time>
      </trkpt>
      <trkpt lat="43.73451" lon="7.05279">
        <ele>818.6999512</ele>
        <time>2011-07-24T10:00:34Z</time>
      </trkpt>
      <trkpt lat="43.73455" lon="7.05293">
        <ele>819.661377</ele>
        <time>2011-07-24T10:00:39Z</time>
      </trkpt>
      <trkpt lat="43.73458" lon="7.05316">
        <ele>820.1418457</ele>
        <time>2011-07-24T10:00:48Z</time>
      </trkpt>
      <trkpt lat="43.7346" lon="7.05332">
        <ele>823.0258789</ele>
        <time>2011-07-24T10:00:55Z</time>
      </trkpt>
      <trkpt lat="43.73462" lon="7.05344">
        <ele>823.9870605</ele>
        <time>2011-07-24T10:01:01Z</time>
      </trkpt>
      <trkpt lat="43.73465" lon="7.05355">
        <ele>823.9870605</ele>
        <time>2011-07-24T10:01:06Z</time>
      </trkpt>
      <trkpt lat="43.73465" lon="7.05369">
        <ele>824.9484863</ele>
        <time>2011-07-24T10:01:14Z</time>
      </trkpt>
      <trkpt lat="43.73464" lon="7.05369">
        <ele>825.4289551</ele>
        <time>2011-07-24T10:01:25Z</time>
      </trkpt>
      <trkpt lat="43.73464" lon="7.05368">
        <ele>825.909668</ele>
        <time>2011-07-24T10:01:34Z</time>
      </trkpt>
      <trkpt lat="43.73464" lon="7.05368">
        <ele>825.909668</ele>
        <time>2011-07-24T10:01:39Z</time>
      </trkpt>
      <trkpt lat="43.73464" lon="7.05368">
        <ele>825.909668</ele>
        <time>2011-07-24T10:01:48Z</time>
      </trkpt>
      <trkpt lat="43.73465" lon="7.05368">
        <ele>825.909668</ele>
        <time>2011-07-24T10:01:52Z</time>
      </trkpt>
      <trkpt lat="43.73465" lon="7.05368">
        <ele>825.909668</ele>
        <time>2011-07-24T10:02:01Z</time>
      </trkpt>
      <trkpt lat="43.73466" lon="7.05375">
        <ele>825.4289551</ele>
        <time>2011-07-24T10:02:06Z</time>
      </trkpt>
      <trkpt lat="43.73469" lon="7.05395">
        <ele>823.9870605</ele>
        <time>2011-07-24T10:02:11Z</time>
      </trkpt>
      <trkpt lat="43.73475" lon="7.05416">
        <ele>821.5837402</ele>
        <time>2011-07-24T10:02:15Z</time>
      </trkpt>
      <trkpt lat="43.73477" lon="7.05428">
        <ele>819.661377</ele>
        <time>2011-07-24T10:02:20Z</time>
      </trkpt>
      <trkpt lat="43.73478" lon="7.0543">
        <ele>820.6225586</ele>
        <time>2011-07-24T10:02:25Z</time>
      </trkpt>
      <trkpt lat="43.73478" lon="7.05432">
        <ele>820.1418457</ele>
        <time>2011-07-24T10:02:29Z</time>
      </trkpt>
      <trkpt lat="43.73481" lon="7.05436">
        <ele>819.661377</ele>
        <time>2011-07-24T10:02:36Z</time>
      </trkpt>
      <trkpt lat="43.73485" lon="7.05438">
        <ele>819.661377</ele>
        <time>2011-07-24T10:02:41Z</time>
      </trkpt>
      <trkpt lat="43.73486" lon="7.05437">
        <ele>819.661377</ele>
        <time>2011-07-24T10:02:42Z</time>
      </trkpt>
      <trkpt lat="43.73493" lon="7.05429">
        <ele>820.1418457</ele>
        <time>2011-07-24T10:02:49Z</time>
      </trkpt>
      <trkpt lat="43.73502" lon="7.05419">
        <ele>822.0644531</ele>
        <time>2011-07-24T10:02:57Z</time>
      </trkpt>
      <trkpt lat="43.73508" lon="7.05411">
        <ele>823.0258789</ele>
        <time>2011-07-24T10:03:04Z</time>
      </trkpt>
      <trkpt lat="43.73515" lon="7.05401">
        <ele>824.4677734</ele>
        <time>2011-07-24T10:03:12Z</time>
      </trkpt>
      <trkpt lat="43.73524" lon="7.05394">
        <ele>826.3903809</ele>
        <time>2011-07-24T10:03:20Z</time>
      </trkpt>
      <trkpt lat="43.73529" lon="7.05388">
        <ele>826.3903809</ele>
        <time>2011-07-24T10:03:26Z</time>
      </trkpt>
      <trkpt lat="43.73538" lon="7.05382">
        <ele>828.3132324</ele>
        <time>2011-07-24T10:03:33Z</time>
      </trkpt>
      <trkpt lat="43.73543" lon="7.05378">
        <ele>829.755127</ele>
        <time>2011-07-24T10:03:39Z</time>
      </trkpt>
      <trkpt lat="43.73548" lon="7.05367">
        <ele>830.7165527</ele>
        <time>2011-07-24T10:03:47Z</time>
      </trkpt>
      <trkpt lat="43.73555" lon="7.05359">
        <ele>831.6777344</ele>
        <time>2011-07-24T10:03:55Z</time>
      </trkpt>
      <trkpt lat="43.73561" lon="7.05351">
        <ele>833.6003418</ele>
        <time>2011-07-24T10:04:03Z</time>
      </trkpt>
      <trkpt lat="43.73568" lon="7.05344">
        <ele>836.0036621</ele>
        <time>2011-07-24T10:04:11Z</time>
      </trkpt>
      <trkpt lat="43.73573" lon="7.05336">
        <ele>839.3681641</ele>
        <time>2011-07-24T10:04:19Z</time>
      </trkpt>
      <trkpt lat="43.73577" lon="7.05329">
        <ele>841.2907715</ele>
        <time>2011-07-24T10:04:25Z</time>
      </trkpt>
      <trkpt lat="43.73578" lon="7.05324">
        <ele>840.3295898</ele>
        <time>2011-07-24T10:04:29Z</time>
      </trkpt>
      <trkpt lat="43.73578" lon="7.05321">
        <ele>839.3681641</ele>
        <time>2011-07-24T10:04:31Z</time>
      </trkpt>
      <trkpt lat="43.73577" lon="7.05314">
        <ele>836.9648438</ele>
        <time>2011-07-24T10:04:34Z</time>
      </trkpt>
      <trkpt lat="43.73575" lon="7.05307">
        <ele>836.484375</ele>
        <time>2011-07-24T10:04:39Z</time>
      </trkpt>
      <trkpt lat="43.73574" lon="7.05305">
        <ele>836.9648438</ele>
        <time>2011-07-24T10:04:45Z</time>
      </trkpt>
      <trkpt lat="43.73575" lon="7.05301">
        <ele>836.9648438</ele>
        <time>2011-07-24T10:04:59Z</time>
      </trkpt>
      <trkpt lat="43.73576" lon="7.053">
        <ele>837.4455566</ele>
        <time>2011-07-24T10:05:14Z</time>
      </trkpt>
      <trkpt lat="43.73576" lon="7.05299">
        <ele>836.484375</ele>
        <time>2011-07-24T10:05:24Z</time>
      </trkpt>
      <trkpt lat="43.73576" lon="7.05298">
        <ele>837.9262695</ele>
        <time>2011-07-24T10:05:27Z</time>
      </trkpt>
      <trkpt lat="43.73576" lon="7.05298">
        <ele>837.9262695</ele>
        <time>2011-07-24T10:05:28Z</time>
      </trkpt>
      <trkpt lat="43.73577" lon="7.05298">
        <ele>837.9262695</ele>
        <time>2011-07-24T10:05:29Z</time>
      </trkpt>
      <trkpt lat="43.73582" lon="7.05297">
        <ele>840.3295898</ele>
        <time>2011-07-24T10:05:35Z</time>
      </trkpt>
      <trkpt lat="43.73582" lon="7.05294">
        <ele>844.1750488</ele>
        <time>2011-07-24T10:05:41Z</time>
      </trkpt>
      <trkpt lat="43.73584" lon="7.05292">
        <ele>847.0588379</ele>
        <time>2011-07-24T10:05:47Z</time>
      </trkpt>
      <trkpt lat="43.73585" lon="7.05291">
        <ele>848.0202637</ele>
        <time>2011-07-24T10:05:51Z</time>
      </trkpt>
      <trkpt lat="43.7359" lon="7.05288">
        <ele>848.9814453</ele>
        <time>2011-07-24T10:05:56Z</time>
      </trkpt>
      <trkpt lat="43.73592" lon="7.05286">
        <ele>849.9428711</ele>
        <time>2011-07-24T10:06:01Z</time>
      </trkpt>
      <trkpt lat="43.73595" lon="7.05283">
        <ele>851.3847656</ele>
        <time>2011-07-24T10:06:07Z</time>
      </trkpt>
      <trkpt lat="43.73595" lon="7.0528">
        <ele>851.8654785</ele>
        <time>2011-07-24T10:06:13Z</time>
      </trkpt>
      <trkpt lat="43.73596" lon="7.05273">
        <ele>854.7492676</ele>
        <time>2011-07-24T10:06:19Z</time>
      </trkpt>
      <trkpt lat="43.73599" lon="7.05266">
        <ele>857.6333008</ele>
        <time>2011-07-24T10:06:27Z</time>
      </trkpt>
      <trkpt lat="43.73605" lon="7.05258">
        <ele>856.671875</ele>
        <time>2011-07-24T10:06:37Z</time>
      </trkpt>
      <trkpt lat="43.7361" lon="7.05253">
        <ele>858.5944824</ele>
        <time>2011-07-24T10:06:43Z</time>
      </trkpt>
      <trkpt lat="43.73614" lon="7.05251">
        <ele>860.9980469</ele>
        <time>2011-07-24T10:06:51Z</time>
      </trkpt>
      <trkpt lat="43.73618" lon="7.05248">
        <ele>861.4787598</ele>
        <time>2011-07-24T10:06:59Z</time>
      </trkpt>
      <trkpt lat="43.73621" lon="7.05247">
        <ele>862.4399414</ele>
        <time>2011-07-24T10:07:05Z</time>
      </trkpt>
      <trkpt lat="43.73622" lon="7.05246">
        <ele>865.3239746</ele>
        <time>2011-07-24T10:07:11Z</time>
      </trkpt>
      <trkpt lat="43.73621" lon="7.05247">
        <ele>864.8432617</ele>
        <time>2011-07-24T10:07:18Z</time>
      </trkpt>
      <trkpt lat="43.73621" lon="7.05244">
        <ele>863.8818359</ele>
        <time>2011-07-24T10:07:23Z</time>
      </trkpt>
      <trkpt lat="43.73625" lon="7.05242">
        <ele>864.3625488</ele>
        <time>2011-07-24T10:07:29Z</time>
      </trkpt>
      <trkpt lat="43.7363" lon="7.05242">
        <ele>866.2851563</ele>
        <time>2011-07-24T10:07:36Z</time>
      </trkpt>
      <trkpt lat="43.73633" lon="7.05241">
        <ele>868.2077637</ele>
        <time>2011-07-24T10:07:43Z</time>
      </trkpt>
      <trkpt lat="43.73636" lon="7.05243">
        <ele>870.1303711</ele>
        <time>2011-07-24T10:07:49Z</time>
      </trkpt>
      <trkpt lat="43.73635" lon="7.05245">
        <ele>868.6884766</ele>
        <time>2011-07-24T10:07:56Z</time>
      </trkpt>
      <trkpt lat="43.73634" lon="7.05244">
        <ele>869.6499023</ele>
        <time>2011-07-24T10:08:01Z</time>
      </trkpt>
      <trkpt lat="43.73633" lon="7.05241">
        <ele>871.0917969</ele>
        <time>2011-07-24T10:08:07Z</time>
      </trkpt>
      <trkpt lat="43.73635" lon="7.05237">
        <ele>869.1691895</ele>
        <time>2011-07-24T10:08:13Z</time>
      </trkpt>
      <trkpt lat="43.73638" lon="7.05234">
        <ele>872.0529785</ele>
        <time>2011-07-24T10:08:21Z</time>
      </trkpt>
      <trkpt lat="43.73641" lon="7.05233">
        <ele>874.9370117</ele>
        <time>2011-07-24T10:08:29Z</time>
      </trkpt>
      <trkpt lat="43.73644" lon="7.05233">
        <ele>876.3791504</ele>
        <time>2011-07-24T10:08:38Z</time>
      </trkpt>
      <trkpt lat="43.73643" lon="7.05233">
        <ele>877.8210449</ele>
        <time>2011-07-24T10:08:44Z</time>
      </trkpt>
      <trkpt lat="43.73642" lon="7.0523">
        <ele>879.2629395</ele>
        <time>2011-07-24T10:08:51Z</time>
      </trkpt>
      <trkpt lat="43.73642" lon="7.05225">
        <ele>878.3017578</ele>
        <time>2011-07-24T10:08:58Z</time>
      </trkpt>
      <trkpt lat="43.73643" lon="7.0522">
        <ele>879.2629395</ele>
        <time>2011-07-24T10:09:05Z</time>
      </trkpt>
      <trkpt lat="43.73644" lon="7.05215">
        <ele>877.3405762</ele>
        <time>2011-07-24T10:09:12Z</time>
      </trkpt>
      <trkpt lat="43.73644" lon="7.0521">
        <ele>881.6662598</ele>
        <time>2011-07-24T10:09:19Z</time>
      </trkpt>
      <trkpt lat="43.73645" lon="7.05205">
        <ele>882.6276855</ele>
        <time>2011-07-24T10:09:26Z</time>
      </trkpt>
      <trkpt lat="43.73644" lon="7.05198">
        <ele>885.9921875</ele>
        <time>2011-07-24T10:09:35Z</time>
      </trkpt>
      <trkpt lat="43.73643" lon="7.05197">
        <ele>887.9147949</ele>
        <time>2011-07-24T10:09:38Z</time>
      </trkpt>
      <trkpt lat="43.73645" lon="7.05191">
        <ele>891.7600098</ele>
        <time>2011-07-24T10:09:44Z</time>
      </trkpt>
      <trkpt lat="43.73644" lon="7.05188">
        <ele>893.2021484</ele>
        <time>2011-07-24T10:09:50Z</time>
      </trkpt>
      <trkpt lat="43.73642" lon="7.05181">
        <ele>892.7216797</ele>
        <time>2011-07-24T10:09:58Z</time>
      </trkpt>
      <trkpt lat="43.73639" lon="7.05174">
        <ele>889.8374023</ele>
        <time>2011-07-24T10:10:05Z</time>
      </trkpt>
      <trkpt lat="43.73638" lon="7.05166">
        <ele>884.550293</ele>
        <time>2011-07-24T10:10:13Z</time>
      </trkpt>
      <trkpt lat="43.73638" lon="7.0516">
        <ele>882.6276855</ele>
        <time>2011-07-24T10:10:18Z</time>
      </trkpt>
      <trkpt lat="43.73636" lon="7.0515">
        <ele>883.5888672</ele>
        <time>2011-07-24T10:10:26Z</time>
      </trkpt>
      <trkpt lat="43.73636" lon="7.05145">
        <ele>885.0310059</ele>
        <time>2011-07-24T10:10:34Z</time>
      </trkpt>
      <trkpt lat="43.73637" lon="7.0514">
        <ele>885.9921875</ele>
        <time>2011-07-24T10:10:42Z</time>
      </trkpt>
      <trkpt lat="43.73638" lon="7.05135">
        <ele>886.9533691</ele>
        <time>2011-07-24T10:10:49Z</time>
      </trkpt>
      <trkpt lat="43.73638" lon="7.0513">
        <ele>888.8762207</ele>
        <time>2011-07-24T10:10:56Z</time>
      </trkpt>
      <trkpt lat="43.73639" lon="7.05124">
        <ele>889.8374023</ele>
        <time>2011-07-24T10:11:03Z</time>
      </trkpt>
      <trkpt lat="43.73639" lon="7.05114">
        <ele>890.798584</ele>
        <time>2011-07-24T10:11:12Z</time>
      </trkpt>
      <trkpt lat="43.73637" lon="7.05108">
        <ele>891.7600098</ele>
        <time>2011-07-24T10:11:18Z</time>
      </trkpt>
      <trkpt lat="43.73636" lon="7.05103">
        <ele>891.7600098</ele>
        <time>2011-07-24T10:11:25Z</time>
      </trkpt>
      <trkpt lat="43.73635" lon="7.05097">
        <ele>892.7216797</ele>
        <time>2011-07-24T10:11:32Z</time>
      </trkpt>
      <trkpt lat="43.73633" lon="7.05089">
        <ele>896.0861816</ele>
        <time>2011-07-24T10:11:41Z</time>
      </trkpt>
      <trkpt lat="43.73633" lon="7.05081">
        <ele>896.5668945</ele>
        <time>2011-07-24T10:11:49Z</time>
      </trkpt>
      <trkpt lat="43.73633" lon="7.05075">
        <ele>895.6054688</ele>
        <time>2011-07-24T10:11:55Z</time>
      </trkpt>
      <trkpt lat="43.73635" lon="7.05072">
        <ele>895.6054688</ele>
        <time>2011-07-24T10:12:01Z</time>
      </trkpt>
      <trkpt lat="43.73638" lon="7.05074">
        <ele>896.0861816</ele>
        <time>2011-07-24T10:12:08Z</time>
      </trkpt>
      <trkpt lat="43.7364" lon="7.05072">
        <ele>897.5280762</ele>
        <time>2011-07-24T10:12:15Z</time>
      </trkpt>
      <trkpt lat="43.7364" lon="7.05069">
        <ele>898.9699707</ele>
        <time>2011-07-24T10:12:21Z</time>
      </trkpt>
      <trkpt lat="43.73639" lon="7.05063">
        <ele>899.9313965</ele>
        <time>2011-07-24T10:12:29Z</time>
      </trkpt>
      <trkpt lat="43.73639" lon="7.05056">
        <ele>899.9313965</ele>
        <time>2011-07-24T10:12:37Z</time>
      </trkpt>
      <trkpt lat="43.73642" lon="7.05051">
        <ele>900.8925781</ele>
        <time>2011-07-24T10:12:44Z</time>
      </trkpt>
      <trkpt lat="43.73645" lon="7.0505">
        <ele>901.8540039</ele>
        <time>2011-07-24T10:12:49Z</time>
      </trkpt>
      <trkpt lat="43.73645" lon="7.05049">
        <ele>903.2958984</ele>
        <time>2011-07-24T10:12:56Z</time>
      </trkpt>
      <trkpt lat="43.73646" lon="7.05047">
        <ele>904.2573242</ele>
        <time>2011-07-24T10:13:03Z</time>
      </trkpt>
      <trkpt lat="43.73646" lon="7.05044">
        <ele>905.2185059</ele>
        <time>2011-07-24T10:13:09Z</time>
      </trkpt>
      <trkpt lat="43.73645" lon="7.0504">
        <ele>907.6218262</ele>
        <time>2011-07-24T10:13:17Z</time>
      </trkpt>
      <trkpt lat="43.73644" lon="7.05036">
        <ele>909.5446777</ele>
        <time>2011-07-24T10:13:25Z</time>
      </trkpt>
      <trkpt lat="43.73645" lon="7.05032">
        <ele>911.4672852</ele>
        <time>2011-07-24T10:13:34Z</time>
      </trkpt>
      <trkpt lat="43.73645" lon="7.05026">
        <ele>912.4284668</ele>
        <time>2011-07-24T10:13:41Z</time>
      </trkpt>
      <trkpt lat="43.73643" lon="7.05019">
        <ele>913.3898926</ele>
        <time>2011-07-24T10:13:49Z</time>
      </trkpt>
      <trkpt lat="43.73646" lon="7.05012">
        <ele>913.8703613</ele>
        <time>2011-07-24T10:13:58Z</time>
      </trkpt>
      <trkpt lat="43.73646" lon="7.05009">
        <ele>914.8317871</ele>
        <time>2011-07-24T10:14:05Z</time>
      </trkpt>
      <trkpt lat="43.73648" lon="7.05004">
        <ele>915.3125</ele>
        <time>2011-07-24T10:14:12Z</time>
      </trkpt>
      <trkpt lat="43.7365" lon="7.05007">
        <ele>914.8317871</ele>
        <time>2011-07-24T10:14:19Z</time>
      </trkpt>
      <trkpt lat="43.73652" lon="7.05011">
        <ele>915.3125</ele>
        <time>2011-07-24T10:14:25Z</time>
      </trkpt>
      <trkpt lat="43.73653" lon="7.05014">
        <ele>916.2736816</ele>
        <time>2011-07-24T10:14:31Z</time>
      </trkpt>
      <trkpt lat="43.73657" lon="7.05015">
        <ele>916.2736816</ele>
        <time>2011-07-24T10:14:38Z</time>
      </trkpt>
      <trkpt lat="43.73658" lon="7.05013">
        <ele>916.2736816</ele>
        <time>2011-07-24T10:14:44Z</time>
      </trkpt>
      <trkpt lat="43.73658" lon="7.05012">
        <ele>917.2351074</ele>
        <time>2011-07-24T10:14:54Z</time>
      </trkpt>
      <trkpt lat="43.73658" lon="7.05012">
        <ele>917.7155762</ele>
        <time>2011-07-24T10:15:04Z</time>
      </trkpt>
      <trkpt lat="43.73655" lon="7.05014">
        <ele>917.2351074</ele>
        <time>2011-07-24T10:15:17Z</time>
      </trkpt>
      <trkpt lat="43.73655" lon="7.05014">
        <ele>917.2351074</ele>
        <time>2011-07-24T10:15:25Z</time>
      </trkpt>
      <trkpt lat="43.73655" lon="7.0501">
        <ele>917.7155762</ele>
        <time>2011-07-24T10:15:30Z</time>
      </trkpt>
      <trkpt lat="43.73656" lon="7.05007">
        <ele>918.1962891</ele>
        <time>2011-07-24T10:15:34Z</time>
      </trkpt>
      <trkpt lat="43.73658" lon="7.05004">
        <ele>919.1577148</ele>
        <time>2011-07-24T10:15:39Z</time>
      </trkpt>
      <trkpt lat="43.73659" lon="7.04996">
        <ele>920.5996094</ele>
        <time>2011-07-24T10:15:47Z</time>
      </trkpt>
      <trkpt lat="43.7366" lon="7.04996">
        <ele>921.560791</ele>
        <time>2011-07-24T10:15:53Z</time>
      </trkpt>
      <trkpt lat="43.73661" lon="7.04993">
        <ele>923.4836426</ele>
        <time>2011-07-24T10:15:59Z</time>
      </trkpt>
      <trkpt lat="43.73664" lon="7.04995">
        <ele>924.9257813</ele>
        <time>2011-07-24T10:16:05Z</time>
      </trkpt>
      <trkpt lat="43.73665" lon="7.04995">
        <ele>924.9257813</ele>
        <time>2011-07-24T10:16:16Z</time>
      </trkpt>
      <trkpt lat="43.73669" lon="7.04999">
        <ele>924.4450684</ele>
        <time>2011-07-24T10:16:24Z</time>
      </trkpt>
      <trkpt lat="43.73674" lon="7.05">
        <ele>924.4450684</ele>
        <time>2011-07-24T10:16:33Z</time>
      </trkpt>
      <trkpt lat="43.73676" lon="7.04996">
        <ele>924.9257813</ele>
        <time>2011-07-24T10:16:40Z</time>
      </trkpt>
      <trkpt lat="43.73673" lon="7.04991">
        <ele>925.40625</ele>
        <time>2011-07-24T10:16:47Z</time>
      </trkpt>
      <trkpt lat="43.73674" lon="7.04986">
        <ele>926.8483887</ele>
        <time>2011-07-24T10:16:54Z</time>
      </trkpt>
      <trkpt lat="43.73677" lon="7.04989">
        <ele>928.2902832</ele>
        <time>2011-07-24T10:17:01Z</time>
      </trkpt>
      <trkpt lat="43.73679" lon="7.04993">
        <ele>930.6936035</ele>
        <time>2011-07-24T10:17:09Z</time>
      </trkpt>
      <trkpt lat="43.73681" lon="7.05">
        <ele>931.6547852</ele>
        <time>2011-07-24T10:17:17Z</time>
      </trkpt>
      <trkpt lat="43.73684" lon="7.05004">
        <ele>932.6162109</ele>
        <time>2011-07-24T10:17:25Z</time>
      </trkpt>
      <trkpt lat="43.73686" lon="7.05001">
        <ele>932.6162109</ele>
        <time>2011-07-24T10:17:31Z</time>
      </trkpt>
      <trkpt lat="43.73688" lon="7.04998">
        <ele>933.5773926</ele>
        <time>2011-07-24T10:17:37Z</time>
      </trkpt>
      <trkpt lat="43.73693" lon="7.05003">
        <ele>934.5388184</ele>
        <time>2011-07-24T10:17:45Z</time>
      </trkpt>
      <trkpt lat="43.73694" lon="7.05004">
        <ele>935.0195313</ele>
        <time>2011-07-24T10:17:53Z</time>
      </trkpt>
      <trkpt lat="43.73695" lon="7.04999">
        <ele>936.4614258</ele>
        <time>2011-07-24T10:18:01Z</time>
      </trkpt>
      <trkpt lat="43.73692" lon="7.04994">
        <ele>937.9033203</ele>
        <time>2011-07-24T10:18:09Z</time>
      </trkpt>
      <trkpt lat="43.73691" lon="7.04993">
        <ele>938.8647461</ele>
        <time>2011-07-24T10:18:16Z</time>
      </trkpt>
      <trkpt lat="43.73692" lon="7.04991">
        <ele>940.7873535</ele>
        <time>2011-07-24T10:18:23Z</time>
      </trkpt>
      <trkpt lat="43.73696" lon="7.04992">
        <ele>940.3068848</ele>
        <time>2011-07-24T10:18:29Z</time>
      </trkpt>
      <trkpt lat="43.73702" lon="7.04995">
        <ele>940.7873535</ele>
        <time>2011-07-24T10:18:39Z</time>
      </trkpt>
      <trkpt lat="43.73703" lon="7.0499">
        <ele>943.1906738</ele>
        <time>2011-07-24T10:18:46Z</time>
      </trkpt>
      <trkpt lat="43.73703" lon="7.04985">
        <ele>944.6325684</ele>
        <time>2011-07-24T10:18:53Z</time>
      </trkpt>
      <trkpt lat="43.73707" lon="7.04981">
        <ele>944.6325684</ele>
        <time>2011-07-24T10:19:02Z</time>
      </trkpt>
      <trkpt lat="43.7371" lon="7.04982">
        <ele>945.5939941</ele>
        <time>2011-07-24T10:19:08Z</time>
      </trkpt>
      <trkpt lat="43.73712" lon="7.04979">
        <ele>946.5554199</ele>
        <time>2011-07-24T10:19:16Z</time>
      </trkpt>
      <trkpt lat="43.7371" lon="7.04975">
        <ele>947.5166016</ele>
        <time>2011-07-24T10:19:23Z</time>
      </trkpt>
      <trkpt lat="43.73712" lon="7.0497">
        <ele>948.4777832</ele>
        <time>2011-07-24T10:19:30Z</time>
      </trkpt>
      <trkpt lat="43.73714" lon="7.04971">
        <ele>947.9973145</ele>
        <time>2011-07-24T10:19:38Z</time>
      </trkpt>
      <trkpt lat="43.73718" lon="7.04972">
        <ele>947.9973145</ele>
        <time>2011-07-24T10:19:47Z</time>
      </trkpt>
      <trkpt lat="43.73721" lon="7.0497">
        <ele>949.9199219</ele>
        <time>2011-07-24T10:19:55Z</time>
      </trkpt>
      <trkpt lat="43.73719" lon="7.04966">
        <ele>951.8425293</ele>
        <time>2011-07-24T10:20:03Z</time>
      </trkpt>
      <trkpt lat="43.73719" lon="7.04964">
        <ele>952.322998</ele>
        <time>2011-07-24T10:20:09Z</time>
      </trkpt>
      <trkpt lat="43.7372" lon="7.04961">
        <ele>952.322998</ele>
        <time>2011-07-24T10:20:14Z</time>
      </trkpt>
      <trkpt lat="43.73723" lon="7.04962">
        <ele>953.7651367</ele>
        <time>2011-07-24T10:20:19Z</time>
      </trkpt>
      <trkpt lat="43.73725" lon="7.04964">
        <ele>953.7651367</ele>
        <time>2011-07-24T10:20:27Z</time>
      </trkpt>
      <trkpt lat="43.73729" lon="7.04967">
        <ele>954.2458496</ele>
        <time>2011-07-24T10:20:35Z</time>
      </trkpt>
      <trkpt lat="43.73735" lon="7.04971">
        <ele>955.2070313</ele>
        <time>2011-07-24T10:20:45Z</time>
      </trkpt>
      <trkpt lat="43.73735" lon="7.0497">
        <ele>954.7263184</ele>
        <time>2011-07-24T10:20:53Z</time>
      </trkpt>
      <trkpt lat="43.73738" lon="7.04971">
        <ele>954.7263184</ele>
        <time>2011-07-24T10:21:00Z</time>
      </trkpt>
      <trkpt lat="43.73742" lon="7.04969">
        <ele>955.6877441</ele>
        <time>2011-07-24T10:21:08Z</time>
      </trkpt>
      <trkpt lat="43.73741" lon="7.04966">
        <ele>956.168457</ele>
        <time>2011-07-24T10:21:15Z</time>
      </trkpt>
      <trkpt lat="43.73738" lon="7.04961">
        <ele>956.6491699</ele>
        <time>2011-07-24T10:21:22Z</time>
      </trkpt>
      <trkpt lat="43.73742" lon="7.04957">
        <ele>957.1298828</ele>
        <time>2011-07-24T10:21:30Z</time>
      </trkpt>
      <trkpt lat="43.73746" lon="7.04955">
        <ele>958.0913086</ele>
        <time>2011-07-24T10:21:38Z</time>
      </trkpt>
      <trkpt lat="43.7375" lon="7.04957">
        <ele>959.0524902</ele>
        <time>2011-07-24T10:21:45Z</time>
      </trkpt>
      <trkpt lat="43.7375" lon="7.04957">
        <ele>959.0524902</ele>
        <time>2011-07-24T10:21:54Z</time>
      </trkpt>
      <trkpt lat="43.73753" lon="7.04959">
        <ele>959.5332031</ele>
        <time>2011-07-24T10:22:02Z</time>
      </trkpt>
      <trkpt lat="43.73757" lon="7.04962">
        <ele>960.4943848</ele>
        <time>2011-07-24T10:22:09Z</time>
      </trkpt>
      <trkpt lat="43.73758" lon="7.04962">
        <ele>959.0524902</ele>
        <time>2011-07-24T10:22:27Z</time>
      </trkpt>
      <trkpt lat="43.73763" lon="7.04963">
        <ele>960.0136719</ele>
        <time>2011-07-24T10:22:33Z</time>
      </trkpt>
      <trkpt lat="43.73768" lon="7.04964">
        <ele>961.4558105</ele>
        <time>2011-07-24T10:22:42Z</time>
      </trkpt>
      <trkpt lat="43.73769" lon="7.04964">
        <ele>962.8977051</ele>
        <time>2011-07-24T10:22:50Z</time>
      </trkpt>
      <trkpt lat="43.73771" lon="7.04964">
        <ele>963.8588867</ele>
        <time>2011-07-24T10:22:55Z</time>
      </trkpt>
      <trkpt lat="43.73776" lon="7.04964">
        <ele>965.3010254</ele>
        <time>2011-07-24T10:23:04Z</time>
      </trkpt>
      <trkpt lat="43.73779" lon="7.04964">
        <ele>965.7817383</ele>
        <time>2011-07-24T10:23:12Z</time>
      </trkpt>
      <trkpt lat="43.73781" lon="7.04966">
        <ele>967.7041016</ele>
        <time>2011-07-24T10:23:18Z</time>
      </trkpt>
      <trkpt lat="43.73782" lon="7.04966">
        <ele>969.1462402</ele>
        <time>2011-07-24T10:23:28Z</time>
      </trkpt>
      <trkpt lat="43.73786" lon="7.04965">
        <ele>971.5493164</ele>
        <time>2011-07-24T10:23:37Z</time>
      </trkpt>
      <trkpt lat="43.7379" lon="7.04966">
        <ele>972.5109863</ele>
        <time>2011-07-24T10:23:44Z</time>
      </trkpt>
      <trkpt lat="43.73794" lon="7.04965">
        <ele>973.9528809</ele>
        <time>2011-07-24T10:23:51Z</time>
      </trkpt>
      <trkpt lat="43.73796" lon="7.04967">
        <ele>974.4335938</ele>
        <time>2011-07-24T10:23:57Z</time>
      </trkpt>
      <trkpt lat="43.73801" lon="7.04969">
        <ele>976.3562012</ele>
        <time>2011-07-24T10:24:05Z</time>
      </trkpt>
      <trkpt lat="43.73803" lon="7.04969">
        <ele>978.2788086</ele>
        <time>2011-07-24T10:24:11Z</time>
      </trkpt>
      <trkpt lat="43.73806" lon="7.04971">
        <ele>978.7595215</ele>
        <time>2011-07-24T10:24:18Z</time>
      </trkpt>
      <trkpt lat="43.73809" lon="7.04971">
        <ele>980.6821289</ele>
        <time>2011-07-24T10:24:25Z</time>
      </trkpt>
      <trkpt lat="43.73811" lon="7.04972">
        <ele>981.1628418</ele>
        <time>2011-07-24T10:24:30Z</time>
      </trkpt>
      <trkpt lat="43.73815" lon="7.04975">
        <ele>981.1628418</ele>
        <time>2011-07-24T10:24:37Z</time>
      </trkpt>
      <trkpt lat="43.73818" lon="7.04979">
        <ele>981.1628418</ele>
        <time>2011-07-24T10:24:44Z</time>
      </trkpt>
      <trkpt lat="43.73824" lon="7.04982">
        <ele>982.1240234</ele>
        <time>2011-07-24T10:24:55Z</time>
      </trkpt>
      <trkpt lat="43.73828" lon="7.04983">
        <ele>982.6047363</ele>
        <time>2011-07-24T10:25:02Z</time>
      </trkpt>
      <trkpt lat="43.73832" lon="7.04986">
        <ele>983.0852051</ele>
        <time>2011-07-24T10:25:10Z</time>
      </trkpt>
      <trkpt lat="43.73837" lon="7.0499">
        <ele>985.0080566</ele>
        <time>2011-07-24T10:25:20Z</time>
      </trkpt>
      <trkpt lat="43.7384" lon="7.04992">
        <ele>985.4885254</ele>
        <time>2011-07-24T10:25:26Z</time>
      </trkpt>
      <trkpt lat="43.73842" lon="7.04993">
        <ele>985.9692383</ele>
        <time>2011-07-24T10:25:33Z</time>
      </trkpt>
      <trkpt lat="43.73843" lon="7.04994">
        <ele>986.9304199</ele>
        <time>2011-07-24T10:25:41Z</time>
      </trkpt>
      <trkpt lat="43.73847" lon="7.04998">
        <ele>988.3728027</ele>
        <time>2011-07-24T10:25:49Z</time>
      </trkpt>
      <trkpt lat="43.73851" lon="7.05004">
        <ele>988.8535156</ele>
        <time>2011-07-24T10:25:57Z</time>
      </trkpt>
      <trkpt lat="43.73854" lon="7.05009">
        <ele>989.8146973</ele>
        <time>2011-07-24T10:26:04Z</time>
      </trkpt>
      <trkpt lat="43.73857" lon="7.05014">
        <ele>989.3339844</ele>
        <time>2011-07-24T10:26:11Z</time>
      </trkpt>
      <trkpt lat="43.7386" lon="7.05018">
        <ele>990.7758789</ele>
        <time>2011-07-24T10:26:19Z</time>
      </trkpt>
      <trkpt lat="43.73862" lon="7.05023">
        <ele>992.6987305</ele>
        <time>2011-07-24T10:26:27Z</time>
      </trkpt>
      <trkpt lat="43.73865" lon="7.05026">
        <ele>992.6987305</ele>
        <time>2011-07-24T10:26:34Z</time>
      </trkpt>
      <trkpt lat="43.73867" lon="7.05032">
        <ele>993.1791992</ele>
        <time>2011-07-24T10:26:41Z</time>
      </trkpt>
      <trkpt lat="43.7387" lon="7.0504">
        <ele>993.6599121</ele>
        <time>2011-07-24T10:26:50Z</time>
      </trkpt>
      <trkpt lat="43.73871" lon="7.05041">
        <ele>994.140625</ele>
        <time>2011-07-24T10:26:56Z</time>
      </trkpt>
      <trkpt lat="43.73874" lon="7.05044">
        <ele>995.1018066</ele>
        <time>2011-07-24T10:27:03Z</time>
      </trkpt>
      <trkpt lat="43.73876" lon="7.05047">
        <ele>996.0632324</ele>
        <time>2011-07-24T10:27:10Z</time>
      </trkpt>
      <trkpt lat="43.7388" lon="7.05052">
        <ele>997.505127</ele>
        <time>2011-07-24T10:27:19Z</time>
      </trkpt>
      <trkpt lat="43.73884" lon="7.05057">
        <ele>997.9858398</ele>
        <time>2011-07-24T10:27:28Z</time>
      </trkpt>
      <trkpt lat="43.73888" lon="7.05057">
        <ele>999.4277344</ele>
        <time>2011-07-24T10:27:35Z</time>
      </trkpt>
      <trkpt lat="43.73892" lon="7.05058">
        <ele>999.9084473</ele>
        <time>2011-07-24T10:27:42Z</time>
      </trkpt>
      <trkpt lat="43.73892" lon="7.05058">
        <ele>999.4277344</ele>
        <time>2011-07-24T10:27:52Z</time>
      </trkpt>
      <trkpt lat="43.73893" lon="7.05059">
        <ele>1000.3891602</ele>
        <time>2011-07-24T10:28:07Z</time>
      </trkpt>
      <trkpt lat="43.73895" lon="7.05059">
        <ele>1000.3891602</ele>
        <time>2011-07-24T10:28:11Z</time>
      </trkpt>
      <trkpt lat="43.73901" lon="7.05058">
        <ele>1002.3115234</ele>
        <time>2011-07-24T10:28:20Z</time>
      </trkpt>
      <trkpt lat="43.73905" lon="7.0506">
        <ele>1002.7922363</ele>
        <time>2011-07-24T10:28:27Z</time>
      </trkpt>
      <trkpt lat="43.73911" lon="7.0506">
        <ele>1003.7536621</ele>
        <time>2011-07-24T10:28:36Z</time>
      </trkpt>
      <trkpt lat="43.73917" lon="7.05061">
        <ele>1003.7536621</ele>
        <time>2011-07-24T10:28:45Z</time>
      </trkpt>
      <trkpt lat="43.73921" lon="7.05062">
        <ele>1004.2346191</ele>
        <time>2011-07-24T10:28:52Z</time>
      </trkpt>
      <trkpt lat="43.73926" lon="7.05062">
        <ele>1004.2346191</ele>
        <time>2011-07-24T10:29:01Z</time>
      </trkpt>
      <trkpt lat="43.73933" lon="7.05063">
        <ele>1005.6765137</ele>
        <time>2011-07-24T10:29:11Z</time>
      </trkpt>
      <trkpt lat="43.73937" lon="7.05066">
        <ele>1006.6376953</ele>
        <time>2011-07-24T10:29:18Z</time>
      </trkpt>
      <trkpt lat="43.73943" lon="7.05068">
        <ele>1009.0410156</ele>
        <time>2011-07-24T10:29:26Z</time>
      </trkpt>
      <trkpt lat="43.73948" lon="7.05071">
        <ele>1010.0021973</ele>
        <time>2011-07-24T10:29:34Z</time>
      </trkpt>
      <trkpt lat="43.73952" lon="7.05075">
        <ele>1010.963623</ele>
        <time>2011-07-24T10:29:43Z</time>
      </trkpt>
      <trkpt lat="43.73956" lon="7.05077">
        <ele>1011.9250488</ele>
        <time>2011-07-24T10:29:50Z</time>
      </trkpt>
      <trkpt lat="43.7396" lon="7.05079">
        <ele>1013.3669434</ele>
        <time>2011-07-24T10:29:58Z</time>
      </trkpt>
      <trkpt lat="43.73965" lon="7.05083">
        <ele>1014.8088379</ele>
        <time>2011-07-24T10:30:06Z</time>
      </trkpt>
      <trkpt lat="43.73969" lon="7.05086">
        <ele>1015.7702637</ele>
        <time>2011-07-24T10:30:14Z</time>
      </trkpt>
      <trkpt lat="43.73972" lon="7.05088">
        <ele>1016.2507324</ele>
        <time>2011-07-24T10:30:22Z</time>
      </trkpt>
      <trkpt lat="43.73974" lon="7.05085">
        <ele>1017.692627</ele>
        <time>2011-07-24T10:30:28Z</time>
      </trkpt>
      <trkpt lat="43.73973" lon="7.05077">
        <ele>1021.0576172</ele>
        <time>2011-07-24T10:30:37Z</time>
      </trkpt>
      <trkpt lat="43.73977" lon="7.05078">
        <ele>1021.5380859</ele>
        <time>2011-07-24T10:30:42Z</time>
      </trkpt>
      <trkpt lat="43.73981" lon="7.05085">
        <ele>1022.9802246</ele>
        <time>2011-07-24T10:30:51Z</time>
      </trkpt>
      <trkpt lat="43.73982" lon="7.05085">
        <ele>1023.4609375</ele>
        <time>2011-07-24T10:30:57Z</time>
      </trkpt>
      <trkpt lat="43.73987" lon="7.05081">
        <ele>1024.4221191</ele>
        <time>2011-07-24T10:31:06Z</time>
      </trkpt>
      <trkpt lat="43.73994" lon="7.05078">
        <ele>1025.8640137</ele>
        <time>2011-07-24T10:31:17Z</time>
      </trkpt>
      <trkpt lat="43.73997" lon="7.0508">
        <ele>1027.3061523</ele>
        <time>2011-07-24T10:31:23Z</time>
      </trkpt>
      <trkpt lat="43.73999" lon="7.05081">
        <ele>1028.267334</ele>
        <time>2011-07-24T10:31:29Z</time>
      </trkpt>
      <trkpt lat="43.74003" lon="7.05083">
        <ele>1030.1899414</ele>
        <time>2011-07-24T10:31:38Z</time>
      </trkpt>
      <trkpt lat="43.74004" lon="7.05085">
        <ele>1030.1899414</ele>
        <time>2011-07-24T10:31:44Z</time>
      </trkpt>
      <trkpt lat="43.74004" lon="7.05087">
        <ele>1030.1899414</ele>
        <time>2011-07-24T10:31:51Z</time>
      </trkpt>
      <trkpt lat="43.74003" lon="7.05088">
        <ele>1030.1899414</ele>
        <time>2011-07-24T10:32:03Z</time>
      </trkpt>
      <trkpt lat="43.74003" lon="7.05088">
        <ele>1031.1513672</ele>
        <time>2011-07-24T10:32:14Z</time>
      </trkpt>
      <trkpt lat="43.74003" lon="7.05088">
        <ele>1031.6318359</ele>
        <time>2011-07-24T10:32:21Z</time>
      </trkpt>
      <trkpt lat="43.74003" lon="7.05088">
        <ele>1031.6318359</ele>
        <time>2011-07-24T10:32:27Z</time>
      </trkpt>
      <trkpt lat="43.74003" lon="7.05088">
        <ele>1031.6318359</ele>
        <time>2011-07-24T10:32:31Z</time>
      </trkpt>
      <trkpt lat="43.74003" lon="7.05088">
        <ele>1032.1125488</ele>
        <time>2011-07-24T10:32:44Z</time>
      </trkpt>
      <trkpt lat="43.74003" lon="7.05088">
        <ele>1032.1125488</ele>
        <time>2011-07-24T10:32:49Z</time>
      </trkpt>
      <trkpt lat="43.74003" lon="7.05088">
        <ele>1033.0737305</ele>
        <time>2011-07-24T10:33:10Z</time>
      </trkpt>
      <trkpt lat="43.74003" lon="7.05089">
        <ele>1033.0737305</ele>
        <time>2011-07-24T10:33:25Z</time>
      </trkpt>
      <trkpt lat="43.74002" lon="7.05089">
        <ele>1033.0737305</ele>
        <time>2011-07-24T10:33:49Z</time>
      </trkpt>
      <trkpt lat="43.74002" lon="7.0509">
        <ele>1032.5932617</ele>
        <time>2011-07-24T10:34:14Z</time>
      </trkpt>
      <trkpt lat="43.74003" lon="7.0509">
        <ele>1032.1125488</ele>
        <time>2011-07-24T10:34:23Z</time>
      </trkpt>
      <trkpt lat="43.74002" lon="7.0509">
        <ele>1032.1125488</ele>
        <time>2011-07-24T10:34:29Z</time>
      </trkpt>
      <trkpt lat="43.74003" lon="7.0509">
        <ele>1032.1125488</ele>
        <time>2011-07-24T10:34:46Z</time>
      </trkpt>
      <trkpt lat="43.74003" lon="7.0509">
        <ele>1032.5932617</ele>
        <time>2011-07-24T10:34:55Z</time>
      </trkpt>
      <trkpt lat="43.74004" lon="7.0509">
        <ele>1033.0737305</ele>
        <time>2011-07-24T10:35:04Z</time>
      </trkpt>
      <trkpt lat="43.74003" lon="7.0509">
        <ele>1033.5544434</ele>
        <time>2011-07-24T10:35:12Z</time>
      </trkpt>
      <trkpt lat="43.74003" lon="7.0509">
        <ele>1033.5544434</ele>
        <time>2011-07-24T10:35:22Z</time>
      </trkpt>
      <trkpt lat="43.74002" lon="7.05091">
        <ele>1033.5544434</ele>
        <time>2011-07-24T10:35:28Z</time>
      </trkpt>
      <trkpt lat="43.74002" lon="7.05091">
        <ele>1034.0351563</ele>
        <time>2011-07-24T10:35:46Z</time>
      </trkpt>
      <trkpt lat="43.74002" lon="7.05092">
        <ele>1033.0737305</ele>
        <time>2011-07-24T10:35:53Z</time>
      </trkpt>
      <trkpt lat="43.74003" lon="7.05091">
        <ele>1033.0737305</ele>
        <time>2011-07-24T10:36:00Z</time>
      </trkpt>
      <trkpt lat="43.74004" lon="7.0509">
        <ele>1032.5932617</ele>
        <time>2011-07-24T10:36:05Z</time>
      </trkpt>
      <trkpt lat="43.74004" lon="7.05091">
        <ele>1032.5932617</ele>
        <time>2011-07-24T10:36:09Z</time>
      </trkpt>
      <trkpt lat="43.74412" lon="7.04975">
        <ele>1027.3061523</ele>
        <time>2011-07-24T10:58:11Z</time>
      </trkpt>
      <trkpt lat="43.74412" lon="7.04975">
        <ele>1026.8254395</ele>
        <time>2011-07-24T10:58:12Z</time>
      </trkpt>
      <trkpt lat="43.74412" lon="7.04975">
        <ele>1026.8254395</ele>
        <time>2011-07-24T10:58:13Z</time>
      </trkpt>
      <trkpt lat="43.74416" lon="7.04975">
        <ele>1027.3061523</ele>
        <time>2011-07-24T10:58:18Z</time>
      </trkpt>
      <trkpt lat="43.74422" lon="7.04971">
        <ele>1028.7480469</ele>
        <time>2011-07-24T10:58:26Z</time>
      </trkpt>
      <trkpt lat="43.74427" lon="7.0497">
        <ele>1029.7092285</ele>
        <time>2011-07-24T10:58:33Z</time>
      </trkpt>
      <trkpt lat="43.7443" lon="7.0497">
        <ele>1030.6706543</ele>
        <time>2011-07-24T10:58:38Z</time>
      </trkpt>
      <trkpt lat="43.74436" lon="7.04967">
        <ele>1031.1513672</ele>
        <time>2011-07-24T10:58:47Z</time>
      </trkpt>
      <trkpt lat="43.7444" lon="7.04965">
        <ele>1031.6318359</ele>
        <time>2011-07-24T10:58:54Z</time>
      </trkpt>
      <trkpt lat="43.74444" lon="7.04966">
        <ele>1031.6318359</ele>
        <time>2011-07-24T10:58:58Z</time>
      </trkpt>
      <trkpt lat="43.74449" lon="7.04978">
        <ele>1031.6318359</ele>
        <time>2011-07-24T10:59:04Z</time>
      </trkpt>
      <trkpt lat="43.7445" lon="7.04985">
        <ele>1031.1513672</ele>
        <time>2011-07-24T10:59:08Z</time>
      </trkpt>
      <trkpt lat="43.74462" lon="7.04994">
        <ele>1030.6706543</ele>
        <time>2011-07-24T10:59:15Z</time>
      </trkpt>
      <trkpt lat="43.74473" lon="7.05009">
        <ele>1029.7092285</ele>
        <time>2011-07-24T10:59:20Z</time>
      </trkpt>
      <trkpt lat="43.74476" lon="7.05012">
        <ele>1029.7092285</ele>
        <time>2011-07-24T10:59:23Z</time>
      </trkpt>
      <trkpt lat="43.74476" lon="7.05012">
        <ele>1029.2285156</ele>
        <time>2011-07-24T10:59:29Z</time>
      </trkpt>
      <trkpt lat="43.74475" lon="7.05013">
        <ele>1028.7480469</ele>
        <time>2011-07-24T10:59:43Z</time>
      </trkpt>
      <trkpt lat="43.74476" lon="7.05012">
        <ele>1029.2285156</ele>
        <time>2011-07-24T10:59:48Z</time>
      </trkpt>
      <trkpt lat="43.74476" lon="7.05012">
        <ele>1029.7092285</ele>
        <time>2011-07-24T10:59:51Z</time>
      </trkpt>
      <trkpt lat="43.74476" lon="7.05013">
        <ele>1029.7092285</ele>
        <time>2011-07-24T10:59:56Z</time>
      </trkpt>
      <trkpt lat="43.74476" lon="7.05013">
        <ele>1030.1899414</ele>
        <time>2011-07-24T10:59:59Z</time>
      </trkpt>
      <trkpt lat="43.74475" lon="7.05013">
        <ele>1030.1899414</ele>
        <time>2011-07-24T11:00:00Z</time>
      </trkpt>
      <trkpt lat="43.74475" lon="7.05013">
        <ele>1030.1899414</ele>
        <time>2011-07-24T11:00:04Z</time>
      </trkpt>
      <trkpt lat="43.74475" lon="7.05013">
        <ele>1030.6706543</ele>
        <time>2011-07-24T11:00:12Z</time>
      </trkpt>
      <trkpt lat="43.74474" lon="7.05014">
        <ele>1030.6706543</ele>
        <time>2011-07-24T11:00:21Z</time>
      </trkpt>
      <trkpt lat="43.74474" lon="7.05014">
        <ele>1030.6706543</ele>
        <time>2011-07-24T11:00:22Z</time>
      </trkpt>
      <trkpt lat="43.74478" lon="7.05014">
        <ele>1031.6318359</ele>
        <time>2011-07-24T11:00:34Z</time>
      </trkpt>
      <trkpt lat="43.74491" lon="7.05008">
        <ele>1031.6318359</ele>
        <time>2011-07-24T11:00:41Z</time>
      </trkpt>
      <trkpt lat="43.74511" lon="7.05">
        <ele>1032.1125488</ele>
        <time>2011-07-24T11:00:48Z</time>
      </trkpt>
      <trkpt lat="43.74528" lon="7.05001">
        <ele>1032.5932617</ele>
        <time>2011-07-24T11:00:54Z</time>
      </trkpt>
      <trkpt lat="43.74542" lon="7.05007">
        <ele>1032.5932617</ele>
        <time>2011-07-24T11:00:58Z</time>
      </trkpt>
      <trkpt lat="43.74565" lon="7.05009">
        <ele>1031.6318359</ele>
        <time>2011-07-24T11:01:04Z</time>
      </trkpt>
      <trkpt lat="43.7459" lon="7.05007">
        <ele>1030.1899414</ele>
        <time>2011-07-24T11:01:10Z</time>
      </trkpt>
      <trkpt lat="43.74607" lon="7.0501">
        <ele>1029.7092285</ele>
        <time>2011-07-24T11:01:14Z</time>
      </trkpt>
      <trkpt lat="43.74627" lon="7.05017">
        <ele>1026.3447266</ele>
        <time>2011-07-24T11:01:18Z</time>
      </trkpt>
      <trkpt lat="43.74642" lon="7.0503">
        <ele>1023.9414063</ele>
        <time>2011-07-24T11:01:21Z</time>
      </trkpt>
      <trkpt lat="43.74658" lon="7.05043">
        <ele>1021.0576172</ele>
        <time>2011-07-24T11:01:24Z</time>
      </trkpt>
      <trkpt lat="43.74677" lon="7.05067">
        <ele>1018.6540527</ele>
        <time>2011-07-24T11:01:28Z</time>
      </trkpt>
      <trkpt lat="43.74697" lon="7.05098">
        <ele>1016.7314453</ele>
        <time>2011-07-24T11:01:33Z</time>
      </trkpt>
      <trkpt lat="43.74704" lon="7.05113">
        <ele>1015.7702637</ele>
        <time>2011-07-24T11:01:35Z</time>
      </trkpt>
      <trkpt lat="43.74715" lon="7.05132">
        <ele>1014.328125</ele>
        <time>2011-07-24T11:01:38Z</time>
      </trkpt>
      <trkpt lat="43.74721" lon="7.05145">
        <ele>1013.3669434</ele>
        <time>2011-07-24T11:01:40Z</time>
      </trkpt>
      <trkpt lat="43.74735" lon="7.05157">
        <ele>1009.5217285</ele>
        <time>2011-07-24T11:01:45Z</time>
      </trkpt>
      <trkpt lat="43.74745" lon="7.05161">
        <ele>1006.6376953</ele>
        <time>2011-07-24T11:01:49Z</time>
      </trkpt>
      <trkpt lat="43.74749" lon="7.05169">
        <ele>1004.7150879</ele>
        <time>2011-07-24T11:01:51Z</time>
      </trkpt>
      <trkpt lat="43.74752" lon="7.05205">
        <ele>1001.3503418</ele>
        <time>2011-07-24T11:01:56Z</time>
      </trkpt>
      <trkpt lat="43.74755" lon="7.05224">
        <ele>999.4277344</ele>
        <time>2011-07-24T11:01:59Z</time>
      </trkpt>
      <trkpt lat="43.74761" lon="7.05236">
        <ele>997.9858398</ele>
        <time>2011-07-24T11:02:02Z</time>
      </trkpt>
      <trkpt lat="43.74762" lon="7.05238">
        <ele>997.505127</ele>
        <time>2011-07-24T11:02:07Z</time>
      </trkpt>
      <trkpt lat="43.74761" lon="7.05237">
        <ele>998.4663086</ele>
        <time>2011-07-24T11:02:17Z</time>
      </trkpt>
      <trkpt lat="43.74762" lon="7.05237">
        <ele>999.4277344</ele>
        <time>2011-07-24T11:02:28Z</time>
      </trkpt>
      <trkpt lat="43.74762" lon="7.05236">
        <ele>1000.8696289</ele>
        <time>2011-07-24T11:02:42Z</time>
      </trkpt>
      <trkpt lat="43.74762" lon="7.05236">
        <ele>1001.8310547</ele>
        <time>2011-07-24T11:02:52Z</time>
      </trkpt>
      <trkpt lat="43.74763" lon="7.05237">
        <ele>1001.3503418</ele>
        <time>2011-07-24T11:02:54Z</time>
      </trkpt>
      <trkpt lat="43.74769" lon="7.05254">
        <ele>999.9084473</ele>
        <time>2011-07-24T11:02:59Z</time>
      </trkpt>
      <trkpt lat="43.74781" lon="7.05268">
        <ele>997.9858398</ele>
        <time>2011-07-24T11:03:03Z</time>
      </trkpt>
      <trkpt lat="43.74792" lon="7.05286">
        <ele>997.0244141</ele>
        <time>2011-07-24T11:03:06Z</time>
      </trkpt>
      <trkpt lat="43.74813" lon="7.05307">
        <ele>995.5825195</ele>
        <time>2011-07-24T11:03:11Z</time>
      </trkpt>
      <trkpt lat="43.7482" lon="7.05313">
        <ele>994.6210938</ele>
        <time>2011-07-24T11:03:14Z</time>
      </trkpt>
      <trkpt lat="43.74826" lon="7.05315">
        <ele>993.6599121</ele>
        <time>2011-07-24T11:03:16Z</time>
      </trkpt>
      <trkpt lat="43.74834" lon="7.05314">
        <ele>992.2180176</ele>
        <time>2011-07-24T11:03:20Z</time>
      </trkpt>
      <trkpt lat="43.74843" lon="7.05322">
        <ele>988.8535156</ele>
        <time>2011-07-24T11:03:25Z</time>
      </trkpt>
      <trkpt lat="43.74853" lon="7.05329">
        <ele>986.4499512</ele>
        <time>2011-07-24T11:03:29Z</time>
      </trkpt>
      <trkpt lat="43.74866" lon="7.05335">
        <ele>983.0852051</ele>
        <time>2011-07-24T11:03:33Z</time>
      </trkpt>
      <trkpt lat="43.74874" lon="7.05345">
        <ele>980.6821289</ele>
        <time>2011-07-24T11:03:36Z</time>
      </trkpt>
      <trkpt lat="43.74875" lon="7.05345">
        <ele>979.7207031</ele>
        <time>2011-07-24T11:03:40Z</time>
      </trkpt>
      <trkpt lat="43.74876" lon="7.05345">
        <ele>979.7207031</ele>
        <time>2011-07-24T11:03:46Z</time>
      </trkpt>
      <trkpt lat="43.7488" lon="7.05349">
        <ele>978.7595215</ele>
        <time>2011-07-24T11:03:51Z</time>
      </trkpt>
      <trkpt lat="43.74893" lon="7.05357">
        <ele>976.8369141</ele>
        <time>2011-07-24T11:03:55Z</time>
      </trkpt>
      <trkpt lat="43.74906" lon="7.05368">
        <ele>974.4335938</ele>
        <time>2011-07-24T11:03:59Z</time>
      </trkpt>
      <trkpt lat="43.74914" lon="7.05374">
        <ele>972.0302734</ele>
        <time>2011-07-24T11:04:04Z</time>
      </trkpt>
      <trkpt lat="43.74928" lon="7.05385">
        <ele>970.5881348</ele>
        <time>2011-07-24T11:04:09Z</time>
      </trkpt>
      <trkpt lat="43.74947" lon="7.05398">
        <ele>970.1074219</ele>
        <time>2011-07-24T11:04:14Z</time>
      </trkpt>
      <trkpt lat="43.74961" lon="7.05414">
        <ele>970.1074219</ele>
        <time>2011-07-24T11:04:18Z</time>
      </trkpt>
      <trkpt lat="43.74973" lon="7.05418">
        <ele>969.6269531</ele>
        <time>2011-07-24T11:04:21Z</time>
      </trkpt>
      <trkpt lat="43.74979" lon="7.05429">
        <ele>969.1462402</ele>
        <time>2011-07-24T11:04:24Z</time>
      </trkpt>
      <trkpt lat="43.74979" lon="7.05433">
        <ele>969.1462402</ele>
        <time>2011-07-24T11:04:25Z</time>
      </trkpt>
      <trkpt lat="43.74986" lon="7.05467">
        <ele>967.7041016</ele>
        <time>2011-07-24T11:04:31Z</time>
      </trkpt>
      <trkpt lat="43.75" lon="7.05483">
        <ele>967.2236328</ele>
        <time>2011-07-24T11:04:35Z</time>
      </trkpt>
      <trkpt lat="43.75011" lon="7.05493">
        <ele>966.7429199</ele>
        <time>2011-07-24T11:04:38Z</time>
      </trkpt>
      <trkpt lat="43.7502" lon="7.05506">
        <ele>966.7429199</ele>
        <time>2011-07-24T11:04:41Z</time>
      </trkpt>
      <trkpt lat="43.75023" lon="7.05514">
        <ele>966.7429199</ele>
        <time>2011-07-24T11:04:43Z</time>
      </trkpt>
      <trkpt lat="43.75033" lon="7.05538">
        <ele>968.6655273</ele>
        <time>2011-07-24T11:04:50Z</time>
      </trkpt>
      <trkpt lat="43.75035" lon="7.05544">
        <ele>969.1462402</ele>
        <time>2011-07-24T11:04:52Z</time>
      </trkpt>
      <trkpt lat="43.75052" lon="7.05551">
        <ele>970.5881348</ele>
        <time>2011-07-24T11:04:59Z</time>
      </trkpt>
      <trkpt lat="43.7507" lon="7.05551">
        <ele>970.1074219</ele>
        <time>2011-07-24T11:05:05Z</time>
      </trkpt>
      <trkpt lat="43.75083" lon="7.05555">
        <ele>969.6269531</ele>
        <time>2011-07-24T11:05:08Z</time>
      </trkpt>
      <trkpt lat="43.75102" lon="7.05569">
        <ele>969.1462402</ele>
        <time>2011-07-24T11:05:13Z</time>
      </trkpt>
      <trkpt lat="43.75114" lon="7.05566">
        <ele>968.1848145</ele>
        <time>2011-07-24T11:05:17Z</time>
      </trkpt>
      <trkpt lat="43.75119" lon="7.05563">
        <ele>968.1848145</ele>
        <time>2011-07-24T11:05:19Z</time>
      </trkpt>
      <trkpt lat="43.75135" lon="7.05555">
        <ele>967.2236328</ele>
        <time>2011-07-24T11:05:25Z</time>
      </trkpt>
      <trkpt lat="43.75143" lon="7.05545">
        <ele>966.262207</ele>
        <time>2011-07-24T11:05:29Z</time>
      </trkpt>
      <trkpt lat="43.75145" lon="7.05541">
        <ele>965.7817383</ele>
        <time>2011-07-24T11:05:33Z</time>
      </trkpt>
      <trkpt lat="43.75156" lon="7.05524">
        <ele>964.8203125</ele>
        <time>2011-07-24T11:05:39Z</time>
      </trkpt>
      <trkpt lat="43.75168" lon="7.05504">
        <ele>964.8203125</ele>
        <time>2011-07-24T11:05:44Z</time>
      </trkpt>
      <trkpt lat="43.75184" lon="7.05485">
        <ele>963.378418</ele>
        <time>2011-07-24T11:05:49Z</time>
      </trkpt>
      <trkpt lat="43.75201" lon="7.05472">
        <ele>963.378418</ele>
        <time>2011-07-24T11:05:54Z</time>
      </trkpt>
      <trkpt lat="43.75224" lon="7.05455">
        <ele>965.3010254</ele>
        <time>2011-07-24T11:06:01Z</time>
      </trkpt>
      <trkpt lat="43.75241" lon="7.05435">
        <ele>966.7429199</ele>
        <time>2011-07-24T11:06:07Z</time>
      </trkpt>
      <trkpt lat="43.75248" lon="7.05425">
        <ele>967.2236328</ele>
        <time>2011-07-24T11:06:10Z</time>
      </trkpt>
      <trkpt lat="43.75256" lon="7.05416">
        <ele>968.1848145</ele>
        <time>2011-07-24T11:06:13Z</time>
      </trkpt>
      <trkpt lat="43.75264" lon="7.05401">
        <ele>968.1848145</ele>
        <time>2011-07-24T11:06:18Z</time>
      </trkpt>
      <trkpt lat="43.75271" lon="7.05377">
        <ele>967.7041016</ele>
        <time>2011-07-24T11:06:24Z</time>
      </trkpt>
      <trkpt lat="43.75277" lon="7.05363">
        <ele>969.6269531</ele>
        <time>2011-07-24T11:06:29Z</time>
      </trkpt>
      <trkpt lat="43.75285" lon="7.05344">
        <ele>970.5881348</ele>
        <time>2011-07-24T11:06:36Z</time>
      </trkpt>
      <trkpt lat="43.75288" lon="7.05324">
        <ele>970.1074219</ele>
        <time>2011-07-24T11:06:43Z</time>
      </trkpt>
      <trkpt lat="43.75295" lon="7.05304">
        <ele>969.6269531</ele>
        <time>2011-07-24T11:06:49Z</time>
      </trkpt>
      <trkpt lat="43.75305" lon="7.05287">
        <ele>969.1462402</ele>
        <time>2011-07-24T11:06:55Z</time>
      </trkpt>
      <trkpt lat="43.75321" lon="7.05264">
        <ele>969.6269531</ele>
        <time>2011-07-24T11:07:03Z</time>
      </trkpt>
      <trkpt lat="43.75338" lon="7.05239">
        <ele>970.1074219</ele>
        <time>2011-07-24T11:07:11Z</time>
      </trkpt>
      <trkpt lat="43.75354" lon="7.05215">
        <ele>971.0688477</ele>
        <time>2011-07-24T11:07:20Z</time>
      </trkpt>
      <trkpt lat="43.75366" lon="7.05194">
        <ele>972.5109863</ele>
        <time>2011-07-24T11:07:28Z</time>
      </trkpt>
      <trkpt lat="43.75378" lon="7.05172">
        <ele>971.5493164</ele>
        <time>2011-07-24T11:07:36Z</time>
      </trkpt>
      <trkpt lat="43.7539" lon="7.05153">
        <ele>970.5881348</ele>
        <time>2011-07-24T11:07:40Z</time>
      </trkpt>
      <trkpt lat="43.75405" lon="7.05142">
        <ele>970.5881348</ele>
        <time>2011-07-24T11:07:44Z</time>
      </trkpt>
      <trkpt lat="43.75415" lon="7.05139">
        <ele>970.1074219</ele>
        <time>2011-07-24T11:07:47Z</time>
      </trkpt>
      <trkpt lat="43.75422" lon="7.05135">
        <ele>970.5881348</ele>
        <time>2011-07-24T11:07:52Z</time>
      </trkpt>
      <trkpt lat="43.75422" lon="7.05135">
        <ele>971.0688477</ele>
        <time>2011-07-24T11:07:58Z</time>
      </trkpt>
      <trkpt lat="43.75428" lon="7.05131">
        <ele>970.5881348</ele>
        <time>2011-07-24T11:08:03Z</time>
      </trkpt>
      <trkpt lat="43.75436" lon="7.05121">
        <ele>971.0688477</ele>
        <time>2011-07-24T11:08:08Z</time>
      </trkpt>
      <trkpt lat="43.75442" lon="7.05105">
        <ele>970.5881348</ele>
        <time>2011-07-24T11:08:13Z</time>
      </trkpt>
      <trkpt lat="43.75449" lon="7.05087">
        <ele>969.6269531</ele>
        <time>2011-07-24T11:08:17Z</time>
      </trkpt>
      <trkpt lat="43.75453" lon="7.05056">
        <ele>969.6269531</ele>
        <time>2011-07-24T11:08:22Z</time>
      </trkpt>
      <trkpt lat="43.75454" lon="7.05042">
        <ele>968.6655273</ele>
        <time>2011-07-24T11:08:24Z</time>
      </trkpt>
      <trkpt lat="43.7546" lon="7.05003">
        <ele>967.2236328</ele>
        <time>2011-07-24T11:08:30Z</time>
      </trkpt>
      <trkpt lat="43.75468" lon="7.04985">
        <ele>968.1848145</ele>
        <time>2011-07-24T11:08:34Z</time>
      </trkpt>
      <trkpt lat="43.75469" lon="7.04982">
        <ele>968.6655273</ele>
        <time>2011-07-24T11:08:35Z</time>
      </trkpt>
      <trkpt lat="43.75476" lon="7.04974">
        <ele>970.5881348</ele>
        <time>2011-07-24T11:08:39Z</time>
      </trkpt>
      <trkpt lat="43.75486" lon="7.04967">
        <ele>972.0302734</ele>
        <time>2011-07-24T11:08:45Z</time>
      </trkpt>
      <trkpt lat="43.75494" lon="7.04957">
        <ele>972.9916992</ele>
        <time>2011-07-24T11:08:51Z</time>
      </trkpt>
      <trkpt lat="43.75499" lon="7.04937">
        <ele>972.0302734</ele>
        <time>2011-07-24T11:08:55Z</time>
      </trkpt>
      <trkpt lat="43.75503" lon="7.04898">
        <ele>969.6269531</ele>
        <time>2011-07-24T11:09:00Z</time>
      </trkpt>
      <trkpt lat="43.75503" lon="7.04889">
        <ele>969.1462402</ele>
        <time>2011-07-24T11:09:01Z</time>
      </trkpt>
      <trkpt lat="43.75511" lon="7.04853">
        <ele>968.1848145</ele>
        <time>2011-07-24T11:09:05Z</time>
      </trkpt>
      <trkpt lat="43.75527" lon="7.04805">
        <ele>966.7429199</ele>
        <time>2011-07-24T11:09:10Z</time>
      </trkpt>
      <trkpt lat="43.75545" lon="7.04765">
        <ele>966.7429199</ele>
        <time>2011-07-24T11:09:15Z</time>
      </trkpt>
      <trkpt lat="43.75553" lon="7.04751">
        <ele>967.2236328</ele>
        <time>2011-07-24T11:09:17Z</time>
      </trkpt>
      <trkpt lat="43.75575" lon="7.04725">
        <ele>966.7429199</ele>
        <time>2011-07-24T11:09:23Z</time>
      </trkpt>
      <trkpt lat="43.75593" lon="7.04704">
        <ele>967.7041016</ele>
        <time>2011-07-24T11:09:30Z</time>
      </trkpt>
      <trkpt lat="43.75602" lon="7.04688">
        <ele>968.1848145</ele>
        <time>2011-07-24T11:09:35Z</time>
      </trkpt>
      <trkpt lat="43.75613" lon="7.04676">
        <ele>968.1848145</ele>
        <time>2011-07-24T11:09:40Z</time>
      </trkpt>
      <trkpt lat="43.75634" lon="7.04658">
        <ele>967.7041016</ele>
        <time>2011-07-24T11:09:48Z</time>
      </trkpt>
      <trkpt lat="43.75653" lon="7.04639">
        <ele>968.1848145</ele>
        <time>2011-07-24T11:09:56Z</time>
      </trkpt>
      <trkpt lat="43.75667" lon="7.04624">
        <ele>969.6269531</ele>
        <time>2011-07-24T11:10:03Z</time>
      </trkpt>
      <trkpt lat="43.75682" lon="7.04608">
        <ele>970.1074219</ele>
        <time>2011-07-24T11:10:12Z</time>
      </trkpt>
      <trkpt lat="43.75689" lon="7.04601">
        <ele>970.5881348</ele>
        <time>2011-07-24T11:10:16Z</time>
      </trkpt>
      <trkpt lat="43.75694" lon="7.04583">
        <ele>970.1074219</ele>
        <time>2011-07-24T11:10:22Z</time>
      </trkpt>
      <trkpt lat="43.75695" lon="7.0458">
        <ele>970.1074219</ele>
        <time>2011-07-24T11:10:23Z</time>
      </trkpt>
      <trkpt lat="43.75706" lon="7.04569">
        <ele>971.0688477</ele>
        <time>2011-07-24T11:10:30Z</time>
      </trkpt>
      <trkpt lat="43.75711" lon="7.04566">
        <ele>971.0688477</ele>
        <time>2011-07-24T11:10:33Z</time>
      </trkpt>
      <trkpt lat="43.75717" lon="7.04566">
        <ele>971.5493164</ele>
        <time>2011-07-24T11:10:36Z</time>
      </trkpt>
      <trkpt lat="43.75727" lon="7.04555">
        <ele>971.0688477</ele>
        <time>2011-07-24T11:10:42Z</time>
      </trkpt>
      <trkpt lat="43.75743" lon="7.04538">
        <ele>971.0688477</ele>
        <time>2011-07-24T11:10:49Z</time>
      </trkpt>
      <trkpt lat="43.7575" lon="7.04529">
        <ele>971.0688477</ele>
        <time>2011-07-24T11:10:54Z</time>
      </trkpt>
      <trkpt lat="43.7576" lon="7.04513">
        <ele>971.0688477</ele>
        <time>2011-07-24T11:11:00Z</time>
      </trkpt>
      <trkpt lat="43.75774" lon="7.04494">
        <ele>971.5493164</ele>
        <time>2011-07-24T11:11:07Z</time>
      </trkpt>
      <trkpt lat="43.75791" lon="7.0447">
        <ele>971.5493164</ele>
        <time>2011-07-24T11:11:14Z</time>
      </trkpt>
      <trkpt lat="43.75803" lon="7.04456">
        <ele>971.5493164</ele>
        <time>2011-07-24T11:11:19Z</time>
      </trkpt>
      <trkpt lat="43.75809" lon="7.04445">
        <ele>971.5493164</ele>
        <time>2011-07-24T11:11:23Z</time>
      </trkpt>
      <trkpt lat="43.75822" lon="7.04428">
        <ele>971.0688477</ele>
        <time>2011-07-24T11:11:28Z</time>
      </trkpt>
      <trkpt lat="43.75838" lon="7.04409">
        <ele>970.5881348</ele>
        <time>2011-07-24T11:11:34Z</time>
      </trkpt>
      <trkpt lat="43.75858" lon="7.0439">
        <ele>971.0688477</ele>
        <time>2011-07-24T11:11:41Z</time>
      </trkpt>
      <trkpt lat="43.75884" lon="7.04375">
        <ele>972.0302734</ele>
        <time>2011-07-24T11:11:49Z</time>
      </trkpt>
      <trkpt lat="43.75911" lon="7.04365">
        <ele>971.5493164</ele>
        <time>2011-07-24T11:11:57Z</time>
      </trkpt>
      <trkpt lat="43.75937" lon="7.04355">
        <ele>970.5881348</ele>
        <time>2011-07-24T11:12:04Z</time>
      </trkpt>
      <trkpt lat="43.75962" lon="7.04348">
        <ele>971.5493164</ele>
        <time>2011-07-24T11:12:11Z</time>
      </trkpt>
      <trkpt lat="43.75975" lon="7.04338">
        <ele>971.5493164</ele>
        <time>2011-07-24T11:12:15Z</time>
      </trkpt>
      <trkpt lat="43.75993" lon="7.04316">
        <ele>970.5881348</ele>
        <time>2011-07-24T11:12:21Z</time>
      </trkpt>
      <trkpt lat="43.76012" lon="7.04291">
        <ele>969.6269531</ele>
        <time>2011-07-24T11:12:27Z</time>
      </trkpt>
      <trkpt lat="43.7604" lon="7.04256">
        <ele>967.7041016</ele>
        <time>2011-07-24T11:12:35Z</time>
      </trkpt>
      <trkpt lat="43.76064" lon="7.04229">
        <ele>966.7429199</ele>
        <time>2011-07-24T11:12:41Z</time>
      </trkpt>
      <trkpt lat="43.76096" lon="7.04196">
        <ele>966.262207</ele>
        <time>2011-07-24T11:12:49Z</time>
      </trkpt>
      <trkpt lat="43.76114" lon="7.04178">
        <ele>966.262207</ele>
        <time>2011-07-24T11:12:54Z</time>
      </trkpt>
      <trkpt lat="43.76138" lon="7.04153">
        <ele>966.7429199</ele>
        <time>2011-07-24T11:13:01Z</time>
      </trkpt>
      <trkpt lat="43.76142" lon="7.0415">
        <ele>966.7429199</ele>
        <time>2011-07-24T11:13:02Z</time>
      </trkpt>
      <trkpt lat="43.76158" lon="7.04131">
        <ele>967.2236328</ele>
        <time>2011-07-24T11:13:07Z</time>
      </trkpt>
      <trkpt lat="43.7618" lon="7.04107">
        <ele>967.7041016</ele>
        <time>2011-07-24T11:13:14Z</time>
      </trkpt>
      <trkpt lat="43.76196" lon="7.04083">
        <ele>967.7041016</ele>
        <time>2011-07-24T11:13:20Z</time>
      </trkpt>
      <trkpt lat="43.76207" lon="7.04065">
        <ele>967.2236328</ele>
        <time>2011-07-24T11:13:24Z</time>
      </trkpt>
      <trkpt lat="43.76221" lon="7.04046">
        <ele>967.7041016</ele>
        <time>2011-07-24T11:13:29Z</time>
      </trkpt>
      <trkpt lat="43.76236" lon="7.04038">
        <ele>968.1848145</ele>
        <time>2011-07-24T11:13:33Z</time>
      </trkpt>
      <trkpt lat="43.76259" lon="7.04029">
        <ele>967.7041016</ele>
        <time>2011-07-24T11:13:39Z</time>
      </trkpt>
      <trkpt lat="43.76272" lon="7.04021">
        <ele>967.2236328</ele>
        <time>2011-07-24T11:13:42Z</time>
      </trkpt>
      <trkpt lat="43.76307" lon="7.03985">
        <ele>965.7817383</ele>
        <time>2011-07-24T11:13:50Z</time>
      </trkpt>
      <trkpt lat="43.76332" lon="7.03957">
        <ele>965.3010254</ele>
        <time>2011-07-24T11:13:56Z</time>
      </trkpt>
      <trkpt lat="43.76336" lon="7.03953">
        <ele>965.3010254</ele>
        <time>2011-07-24T11:13:57Z</time>
      </trkpt>
      <trkpt lat="43.76351" lon="7.03937">
        <ele>965.3010254</ele>
        <time>2011-07-24T11:14:01Z</time>
      </trkpt>
      <trkpt lat="43.76357" lon="7.03928">
        <ele>965.3010254</ele>
        <time>2011-07-24T11:14:03Z</time>
      </trkpt>
      <trkpt lat="43.76364" lon="7.03907">
        <ele>964.8203125</ele>
        <time>2011-07-24T11:14:07Z</time>
      </trkpt>
      <trkpt lat="43.76371" lon="7.03883">
        <ele>964.8203125</ele>
        <time>2011-07-24T11:14:12Z</time>
      </trkpt>
      <trkpt lat="43.76393" lon="7.03862">
        <ele>965.3010254</ele>
        <time>2011-07-24T11:14:19Z</time>
      </trkpt>
      <trkpt lat="43.76412" lon="7.03852">
        <ele>965.7817383</ele>
        <time>2011-07-24T11:14:25Z</time>
      </trkpt>
      <trkpt lat="43.76432" lon="7.0385">
        <ele>965.7817383</ele>
        <time>2011-07-24T11:14:32Z</time>
      </trkpt>
      <trkpt lat="43.76435" lon="7.03849">
        <ele>965.7817383</ele>
        <time>2011-07-24T11:14:33Z</time>
      </trkpt>
      <trkpt lat="43.76437" lon="7.03838">
        <ele>966.262207</ele>
        <time>2011-07-24T11:14:37Z</time>
      </trkpt>
      <trkpt lat="43.76434" lon="7.03814">
        <ele>965.3010254</ele>
        <time>2011-07-24T11:14:44Z</time>
      </trkpt>
      <trkpt lat="43.76429" lon="7.03781">
        <ele>965.3010254</ele>
        <time>2011-07-24T11:14:51Z</time>
      </trkpt>
      <trkpt lat="43.76426" lon="7.03769">
        <ele>964.8203125</ele>
        <time>2011-07-24T11:14:56Z</time>
      </trkpt>
      <trkpt lat="43.76427" lon="7.0377">
        <ele>964.8203125</ele>
        <time>2011-07-24T11:15:02Z</time>
      </trkpt>
      <trkpt lat="43.76421" lon="7.03764">
        <ele>964.8203125</ele>
        <time>2011-07-24T11:15:08Z</time>
      </trkpt>
      <trkpt lat="43.76419" lon="7.03759">
        <ele>965.3010254</ele>
        <time>2011-07-24T11:15:10Z</time>
      </trkpt>
      <trkpt lat="43.76407" lon="7.03748">
        <ele>964.3395996</ele>
        <time>2011-07-24T11:15:16Z</time>
      </trkpt>
      <trkpt lat="43.76405" lon="7.03733">
        <ele>962.8977051</ele>
        <time>2011-07-24T11:15:20Z</time>
      </trkpt>
      <trkpt lat="43.76398" lon="7.03711">
        <ele>960.4943848</ele>
        <time>2011-07-24T11:15:23Z</time>
      </trkpt>
      <trkpt lat="43.76385" lon="7.03689">
        <ele>957.1298828</ele>
        <time>2011-07-24T11:15:26Z</time>
      </trkpt>
      <trkpt lat="43.76375" lon="7.03678">
        <ele>954.7263184</ele>
        <time>2011-07-24T11:15:28Z</time>
      </trkpt>
      <trkpt lat="43.76362" lon="7.03659">
        <ele>952.8037109</ele>
        <time>2011-07-24T11:15:31Z</time>
      </trkpt>
      <trkpt lat="43.76342" lon="7.03638">
        <ele>951.3618164</ele>
        <time>2011-07-24T11:15:35Z</time>
      </trkpt>
      <trkpt lat="43.76328" lon="7.03627">
        <ele>952.8037109</ele>
        <time>2011-07-24T11:15:38Z</time>
      </trkpt>
      <trkpt lat="43.76315" lon="7.03618">
        <ele>955.2070313</ele>
        <time>2011-07-24T11:15:42Z</time>
      </trkpt>
      <trkpt lat="43.76306" lon="7.0361">
        <ele>956.168457</ele>
        <time>2011-07-24T11:15:45Z</time>
      </trkpt>
      <trkpt lat="43.76283" lon="7.03588">
        <ele>956.168457</ele>
        <time>2011-07-24T11:15:51Z</time>
      </trkpt>
      <trkpt lat="43.76273" lon="7.03575">
        <ele>956.168457</ele>
        <time>2011-07-24T11:15:54Z</time>
      </trkpt>
      <trkpt lat="43.76259" lon="7.0356">
        <ele>956.168457</ele>
        <time>2011-07-24T11:15:58Z</time>
      </trkpt>
      <trkpt lat="43.76247" lon="7.03548">
        <ele>955.2070313</ele>
        <time>2011-07-24T11:16:01Z</time>
      </trkpt>
      <trkpt lat="43.76234" lon="7.0354">
        <ele>953.7651367</ele>
        <time>2011-07-24T11:16:04Z</time>
      </trkpt>
      <trkpt lat="43.76221" lon="7.03528">
        <ele>951.3618164</ele>
        <time>2011-07-24T11:16:07Z</time>
      </trkpt>
      <trkpt lat="43.76206" lon="7.0351">
        <ele>948.9584961</ele>
        <time>2011-07-24T11:16:11Z</time>
      </trkpt>
      <trkpt lat="43.762" lon="7.03496">
        <ele>947.5166016</ele>
        <time>2011-07-24T11:16:14Z</time>
      </trkpt>
      <trkpt lat="43.76184" lon="7.0348">
        <ele>946.5554199</ele>
        <time>2011-07-24T11:16:18Z</time>
      </trkpt>
      <trkpt lat="43.76175" lon="7.03473">
        <ele>946.074707</ele>
        <time>2011-07-24T11:16:20Z</time>
      </trkpt>
      <trkpt lat="43.76167" lon="7.03463">
        <ele>945.5939941</ele>
        <time>2011-07-24T11:16:22Z</time>
      </trkpt>
      <trkpt lat="43.76141" lon="7.03423">
        <ele>944.6325684</ele>
        <time>2011-07-24T11:16:28Z</time>
      </trkpt>
      <trkpt lat="43.76119" lon="7.03366">
        <ele>944.6325684</ele>
        <time>2011-07-24T11:16:36Z</time>
      </trkpt>
      <trkpt lat="43.76113" lon="7.03348">
        <ele>944.6325684</ele>
        <time>2011-07-24T11:16:39Z</time>
      </trkpt>
      <trkpt lat="43.76101" lon="7.03327">
        <ele>946.074707</ele>
        <time>2011-07-24T11:16:45Z</time>
      </trkpt>
      <trkpt lat="43.76091" lon="7.03308">
        <ele>946.074707</ele>
        <time>2011-07-24T11:16:51Z</time>
      </trkpt>
      <trkpt lat="43.76074" lon="7.03289">
        <ele>946.5554199</ele>
        <time>2011-07-24T11:16:58Z</time>
      </trkpt>
      <trkpt lat="43.7605" lon="7.03265">
        <ele>945.1132813</ele>
        <time>2011-07-24T11:17:05Z</time>
      </trkpt>
      <trkpt lat="43.7603" lon="7.03233">
        <ele>943.1906738</ele>
        <time>2011-07-24T11:17:12Z</time>
      </trkpt>
      <trkpt lat="43.7602" lon="7.03221">
        <ele>942.2294922</ele>
        <time>2011-07-24T11:17:15Z</time>
      </trkpt>
      <trkpt lat="43.76007" lon="7.03195">
        <ele>942.2294922</ele>
        <time>2011-07-24T11:17:20Z</time>
      </trkpt>
      <trkpt lat="43.76005" lon="7.03169">
        <ele>941.2680664</ele>
        <time>2011-07-24T11:17:25Z</time>
      </trkpt>
      <trkpt lat="43.76003" lon="7.0316">
        <ele>941.2680664</ele>
        <time>2011-07-24T11:17:27Z</time>
      </trkpt>
      <trkpt lat="43.75989" lon="7.03132">
        <ele>941.7487793</ele>
        <time>2011-07-24T11:17:34Z</time>
      </trkpt>
      <trkpt lat="43.75973" lon="7.03111">
        <ele>940.7873535</ele>
        <time>2011-07-24T11:17:40Z</time>
      </trkpt>
      <trkpt lat="43.75962" lon="7.03086">
        <ele>940.7873535</ele>
        <time>2011-07-24T11:17:45Z</time>
      </trkpt>
      <trkpt lat="43.75959" lon="7.03068">
        <ele>940.3068848</ele>
        <time>2011-07-24T11:17:48Z</time>
      </trkpt>
      <trkpt lat="43.75947" lon="7.03049">
        <ele>939.3452148</ele>
        <time>2011-07-24T11:17:52Z</time>
      </trkpt>
      <trkpt lat="43.75929" lon="7.03034">
        <ele>938.8647461</ele>
        <time>2011-07-24T11:17:56Z</time>
      </trkpt>
      <trkpt lat="43.75919" lon="7.03008">
        <ele>939.3452148</ele>
        <time>2011-07-24T11:18:00Z</time>
      </trkpt>
      <trkpt lat="43.759" lon="7.02976">
        <ele>939.3452148</ele>
        <time>2011-07-24T11:18:06Z</time>
      </trkpt>
      <trkpt lat="43.75897" lon="7.02963">
        <ele>939.3452148</ele>
        <time>2011-07-24T11:18:08Z</time>
      </trkpt>
      <trkpt lat="43.75892" lon="7.02944">
        <ele>938.3840332</ele>
        <time>2011-07-24T11:18:11Z</time>
      </trkpt>
      <trkpt lat="43.75879" lon="7.02916">
        <ele>939.8259277</ele>
        <time>2011-07-24T11:18:16Z</time>
      </trkpt>
      <trkpt lat="43.75855" lon="7.02891">
        <ele>940.7873535</ele>
        <time>2011-07-24T11:18:26Z</time>
      </trkpt>
      <trkpt lat="43.75847" lon="7.02875">
        <ele>941.7487793</ele>
        <time>2011-07-24T11:18:32Z</time>
      </trkpt>
      <trkpt lat="43.75838" lon="7.02856">
        <ele>941.7487793</ele>
        <time>2011-07-24T11:18:38Z</time>
      </trkpt>
      <trkpt lat="43.75823" lon="7.0283">
        <ele>941.7487793</ele>
        <time>2011-07-24T11:18:45Z</time>
      </trkpt>
      <trkpt lat="43.75808" lon="7.02789">
        <ele>941.7487793</ele>
        <time>2011-07-24T11:18:54Z</time>
      </trkpt>
      <trkpt lat="43.75794" lon="7.02757">
        <ele>942.2294922</ele>
        <time>2011-07-24T11:19:02Z</time>
      </trkpt>
      <trkpt lat="43.75791" lon="7.02737">
        <ele>942.7102051</ele>
        <time>2011-07-24T11:19:07Z</time>
      </trkpt>
      <trkpt lat="43.75783" lon="7.02707">
        <ele>943.1906738</ele>
        <time>2011-07-24T11:19:14Z</time>
      </trkpt>
      <trkpt lat="43.7578" lon="7.02675">
        <ele>943.1906738</ele>
        <time>2011-07-24T11:19:21Z</time>
      </trkpt>
      <trkpt lat="43.75781" lon="7.02641">
        <ele>941.2680664</ele>
        <time>2011-07-24T11:19:27Z</time>
      </trkpt>
      <trkpt lat="43.75784" lon="7.02608">
        <ele>939.8259277</ele>
        <time>2011-07-24T11:19:32Z</time>
      </trkpt>
      <trkpt lat="43.75786" lon="7.02564">
        <ele>939.3452148</ele>
        <time>2011-07-24T11:19:39Z</time>
      </trkpt>
      <trkpt lat="43.75787" lon="7.02557">
        <ele>938.8647461</ele>
        <time>2011-07-24T11:19:40Z</time>
      </trkpt>
      <trkpt lat="43.75784" lon="7.02523">
        <ele>938.3840332</ele>
        <time>2011-07-24T11:19:45Z</time>
      </trkpt>
      <trkpt lat="43.75782" lon="7.02509">
        <ele>937.9033203</ele>
        <time>2011-07-24T11:19:47Z</time>
      </trkpt>
      <trkpt lat="43.75783" lon="7.02479">
        <ele>937.9033203</ele>
        <time>2011-07-24T11:19:52Z</time>
      </trkpt>
      <trkpt lat="43.75782" lon="7.02468">
        <ele>937.9033203</ele>
        <time>2011-07-24T11:19:54Z</time>
      </trkpt>
      <trkpt lat="43.75776" lon="7.02438">
        <ele>938.8647461</ele>
        <time>2011-07-24T11:20:01Z</time>
      </trkpt>
      <trkpt lat="43.75772" lon="7.02419">
        <ele>939.3452148</ele>
        <time>2011-07-24T11:20:06Z</time>
      </trkpt>
      <trkpt lat="43.75774" lon="7.02401">
        <ele>938.8647461</ele>
        <time>2011-07-24T11:20:11Z</time>
      </trkpt>
      <trkpt lat="43.75776" lon="7.02382">
        <ele>938.8647461</ele>
        <time>2011-07-24T11:20:16Z</time>
      </trkpt>
      <trkpt lat="43.7578" lon="7.02358">
        <ele>937.9033203</ele>
        <time>2011-07-24T11:20:22Z</time>
      </trkpt>
      <trkpt lat="43.75787" lon="7.02339">
        <ele>937.9033203</ele>
        <time>2011-07-24T11:20:27Z</time>
      </trkpt>
      <trkpt lat="43.75789" lon="7.02321">
        <ele>937.9033203</ele>
        <time>2011-07-24T11:20:32Z</time>
      </trkpt>
      <trkpt lat="43.75788" lon="7.02301">
        <ele>937.9033203</ele>
        <time>2011-07-24T11:20:39Z</time>
      </trkpt>
      <trkpt lat="43.75787" lon="7.02298">
        <ele>937.9033203</ele>
        <time>2011-07-24T11:20:40Z</time>
      </trkpt>
      <trkpt lat="43.75786" lon="7.02275">
        <ele>937.9033203</ele>
        <time>2011-07-24T11:20:47Z</time>
      </trkpt>
      <trkpt lat="43.75777" lon="7.02263">
        <ele>939.3452148</ele>
        <time>2011-07-24T11:20:52Z</time>
      </trkpt>
      <trkpt lat="43.75771" lon="7.02249">
        <ele>940.7873535</ele>
        <time>2011-07-24T11:20:57Z</time>
      </trkpt>
      <trkpt lat="43.75773" lon="7.02237">
        <ele>941.2680664</ele>
        <time>2011-07-24T11:21:01Z</time>
      </trkpt>
      <trkpt lat="43.75775" lon="7.02216">
        <ele>943.6713867</ele>
        <time>2011-07-24T11:21:08Z</time>
      </trkpt>
      <trkpt lat="43.75775" lon="7.02198">
        <ele>943.6713867</ele>
        <time>2011-07-24T11:21:14Z</time>
      </trkpt>
      <trkpt lat="43.75771" lon="7.02176">
        <ele>944.6325684</ele>
        <time>2011-07-24T11:21:22Z</time>
      </trkpt>
      <trkpt lat="43.75772" lon="7.02174">
        <ele>945.1132813</ele>
        <time>2011-07-24T11:21:23Z</time>
      </trkpt>
      <trkpt lat="43.75778" lon="7.02169">
        <ele>944.6325684</ele>
        <time>2011-07-24T11:21:27Z</time>
      </trkpt>
      <trkpt lat="43.75784" lon="7.02153">
        <ele>943.6713867</ele>
        <time>2011-07-24T11:21:34Z</time>
      </trkpt>
      <trkpt lat="43.75789" lon="7.02127">
        <ele>942.7102051</ele>
        <time>2011-07-24T11:21:40Z</time>
      </trkpt>
      <trkpt lat="43.75794" lon="7.02099">
        <ele>942.7102051</ele>
        <time>2011-07-24T11:21:47Z</time>
      </trkpt>
      <trkpt lat="43.758" lon="7.0207">
        <ele>943.1906738</ele>
        <time>2011-07-24T11:21:56Z</time>
      </trkpt>
      <trkpt lat="43.75805" lon="7.02056">
        <ele>943.6713867</ele>
        <time>2011-07-24T11:22:02Z</time>
      </trkpt>
      <trkpt lat="43.75806" lon="7.02054">
        <ele>944.1520996</ele>
        <time>2011-07-24T11:22:03Z</time>
      </trkpt>
      <trkpt lat="43.75807" lon="7.02047">
        <ele>944.1520996</ele>
        <time>2011-07-24T11:22:07Z</time>
      </trkpt>
      <trkpt lat="43.75807" lon="7.02033">
        <ele>945.5939941</ele>
        <time>2011-07-24T11:22:14Z</time>
      </trkpt>
      <trkpt lat="43.7581" lon="7.02022">
        <ele>947.5166016</ele>
        <time>2011-07-24T11:22:20Z</time>
      </trkpt>
      <trkpt lat="43.75809" lon="7.02018">
        <ele>947.5166016</ele>
        <time>2011-07-24T11:22:22Z</time>
      </trkpt>
      <trkpt lat="43.75806" lon="7.01999">
        <ele>949.439209</ele>
        <time>2011-07-24T11:22:33Z</time>
      </trkpt>
      <trkpt lat="43.75803" lon="7.01985">
        <ele>950.8811035</ele>
        <time>2011-07-24T11:22:41Z</time>
      </trkpt>
      <trkpt lat="43.75805" lon="7.01966">
        <ele>953.2844238</ele>
        <time>2011-07-24T11:22:51Z</time>
      </trkpt>
      <trkpt lat="43.75807" lon="7.0195">
        <ele>954.2458496</ele>
        <time>2011-07-24T11:23:00Z</time>
      </trkpt>
      <trkpt lat="43.75808" lon="7.01934">
        <ele>954.2458496</ele>
        <time>2011-07-24T11:23:08Z</time>
      </trkpt>
      <trkpt lat="43.75806" lon="7.01917">
        <ele>955.2070313</ele>
        <time>2011-07-24T11:23:15Z</time>
      </trkpt>
      <trkpt lat="43.75801" lon="7.01902">
        <ele>955.6877441</ele>
        <time>2011-07-24T11:23:22Z</time>
      </trkpt>
      <trkpt lat="43.75799" lon="7.01898">
        <ele>956.168457</ele>
        <time>2011-07-24T11:23:24Z</time>
      </trkpt>
      <trkpt lat="43.75801" lon="7.01887">
        <ele>956.6491699</ele>
        <time>2011-07-24T11:23:29Z</time>
      </trkpt>
      <trkpt lat="43.75804" lon="7.01871">
        <ele>956.6491699</ele>
        <time>2011-07-24T11:23:37Z</time>
      </trkpt>
      <trkpt lat="43.75807" lon="7.01848">
        <ele>957.1298828</ele>
        <time>2011-07-24T11:23:46Z</time>
      </trkpt>
      <trkpt lat="43.75807" lon="7.01827">
        <ele>957.6105957</ele>
        <time>2011-07-24T11:23:54Z</time>
      </trkpt>
      <trkpt lat="43.75806" lon="7.01809">
        <ele>957.6105957</ele>
        <time>2011-07-24T11:24:01Z</time>
      </trkpt>
      <trkpt lat="43.75807" lon="7.01789">
        <ele>958.0913086</ele>
        <time>2011-07-24T11:24:09Z</time>
      </trkpt>
      <trkpt lat="43.75807" lon="7.01771">
        <ele>958.5717773</ele>
        <time>2011-07-24T11:24:16Z</time>
      </trkpt>
      <trkpt lat="43.75806" lon="7.01763">
        <ele>958.5717773</ele>
        <time>2011-07-24T11:24:19Z</time>
      </trkpt>
      <trkpt lat="43.75807" lon="7.0176">
        <ele>958.5717773</ele>
        <time>2011-07-24T11:24:24Z</time>
      </trkpt>
      <trkpt lat="43.75807" lon="7.0176">
        <ele>959.0524902</ele>
        <time>2011-07-24T11:24:33Z</time>
      </trkpt>
      <trkpt lat="43.75807" lon="7.01761">
        <ele>958.5717773</ele>
        <time>2011-07-24T11:24:46Z</time>
      </trkpt>
      <trkpt lat="43.75806" lon="7.01762">
        <ele>958.0913086</ele>
        <time>2011-07-24T11:24:54Z</time>
      </trkpt>
      <trkpt lat="43.75806" lon="7.01762">
        <ele>958.0913086</ele>
        <time>2011-07-24T11:24:59Z</time>
      </trkpt>
      <trkpt lat="43.75806" lon="7.01762">
        <ele>957.1298828</ele>
        <time>2011-07-24T11:25:05Z</time>
      </trkpt>
      <trkpt lat="43.75806" lon="7.01762">
        <ele>957.1298828</ele>
        <time>2011-07-24T11:25:08Z</time>
      </trkpt>
      <trkpt lat="43.75806" lon="7.01761">
        <ele>958.0913086</ele>
        <time>2011-07-24T11:25:13Z</time>
      </trkpt>
      <trkpt lat="43.75806" lon="7.01761">
        <ele>957.6105957</ele>
        <time>2011-07-24T11:25:26Z</time>
      </trkpt>
      <trkpt lat="43.75805" lon="7.01761">
        <ele>957.6105957</ele>
        <time>2011-07-24T11:25:31Z</time>
      </trkpt>
      <trkpt lat="43.75805" lon="7.0176">
        <ele>958.0913086</ele>
        <time>2011-07-24T11:25:39Z</time>
      </trkpt>
      <trkpt lat="43.75805" lon="7.01761">
        <ele>958.0913086</ele>
        <time>2011-07-24T11:25:50Z</time>
      </trkpt>
      <trkpt lat="43.75805" lon="7.01761">
        <ele>958.0913086</ele>
        <time>2011-07-24T11:25:52Z</time>
      </trkpt>
      <trkpt lat="43.75805" lon="7.01761">
        <ele>958.0913086</ele>
        <time>2011-07-24T11:25:53Z</time>
      </trkpt>
      <trkpt lat="43.75805" lon="7.01761">
        <ele>959.0524902</ele>
        <time>2011-07-24T11:26:05Z</time>
      </trkpt>
      <trkpt lat="43.75805" lon="7.01755">
        <ele>960.0136719</ele>
        <time>2011-07-24T11:26:20Z</time>
      </trkpt>
      <trkpt lat="43.75807" lon="7.01742">
        <ele>960.0136719</ele>
        <time>2011-07-24T11:26:25Z</time>
      </trkpt>
      <trkpt lat="43.75814" lon="7.01722">
        <ele>961.4558105</ele>
        <time>2011-07-24T11:26:31Z</time>
      </trkpt>
      <trkpt lat="43.75815" lon="7.01711">
        <ele>962.4169922</ele>
        <time>2011-07-24T11:26:34Z</time>
      </trkpt>
      <trkpt lat="43.75816" lon="7.01702">
        <ele>962.8977051</ele>
        <time>2011-07-24T11:26:37Z</time>
      </trkpt>
      <trkpt lat="43.75816" lon="7.01696">
        <ele>963.378418</ele>
        <time>2011-07-24T11:26:39Z</time>
      </trkpt>
      <trkpt lat="43.75815" lon="7.01693">
        <ele>963.378418</ele>
        <time>2011-07-24T11:26:40Z</time>
      </trkpt>
      <trkpt lat="43.75815" lon="7.01687">
        <ele>963.378418</ele>
        <time>2011-07-24T11:26:42Z</time>
      </trkpt>
      <trkpt lat="43.75805" lon="7.01658">
        <ele>964.3395996</ele>
        <time>2011-07-24T11:26:51Z</time>
      </trkpt>
      <trkpt lat="43.75799" lon="7.01647">
        <ele>964.8203125</ele>
        <time>2011-07-24T11:26:55Z</time>
      </trkpt>
      <trkpt lat="43.75798" lon="7.01629">
        <ele>964.8203125</ele>
        <time>2011-07-24T11:27:00Z</time>
      </trkpt>
      <trkpt lat="43.75799" lon="7.01598">
        <ele>964.8203125</ele>
        <time>2011-07-24T11:27:08Z</time>
      </trkpt>
      <trkpt lat="43.75807" lon="7.01585">
        <ele>964.8203125</ele>
        <time>2011-07-24T11:27:13Z</time>
      </trkpt>
      <trkpt lat="43.75808" lon="7.01582">
        <ele>964.8203125</ele>
        <time>2011-07-24T11:27:14Z</time>
      </trkpt>
      <trkpt lat="43.75804" lon="7.01573">
        <ele>964.8203125</ele>
        <time>2011-07-24T11:27:20Z</time>
      </trkpt>
      <trkpt lat="43.758" lon="7.01571">
        <ele>964.8203125</ele>
        <time>2011-07-24T11:27:22Z</time>
      </trkpt>
      <trkpt lat="43.75794" lon="7.01568">
        <ele>964.3395996</ele>
        <time>2011-07-24T11:27:25Z</time>
      </trkpt>
      <trkpt lat="43.75792" lon="7.01561">
        <ele>963.378418</ele>
        <time>2011-07-24T11:27:30Z</time>
      </trkpt>
      <trkpt lat="43.75791" lon="7.01561">
        <ele>962.8977051</ele>
        <time>2011-07-24T11:27:39Z</time>
      </trkpt>
      <trkpt lat="43.758" lon="7.01547">
        <ele>960.9750977</ele>
        <time>2011-07-24T11:27:45Z</time>
      </trkpt>
      <trkpt lat="43.75801" lon="7.01541">
        <ele>960.4943848</ele>
        <time>2011-07-24T11:27:47Z</time>
      </trkpt>
      <trkpt lat="43.75803" lon="7.01539">
        <ele>959.5332031</ele>
        <time>2011-07-24T11:27:53Z</time>
      </trkpt>
      <trkpt lat="43.75803" lon="7.01539">
        <ele>959.0524902</ele>
        <time>2011-07-24T11:28:00Z</time>
      </trkpt>
      <trkpt lat="43.75803" lon="7.0154">
        <ele>959.0524902</ele>
        <time>2011-07-24T11:28:08Z</time>
      </trkpt>
      <trkpt lat="43.75804" lon="7.0154">
        <ele>958.0913086</ele>
        <time>2011-07-24T11:28:15Z</time>
      </trkpt>
      <trkpt lat="43.75811" lon="7.01536">
        <ele>956.6491699</ele>
        <time>2011-07-24T11:28:19Z</time>
      </trkpt>
      <trkpt lat="43.75826" lon="7.01529">
        <ele>954.7263184</ele>
        <time>2011-07-24T11:28:23Z</time>
      </trkpt>
      <trkpt lat="43.75839" lon="7.0152">
        <ele>951.8425293</ele>
        <time>2011-07-24T11:28:28Z</time>
      </trkpt>
      <trkpt lat="43.75841" lon="7.01519">
        <ele>951.3618164</ele>
        <time>2011-07-24T11:28:29Z</time>
      </trkpt>
      <trkpt lat="43.75852" lon="7.01509">
        <ele>948.9584961</ele>
        <time>2011-07-24T11:28:33Z</time>
      </trkpt>
      <trkpt lat="43.75875" lon="7.01491">
        <ele>944.1520996</ele>
        <time>2011-07-24T11:28:39Z</time>
      </trkpt>
      <trkpt lat="43.75895" lon="7.01473">
        <ele>939.3452148</ele>
        <time>2011-07-24T11:28:44Z</time>
      </trkpt>
      <trkpt lat="43.75907" lon="7.01466">
        <ele>936.9418945</ele>
        <time>2011-07-24T11:28:47Z</time>
      </trkpt>
      <trkpt lat="43.75921" lon="7.01461">
        <ele>933.5773926</ele>
        <time>2011-07-24T11:28:52Z</time>
      </trkpt>
      <trkpt lat="43.75924" lon="7.0146">
        <ele>933.0966797</ele>
        <time>2011-07-24T11:28:53Z</time>
      </trkpt>
      <trkpt lat="43.75933" lon="7.01456">
        <ele>930.6936035</ele>
        <time>2011-07-24T11:28:57Z</time>
      </trkpt>
      <trkpt lat="43.75946" lon="7.01449">
        <ele>928.2902832</ele>
        <time>2011-07-24T11:29:02Z</time>
      </trkpt>
      <trkpt lat="43.75965" lon="7.01438">
        <ele>925.8869629</ele>
        <time>2011-07-24T11:29:07Z</time>
      </trkpt>
      <trkpt lat="43.75978" lon="7.01428">
        <ele>924.4450684</ele>
        <time>2011-07-24T11:29:10Z</time>
      </trkpt>
      <trkpt lat="43.75988" lon="7.01421">
        <ele>923.4836426</ele>
        <time>2011-07-24T11:29:14Z</time>
      </trkpt>
      <trkpt lat="43.75992" lon="7.01416">
        <ele>922.5222168</ele>
        <time>2011-07-24T11:29:16Z</time>
      </trkpt>
      <trkpt lat="43.76007" lon="7.01398">
        <ele>919.1577148</ele>
        <time>2011-07-24T11:29:21Z</time>
      </trkpt>
      <trkpt lat="43.7602" lon="7.01374">
        <ele>916.2736816</ele>
        <time>2011-07-24T11:29:26Z</time>
      </trkpt>
      <trkpt lat="43.76021" lon="7.01369">
        <ele>915.7932129</ele>
        <time>2011-07-24T11:29:27Z</time>
      </trkpt>
      <trkpt lat="43.76031" lon="7.01353">
        <ele>913.3898926</ele>
        <time>2011-07-24T11:29:32Z</time>
      </trkpt>
      <trkpt lat="43.76041" lon="7.01339">
        <ele>910.9865723</ele>
        <time>2011-07-24T11:29:36Z</time>
      </trkpt>
      <trkpt lat="43.76049" lon="7.01323">
        <ele>908.1027832</ele>
        <time>2011-07-24T11:29:41Z</time>
      </trkpt>
      <trkpt lat="43.76049" lon="7.01306">
        <ele>906.1796875</ele>
        <time>2011-07-24T11:29:46Z</time>
      </trkpt>
      <trkpt lat="43.76051" lon="7.01301">
        <ele>905.6992188</ele>
        <time>2011-07-24T11:29:49Z</time>
      </trkpt>
      <trkpt lat="43.7605" lon="7.01299">
        <ele>906.1796875</ele>
        <time>2011-07-24T11:29:54Z</time>
      </trkpt>
      <trkpt lat="43.76054" lon="7.0129">
        <ele>906.1796875</ele>
        <time>2011-07-24T11:29:59Z</time>
      </trkpt>
      <trkpt lat="43.76061" lon="7.0127">
        <ele>905.2185059</ele>
        <time>2011-07-24T11:30:05Z</time>
      </trkpt>
      <trkpt lat="43.7606" lon="7.01252">
        <ele>903.7766113</ele>
        <time>2011-07-24T11:30:09Z</time>
      </trkpt>
      <trkpt lat="43.76054" lon="7.01224">
        <ele>899.4506836</ele>
        <time>2011-07-24T11:30:14Z</time>
      </trkpt>
      <trkpt lat="43.76054" lon="7.01201">
        <ele>897.0473633</ele>
        <time>2011-07-24T11:30:18Z</time>
      </trkpt>
      <trkpt lat="43.76055" lon="7.0119">
        <ele>896.0861816</ele>
        <time>2011-07-24T11:30:20Z</time>
      </trkpt>
      <trkpt lat="43.76064" lon="7.01163">
        <ele>896.0861816</ele>
        <time>2011-07-24T11:30:26Z</time>
      </trkpt>
      <trkpt lat="43.76072" lon="7.01148">
        <ele>896.5668945</ele>
        <time>2011-07-24T11:30:30Z</time>
      </trkpt>
      <trkpt lat="43.76082" lon="7.01123">
        <ele>896.0861816</ele>
        <time>2011-07-24T11:30:36Z</time>
      </trkpt>
      <trkpt lat="43.76085" lon="7.01118">
        <ele>896.5668945</ele>
        <time>2011-07-24T11:30:38Z</time>
      </trkpt>
      <trkpt lat="43.76089" lon="7.01096">
        <ele>896.0861816</ele>
        <time>2011-07-24T11:30:44Z</time>
      </trkpt>
      <trkpt lat="43.76089" lon="7.01092">
        <ele>895.6054688</ele>
        <time>2011-07-24T11:30:45Z</time>
      </trkpt>
      <trkpt lat="43.7609" lon="7.01089">
        <ele>895.1247559</ele>
        <time>2011-07-24T11:30:50Z</time>
      </trkpt>
      <trkpt lat="43.76089" lon="7.0109">
        <ele>895.6054688</ele>
        <time>2011-07-24T11:30:57Z</time>
      </trkpt>
      <trkpt lat="43.76088" lon="7.01089">
        <ele>897.0473633</ele>
        <time>2011-07-24T11:31:14Z</time>
      </trkpt>
      <trkpt lat="43.76088" lon="7.01089">
        <ele>897.5280762</ele>
        <time>2011-07-24T11:31:21Z</time>
      </trkpt>
      <trkpt lat="43.76088" lon="7.01088">
        <ele>897.5280762</ele>
        <time>2011-07-24T11:31:28Z</time>
      </trkpt>
      <trkpt lat="43.76087" lon="7.01088">
        <ele>898.9699707</ele>
        <time>2011-07-24T11:31:35Z</time>
      </trkpt>
      <trkpt lat="43.76088" lon="7.01088">
        <ele>899.4506836</ele>
        <time>2011-07-24T11:31:38Z</time>
      </trkpt>
      <trkpt lat="43.76088" lon="7.01088">
        <ele>898.9699707</ele>
        <time>2011-07-24T11:31:42Z</time>
      </trkpt>
      <trkpt lat="43.76088" lon="7.01089">
        <ele>899.4506836</ele>
        <time>2011-07-24T11:31:49Z</time>
      </trkpt>
      <trkpt lat="43.76088" lon="7.01088">
        <ele>899.9313965</ele>
        <time>2011-07-24T11:31:58Z</time>
      </trkpt>
      <trkpt lat="43.76088" lon="7.01089">
        <ele>899.4506836</ele>
        <time>2011-07-24T11:32:20Z</time>
      </trkpt>
      <trkpt lat="43.76087" lon="7.0109">
        <ele>899.9313965</ele>
        <time>2011-07-24T11:32:27Z</time>
      </trkpt>
      <trkpt lat="43.76087" lon="7.0109">
        <ele>899.9313965</ele>
        <time>2011-07-24T11:32:31Z</time>
      </trkpt>
      <trkpt lat="43.76087" lon="7.0109">
        <ele>899.9313965</ele>
        <time>2011-07-24T11:32:34Z</time>
      </trkpt>
      <trkpt lat="43.76087" lon="7.0109">
        <ele>899.9313965</ele>
        <time>2011-07-24T11:32:35Z</time>
      </trkpt>
      <trkpt lat="43.76088" lon="7.01088">
        <ele>901.8540039</ele>
        <time>2011-07-24T11:33:25Z</time>
      </trkpt>
      <trkpt lat="43.76087" lon="7.01088">
        <ele>900.8925781</ele>
        <time>2011-07-24T11:33:29Z</time>
      </trkpt>
      <trkpt lat="43.76088" lon="7.01088">
        <ele>899.9313965</ele>
        <time>2011-07-24T11:33:37Z</time>
      </trkpt>
      <trkpt lat="43.76089" lon="7.01089">
        <ele>899.9313965</ele>
        <time>2011-07-24T11:33:40Z</time>
      </trkpt>
      <trkpt lat="43.76088" lon="7.01089">
        <ele>899.4506836</ele>
        <time>2011-07-24T11:33:45Z</time>
      </trkpt>
      <trkpt lat="43.7609" lon="7.01087">
        <ele>898.9699707</ele>
        <time>2011-07-24T11:34:04Z</time>
      </trkpt>
      <trkpt lat="43.7609" lon="7.01086">
        <ele>898.4892578</ele>
        <time>2011-07-24T11:34:08Z</time>
      </trkpt>
      <trkpt lat="43.76093" lon="7.01065">
        <ele>897.5280762</ele>
        <time>2011-07-24T11:34:14Z</time>
      </trkpt>
      <trkpt lat="43.76096" lon="7.01042">
        <ele>895.6054688</ele>
        <time>2011-07-24T11:34:19Z</time>
      </trkpt>
      <trkpt lat="43.761" lon="7.0102">
        <ele>894.1635742</ele>
        <time>2011-07-24T11:34:23Z</time>
      </trkpt>
      <trkpt lat="43.76104" lon="7.01">
        <ele>892.7216797</ele>
        <time>2011-07-24T11:34:27Z</time>
      </trkpt>
      <trkpt lat="43.76108" lon="7.00973">
        <ele>890.798584</ele>
        <time>2011-07-24T11:34:32Z</time>
      </trkpt>
      <trkpt lat="43.76112" lon="7.00966">
        <ele>890.798584</ele>
        <time>2011-07-24T11:34:34Z</time>
      </trkpt>
      <trkpt lat="43.76115" lon="7.0096">
        <ele>891.2792969</ele>
        <time>2011-07-24T11:34:39Z</time>
      </trkpt>
      <trkpt lat="43.76117" lon="7.00958">
        <ele>891.2792969</ele>
        <time>2011-07-24T11:34:41Z</time>
      </trkpt>
      <trkpt lat="43.7612" lon="7.00946">
        <ele>891.2792969</ele>
        <time>2011-07-24T11:34:46Z</time>
      </trkpt>
      <trkpt lat="43.76123" lon="7.00937">
        <ele>890.798584</ele>
        <time>2011-07-24T11:34:49Z</time>
      </trkpt>
      <trkpt lat="43.76127" lon="7.00927">
        <ele>890.3181152</ele>
        <time>2011-07-24T11:34:54Z</time>
      </trkpt>
      <trkpt lat="43.76127" lon="7.00922">
        <ele>889.8374023</ele>
        <time>2011-07-24T11:34:59Z</time>
      </trkpt>
      <trkpt lat="43.76126" lon="7.00921">
        <ele>889.8374023</ele>
        <time>2011-07-24T11:35:00Z</time>
      </trkpt>
      <trkpt lat="43.76117" lon="7.00906">
        <ele>888.3955078</ele>
        <time>2011-07-24T11:35:07Z</time>
      </trkpt>
      <trkpt lat="43.76111" lon="7.00894">
        <ele>886.9533691</ele>
        <time>2011-07-24T11:35:12Z</time>
      </trkpt>
      <trkpt lat="43.76102" lon="7.00873">
        <ele>884.550293</ele>
        <time>2011-07-24T11:35:18Z</time>
      </trkpt>
      <trkpt lat="43.7609" lon="7.00853">
        <ele>881.6662598</ele>
        <time>2011-07-24T11:35:23Z</time>
      </trkpt>
      <trkpt lat="43.76087" lon="7.00826">
        <ele>881.6662598</ele>
        <time>2011-07-24T11:35:29Z</time>
      </trkpt>
      <trkpt lat="43.76087" lon="7.00819">
        <ele>881.6662598</ele>
        <time>2011-07-24T11:35:31Z</time>
      </trkpt>
      <trkpt lat="43.76083" lon="7.00806">
        <ele>881.6662598</ele>
        <time>2011-07-24T11:35:36Z</time>
      </trkpt>
      <trkpt lat="43.76083" lon="7.00791">
        <ele>882.1469727</ele>
        <time>2011-07-24T11:35:41Z</time>
      </trkpt>
      <trkpt lat="43.76083" lon="7.00789">
        <ele>882.1469727</ele>
        <time>2011-07-24T11:35:42Z</time>
      </trkpt>
      <trkpt lat="43.7608" lon="7.0077">
        <ele>882.1469727</ele>
        <time>2011-07-24T11:35:48Z</time>
      </trkpt>
      <trkpt lat="43.76075" lon="7.00749">
        <ele>883.5888672</ele>
        <time>2011-07-24T11:35:55Z</time>
      </trkpt>
      <trkpt lat="43.76073" lon="7.00741">
        <ele>884.0695801</ele>
        <time>2011-07-24T11:35:57Z</time>
      </trkpt>
      <trkpt lat="43.7607" lon="7.00729">
        <ele>884.550293</ele>
        <time>2011-07-24T11:36:02Z</time>
      </trkpt>
      <trkpt lat="43.76065" lon="7.00717">
        <ele>884.550293</ele>
        <time>2011-07-24T11:36:07Z</time>
      </trkpt>
      <trkpt lat="43.76063" lon="7.00699">
        <ele>884.0695801</ele>
        <time>2011-07-24T11:36:12Z</time>
      </trkpt>
      <trkpt lat="43.76057" lon="7.00679">
        <ele>883.5888672</ele>
        <time>2011-07-24T11:36:18Z</time>
      </trkpt>
      <trkpt lat="43.76054" lon="7.00661">
        <ele>883.1081543</ele>
        <time>2011-07-24T11:36:24Z</time>
      </trkpt>
      <trkpt lat="43.76054" lon="7.00639">
        <ele>883.5888672</ele>
        <time>2011-07-24T11:36:29Z</time>
      </trkpt>
      <trkpt lat="43.76057" lon="7.0061">
        <ele>882.6276855</ele>
        <time>2011-07-24T11:36:35Z</time>
      </trkpt>
      <trkpt lat="43.76062" lon="7.00599">
        <ele>881.6662598</ele>
        <time>2011-07-24T11:36:38Z</time>
      </trkpt>
      <trkpt lat="43.76065" lon="7.0059">
        <ele>880.7050781</ele>
        <time>2011-07-24T11:36:42Z</time>
      </trkpt>
      <trkpt lat="43.76068" lon="7.00582">
        <ele>880.2243652</ele>
        <time>2011-07-24T11:36:45Z</time>
      </trkpt>
      <trkpt lat="43.76073" lon="7.00575">
        <ele>879.2629395</ele>
        <time>2011-07-24T11:36:50Z</time>
      </trkpt>
      <trkpt lat="43.76073" lon="7.00575">
        <ele>878.7824707</ele>
        <time>2011-07-24T11:37:02Z</time>
      </trkpt>
      <trkpt lat="43.76072" lon="7.00575">
        <ele>879.7436523</ele>
        <time>2011-07-24T11:37:08Z</time>
      </trkpt>
      <trkpt lat="43.76072" lon="7.00575">
        <ele>879.7436523</ele>
        <time>2011-07-24T11:37:13Z</time>
      </trkpt>
      <trkpt lat="43.76072" lon="7.00575">
        <ele>879.2629395</ele>
        <time>2011-07-24T11:37:19Z</time>
      </trkpt>
      <trkpt lat="43.76072" lon="7.00575">
        <ele>880.2243652</ele>
        <time>2011-07-24T11:37:24Z</time>
      </trkpt>
      <trkpt lat="43.76071" lon="7.00572">
        <ele>883.1081543</ele>
        <time>2011-07-24T11:37:35Z</time>
      </trkpt>
      <trkpt lat="43.76071" lon="7.00572">
        <ele>884.550293</ele>
        <time>2011-07-24T11:37:40Z</time>
      </trkpt>
      <trkpt lat="43.7607" lon="7.00571">
        <ele>885.5114746</ele>
        <time>2011-07-24T11:37:50Z</time>
      </trkpt>
      <trkpt lat="43.7607" lon="7.00571">
        <ele>885.9921875</ele>
        <time>2011-07-24T11:37:57Z</time>
      </trkpt>
      <trkpt lat="43.7607" lon="7.00571">
        <ele>885.9921875</ele>
        <time>2011-07-24T11:37:59Z</time>
      </trkpt>
      <trkpt lat="43.7607" lon="7.00572">
        <ele>884.550293</ele>
        <time>2011-07-24T11:38:09Z</time>
      </trkpt>
      <trkpt lat="43.7607" lon="7.00574">
        <ele>883.5888672</ele>
        <time>2011-07-24T11:38:17Z</time>
      </trkpt>
      <trkpt lat="43.76071" lon="7.00574">
        <ele>884.550293</ele>
        <time>2011-07-24T11:38:25Z</time>
      </trkpt>
      <trkpt lat="43.76071" lon="7.00574">
        <ele>884.0695801</ele>
        <time>2011-07-24T11:38:28Z</time>
      </trkpt>
      <trkpt lat="43.7607" lon="7.00573">
        <ele>885.0310059</ele>
        <time>2011-07-24T11:38:34Z</time>
      </trkpt>
      <trkpt lat="43.7607" lon="7.00572">
        <ele>886.4729004</ele>
        <time>2011-07-24T11:38:42Z</time>
      </trkpt>
      <trkpt lat="43.7607" lon="7.00572">
        <ele>886.9533691</ele>
        <time>2011-07-24T11:38:51Z</time>
      </trkpt>
      <trkpt lat="43.76069" lon="7.00572">
        <ele>886.4729004</ele>
        <time>2011-07-24T11:39:01Z</time>
      </trkpt>
      <trkpt lat="43.7607" lon="7.00572">
        <ele>885.0310059</ele>
        <time>2011-07-24T11:39:08Z</time>
      </trkpt>
      <trkpt lat="43.7607" lon="7.00571">
        <ele>885.9921875</ele>
        <time>2011-07-24T11:39:21Z</time>
      </trkpt>
      <trkpt lat="43.7607" lon="7.00572">
        <ele>885.0310059</ele>
        <time>2011-07-24T11:39:29Z</time>
      </trkpt>
      <trkpt lat="43.76071" lon="7.00573">
        <ele>883.5888672</ele>
        <time>2011-07-24T11:39:34Z</time>
      </trkpt>
      <trkpt lat="43.76071" lon="7.00574">
        <ele>883.5888672</ele>
        <time>2011-07-24T11:39:37Z</time>
      </trkpt>
      <trkpt lat="43.76071" lon="7.00574">
        <ele>883.1081543</ele>
        <time>2011-07-24T11:39:39Z</time>
      </trkpt>
      <trkpt lat="43.76071" lon="7.00574">
        <ele>882.1469727</ele>
        <time>2011-07-24T11:39:49Z</time>
      </trkpt>
      <trkpt lat="43.76071" lon="7.00575">
        <ele>881.185791</ele>
        <time>2011-07-24T11:39:57Z</time>
      </trkpt>
      <trkpt lat="43.76071" lon="7.00575">
        <ele>880.2243652</ele>
        <time>2011-07-24T11:40:10Z</time>
      </trkpt>
      <trkpt lat="43.76071" lon="7.00574">
        <ele>881.185791</ele>
        <time>2011-07-24T11:40:26Z</time>
      </trkpt>
      <trkpt lat="43.76071" lon="7.00575">
        <ele>881.185791</ele>
        <time>2011-07-24T11:40:37Z</time>
      </trkpt>
      <trkpt lat="43.76071" lon="7.00574">
        <ele>882.1469727</ele>
        <time>2011-07-24T11:40:44Z</time>
      </trkpt>
      <trkpt lat="43.7607" lon="7.00574">
        <ele>881.6662598</ele>
        <time>2011-07-24T11:40:49Z</time>
      </trkpt>
      <trkpt lat="43.7607" lon="7.00574">
        <ele>881.185791</ele>
        <time>2011-07-24T11:40:57Z</time>
      </trkpt>
      <trkpt lat="43.76069" lon="7.00574">
        <ele>881.6662598</ele>
        <time>2011-07-24T11:41:04Z</time>
      </trkpt>
      <trkpt lat="43.76069" lon="7.00574">
        <ele>881.6662598</ele>
        <time>2011-07-24T11:41:16Z</time>
      </trkpt>
      <trkpt lat="43.76069" lon="7.00574">
        <ele>881.6662598</ele>
        <time>2011-07-24T11:41:17Z</time>
      </trkpt>
      <trkpt lat="43.76069" lon="7.00574">
        <ele>882.6276855</ele>
        <time>2011-07-24T11:41:25Z</time>
      </trkpt>
      <trkpt lat="43.76068" lon="7.00573">
        <ele>883.5888672</ele>
        <time>2011-07-24T11:41:33Z</time>
      </trkpt>
      <trkpt lat="43.76068" lon="7.00574">
        <ele>882.1469727</ele>
        <time>2011-07-24T11:41:36Z</time>
      </trkpt>
      <trkpt lat="43.76069" lon="7.00574">
        <ele>881.6662598</ele>
        <time>2011-07-24T11:41:37Z</time>
      </trkpt>
      <trkpt lat="43.76069" lon="7.00574">
        <ele>880.7050781</ele>
        <time>2011-07-24T11:41:42Z</time>
      </trkpt>
      <trkpt lat="43.7607" lon="7.00573">
        <ele>880.7050781</ele>
        <time>2011-07-24T11:41:55Z</time>
      </trkpt>
      <trkpt lat="43.7607" lon="7.00574">
        <ele>880.2243652</ele>
        <time>2011-07-24T11:42:21Z</time>
      </trkpt>
      <trkpt lat="43.76071" lon="7.00572">
        <ele>882.1469727</ele>
        <time>2011-07-24T11:42:41Z</time>
      </trkpt>
      <trkpt lat="43.7607" lon="7.00571">
        <ele>883.1081543</ele>
        <time>2011-07-24T11:42:45Z</time>
      </trkpt>
      <trkpt lat="43.7607" lon="7.00568">
        <ele>884.550293</ele>
        <time>2011-07-24T11:42:51Z</time>
      </trkpt>
      <trkpt lat="43.7607" lon="7.00569">
        <ele>885.0310059</ele>
        <time>2011-07-24T11:43:12Z</time>
      </trkpt>
      <trkpt lat="43.7607" lon="7.00571">
        <ele>885.5114746</ele>
        <time>2011-07-24T11:43:22Z</time>
      </trkpt>
      <trkpt lat="43.7607" lon="7.00571">
        <ele>886.4729004</ele>
        <time>2011-07-24T11:43:33Z</time>
      </trkpt>
      <trkpt lat="43.7607" lon="7.00571">
        <ele>886.4729004</ele>
        <time>2011-07-24T11:43:48Z</time>
      </trkpt>
      <trkpt lat="43.7607" lon="7.00572">
        <ele>885.5114746</ele>
        <time>2011-07-24T11:44:00Z</time>
      </trkpt>
      <trkpt lat="43.7607" lon="7.00573">
        <ele>885.9921875</ele>
        <time>2011-07-24T11:44:15Z</time>
      </trkpt>
      <trkpt lat="43.7607" lon="7.00574">
        <ele>885.5114746</ele>
        <time>2011-07-24T11:44:21Z</time>
      </trkpt>
      <trkpt lat="43.7607" lon="7.00573">
        <ele>885.0310059</ele>
        <time>2011-07-24T11:44:34Z</time>
      </trkpt>
      <trkpt lat="43.7607" lon="7.00573">
        <ele>884.550293</ele>
        <time>2011-07-24T11:44:44Z</time>
      </trkpt>
      <trkpt lat="43.7607" lon="7.00573">
        <ele>883.5888672</ele>
        <time>2011-07-24T11:44:53Z</time>
      </trkpt>
      <trkpt lat="43.7607" lon="7.00573">
        <ele>883.1081543</ele>
        <time>2011-07-24T11:44:59Z</time>
      </trkpt>
      <trkpt lat="43.7607" lon="7.00574">
        <ele>883.1081543</ele>
        <time>2011-07-24T11:45:04Z</time>
      </trkpt>
      <trkpt lat="43.7607" lon="7.00574">
        <ele>883.1081543</ele>
        <time>2011-07-24T11:45:07Z</time>
      </trkpt>
      <trkpt lat="43.7607" lon="7.00574">
        <ele>884.0695801</ele>
        <time>2011-07-24T11:45:18Z</time>
      </trkpt>
      <trkpt lat="43.76071" lon="7.00574">
        <ele>882.6276855</ele>
        <time>2011-07-24T11:45:28Z</time>
      </trkpt>
      <trkpt lat="43.76071" lon="7.00572">
        <ele>884.0695801</ele>
        <time>2011-07-24T11:45:41Z</time>
      </trkpt>
      <trkpt lat="43.76073" lon="7.00572">
        <ele>885.5114746</ele>
        <time>2011-07-24T11:46:03Z</time>
      </trkpt>
      <trkpt lat="43.76072" lon="7.00573">
        <ele>885.5114746</ele>
        <time>2011-07-24T11:46:08Z</time>
      </trkpt>
      <trkpt lat="43.76072" lon="7.00574">
        <ele>885.0310059</ele>
        <time>2011-07-24T11:46:14Z</time>
      </trkpt>
      <trkpt lat="43.7607" lon="7.00573">
        <ele>884.550293</ele>
        <time>2011-07-24T11:46:21Z</time>
      </trkpt>
      <trkpt lat="43.76072" lon="7.00568">
        <ele>883.1081543</ele>
        <time>2011-07-24T11:46:26Z</time>
      </trkpt>
      <trkpt lat="43.76082" lon="7.00553">
        <ele>881.6662598</ele>
        <time>2011-07-24T11:46:30Z</time>
      </trkpt>
      <trkpt lat="43.76088" lon="7.00543">
        <ele>880.7050781</ele>
        <time>2011-07-24T11:46:33Z</time>
      </trkpt>
      <trkpt lat="43.76104" lon="7.00526">
        <ele>877.3405762</ele>
        <time>2011-07-24T11:46:38Z</time>
      </trkpt>
      <trkpt lat="43.76108" lon="7.00521">
        <ele>877.3405762</ele>
        <time>2011-07-24T11:46:39Z</time>
      </trkpt>
      <trkpt lat="43.76124" lon="7.00499">
        <ele>874.4562988</ele>
        <time>2011-07-24T11:46:43Z</time>
      </trkpt>
      <trkpt lat="43.76131" lon="7.00483">
        <ele>870.611084</ele>
        <time>2011-07-24T11:46:47Z</time>
      </trkpt>
      <trkpt lat="43.76134" lon="7.00474">
        <ele>868.2077637</ele>
        <time>2011-07-24T11:46:51Z</time>
      </trkpt>
      <trkpt lat="43.76142" lon="7.00454">
        <ele>864.3625488</ele>
        <time>2011-07-24T11:46:57Z</time>
      </trkpt>
      <trkpt lat="43.76151" lon="7.00442">
        <ele>863.4013672</ele>
        <time>2011-07-24T11:47:00Z</time>
      </trkpt>
      <trkpt lat="43.76148" lon="7.00435">
        <ele>860.517334</ele>
        <time>2011-07-24T11:47:05Z</time>
      </trkpt>
      <trkpt lat="43.76131" lon="7.00432">
        <ele>856.1911621</ele>
        <time>2011-07-24T11:47:11Z</time>
      </trkpt>
      <trkpt lat="43.76125" lon="7.00429">
        <ele>854.2687988</ele>
        <time>2011-07-24T11:47:15Z</time>
      </trkpt>
      <trkpt lat="43.76121" lon="7.00428">
        <ele>852.8266602</ele>
        <time>2011-07-24T11:47:17Z</time>
      </trkpt>
      <trkpt lat="43.76116" lon="7.0043">
        <ele>851.8654785</ele>
        <time>2011-07-24T11:47:21Z</time>
      </trkpt>
      <trkpt lat="43.76116" lon="7.00427">
        <ele>852.3459473</ele>
        <time>2011-07-24T11:47:27Z</time>
      </trkpt>
      <trkpt lat="43.76116" lon="7.00427">
        <ele>852.8266602</ele>
        <time>2011-07-24T11:47:31Z</time>
      </trkpt>
      <trkpt lat="43.76117" lon="7.00426">
        <ele>853.7880859</ele>
        <time>2011-07-24T11:47:42Z</time>
      </trkpt>
      <trkpt lat="43.76117" lon="7.00428">
        <ele>853.307373</ele>
        <time>2011-07-24T11:47:57Z</time>
      </trkpt>
      <trkpt lat="43.76116" lon="7.00428">
        <ele>854.2687988</ele>
        <time>2011-07-24T11:48:06Z</time>
      </trkpt>
      <trkpt lat="43.76116" lon="7.00427">
        <ele>853.307373</ele>
        <time>2011-07-24T11:48:11Z</time>
      </trkpt>
      <trkpt lat="43.76117" lon="7.00426">
        <ele>853.307373</ele>
        <time>2011-07-24T11:48:15Z</time>
      </trkpt>
      <trkpt lat="43.76117" lon="7.00426">
        <ele>853.7880859</ele>
        <time>2011-07-24T11:48:18Z</time>
      </trkpt>
      <trkpt lat="43.76117" lon="7.00424">
        <ele>856.1911621</ele>
        <time>2011-07-24T11:48:26Z</time>
      </trkpt>
      <trkpt lat="43.7612" lon="7.00423">
        <ele>856.1911621</ele>
        <time>2011-07-24T11:48:32Z</time>
      </trkpt>
      <trkpt lat="43.76125" lon="7.0042">
        <ele>855.2299805</ele>
        <time>2011-07-24T11:48:36Z</time>
      </trkpt>
      <trkpt lat="43.76129" lon="7.00419">
        <ele>855.2299805</ele>
        <time>2011-07-24T11:48:38Z</time>
      </trkpt>
      <trkpt lat="43.76131" lon="7.00404">
        <ele>854.2687988</ele>
        <time>2011-07-24T11:48:43Z</time>
      </trkpt>
      <trkpt lat="43.76131" lon="7.00379">
        <ele>853.307373</ele>
        <time>2011-07-24T11:48:47Z</time>
      </trkpt>
      <trkpt lat="43.76129" lon="7.00356">
        <ele>854.2687988</ele>
        <time>2011-07-24T11:48:51Z</time>
      </trkpt>
      <trkpt lat="43.76136" lon="7.00333">
        <ele>855.2299805</ele>
        <time>2011-07-24T11:48:58Z</time>
      </trkpt>
      <trkpt lat="43.76137" lon="7.0033">
        <ele>855.2299805</ele>
        <time>2011-07-24T11:49:02Z</time>
      </trkpt>
      <trkpt lat="43.76138" lon="7.0033">
        <ele>858.1140137</ele>
        <time>2011-07-24T11:49:16Z</time>
      </trkpt>
      <trkpt lat="43.76141" lon="7.00327">
        <ele>857.1525879</ele>
        <time>2011-07-24T11:49:21Z</time>
      </trkpt>
      <trkpt lat="43.76148" lon="7.00322">
        <ele>857.1525879</ele>
        <time>2011-07-24T11:49:25Z</time>
      </trkpt>
      <trkpt lat="43.76162" lon="7.00309">
        <ele>855.7106934</ele>
        <time>2011-07-24T11:49:32Z</time>
      </trkpt>
      <trkpt lat="43.76177" lon="7.00297">
        <ele>854.7492676</ele>
        <time>2011-07-24T11:49:37Z</time>
      </trkpt>
      <trkpt lat="43.7619" lon="7.00283">
        <ele>853.307373</ele>
        <time>2011-07-24T11:49:42Z</time>
      </trkpt>
      <trkpt lat="43.76204" lon="7.00267">
        <ele>853.307373</ele>
        <time>2011-07-24T11:49:47Z</time>
      </trkpt>
      <trkpt lat="43.76219" lon="7.00253">
        <ele>853.307373</ele>
        <time>2011-07-24T11:49:53Z</time>
      </trkpt>
      <trkpt lat="43.76233" lon="7.00246">
        <ele>851.8654785</ele>
        <time>2011-07-24T11:49:58Z</time>
      </trkpt>
      <trkpt lat="43.76245" lon="7.00237">
        <ele>851.3847656</ele>
        <time>2011-07-24T11:50:03Z</time>
      </trkpt>
      <trkpt lat="43.76255" lon="7.00226">
        <ele>851.8654785</ele>
        <time>2011-07-24T11:50:08Z</time>
      </trkpt>
      <trkpt lat="43.76261" lon="7.00218">
        <ele>852.3459473</ele>
        <time>2011-07-24T11:50:13Z</time>
      </trkpt>
      <trkpt lat="43.76267" lon="7.00215">
        <ele>852.8266602</ele>
        <time>2011-07-24T11:50:18Z</time>
      </trkpt>
      <trkpt lat="43.76269" lon="7.00215">
        <ele>852.8266602</ele>
        <time>2011-07-24T11:50:20Z</time>
      </trkpt>
      <trkpt lat="43.76276" lon="7.00208">
        <ele>852.8266602</ele>
        <time>2011-07-24T11:50:28Z</time>
      </trkpt>
      <trkpt lat="43.76278" lon="7.00205">
        <ele>851.3847656</ele>
        <time>2011-07-24T11:50:33Z</time>
      </trkpt>
      <trkpt lat="43.76281" lon="7.00203">
        <ele>851.3847656</ele>
        <time>2011-07-24T11:50:37Z</time>
      </trkpt>
      <trkpt lat="43.76294" lon="7.00192">
        <ele>852.8266602</ele>
        <time>2011-07-24T11:50:45Z</time>
      </trkpt>
      <trkpt lat="43.76304" lon="7.00186">
        <ele>852.8266602</ele>
        <time>2011-07-24T11:50:51Z</time>
      </trkpt>
      <trkpt lat="43.76316" lon="7.00179">
        <ele>852.3459473</ele>
        <time>2011-07-24T11:50:58Z</time>
      </trkpt>
      <trkpt lat="43.76329" lon="7.0017">
        <ele>851.8654785</ele>
        <time>2011-07-24T11:51:04Z</time>
      </trkpt>
      <trkpt lat="43.76338" lon="7.00158">
        <ele>851.3847656</ele>
        <time>2011-07-24T11:51:11Z</time>
      </trkpt>
      <trkpt lat="43.76343" lon="7.00153">
        <ele>852.3459473</ele>
        <time>2011-07-24T11:51:17Z</time>
      </trkpt>
      <trkpt lat="43.76348" lon="7.0015">
        <ele>853.7880859</ele>
        <time>2011-07-24T11:51:22Z</time>
      </trkpt>
      <trkpt lat="43.76352" lon="7.0015">
        <ele>855.2299805</ele>
        <time>2011-07-24T11:51:29Z</time>
      </trkpt>
      <trkpt lat="43.76355" lon="7.00147">
        <ele>855.2299805</ele>
        <time>2011-07-24T11:51:32Z</time>
      </trkpt>
      <trkpt lat="43.76361" lon="7.00141">
        <ele>855.2299805</ele>
        <time>2011-07-24T11:51:38Z</time>
      </trkpt>
      <trkpt lat="43.76363" lon="7.0014">
        <ele>855.2299805</ele>
        <time>2011-07-24T11:51:43Z</time>
      </trkpt>
      <trkpt lat="43.76366" lon="7.00139">
        <ele>855.7106934</ele>
        <time>2011-07-24T11:51:49Z</time>
      </trkpt>
      <trkpt lat="43.7637" lon="7.00135">
        <ele>856.1911621</ele>
        <time>2011-07-24T11:51:54Z</time>
      </trkpt>
      <trkpt lat="43.76376" lon="7.00126">
        <ele>857.6333008</ele>
        <time>2011-07-24T11:51:59Z</time>
      </trkpt>
      <trkpt lat="43.76379" lon="7.00121">
        <ele>858.1140137</ele>
        <time>2011-07-24T11:52:04Z</time>
      </trkpt>
      <trkpt lat="43.76382" lon="7.00116">
        <ele>858.1140137</ele>
        <time>2011-07-24T11:52:11Z</time>
      </trkpt>
      <trkpt lat="43.76386" lon="7.00112">
        <ele>859.0751953</ele>
        <time>2011-07-24T11:52:16Z</time>
      </trkpt>
      <trkpt lat="43.76394" lon="7.00102">
        <ele>859.5559082</ele>
        <time>2011-07-24T11:52:23Z</time>
      </trkpt>
      <trkpt lat="43.76395" lon="7.00101">
        <ele>860.0366211</ele>
        <time>2011-07-24T11:52:24Z</time>
      </trkpt>
      <trkpt lat="43.76404" lon="7.00091">
        <ele>860.517334</ele>
        <time>2011-07-24T11:52:32Z</time>
      </trkpt>
      <trkpt lat="43.76406" lon="7.00084">
        <ele>860.9980469</ele>
        <time>2011-07-24T11:52:38Z</time>
      </trkpt>
      <trkpt lat="43.76408" lon="7.0008">
        <ele>861.9594727</ele>
        <time>2011-07-24T11:52:44Z</time>
      </trkpt>
      <trkpt lat="43.76408" lon="7.00079">
        <ele>862.4399414</ele>
        <time>2011-07-24T11:52:49Z</time>
      </trkpt>
      <trkpt lat="43.76408" lon="7.00074">
        <ele>863.8818359</ele>
        <time>2011-07-24T11:52:56Z</time>
      </trkpt>
      <trkpt lat="43.76409" lon="7.00063">
        <ele>865.3239746</ele>
        <time>2011-07-24T11:53:05Z</time>
      </trkpt>
      <trkpt lat="43.7641" lon="7.00052">
        <ele>867.246582</ele>
        <time>2011-07-24T11:53:14Z</time>
      </trkpt>
      <trkpt lat="43.76412" lon="7.00045">
        <ele>868.2077637</ele>
        <time>2011-07-24T11:53:22Z</time>
      </trkpt>
      <trkpt lat="43.76414" lon="7.00039">
        <ele>868.2077637</ele>
        <time>2011-07-24T11:53:27Z</time>
      </trkpt>
      <trkpt lat="43.76417" lon="7.00025">
        <ele>869.6499023</ele>
        <time>2011-07-24T11:53:34Z</time>
      </trkpt>
      <trkpt lat="43.76418" lon="7.00011">
        <ele>870.611084</ele>
        <time>2011-07-24T11:53:41Z</time>
      </trkpt>
      <trkpt lat="43.7642" lon="6.99996">
        <ele>871.0917969</ele>
        <time>2011-07-24T11:53:49Z</time>
      </trkpt>
      <trkpt lat="43.76422" lon="6.99989">
        <ele>871.0917969</ele>
        <time>2011-07-24T11:53:52Z</time>
      </trkpt>
      <trkpt lat="43.76422" lon="6.99979">
        <ele>870.611084</ele>
        <time>2011-07-24T11:53:56Z</time>
      </trkpt>
      <trkpt lat="43.76424" lon="6.99967">
        <ele>871.0917969</ele>
        <time>2011-07-24T11:54:01Z</time>
      </trkpt>
      <trkpt lat="43.76422" lon="6.99958">
        <ele>871.5722656</ele>
        <time>2011-07-24T11:54:05Z</time>
      </trkpt>
      <trkpt lat="43.76426" lon="6.99949">
        <ele>873.0144043</ele>
        <time>2011-07-24T11:54:10Z</time>
      </trkpt>
      <trkpt lat="43.76434" lon="6.99942">
        <ele>873.9755859</ele>
        <time>2011-07-24T11:54:16Z</time>
      </trkpt>
      <trkpt lat="43.76437" lon="6.99939">
        <ele>873.9755859</ele>
        <time>2011-07-24T11:54:18Z</time>
      </trkpt>
      <trkpt lat="43.76441" lon="6.99932">
        <ele>875.4174805</ele>
        <time>2011-07-24T11:54:23Z</time>
      </trkpt>
      <trkpt lat="43.76443" lon="6.9993">
        <ele>875.8981934</ele>
        <time>2011-07-24T11:54:27Z</time>
      </trkpt>
      <trkpt lat="43.76445" lon="6.99928">
        <ele>875.8981934</ele>
        <time>2011-07-24T11:54:34Z</time>
      </trkpt>
      <trkpt lat="43.76448" lon="6.99925">
        <ele>876.3791504</ele>
        <time>2011-07-24T11:54:41Z</time>
      </trkpt>
      <trkpt lat="43.76455" lon="6.99922">
        <ele>876.8598633</ele>
        <time>2011-07-24T11:54:50Z</time>
      </trkpt>
      <trkpt lat="43.76459" lon="6.99918">
        <ele>877.3405762</ele>
        <time>2011-07-24T11:54:57Z</time>
      </trkpt>
      <trkpt lat="43.76463" lon="6.99916">
        <ele>877.8210449</ele>
        <time>2011-07-24T11:55:04Z</time>
      </trkpt>
      <trkpt lat="43.76465" lon="6.99913">
        <ele>878.3017578</ele>
        <time>2011-07-24T11:55:12Z</time>
      </trkpt>
      <trkpt lat="43.76465" lon="6.99913">
        <ele>878.7824707</ele>
        <time>2011-07-24T11:55:20Z</time>
      </trkpt>
      <trkpt lat="43.76466" lon="6.99911">
        <ele>878.7824707</ele>
        <time>2011-07-24T11:55:27Z</time>
      </trkpt>
      <trkpt lat="43.76469" lon="6.9991">
        <ele>878.7824707</ele>
        <time>2011-07-24T11:55:35Z</time>
      </trkpt>
      <trkpt lat="43.76473" lon="6.99915">
        <ele>878.7824707</ele>
        <time>2011-07-24T11:55:40Z</time>
      </trkpt>
      <trkpt lat="43.76479" lon="6.99922">
        <ele>878.7824707</ele>
        <time>2011-07-24T11:55:46Z</time>
      </trkpt>
      <trkpt lat="43.7649" lon="6.99932">
        <ele>878.7824707</ele>
        <time>2011-07-24T11:55:53Z</time>
      </trkpt>
      <trkpt lat="43.765" lon="6.99942">
        <ele>879.2629395</ele>
        <time>2011-07-24T11:56:00Z</time>
      </trkpt>
      <trkpt lat="43.76505" lon="6.99947">
        <ele>879.2629395</ele>
        <time>2011-07-24T11:56:03Z</time>
      </trkpt>
      <trkpt lat="43.76515" lon="6.99944">
        <ele>880.2243652</ele>
        <time>2011-07-24T11:56:09Z</time>
      </trkpt>
      <trkpt lat="43.76528" lon="6.99942">
        <ele>880.2243652</ele>
        <time>2011-07-24T11:56:17Z</time>
      </trkpt>
      <trkpt lat="43.76541" lon="6.99941">
        <ele>880.7050781</ele>
        <time>2011-07-24T11:56:23Z</time>
      </trkpt>
      <trkpt lat="43.76558" lon="6.99938">
        <ele>881.185791</ele>
        <time>2011-07-24T11:56:31Z</time>
      </trkpt>
      <trkpt lat="43.76578" lon="6.99936">
        <ele>882.1469727</ele>
        <time>2011-07-24T11:56:39Z</time>
      </trkpt>
      <trkpt lat="43.76593" lon="6.99935">
        <ele>881.6662598</ele>
        <time>2011-07-24T11:56:45Z</time>
      </trkpt>
      <trkpt lat="43.7662" lon="6.99934">
        <ele>882.6276855</ele>
        <time>2011-07-24T11:56:54Z</time>
      </trkpt>
      <trkpt lat="43.76639" lon="6.99932">
        <ele>882.1469727</ele>
        <time>2011-07-24T11:57:00Z</time>
      </trkpt>
      <trkpt lat="43.7666" lon="6.99936">
        <ele>882.1469727</ele>
        <time>2011-07-24T11:57:06Z</time>
      </trkpt>
      <trkpt lat="43.76682" lon="6.9993">
        <ele>881.185791</ele>
        <time>2011-07-24T11:57:12Z</time>
      </trkpt>
      <trkpt lat="43.76706" lon="6.99925">
        <ele>882.1469727</ele>
        <time>2011-07-24T11:57:18Z</time>
      </trkpt>
      <trkpt lat="43.76729" lon="6.99919">
        <ele>882.1469727</ele>
        <time>2011-07-24T11:57:25Z</time>
      </trkpt>
      <trkpt lat="43.76749" lon="6.99918">
        <ele>881.6662598</ele>
        <time>2011-07-24T11:57:32Z</time>
      </trkpt>
      <trkpt lat="43.76753" lon="6.99916">
        <ele>881.6662598</ele>
        <time>2011-07-24T11:57:34Z</time>
      </trkpt>
      <trkpt lat="43.76759" lon="6.99894">
        <ele>880.2243652</ele>
        <time>2011-07-24T11:57:39Z</time>
      </trkpt>
      <trkpt lat="43.7677" lon="6.99885">
        <ele>879.7436523</ele>
        <time>2011-07-24T11:57:42Z</time>
      </trkpt>
      <trkpt lat="43.76781" lon="6.99886">
        <ele>880.2243652</ele>
        <time>2011-07-24T11:57:46Z</time>
      </trkpt>
      <trkpt lat="43.76795" lon="6.99885">
        <ele>881.185791</ele>
        <time>2011-07-24T11:57:52Z</time>
      </trkpt>
      <trkpt lat="43.76807" lon="6.99882">
        <ele>881.6662598</ele>
        <time>2011-07-24T11:57:56Z</time>
      </trkpt>
      <trkpt lat="43.76825" lon="6.99874">
        <ele>881.6662598</ele>
        <time>2011-07-24T11:58:03Z</time>
      </trkpt>
      <trkpt lat="43.76844" lon="6.99867">
        <ele>881.185791</ele>
        <time>2011-07-24T11:58:08Z</time>
      </trkpt>
      <trkpt lat="43.7686" lon="6.99863">
        <ele>880.7050781</ele>
        <time>2011-07-24T11:58:13Z</time>
      </trkpt>
      <trkpt lat="43.76881" lon="6.99848">
        <ele>879.2629395</ele>
        <time>2011-07-24T11:58:19Z</time>
      </trkpt>
      <trkpt lat="43.76897" lon="6.99841">
        <ele>878.3017578</ele>
        <time>2011-07-24T11:58:23Z</time>
      </trkpt>
      <trkpt lat="43.76898" lon="6.99828">
        <ele>877.3405762</ele>
        <time>2011-07-24T11:58:27Z</time>
      </trkpt>
      <trkpt lat="43.76892" lon="6.99824">
        <ele>876.8598633</ele>
        <time>2011-07-24T11:58:31Z</time>
      </trkpt>
      <trkpt lat="43.76876" lon="6.9981">
        <ele>873.4951172</ele>
        <time>2011-07-24T11:58:36Z</time>
      </trkpt>
      <trkpt lat="43.76858" lon="6.998">
        <ele>870.1303711</ele>
        <time>2011-07-24T11:58:40Z</time>
      </trkpt>
      <trkpt lat="43.76852" lon="6.99796">
        <ele>868.6884766</ele>
        <time>2011-07-24T11:58:42Z</time>
      </trkpt>
      <trkpt lat="43.76841" lon="6.99792">
        <ele>866.7658691</ele>
        <time>2011-07-24T11:58:46Z</time>
      </trkpt>
      <trkpt lat="43.7684" lon="6.99791">
        <ele>866.2851563</ele>
        <time>2011-07-24T11:58:51Z</time>
      </trkpt>
      <trkpt lat="43.76821" lon="6.9978">
        <ele>863.4013672</ele>
        <time>2011-07-24T11:58:57Z</time>
      </trkpt>
      <trkpt lat="43.76801" lon="6.9977">
        <ele>860.517334</ele>
        <time>2011-07-24T11:59:01Z</time>
      </trkpt>
      <trkpt lat="43.76786" lon="6.99765">
        <ele>857.1525879</ele>
        <time>2011-07-24T11:59:04Z</time>
      </trkpt>
      <trkpt lat="43.76768" lon="6.99748">
        <ele>851.8654785</ele>
        <time>2011-07-24T11:59:09Z</time>
      </trkpt>
      <trkpt lat="43.7675" lon="6.99744">
        <ele>848.0202637</ele>
        <time>2011-07-24T11:59:13Z</time>
      </trkpt>
      <trkpt lat="43.76745" lon="6.99745">
        <ele>847.0588379</ele>
        <time>2011-07-24T11:59:14Z</time>
      </trkpt>
      <trkpt lat="43.76728" lon="6.9974">
        <ele>843.2133789</ele>
        <time>2011-07-24T11:59:18Z</time>
      </trkpt>
      <trkpt lat="43.76707" lon="6.9973">
        <ele>838.4069824</ele>
        <time>2011-07-24T11:59:23Z</time>
      </trkpt>
      <trkpt lat="43.76702" lon="6.99727">
        <ele>837.9262695</ele>
        <time>2011-07-24T11:59:24Z</time>
      </trkpt>
      <trkpt lat="43.76684" lon="6.99719">
        <ele>834.0810547</ele>
        <time>2011-07-24T11:59:28Z</time>
      </trkpt>
      <trkpt lat="43.7666" lon="6.99713">
        <ele>829.2744141</ele>
        <time>2011-07-24T11:59:33Z</time>
      </trkpt>
      <trkpt lat="43.76643" lon="6.99702">
        <ele>825.4289551</ele>
        <time>2011-07-24T11:59:38Z</time>
      </trkpt>
      <trkpt lat="43.76634" lon="6.99695">
        <ele>823.0258789</ele>
        <time>2011-07-24T11:59:41Z</time>
      </trkpt>
      <trkpt lat="43.76616" lon="6.99681">
        <ele>818.6999512</ele>
        <time>2011-07-24T11:59:47Z</time>
      </trkpt>
      <trkpt lat="43.76602" lon="6.99671">
        <ele>816.2966309</ele>
        <time>2011-07-24T11:59:51Z</time>
      </trkpt>
      <trkpt lat="43.76587" lon="6.99656">
        <ele>812.451416</ele>
        <time>2011-07-24T11:59:56Z</time>
      </trkpt>
      <trkpt lat="43.7657" lon="6.99643">
        <ele>809.0866699</ele>
        <time>2011-07-24T12:00:01Z</time>
      </trkpt>
      <trkpt lat="43.76554" lon="6.99632">
        <ele>805.722168</ele>
        <time>2011-07-24T12:00:05Z</time>
      </trkpt>
      <trkpt lat="43.76539" lon="6.99611">
        <ele>800.9155273</ele>
        <time>2011-07-24T12:00:11Z</time>
      </trkpt>
      <trkpt lat="43.76529" lon="6.99601">
        <ele>798.9929199</ele>
        <time>2011-07-24T12:00:14Z</time>
      </trkpt>
      <trkpt lat="43.76513" lon="6.9959">
        <ele>796.5898438</ele>
        <time>2011-07-24T12:00:19Z</time>
      </trkpt>
      <trkpt lat="43.76515" lon="6.99586">
        <ele>794.666748</ele>
        <time>2011-07-24T12:00:24Z</time>
      </trkpt>
      <trkpt lat="43.76527" lon="6.99584">
        <ele>791.782959</ele>
        <time>2011-07-24T12:00:29Z</time>
      </trkpt>
      <trkpt lat="43.76531" lon="6.99578">
        <ele>789.8603516</ele>
        <time>2011-07-24T12:00:33Z</time>
      </trkpt>
      <trkpt lat="43.76534" lon="6.99567">
        <ele>786.4958496</ele>
        <time>2011-07-24T12:00:38Z</time>
      </trkpt>
      <trkpt lat="43.76534" lon="6.99567">
        <ele>785.5344238</ele>
        <time>2011-07-24T12:00:42Z</time>
      </trkpt>
      <trkpt lat="43.76533" lon="6.99569">
        <ele>786.4958496</ele>
        <time>2011-07-24T12:00:46Z</time>
      </trkpt>
      <trkpt lat="43.76532" lon="6.99572">
        <ele>787.4570313</ele>
        <time>2011-07-24T12:00:51Z</time>
      </trkpt>
      <trkpt lat="43.76531" lon="6.9957">
        <ele>789.3796387</ele>
        <time>2011-07-24T12:01:09Z</time>
      </trkpt>
      <trkpt lat="43.76531" lon="6.9957">
        <ele>789.8603516</ele>
        <time>2011-07-24T12:01:24Z</time>
      </trkpt>
      <trkpt lat="43.76532" lon="6.99569">
        <ele>791.782959</ele>
        <time>2011-07-24T12:01:29Z</time>
      </trkpt>
      <trkpt lat="43.76532" lon="6.99569">
        <ele>792.7443848</ele>
        <time>2011-07-24T12:01:33Z</time>
      </trkpt>
      <trkpt lat="43.76533" lon="6.99569">
        <ele>793.2248535</ele>
        <time>2011-07-24T12:01:38Z</time>
      </trkpt>
      <trkpt lat="43.76533" lon="6.99569">
        <ele>793.2248535</ele>
        <time>2011-07-24T12:01:42Z</time>
      </trkpt>
      <trkpt lat="43.76534" lon="6.99569">
        <ele>793.2248535</ele>
        <time>2011-07-24T12:01:49Z</time>
      </trkpt>
      <trkpt lat="43.76532" lon="6.99567">
        <ele>795.1474609</ele>
        <time>2011-07-24T12:02:07Z</time>
      </trkpt>
      <trkpt lat="43.76532" lon="6.99567">
        <ele>795.1474609</ele>
        <time>2011-07-24T12:02:26Z</time>
      </trkpt>
      <trkpt lat="43.76532" lon="6.99567">
        <ele>794.1862793</ele>
        <time>2011-07-24T12:02:35Z</time>
      </trkpt>
      <trkpt lat="43.76531" lon="6.99569">
        <ele>792.7443848</ele>
        <time>2011-07-24T12:02:46Z</time>
      </trkpt>
      <trkpt lat="43.76531" lon="6.99568">
        <ele>792.2636719</ele>
        <time>2011-07-24T12:02:55Z</time>
      </trkpt>
      <trkpt lat="43.7653" lon="6.99566">
        <ele>792.2636719</ele>
        <time>2011-07-24T12:02:58Z</time>
      </trkpt>
      <trkpt lat="43.76532" lon="6.99565">
        <ele>791.3022461</ele>
        <time>2011-07-24T12:03:02Z</time>
      </trkpt>
      <trkpt lat="43.76534" lon="6.99564">
        <ele>790.8215332</ele>
        <time>2011-07-24T12:03:07Z</time>
      </trkpt>
      <trkpt lat="43.76532" lon="6.99563">
        <ele>790.3410645</ele>
        <time>2011-07-24T12:03:11Z</time>
      </trkpt>
      <trkpt lat="43.76533" lon="6.99562">
        <ele>790.3410645</ele>
        <time>2011-07-24T12:03:12Z</time>
      </trkpt>
      <trkpt lat="43.76545" lon="6.99558">
        <ele>788.418457</ele>
        <time>2011-07-24T12:03:18Z</time>
      </trkpt>
      <trkpt lat="43.76555" lon="6.99552">
        <ele>784.5732422</ele>
        <time>2011-07-24T12:03:23Z</time>
      </trkpt>
      <trkpt lat="43.76559" lon="6.9955">
        <ele>782.6506348</ele>
        <time>2011-07-24T12:03:26Z</time>
      </trkpt>
      <trkpt lat="43.76562" lon="6.99544">
        <ele>781.2087402</ele>
        <time>2011-07-24T12:03:30Z</time>
      </trkpt>
      <trkpt lat="43.76556" lon="6.99542">
        <ele>780.7280273</ele>
        <time>2011-07-24T12:03:34Z</time>
      </trkpt>
      <trkpt lat="43.76555" lon="6.9954">
        <ele>781.2087402</ele>
        <time>2011-07-24T12:03:39Z</time>
      </trkpt>
      <trkpt lat="43.76555" lon="6.99538">
        <ele>782.6506348</ele>
        <time>2011-07-24T12:03:44Z</time>
      </trkpt>
      <trkpt lat="43.76555" lon="6.99538">
        <ele>783.6118164</ele>
        <time>2011-07-24T12:03:53Z</time>
      </trkpt>
      <trkpt lat="43.76554" lon="6.99538">
        <ele>784.0925293</ele>
        <time>2011-07-24T12:03:58Z</time>
      </trkpt>
      <trkpt lat="43.76554" lon="6.99538">
        <ele>783.6118164</ele>
        <time>2011-07-24T12:04:12Z</time>
      </trkpt>
      <trkpt lat="43.76554" lon="6.99538">
        <ele>783.6118164</ele>
        <time>2011-07-24T12:04:16Z</time>
      </trkpt>
      <trkpt lat="43.76554" lon="6.99538">
        <ele>783.6118164</ele>
        <time>2011-07-24T12:04:18Z</time>
      </trkpt>
      <trkpt lat="43.76554" lon="6.99538">
        <ele>783.6118164</ele>
        <time>2011-07-24T12:04:19Z</time>
      </trkpt>
      <trkpt lat="43.76554" lon="6.99538">
        <ele>783.6118164</ele>
        <time>2011-07-24T12:04:20Z</time>
      </trkpt>
      <trkpt lat="43.76553" lon="6.99537">
        <ele>782.6506348</ele>
        <time>2011-07-24T12:04:22Z</time>
      </trkpt>
      <trkpt lat="43.76546" lon="6.9953">
        <ele>780.7280273</ele>
        <time>2011-07-24T12:04:26Z</time>
      </trkpt>
      <trkpt lat="43.76542" lon="6.99526">
        <ele>778.8051758</ele>
        <time>2011-07-24T12:04:30Z</time>
      </trkpt>
      <trkpt lat="43.76539" lon="6.9952">
        <ele>775.9211426</ele>
        <time>2011-07-24T12:04:35Z</time>
      </trkpt>
      <trkpt lat="43.7654" lon="6.99519">
        <ele>774.9599609</ele>
        <time>2011-07-24T12:04:38Z</time>
      </trkpt>
      <trkpt lat="43.76541" lon="6.99518">
        <ele>773.9985352</ele>
        <time>2011-07-24T12:04:41Z</time>
      </trkpt>
      <trkpt lat="43.7654" lon="6.99515">
        <ele>772.5566406</ele>
        <time>2011-07-24T12:04:43Z</time>
      </trkpt>
      <trkpt lat="43.76538" lon="6.99513">
        <ele>772.0759277</ele>
        <time>2011-07-24T12:04:48Z</time>
      </trkpt>
      <trkpt lat="43.76537" lon="6.99511">
        <ele>771.1147461</ele>
        <time>2011-07-24T12:04:55Z</time>
      </trkpt>
      <trkpt lat="43.76535" lon="6.9951">
        <ele>770.6340332</ele>
        <time>2011-07-24T12:05:04Z</time>
      </trkpt>
      <trkpt lat="43.76535" lon="6.99509">
        <ele>771.5952148</ele>
        <time>2011-07-24T12:05:12Z</time>
      </trkpt>
      <trkpt lat="43.76535" lon="6.99511">
        <ele>771.1147461</ele>
        <time>2011-07-24T12:05:33Z</time>
      </trkpt>
      <trkpt lat="43.76535" lon="6.99508">
        <ele>770.6340332</ele>
        <time>2011-07-24T12:05:41Z</time>
      </trkpt>
      <trkpt lat="43.76525" lon="6.99498">
        <ele>767.75</ele>
        <time>2011-07-24T12:05:47Z</time>
      </trkpt>
      <trkpt lat="43.76516" lon="6.99489">
        <ele>765.3469238</ele>
        <time>2011-07-24T12:05:52Z</time>
      </trkpt>
      <trkpt lat="43.76513" lon="6.99486">
        <ele>763.904541</ele>
        <time>2011-07-24T12:05:54Z</time>
      </trkpt>
      <trkpt lat="43.76506" lon="6.99474">
        <ele>760.0593262</ele>
        <time>2011-07-24T12:05:59Z</time>
      </trkpt>
      <trkpt lat="43.76503" lon="6.9947">
        <ele>758.6174316</ele>
        <time>2011-07-24T12:06:03Z</time>
      </trkpt>
      <trkpt lat="43.76503" lon="6.99468">
        <ele>758.1369629</ele>
        <time>2011-07-24T12:06:05Z</time>
      </trkpt>
      <trkpt lat="43.76506" lon="6.99467">
        <ele>757.1755371</ele>
        <time>2011-07-24T12:06:08Z</time>
      </trkpt>
      <trkpt lat="43.76517" lon="6.99464">
        <ele>752.8496094</ele>
        <time>2011-07-24T12:06:14Z</time>
      </trkpt>
      <trkpt lat="43.76538" lon="6.99451">
        <ele>745.1589355</ele>
        <time>2011-07-24T12:06:21Z</time>
      </trkpt>
      <trkpt lat="43.76549" lon="6.99443">
        <ele>742.7558594</ele>
        <time>2011-07-24T12:06:24Z</time>
      </trkpt>
      <trkpt lat="43.76563" lon="6.99438">
        <ele>740.3525391</ele>
        <time>2011-07-24T12:06:28Z</time>
      </trkpt>
      <trkpt lat="43.76574" lon="6.99435">
        <ele>737.4685059</ele>
        <time>2011-07-24T12:06:33Z</time>
      </trkpt>
      <trkpt lat="43.76569" lon="6.99426">
        <ele>736.987793</ele>
        <time>2011-07-24T12:06:37Z</time>
      </trkpt>
      <trkpt lat="43.76555" lon="6.9942">
        <ele>736.0266113</ele>
        <time>2011-07-24T12:06:42Z</time>
      </trkpt>
      <trkpt lat="43.76536" lon="6.99415">
        <ele>734.5847168</ele>
        <time>2011-07-24T12:06:48Z</time>
      </trkpt>
      <trkpt lat="43.76522" lon="6.99405">
        <ele>732.6621094</ele>
        <time>2011-07-24T12:06:53Z</time>
      </trkpt>
      <trkpt lat="43.76508" lon="6.99391">
        <ele>729.777832</ele>
        <time>2011-07-24T12:06:58Z</time>
      </trkpt>
      <trkpt lat="43.76508" lon="6.99389">
        <ele>728.8166504</ele>
        <time>2011-07-24T12:07:01Z</time>
      </trkpt>
      <trkpt lat="43.76517" lon="6.99388">
        <ele>725.4519043</ele>
        <time>2011-07-24T12:07:06Z</time>
      </trkpt>
      <trkpt lat="43.76521" lon="6.99386">
        <ele>724.0100098</ele>
        <time>2011-07-24T12:07:07Z</time>
      </trkpt>
      <trkpt lat="43.76544" lon="6.99367">
        <ele>717.7614746</ele>
        <time>2011-07-24T12:07:12Z</time>
      </trkpt>
      <trkpt lat="43.76553" lon="6.99363">
        <ele>715.3581543</ele>
        <time>2011-07-24T12:07:15Z</time>
      </trkpt>
      <trkpt lat="43.76555" lon="6.99361">
        <ele>714.3967285</ele>
        <time>2011-07-24T12:07:17Z</time>
      </trkpt>
      <trkpt lat="43.7655" lon="6.99357">
        <ele>713.4355469</ele>
        <time>2011-07-24T12:07:20Z</time>
      </trkpt>
      <trkpt lat="43.7654" lon="6.99356">
        <ele>712.4741211</ele>
        <time>2011-07-24T12:07:24Z</time>
      </trkpt>
      <trkpt lat="43.76541" lon="6.99349">
        <ele>710.0708008</ele>
        <time>2011-07-24T12:07:28Z</time>
      </trkpt>
      <trkpt lat="43.76543" lon="6.99348">
        <ele>709.1096191</ele>
        <time>2011-07-24T12:07:31Z</time>
      </trkpt>
      <trkpt lat="43.76544" lon="6.99347">
        <ele>708.6289063</ele>
        <time>2011-07-24T12:07:32Z</time>
      </trkpt>
      <trkpt lat="43.76548" lon="6.99347">
        <ele>708.6289063</ele>
        <time>2011-07-24T12:07:37Z</time>
      </trkpt>
      <trkpt lat="43.76547" lon="6.99348">
        <ele>707.6677246</ele>
        <time>2011-07-24T12:07:45Z</time>
      </trkpt>
      <trkpt lat="43.76548" lon="6.99349">
        <ele>709.1096191</ele>
        <time>2011-07-24T12:08:00Z</time>
      </trkpt>
      <trkpt lat="43.76549" lon="6.99349">
        <ele>710.0708008</ele>
        <time>2011-07-24T12:08:10Z</time>
      </trkpt>
      <trkpt lat="43.76551" lon="6.99349">
        <ele>710.0708008</ele>
        <time>2011-07-24T12:08:13Z</time>
      </trkpt>
      <trkpt lat="43.76552" lon="6.99349">
        <ele>710.5515137</ele>
        <time>2011-07-24T12:08:15Z</time>
      </trkpt>
      <trkpt lat="43.76551" lon="6.99349">
        <ele>711.5129395</ele>
        <time>2011-07-24T12:08:20Z</time>
      </trkpt>
      <trkpt lat="43.76553" lon="6.99344">
        <ele>712.4741211</ele>
        <time>2011-07-24T12:08:33Z</time>
      </trkpt>
      <trkpt lat="43.76563" lon="6.99345">
        <ele>711.0322266</ele>
        <time>2011-07-24T12:08:37Z</time>
      </trkpt>
      <trkpt lat="43.76566" lon="6.99345">
        <ele>709.590332</ele>
        <time>2011-07-24T12:08:40Z</time>
      </trkpt>
      <trkpt lat="43.76568" lon="6.99344">
        <ele>708.1484375</ele>
        <time>2011-07-24T12:08:43Z</time>
      </trkpt>
      <trkpt lat="43.76568" lon="6.99344">
        <ele>707.6677246</ele>
        <time>2011-07-24T12:08:44Z</time>
      </trkpt>
      <trkpt lat="43.7656" lon="6.99336">
        <ele>706.2255859</ele>
        <time>2011-07-24T12:08:48Z</time>
      </trkpt>
      <trkpt lat="43.76553" lon="6.99323">
        <ele>704.7836914</ele>
        <time>2011-07-24T12:08:52Z</time>
      </trkpt>
      <trkpt lat="43.76532" lon="6.99316">
        <ele>700.4580078</ele>
        <time>2011-07-24T12:08:58Z</time>
      </trkpt>
      <trkpt lat="43.76518" lon="6.99315">
        <ele>696.1318359</ele>
        <time>2011-07-24T12:09:03Z</time>
      </trkpt>
      <trkpt lat="43.765" lon="6.99301">
        <ele>690.8444824</ele>
        <time>2011-07-24T12:09:09Z</time>
      </trkpt>
      <trkpt lat="43.76491" lon="6.99294">
        <ele>687.9606934</ele>
        <time>2011-07-24T12:09:13Z</time>
      </trkpt>
      <trkpt lat="43.76478" lon="6.99288">
        <ele>684.5961914</ele>
        <time>2011-07-24T12:09:18Z</time>
      </trkpt>
      <trkpt lat="43.76474" lon="6.99286">
        <ele>683.1538086</ele>
        <time>2011-07-24T12:09:20Z</time>
      </trkpt>
      <trkpt lat="43.7647" lon="6.99284">
        <ele>681.7119141</ele>
        <time>2011-07-24T12:09:22Z</time>
      </trkpt>
      <trkpt lat="43.76467" lon="6.99281">
        <ele>680.7507324</ele>
        <time>2011-07-24T12:09:27Z</time>
      </trkpt>
      <trkpt lat="43.7647" lon="6.99279">
        <ele>677.8666992</ele>
        <time>2011-07-24T12:09:32Z</time>
      </trkpt>
      <trkpt lat="43.76482" lon="6.99273">
        <ele>671.1376953</ele>
        <time>2011-07-24T12:09:39Z</time>
      </trkpt>
      <trkpt lat="43.76482" lon="6.99273">
        <ele>671.1376953</ele>
        <time>2011-07-24T12:09:40Z</time>
      </trkpt>
      <trkpt lat="43.76479" lon="6.9926">
        <ele>665.8503418</ele>
        <time>2011-07-24T12:09:45Z</time>
      </trkpt>
      <trkpt lat="43.76473" lon="6.99249">
        <ele>663.4470215</ele>
        <time>2011-07-24T12:09:49Z</time>
      </trkpt>
      <trkpt lat="43.76471" lon="6.99247">
        <ele>662.4855957</ele>
        <time>2011-07-24T12:09:53Z</time>
      </trkpt>
      <trkpt lat="43.76471" lon="6.99248">
        <ele>662.9663086</ele>
        <time>2011-07-24T12:10:02Z</time>
      </trkpt>
      <trkpt lat="43.76472" lon="6.9925">
        <ele>662.4855957</ele>
        <time>2011-07-24T12:10:22Z</time>
      </trkpt>
      <trkpt lat="43.76472" lon="6.9925">
        <ele>662.4855957</ele>
        <time>2011-07-24T12:10:27Z</time>
      </trkpt>
      <trkpt lat="43.76472" lon="6.9925">
        <ele>662.4855957</ele>
        <time>2011-07-24T12:10:29Z</time>
      </trkpt>
      <trkpt lat="43.76471" lon="6.9925">
        <ele>662.4855957</ele>
        <time>2011-07-24T12:10:37Z</time>
      </trkpt>
      <trkpt lat="43.76472" lon="6.99249">
        <ele>661.5244141</ele>
        <time>2011-07-24T12:10:42Z</time>
      </trkpt>
      <trkpt lat="43.7646" lon="6.99243">
        <ele>659.6018066</ele>
        <time>2011-07-24T12:10:47Z</time>
      </trkpt>
      <trkpt lat="43.76459" lon="6.99236">
        <ele>658.1599121</ele>
        <time>2011-07-24T12:10:51Z</time>
      </trkpt>
      <trkpt lat="43.76462" lon="6.99233">
        <ele>656.7177734</ele>
        <time>2011-07-24T12:10:53Z</time>
      </trkpt>
      <trkpt lat="43.76473" lon="6.99215">
        <ele>649.9885254</ele>
        <time>2011-07-24T12:11:00Z</time>
      </trkpt>
      <trkpt lat="43.76475" lon="6.99212">
        <ele>649.5078125</ele>
        <time>2011-07-24T12:11:01Z</time>
      </trkpt>
      <trkpt lat="43.76473" lon="6.99199">
        <ele>647.5852051</ele>
        <time>2011-07-24T12:11:06Z</time>
      </trkpt>
      <trkpt lat="43.76472" lon="6.99187">
        <ele>643.2592773</ele>
        <time>2011-07-24T12:11:11Z</time>
      </trkpt>
      <trkpt lat="43.76476" lon="6.9918">
        <ele>641.3366699</ele>
        <time>2011-07-24T12:11:13Z</time>
      </trkpt>
      <trkpt lat="43.76467" lon="6.99169">
        <ele>638.4528809</ele>
        <time>2011-07-24T12:11:18Z</time>
      </trkpt>
      <trkpt lat="43.76467" lon="6.99164">
        <ele>635.0881348</ele>
        <time>2011-07-24T12:11:21Z</time>
      </trkpt>
      <trkpt lat="43.76469" lon="6.99156">
        <ele>631.7233887</ele>
        <time>2011-07-24T12:11:23Z</time>
      </trkpt>
      <trkpt lat="43.7648" lon="6.99132">
        <ele>625.9555664</ele>
        <time>2011-07-24T12:11:28Z</time>
      </trkpt>
      <trkpt lat="43.76485" lon="6.99132">
        <ele>624.032959</ele>
        <time>2011-07-24T12:11:32Z</time>
      </trkpt>
      <trkpt lat="43.7648" lon="6.99117">
        <ele>622.5910645</ele>
        <time>2011-07-24T12:11:36Z</time>
      </trkpt>
      <trkpt lat="43.76476" lon="6.99109">
        <ele>623.5524902</ele>
        <time>2011-07-24T12:11:38Z</time>
      </trkpt>
      <trkpt lat="43.76463" lon="6.99109">
        <ele>624.5136719</ele>
        <time>2011-07-24T12:11:43Z</time>
      </trkpt>
      <trkpt lat="43.76453" lon="6.9911">
        <ele>622.1103516</ele>
        <time>2011-07-24T12:11:47Z</time>
      </trkpt>
      <trkpt lat="43.76438" lon="6.99117">
        <ele>620.668457</ele>
        <time>2011-07-24T12:11:52Z</time>
      </trkpt>
      <trkpt lat="43.7643" lon="6.9912">
        <ele>618.7456055</ele>
        <time>2011-07-24T12:11:56Z</time>
      </trkpt>
      <trkpt lat="43.76426" lon="6.99112">
        <ele>615.8618164</ele>
        <time>2011-07-24T12:12:00Z</time>
      </trkpt>
      <trkpt lat="43.76429" lon="6.99103">
        <ele>611.5358887</ele>
        <time>2011-07-24T12:12:03Z</time>
      </trkpt>
      <trkpt lat="43.76427" lon="6.99098">
        <ele>608.1713867</ele>
        <time>2011-07-24T12:12:07Z</time>
      </trkpt>
      <trkpt lat="43.76424" lon="6.99093">
        <ele>604.3261719</ele>
        <time>2011-07-24T12:12:11Z</time>
      </trkpt>
      <trkpt lat="43.76432" lon="6.99076">
        <ele>596.635498</ele>
        <time>2011-07-24T12:12:16Z</time>
      </trkpt>
      <trkpt lat="43.76426" lon="6.99071">
        <ele>591.8288574</ele>
        <time>2011-07-24T12:12:20Z</time>
      </trkpt>
      <trkpt lat="43.76424" lon="6.9906">
        <ele>588.4643555</ele>
        <time>2011-07-24T12:12:23Z</time>
      </trkpt>
      <trkpt lat="43.76426" lon="6.99049">
        <ele>586.060791</ele>
        <time>2011-07-24T12:12:25Z</time>
      </trkpt>
      <trkpt lat="43.76432" lon="6.99036">
        <ele>583.1767578</ele>
        <time>2011-07-24T12:12:30Z</time>
      </trkpt>
      <trkpt lat="43.76432" lon="6.99036">
        <ele>583.1767578</ele>
        <time>2011-07-24T12:12:31Z</time>
      </trkpt>
      <trkpt lat="43.7642" lon="6.99038">
        <ele>585.0996094</ele>
        <time>2011-07-24T12:12:36Z</time>
      </trkpt>
      <trkpt lat="43.76411" lon="6.99032">
        <ele>583.6574707</ele>
        <time>2011-07-24T12:12:42Z</time>
      </trkpt>
      <trkpt lat="43.76398" lon="6.99033">
        <ele>583.1767578</ele>
        <time>2011-07-24T12:12:46Z</time>
      </trkpt>
      <trkpt lat="43.76387" lon="6.99043">
        <ele>581.7348633</ele>
        <time>2011-07-24T12:12:51Z</time>
      </trkpt>
      <trkpt lat="43.76383" lon="6.99047">
        <ele>582.2155762</ele>
        <time>2011-07-24T12:12:53Z</time>
      </trkpt>
      <trkpt lat="43.76378" lon="6.99033">
        <ele>576.9284668</ele>
        <time>2011-07-24T12:12:58Z</time>
      </trkpt>
      <trkpt lat="43.76378" lon="6.99017">
        <ele>571.6408691</ele>
        <time>2011-07-24T12:13:03Z</time>
      </trkpt>
      <trkpt lat="43.76381" lon="6.99006">
        <ele>566.3537598</ele>
        <time>2011-07-24T12:13:08Z</time>
      </trkpt>
      <trkpt lat="43.76386" lon="6.98996">
        <ele>562.5085449</ele>
        <time>2011-07-24T12:13:12Z</time>
      </trkpt>
      <trkpt lat="43.76384" lon="6.98995">
        <ele>561.0666504</ele>
        <time>2011-07-24T12:13:18Z</time>
      </trkpt>
      <trkpt lat="43.76383" lon="6.9899">
        <ele>560.1052246</ele>
        <time>2011-07-24T12:13:23Z</time>
      </trkpt>
      <trkpt lat="43.76382" lon="6.98988">
        <ele>560.5859375</ele>
        <time>2011-07-24T12:13:25Z</time>
      </trkpt>
      <trkpt lat="43.76378" lon="6.9899">
        <ele>562.0280762</ele>
        <time>2011-07-24T12:13:30Z</time>
      </trkpt>
      <trkpt lat="43.76377" lon="6.9899">
        <ele>564.4311523</ele>
        <time>2011-07-24T12:13:40Z</time>
      </trkpt>
      <trkpt lat="43.76375" lon="6.98989">
        <ele>567.7956543</ele>
        <time>2011-07-24T12:13:47Z</time>
      </trkpt>
      <trkpt lat="43.76376" lon="6.98992">
        <ele>563.9504395</ele>
        <time>2011-07-24T12:14:03Z</time>
      </trkpt>
      <trkpt lat="43.76379" lon="6.98993">
        <ele>557.2214355</ele>
        <time>2011-07-24T12:14:08Z</time>
      </trkpt>
      <trkpt lat="43.76371" lon="6.98995">
        <ele>560.1052246</ele>
        <time>2011-07-24T12:14:12Z</time>
      </trkpt>
      <trkpt lat="43.76368" lon="6.98994">
        <ele>558.1828613</ele>
        <time>2011-07-24T12:14:16Z</time>
      </trkpt>
      <trkpt lat="43.76368" lon="6.98991">
        <ele>557.7021484</ele>
        <time>2011-07-24T12:14:18Z</time>
      </trkpt>
      <trkpt lat="43.76366" lon="6.98989">
        <ele>554.8178711</ele>
        <time>2011-07-24T12:14:24Z</time>
      </trkpt>
      <trkpt lat="43.76361" lon="6.98991">
        <ele>555.298584</ele>
        <time>2011-07-24T12:14:30Z</time>
      </trkpt>
      <trkpt lat="43.76361" lon="6.98988">
        <ele>553.8566895</ele>
        <time>2011-07-24T12:14:35Z</time>
      </trkpt>
      <trkpt lat="43.76361" lon="6.98985">
        <ele>551.934082</ele>
        <time>2011-07-24T12:14:39Z</time>
      </trkpt>
      <trkpt lat="43.76357" lon="6.98989">
        <ele>551.934082</ele>
        <time>2011-07-24T12:14:42Z</time>
      </trkpt>
      <trkpt lat="43.76351" lon="6.98991">
        <ele>550.9726563</ele>
        <time>2011-07-24T12:14:44Z</time>
      </trkpt>
      <trkpt lat="43.76338" lon="6.99004">
        <ele>550.9726563</ele>
        <time>2011-07-24T12:14:49Z</time>
      </trkpt>
      <trkpt lat="43.76336" lon="6.99008">
        <ele>549.5307617</ele>
        <time>2011-07-24T12:14:51Z</time>
      </trkpt>
      <trkpt lat="43.76334" lon="6.9901">
        <ele>547.1274414</ele>
        <time>2011-07-24T12:14:56Z</time>
      </trkpt>
      <trkpt lat="43.76334" lon="6.99008">
        <ele>546.1662598</ele>
        <time>2011-07-24T12:14:59Z</time>
      </trkpt>
      <trkpt lat="43.7633" lon="6.98997">
        <ele>544.2436523</ele>
        <time>2011-07-24T12:15:04Z</time>
      </trkpt>
      <trkpt lat="43.7633" lon="6.99005">
        <ele>541.84021</ele>
        <time>2011-07-24T12:15:12Z</time>
      </trkpt>
      <trkpt lat="43.76333" lon="6.99012">
        <ele>537.5142822</ele>
        <time>2011-07-24T12:15:18Z</time>
      </trkpt>
      <trkpt lat="43.76335" lon="6.99014">
        <ele>536.0723877</ele>
        <time>2011-07-24T12:15:26Z</time>
      </trkpt>
      <trkpt lat="43.76334" lon="6.99014">
        <ele>537.0336914</ele>
        <time>2011-07-24T12:15:40Z</time>
      </trkpt>
      <trkpt lat="43.76333" lon="6.99011">
        <ele>537.0336914</ele>
        <time>2011-07-24T12:15:50Z</time>
      </trkpt>
      <trkpt lat="43.76332" lon="6.99009">
        <ele>537.0336914</ele>
        <time>2011-07-24T12:15:55Z</time>
      </trkpt>
      <trkpt lat="43.76331" lon="6.99007">
        <ele>537.9949951</ele>
        <time>2011-07-24T12:15:59Z</time>
      </trkpt>
      <trkpt lat="43.76331" lon="6.99009">
        <ele>537.9949951</ele>
        <time>2011-07-24T12:16:13Z</time>
      </trkpt>
      <trkpt lat="43.76331" lon="6.99008">
        <ele>537.9949951</ele>
        <time>2011-07-24T12:16:23Z</time>
      </trkpt>
      <trkpt lat="43.7633" lon="6.99006">
        <ele>538.9562988</ele>
        <time>2011-07-24T12:16:26Z</time>
      </trkpt>
      <trkpt lat="43.76329" lon="6.99004">
        <ele>539.4368896</ele>
        <time>2011-07-24T12:16:51Z</time>
      </trkpt>
      <trkpt lat="43.76324" lon="6.99019">
        <ele>537.5142822</ele>
        <time>2011-07-24T12:16:56Z</time>
      </trkpt>
      <trkpt lat="43.76317" lon="6.99046">
        <ele>534.6303711</ele>
        <time>2011-07-24T12:17:00Z</time>
      </trkpt>
      <trkpt lat="43.7631" lon="6.99067">
        <ele>533.1883545</ele>
        <time>2011-07-24T12:17:02Z</time>
      </trkpt>
      <trkpt lat="43.76289" lon="6.99081">
        <ele>532.7077637</ele>
        <time>2011-07-24T12:17:06Z</time>
      </trkpt>
      <trkpt lat="43.76282" lon="6.99092">
        <ele>531.2657471</ele>
        <time>2011-07-24T12:17:09Z</time>
      </trkpt>
      <trkpt lat="43.76273" lon="6.99101">
        <ele>532.2270508</ele>
        <time>2011-07-24T12:17:15Z</time>
      </trkpt>
      <trkpt lat="43.7627" lon="6.99108">
        <ele>533.1883545</ele>
        <time>2011-07-24T12:17:19Z</time>
      </trkpt>
      <trkpt lat="43.76264" lon="6.99123">
        <ele>532.7077637</ele>
        <time>2011-07-24T12:17:27Z</time>
      </trkpt>
      <trkpt lat="43.76258" lon="6.99135">
        <ele>532.7077637</ele>
        <time>2011-07-24T12:17:34Z</time>
      </trkpt>
      <trkpt lat="43.76257" lon="6.99136">
        <ele>532.7077637</ele>
        <time>2011-07-24T12:17:35Z</time>
      </trkpt>
      <trkpt lat="43.76248" lon="6.99146">
        <ele>534.6303711</ele>
        <time>2011-07-24T12:17:41Z</time>
      </trkpt>
      <trkpt lat="43.76244" lon="6.9915">
        <ele>535.5915527</ele>
        <time>2011-07-24T12:17:44Z</time>
      </trkpt>
      <trkpt lat="43.7624" lon="6.99154">
        <ele>536.0723877</ele>
        <time>2011-07-24T12:17:48Z</time>
      </trkpt>
      <trkpt lat="43.7623" lon="6.99162">
        <ele>538.9562988</ele>
        <time>2011-07-24T12:17:54Z</time>
      </trkpt>
      <trkpt lat="43.76219" lon="6.99175">
        <ele>539.9176025</ele>
        <time>2011-07-24T12:18:01Z</time>
      </trkpt>
      <trkpt lat="43.76204" lon="6.99187">
        <ele>540.8789063</ele>
        <time>2011-07-24T12:18:08Z</time>
      </trkpt>
      <trkpt lat="43.76185" lon="6.992">
        <ele>542.3209229</ele>
        <time>2011-07-24T12:18:14Z</time>
      </trkpt>
      <trkpt lat="43.76178" lon="6.99212">
        <ele>540.8789063</ele>
        <time>2011-07-24T12:18:19Z</time>
      </trkpt>
      <trkpt lat="43.76171" lon="6.99222">
        <ele>541.3594971</ele>
        <time>2011-07-24T12:18:25Z</time>
      </trkpt>
      <trkpt lat="43.76164" lon="6.99232">
        <ele>542.8015137</ele>
        <time>2011-07-24T12:18:32Z</time>
      </trkpt>
      <trkpt lat="43.76158" lon="6.99241">
        <ele>543.2821045</ele>
        <time>2011-07-24T12:18:37Z</time>
      </trkpt>
      <trkpt lat="43.76152" lon="6.99249">
        <ele>543.7628174</ele>
        <time>2011-07-24T12:18:43Z</time>
      </trkpt>
      <trkpt lat="43.76147" lon="6.99258">
        <ele>543.7628174</ele>
        <time>2011-07-24T12:18:49Z</time>
      </trkpt>
      <trkpt lat="43.76138" lon="6.99265">
        <ele>548.5693359</ele>
        <time>2011-07-24T12:18:57Z</time>
      </trkpt>
      <trkpt lat="43.76131" lon="6.99268">
        <ele>551.934082</ele>
        <time>2011-07-24T12:19:03Z</time>
      </trkpt>
      <trkpt lat="43.76128" lon="6.9927">
        <ele>553.8566895</ele>
        <time>2011-07-24T12:19:09Z</time>
      </trkpt>
      <trkpt lat="43.76123" lon="6.99272">
        <ele>557.7021484</ele>
        <time>2011-07-24T12:19:15Z</time>
      </trkpt>
      <trkpt lat="43.76121" lon="6.99275">
        <ele>558.1828613</ele>
        <time>2011-07-24T12:19:21Z</time>
      </trkpt>
      <trkpt lat="43.7612" lon="6.99278">
        <ele>554.3374023</ele>
        <time>2011-07-24T12:19:32Z</time>
      </trkpt>
      <trkpt lat="43.76118" lon="6.99281">
        <ele>555.7792969</ele>
        <time>2011-07-24T12:19:38Z</time>
      </trkpt>
      <trkpt lat="43.76114" lon="6.99284">
        <ele>558.6633301</ele>
        <time>2011-07-24T12:19:44Z</time>
      </trkpt>
      <trkpt lat="43.7611" lon="6.99286">
        <ele>561.0666504</ele>
        <time>2011-07-24T12:19:48Z</time>
      </trkpt>
      <trkpt lat="43.76107" lon="6.99289">
        <ele>562.0280762</ele>
        <time>2011-07-24T12:19:53Z</time>
      </trkpt>
      <trkpt lat="43.76104" lon="6.99289">
        <ele>562.9892578</ele>
        <time>2011-07-24T12:19:58Z</time>
      </trkpt>
      <trkpt lat="43.76099" lon="6.99289">
        <ele>564.4311523</ele>
        <time>2011-07-24T12:20:04Z</time>
      </trkpt>
      <trkpt lat="43.76095" lon="6.99291">
        <ele>565.873291</ele>
        <time>2011-07-24T12:20:10Z</time>
      </trkpt>
      <trkpt lat="43.76092" lon="6.99291">
        <ele>567.3151855</ele>
        <time>2011-07-24T12:20:15Z</time>
      </trkpt>
      <trkpt lat="43.76088" lon="6.99292">
        <ele>569.7185059</ele>
        <time>2011-07-24T12:20:23Z</time>
      </trkpt>
      <trkpt lat="43.76085" lon="6.99293">
        <ele>569.7185059</ele>
        <time>2011-07-24T12:20:28Z</time>
      </trkpt>
      <trkpt lat="43.7608" lon="6.99297">
        <ele>568.7570801</ele>
        <time>2011-07-24T12:20:34Z</time>
      </trkpt>
      <trkpt lat="43.76077" lon="6.99299">
        <ele>568.2763672</ele>
        <time>2011-07-24T12:20:38Z</time>
      </trkpt>
      <trkpt lat="43.76071" lon="6.99301">
        <ele>569.7185059</ele>
        <time>2011-07-24T12:20:44Z</time>
      </trkpt>
      <trkpt lat="43.76066" lon="6.99303">
        <ele>572.1218262</ele>
        <time>2011-07-24T12:20:51Z</time>
      </trkpt>
      <trkpt lat="43.76061" lon="6.99304">
        <ele>572.1218262</ele>
        <time>2011-07-24T12:20:57Z</time>
      </trkpt>
      <trkpt lat="43.76057" lon="6.99306">
        <ele>572.1218262</ele>
        <time>2011-07-24T12:21:02Z</time>
      </trkpt>
      <trkpt lat="43.76053" lon="6.99307">
        <ele>573.083252</ele>
        <time>2011-07-24T12:21:10Z</time>
      </trkpt>
      <trkpt lat="43.76048" lon="6.99308">
        <ele>574.5251465</ele>
        <time>2011-07-24T12:21:17Z</time>
      </trkpt>
      <trkpt lat="43.76044" lon="6.9931">
        <ele>574.5251465</ele>
        <time>2011-07-24T12:21:23Z</time>
      </trkpt>
      <trkpt lat="43.7604" lon="6.99314">
        <ele>574.5251465</ele>
        <time>2011-07-24T12:21:29Z</time>
      </trkpt>
      <trkpt lat="43.76038" lon="6.9932">
        <ele>572.1218262</ele>
        <time>2011-07-24T12:21:36Z</time>
      </trkpt>
      <trkpt lat="43.76034" lon="6.99323">
        <ele>573.5639648</ele>
        <time>2011-07-24T12:21:43Z</time>
      </trkpt>
      <trkpt lat="43.76031" lon="6.99325">
        <ele>575.0058594</ele>
        <time>2011-07-24T12:21:50Z</time>
      </trkpt>
      <trkpt lat="43.76027" lon="6.99328">
        <ele>575.967041</ele>
        <time>2011-07-24T12:21:57Z</time>
      </trkpt>
      <trkpt lat="43.7602" lon="6.99331">
        <ele>579.331543</ele>
        <time>2011-07-24T12:22:05Z</time>
      </trkpt>
      <trkpt lat="43.76017" lon="6.99332">
        <ele>582.6962891</ele>
        <time>2011-07-24T12:22:12Z</time>
      </trkpt>
      <trkpt lat="43.76014" lon="6.99331">
        <ele>584.1381836</ele>
        <time>2011-07-24T12:22:18Z</time>
      </trkpt>
      <trkpt lat="43.76009" lon="6.99332">
        <ele>584.1381836</ele>
        <time>2011-07-24T12:22:24Z</time>
      </trkpt>
      <trkpt lat="43.76" lon="6.99331">
        <ele>584.1381836</ele>
        <time>2011-07-24T12:22:31Z</time>
      </trkpt>
      <trkpt lat="43.7599" lon="6.99328">
        <ele>582.2155762</ele>
        <time>2011-07-24T12:22:38Z</time>
      </trkpt>
      <trkpt lat="43.7598" lon="6.99332">
        <ele>581.7348633</ele>
        <time>2011-07-24T12:22:45Z</time>
      </trkpt>
      <trkpt lat="43.75971" lon="6.99335">
        <ele>582.2155762</ele>
        <time>2011-07-24T12:22:51Z</time>
      </trkpt>
      <trkpt lat="43.75958" lon="6.99347">
        <ele>584.1381836</ele>
        <time>2011-07-24T12:22:56Z</time>
      </trkpt>
      <trkpt lat="43.75948" lon="6.99359">
        <ele>587.9833984</ele>
        <time>2011-07-24T12:23:00Z</time>
      </trkpt>
      <trkpt lat="43.75946" lon="6.99361">
        <ele>588.4643555</ele>
        <time>2011-07-24T12:23:01Z</time>
      </trkpt>
      <trkpt lat="43.75932" lon="6.9937">
        <ele>595.6740723</ele>
        <time>2011-07-24T12:23:07Z</time>
      </trkpt>
      <trkpt lat="43.7593" lon="6.9937">
        <ele>596.635498</ele>
        <time>2011-07-24T12:23:08Z</time>
      </trkpt>
      <trkpt lat="43.75911" lon="6.99364">
        <ele>596.635498</ele>
        <time>2011-07-24T12:23:15Z</time>
      </trkpt>
      <trkpt lat="43.75902" lon="6.99356">
        <ele>595.6740723</ele>
        <time>2011-07-24T12:23:22Z</time>
      </trkpt>
      <trkpt lat="43.75896" lon="6.99351">
        <ele>593.270752</ele>
        <time>2011-07-24T12:23:29Z</time>
      </trkpt>
      <trkpt lat="43.7589" lon="6.99348">
        <ele>590.8674316</ele>
        <time>2011-07-24T12:23:34Z</time>
      </trkpt>
      <trkpt lat="43.7588" lon="6.99345">
        <ele>588.4643555</ele>
        <time>2011-07-24T12:23:40Z</time>
      </trkpt>
      <trkpt lat="43.7586" lon="6.99346">
        <ele>587.5026855</ele>
        <time>2011-07-24T12:23:44Z</time>
      </trkpt>
      <trkpt lat="43.7583" lon="6.99354">
        <ele>586.060791</ele>
        <time>2011-07-24T12:23:49Z</time>
      </trkpt>
      <trkpt lat="43.7582" lon="6.99357">
        <ele>584.6188965</ele>
        <time>2011-07-24T12:23:51Z</time>
      </trkpt>
      <trkpt lat="43.7581" lon="6.9936">
        <ele>584.1381836</ele>
        <time>2011-07-24T12:23:53Z</time>
      </trkpt>
      <trkpt lat="43.75778" lon="6.99363">
        <ele>585.0996094</ele>
        <time>2011-07-24T12:23:58Z</time>
      </trkpt>
      <trkpt lat="43.75771" lon="6.99362">
        <ele>582.6962891</ele>
        <time>2011-07-24T12:24:00Z</time>
      </trkpt>
      <trkpt lat="43.75753" lon="6.99365">
        <ele>583.6574707</ele>
        <time>2011-07-24T12:24:06Z</time>
      </trkpt>
      <trkpt lat="43.75738" lon="6.99377">
        <ele>580.2929688</ele>
        <time>2011-07-24T12:24:12Z</time>
      </trkpt>
      <trkpt lat="43.75729" lon="6.99388">
        <ele>578.3703613</ele>
        <time>2011-07-24T12:24:16Z</time>
      </trkpt>
      <trkpt lat="43.75721" lon="6.99402">
        <ele>576.9284668</ele>
        <time>2011-07-24T12:24:21Z</time>
      </trkpt>
      <trkpt lat="43.75709" lon="6.99419">
        <ele>577.4091797</ele>
        <time>2011-07-24T12:24:27Z</time>
      </trkpt>
      <trkpt lat="43.75696" lon="6.99438">
        <ele>575.967041</ele>
        <time>2011-07-24T12:24:34Z</time>
      </trkpt>
      <trkpt lat="43.75685" lon="6.99455">
        <ele>576.9284668</ele>
        <time>2011-07-24T12:24:40Z</time>
      </trkpt>
      <trkpt lat="43.75671" lon="6.99472">
        <ele>576.4477539</ele>
        <time>2011-07-24T12:24:44Z</time>
      </trkpt>
      <trkpt lat="43.75658" lon="6.99485">
        <ele>575.0058594</ele>
        <time>2011-07-24T12:24:47Z</time>
      </trkpt>
      <trkpt lat="43.75643" lon="6.9951">
        <ele>573.083252</ele>
        <time>2011-07-24T12:24:51Z</time>
      </trkpt>
      <trkpt lat="43.75639" lon="6.9952">
        <ele>573.083252</ele>
        <time>2011-07-24T12:24:52Z</time>
      </trkpt>
      <trkpt lat="43.75632" lon="6.9954">
        <ele>572.6025391</ele>
        <time>2011-07-24T12:24:54Z</time>
      </trkpt>
      <trkpt lat="43.75614" lon="6.99577">
        <ele>572.6025391</ele>
        <time>2011-07-24T12:24:58Z</time>
      </trkpt>
      <trkpt lat="43.75579" lon="6.9961">
        <ele>571.1604004</ele>
        <time>2011-07-24T12:25:04Z</time>
      </trkpt>
      <trkpt lat="43.75566" lon="6.99624">
        <ele>568.7570801</ele>
        <time>2011-07-24T12:25:07Z</time>
      </trkpt>
      <trkpt lat="43.75553" lon="6.99636">
        <ele>568.2763672</ele>
        <time>2011-07-24T12:25:11Z</time>
      </trkpt>
      <trkpt lat="43.75545" lon="6.99653">
        <ele>567.3151855</ele>
        <time>2011-07-24T12:25:17Z</time>
      </trkpt>
      <trkpt lat="43.75542" lon="6.99672">
        <ele>568.2763672</ele>
        <time>2011-07-24T12:25:21Z</time>
      </trkpt>
      <trkpt lat="43.75543" lon="6.99696">
        <ele>572.6025391</ele>
        <time>2011-07-24T12:25:25Z</time>
      </trkpt>
      <trkpt lat="43.75545" lon="6.9971">
        <ele>572.6025391</ele>
        <time>2011-07-24T12:25:27Z</time>
      </trkpt>
      <trkpt lat="43.75544" lon="6.99764">
        <ele>574.0444336</ele>
        <time>2011-07-24T12:25:33Z</time>
      </trkpt>
      <trkpt lat="43.7554" lon="6.99818">
        <ele>567.7956543</ele>
        <time>2011-07-24T12:25:38Z</time>
      </trkpt>
      <trkpt lat="43.75536" lon="6.99841">
        <ele>563.9504395</ele>
        <time>2011-07-24T12:25:40Z</time>
      </trkpt>
      <trkpt lat="43.75527" lon="6.9986">
        <ele>561.5473633</ele>
        <time>2011-07-24T12:25:42Z</time>
      </trkpt>
      <trkpt lat="43.75513" lon="6.9987">
        <ele>559.6247559</ele>
        <time>2011-07-24T12:25:45Z</time>
      </trkpt>
      <trkpt lat="43.75502" lon="6.99887">
        <ele>558.1828613</ele>
        <time>2011-07-24T12:25:50Z</time>
      </trkpt>
      <trkpt lat="43.75501" lon="6.9989">
        <ele>558.1828613</ele>
        <time>2011-07-24T12:25:51Z</time>
      </trkpt>
      <trkpt lat="43.75491" lon="6.99901">
        <ele>561.5473633</ele>
        <time>2011-07-24T12:25:57Z</time>
      </trkpt>
      <trkpt lat="43.75478" lon="6.99903">
        <ele>569.7185059</ele>
        <time>2011-07-24T12:26:02Z</time>
      </trkpt>
      <trkpt lat="43.75469" lon="6.99906">
        <ele>572.1218262</ele>
        <time>2011-07-24T12:26:08Z</time>
      </trkpt>
      <trkpt lat="43.75461" lon="6.99908">
        <ele>576.4477539</ele>
        <time>2011-07-24T12:26:13Z</time>
      </trkpt>
      <trkpt lat="43.75457" lon="6.9991">
        <ele>578.3703613</ele>
        <time>2011-07-24T12:26:15Z</time>
      </trkpt>
      <trkpt lat="43.75453" lon="6.99911">
        <ele>579.331543</ele>
        <time>2011-07-24T12:26:21Z</time>
      </trkpt>
      <trkpt lat="43.75449" lon="6.99914">
        <ele>580.2929688</ele>
        <time>2011-07-24T12:26:33Z</time>
      </trkpt>
      <trkpt lat="43.75439" lon="6.99921">
        <ele>577.8896484</ele>
        <time>2011-07-24T12:26:38Z</time>
      </trkpt>
      <trkpt lat="43.75429" lon="6.99944">
        <ele>570.6796875</ele>
        <time>2011-07-24T12:26:44Z</time>
      </trkpt>
      <trkpt lat="43.75419" lon="6.99968">
        <ele>568.2763672</ele>
        <time>2011-07-24T12:26:48Z</time>
      </trkpt>
      <trkpt lat="43.75411" lon="6.99991">
        <ele>565.3925781</ele>
        <time>2011-07-24T12:26:51Z</time>
      </trkpt>
      <trkpt lat="43.75388" lon="6.99995">
        <ele>562.9892578</ele>
        <time>2011-07-24T12:26:54Z</time>
      </trkpt>
      <trkpt lat="43.75376" lon="6.99991">
        <ele>561.0666504</ele>
        <time>2011-07-24T12:26:57Z</time>
      </trkpt>
      <trkpt lat="43.75362" lon="6.9999">
        <ele>555.7792969</ele>
        <time>2011-07-24T12:27:03Z</time>
      </trkpt>
      <trkpt lat="43.75362" lon="6.99995">
        <ele>557.7021484</ele>
        <time>2011-07-24T12:27:06Z</time>
      </trkpt>
      <trkpt lat="43.75364" lon="6.99996">
        <ele>556.7407227</ele>
        <time>2011-07-24T12:27:07Z</time>
      </trkpt>
      <trkpt lat="43.75379" lon="7.00009">
        <ele>555.7792969</ele>
        <time>2011-07-24T12:27:13Z</time>
      </trkpt>
      <trkpt lat="43.7539" lon="7.00026">
        <ele>554.3374023</ele>
        <time>2011-07-24T12:27:18Z</time>
      </trkpt>
      <trkpt lat="43.75394" lon="7.00048">
        <ele>553.8566895</ele>
        <time>2011-07-24T12:27:24Z</time>
      </trkpt>
      <trkpt lat="43.75393" lon="7.00083">
        <ele>553.8566895</ele>
        <time>2011-07-24T12:27:33Z</time>
      </trkpt>
      <trkpt lat="43.75393" lon="7.00111">
        <ele>555.298584</ele>
        <time>2011-07-24T12:27:40Z</time>
      </trkpt>
      <trkpt lat="43.75392" lon="7.00133">
        <ele>557.2214355</ele>
        <time>2011-07-24T12:27:46Z</time>
      </trkpt>
      <trkpt lat="43.75396" lon="7.00156">
        <ele>558.6633301</ele>
        <time>2011-07-24T12:27:53Z</time>
      </trkpt>
      <trkpt lat="43.75403" lon="7.00179">
        <ele>560.1052246</ele>
        <time>2011-07-24T12:28:00Z</time>
      </trkpt>
      <trkpt lat="43.75415" lon="7.00201">
        <ele>561.5473633</ele>
        <time>2011-07-24T12:28:08Z</time>
      </trkpt>
      <trkpt lat="43.75424" lon="7.0022">
        <ele>563.9504395</ele>
        <time>2011-07-24T12:28:15Z</time>
      </trkpt>
      <trkpt lat="43.7543" lon="7.00238">
        <ele>567.7956543</ele>
        <time>2011-07-24T12:28:21Z</time>
      </trkpt>
      <trkpt lat="43.75432" lon="7.00266">
        <ele>570.6796875</ele>
        <time>2011-07-24T12:28:29Z</time>
      </trkpt>
      <trkpt lat="43.75428" lon="7.00291">
        <ele>568.7570801</ele>
        <time>2011-07-24T12:28:36Z</time>
      </trkpt>
      <trkpt lat="43.75415" lon="7.00326">
        <ele>564.9118652</ele>
        <time>2011-07-24T12:28:48Z</time>
      </trkpt>
      <trkpt lat="43.75406" lon="7.00347">
        <ele>565.873291</ele>
        <time>2011-07-24T12:28:55Z</time>
      </trkpt>
      <trkpt lat="43.75393" lon="7.00368">
        <ele>569.237793</ele>
        <time>2011-07-24T12:29:03Z</time>
      </trkpt>
      <trkpt lat="43.75385" lon="7.00385">
        <ele>568.7570801</ele>
        <time>2011-07-24T12:29:09Z</time>
      </trkpt>
      <trkpt lat="43.75381" lon="7.00403">
        <ele>567.7956543</ele>
        <time>2011-07-24T12:29:14Z</time>
      </trkpt>
      <trkpt lat="43.75369" lon="7.00429">
        <ele>566.3537598</ele>
        <time>2011-07-24T12:29:23Z</time>
      </trkpt>
      <trkpt lat="43.75361" lon="7.00443">
        <ele>567.3151855</ele>
        <time>2011-07-24T12:29:28Z</time>
      </trkpt>
      <trkpt lat="43.75349" lon="7.00471">
        <ele>568.7570801</ele>
        <time>2011-07-24T12:29:37Z</time>
      </trkpt>
      <trkpt lat="43.75333" lon="7.005">
        <ele>570.6796875</ele>
        <time>2011-07-24T12:29:47Z</time>
      </trkpt>
      <trkpt lat="43.75317" lon="7.00526">
        <ele>571.1604004</ele>
        <time>2011-07-24T12:29:56Z</time>
      </trkpt>
      <trkpt lat="43.75298" lon="7.00554">
        <ele>572.6025391</ele>
        <time>2011-07-24T12:30:06Z</time>
      </trkpt>
      <trkpt lat="43.75279" lon="7.00573">
        <ele>572.6025391</ele>
        <time>2011-07-24T12:30:15Z</time>
      </trkpt>
      <trkpt lat="43.75262" lon="7.00588">
        <ele>570.1989746</ele>
        <time>2011-07-24T12:30:23Z</time>
      </trkpt>
      <trkpt lat="43.75245" lon="7.006">
        <ele>570.1989746</ele>
        <time>2011-07-24T12:30:30Z</time>
      </trkpt>
      <trkpt lat="43.75227" lon="7.00613">
        <ele>569.237793</ele>
        <time>2011-07-24T12:30:39Z</time>
      </trkpt>
      <trkpt lat="43.75211" lon="7.00624">
        <ele>570.1989746</ele>
        <time>2011-07-24T12:30:46Z</time>
      </trkpt>
      <trkpt lat="43.75196" lon="7.00633">
        <ele>569.7185059</ele>
        <time>2011-07-24T12:30:53Z</time>
      </trkpt>
      <trkpt lat="43.75176" lon="7.00643">
        <ele>572.1218262</ele>
        <time>2011-07-24T12:31:02Z</time>
      </trkpt>
      <trkpt lat="43.75159" lon="7.00653">
        <ele>571.1604004</ele>
        <time>2011-07-24T12:31:10Z</time>
      </trkpt>
      <trkpt lat="43.75139" lon="7.00664">
        <ele>571.6408691</ele>
        <time>2011-07-24T12:31:19Z</time>
      </trkpt>
      <trkpt lat="43.75125" lon="7.00671">
        <ele>572.1218262</ele>
        <time>2011-07-24T12:31:25Z</time>
      </trkpt>
      <trkpt lat="43.75104" lon="7.00678">
        <ele>576.9284668</ele>
        <time>2011-07-24T12:31:33Z</time>
      </trkpt>
      <trkpt lat="43.75086" lon="7.0068">
        <ele>584.6188965</ele>
        <time>2011-07-24T12:31:40Z</time>
      </trkpt>
      <trkpt lat="43.75068" lon="7.00682">
        <ele>586.060791</ele>
        <time>2011-07-24T12:31:47Z</time>
      </trkpt>
      <trkpt lat="43.75044" lon="7.00686">
        <ele>592.3095703</ele>
        <time>2011-07-24T12:31:55Z</time>
      </trkpt>
      <trkpt lat="43.75023" lon="7.0069">
        <ele>592.7902832</ele>
        <time>2011-07-24T12:32:03Z</time>
      </trkpt>
      <trkpt lat="43.75006" lon="7.00695">
        <ele>593.7514648</ele>
        <time>2011-07-24T12:32:10Z</time>
      </trkpt>
      <trkpt lat="43.74991" lon="7.00699">
        <ele>592.3095703</ele>
        <time>2011-07-24T12:32:17Z</time>
      </trkpt>
      <trkpt lat="43.7497" lon="7.00699">
        <ele>593.270752</ele>
        <time>2011-07-24T12:32:26Z</time>
      </trkpt>
      <trkpt lat="43.74954" lon="7.00695">
        <ele>594.7126465</ele>
        <time>2011-07-24T12:32:33Z</time>
      </trkpt>
      <trkpt lat="43.74941" lon="7.00693">
        <ele>594.2321777</ele>
        <time>2011-07-24T12:32:39Z</time>
      </trkpt>
      <trkpt lat="43.74929" lon="7.007">
        <ele>595.1933594</ele>
        <time>2011-07-24T12:32:45Z</time>
      </trkpt>
      <trkpt lat="43.74911" lon="7.00711">
        <ele>596.635498</ele>
        <time>2011-07-24T12:32:54Z</time>
      </trkpt>
      <trkpt lat="43.74892" lon="7.00715">
        <ele>597.5966797</ele>
        <time>2011-07-24T12:33:02Z</time>
      </trkpt>
      <trkpt lat="43.74875" lon="7.00716">
        <ele>600.9611816</ele>
        <time>2011-07-24T12:33:09Z</time>
      </trkpt>
      <trkpt lat="43.74866" lon="7.00728">
        <ele>600.4807129</ele>
        <time>2011-07-24T12:33:15Z</time>
      </trkpt>
      <trkpt lat="43.74857" lon="7.00747">
        <ele>599.5192871</ele>
        <time>2011-07-24T12:33:22Z</time>
      </trkpt>
      <trkpt lat="43.74855" lon="7.00765">
        <ele>598.0773926</ele>
        <time>2011-07-24T12:33:28Z</time>
      </trkpt>
      <trkpt lat="43.74861" lon="7.00788">
        <ele>597.5966797</ele>
        <time>2011-07-24T12:33:35Z</time>
      </trkpt>
      <trkpt lat="43.74859" lon="7.00805">
        <ele>599.5192871</ele>
        <time>2011-07-24T12:33:40Z</time>
      </trkpt>
      <trkpt lat="43.74849" lon="7.00815">
        <ele>600</ele>
        <time>2011-07-24T12:33:45Z</time>
      </trkpt>
      <trkpt lat="43.74833" lon="7.00822">
        <ele>599.0385742</ele>
        <time>2011-07-24T12:33:52Z</time>
      </trkpt>
      <trkpt lat="43.74816" lon="7.00826">
        <ele>601.9226074</ele>
        <time>2011-07-24T12:33:59Z</time>
      </trkpt>
      <trkpt lat="43.74799" lon="7.00824">
        <ele>602.8837891</ele>
        <time>2011-07-24T12:34:06Z</time>
      </trkpt>
      <trkpt lat="43.74779" lon="7.00814">
        <ele>605.7680664</ele>
        <time>2011-07-24T12:34:14Z</time>
      </trkpt>
      <trkpt lat="43.74762" lon="7.00814">
        <ele>605.7680664</ele>
        <time>2011-07-24T12:34:21Z</time>
      </trkpt>
      <trkpt lat="43.74745" lon="7.0083">
        <ele>605.2873535</ele>
        <time>2011-07-24T12:34:29Z</time>
      </trkpt>
      <trkpt lat="43.74726" lon="7.00845">
        <ele>607.2099609</ele>
        <time>2011-07-24T12:34:38Z</time>
      </trkpt>
      <trkpt lat="43.74711" lon="7.00862">
        <ele>607.2099609</ele>
        <time>2011-07-24T12:34:46Z</time>
      </trkpt>
      <trkpt lat="43.74696" lon="7.00875">
        <ele>608.1713867</ele>
        <time>2011-07-24T12:34:54Z</time>
      </trkpt>
      <trkpt lat="43.74683" lon="7.00888">
        <ele>608.6518555</ele>
        <time>2011-07-24T12:35:02Z</time>
      </trkpt>
      <trkpt lat="43.74674" lon="7.00903">
        <ele>607.2099609</ele>
        <time>2011-07-24T12:35:10Z</time>
      </trkpt>
      <trkpt lat="43.74665" lon="7.00916">
        <ele>607.2099609</ele>
        <time>2011-07-24T12:35:17Z</time>
      </trkpt>
      <trkpt lat="43.74649" lon="7.00927">
        <ele>610.5744629</ele>
        <time>2011-07-24T12:35:26Z</time>
      </trkpt>
      <trkpt lat="43.74635" lon="7.00934">
        <ele>612.9777832</ele>
        <time>2011-07-24T12:35:33Z</time>
      </trkpt>
      <trkpt lat="43.74623" lon="7.0094">
        <ele>616.822998</ele>
        <time>2011-07-24T12:35:39Z</time>
      </trkpt>
      <trkpt lat="43.7461" lon="7.00947">
        <ele>619.2263184</ele>
        <time>2011-07-24T12:35:46Z</time>
      </trkpt>
      <trkpt lat="43.74599" lon="7.00952">
        <ele>620.1877441</ele>
        <time>2011-07-24T12:35:53Z</time>
      </trkpt>
      <trkpt lat="43.74583" lon="7.00953">
        <ele>620.668457</ele>
        <time>2011-07-24T12:36:02Z</time>
      </trkpt>
      <trkpt lat="43.74568" lon="7.0095">
        <ele>619.2263184</ele>
        <time>2011-07-24T12:36:12Z</time>
      </trkpt>
      <trkpt lat="43.74554" lon="7.00943">
        <ele>621.1491699</ele>
        <time>2011-07-24T12:36:20Z</time>
      </trkpt>
      <trkpt lat="43.74538" lon="7.0093">
        <ele>623.0717773</ele>
        <time>2011-07-24T12:36:30Z</time>
      </trkpt>
      <trkpt lat="43.74527" lon="7.0092">
        <ele>623.5524902</ele>
        <time>2011-07-24T12:36:37Z</time>
      </trkpt>
      <trkpt lat="43.74516" lon="7.00914">
        <ele>624.5136719</ele>
        <time>2011-07-24T12:36:43Z</time>
      </trkpt>
      <trkpt lat="43.74505" lon="7.00911">
        <ele>625.4748535</ele>
        <time>2011-07-24T12:36:50Z</time>
      </trkpt>
      <trkpt lat="43.74492" lon="7.0091">
        <ele>627.3977051</ele>
        <time>2011-07-24T12:36:57Z</time>
      </trkpt>
      <trkpt lat="43.74479" lon="7.00908">
        <ele>631.7233887</ele>
        <time>2011-07-24T12:37:04Z</time>
      </trkpt>
      <trkpt lat="43.74471" lon="7.00907">
        <ele>635.0881348</ele>
        <time>2011-07-24T12:37:09Z</time>
      </trkpt>
      <trkpt lat="43.74457" lon="7.00907">
        <ele>637.4914551</ele>
        <time>2011-07-24T12:37:16Z</time>
      </trkpt>
      <trkpt lat="43.74438" lon="7.00905">
        <ele>638.4528809</ele>
        <time>2011-07-24T12:37:25Z</time>
      </trkpt>
      <trkpt lat="43.74422" lon="7.00902">
        <ele>638.9335938</ele>
        <time>2011-07-24T12:37:33Z</time>
      </trkpt>
      <trkpt lat="43.74409" lon="7.00896">
        <ele>636.5302734</ele>
        <time>2011-07-24T12:37:42Z</time>
      </trkpt>
      <trkpt lat="43.74402" lon="7.00893">
        <ele>634.6074219</ele>
        <time>2011-07-24T12:37:47Z</time>
      </trkpt>
      <trkpt lat="43.74394" lon="7.00897">
        <ele>635.0881348</ele>
        <time>2011-07-24T12:37:52Z</time>
      </trkpt>
      <trkpt lat="43.74384" lon="7.00903">
        <ele>634.6074219</ele>
        <time>2011-07-24T12:37:59Z</time>
      </trkpt>
      <trkpt lat="43.74378" lon="7.00905">
        <ele>635.5686035</ele>
        <time>2011-07-24T12:38:03Z</time>
      </trkpt>
      <trkpt lat="43.7437" lon="7.00905">
        <ele>635.0881348</ele>
        <time>2011-07-24T12:38:10Z</time>
      </trkpt>
      <trkpt lat="43.74361" lon="7.00902">
        <ele>634.6074219</ele>
        <time>2011-07-24T12:38:18Z</time>
      </trkpt>
      <trkpt lat="43.74358" lon="7.00902">
        <ele>635.5686035</ele>
        <time>2011-07-24T12:38:20Z</time>
      </trkpt>
      <trkpt lat="43.74356" lon="7.00894">
        <ele>636.0495605</ele>
        <time>2011-07-24T12:38:25Z</time>
      </trkpt>
    </trkseg>
  </trk>
</gpx>